<?xml version='1.0' encoding='UTF-8'?><gpx version="1.1" creator="JPX - https://github.com/jenetics/jpx" xmlns="http://www.topografix.com/GPX/1/1"><trk><trkseg><trkpt lat="42.2890476" lon="13.5617172"><ele>681.0</ele><time>2026-04-26T16:21:39.804Z</time></trkpt><trkpt lat="42.2890147" lon="13.5615854"><ele>681.0</ele><time>2026-04-26T16:21:41.87Z</time></trkpt><trkpt lat="42.2890124" lon="13.5614728"><ele>681.0</ele><time>2026-04-26T16:21:44.804Z</time></trkpt><trkpt lat="42.2889865" lon="13.561289"><ele>681.0</ele><time>2026-04-26T16:21:46.868Z</time></trkpt><trkpt lat="42.2889715" lon="13.5612021"><ele>681.0</ele><time>2026-04-26T16:21:47.869Z</time></trkpt><trkpt lat="42.2889633" lon="13.5611071"><ele>680.6666666666666</ele><time>2026-04-26T16:21:48.869Z</time></trkpt><trkpt lat="42.2889585" lon="13.5610081"><ele>680.3333333333334</ele><time>2026-04-26T16:21:49.869Z</time></trkpt><trkpt lat="42.2889532" lon="13.5609064"><ele>680.0</ele><time>2026-04-26T16:21:50.868Z</time></trkpt><trkpt lat="42.2889482" lon="13.5607984"><ele>679.6666666666667</ele><time>2026-04-26T16:21:51.869Z</time></trkpt><trkpt lat="42.2889444" lon="13.5606929"><ele>679.3333333333334</ele><time>2026-04-26T16:21:52.868Z</time></trkpt><trkpt lat="42.2889435" lon="13.5605819"><ele>679.0</ele><time>2026-04-26T16:21:53.869Z</time></trkpt><trkpt lat="42.288947" lon="13.5604626"><ele>679.1666666666667</ele><time>2026-04-26T16:21:54.869Z</time></trkpt><trkpt lat="42.2889509" lon="13.5603519"><ele>679.3333333333334</ele><time>2026-04-26T16:21:55.868Z</time></trkpt><trkpt lat="42.2889532" lon="13.5602496"><ele>679.5</ele><time>2026-04-26T16:21:56.87Z</time></trkpt><trkpt lat="42.2889553" lon="13.5601518"><ele>679.6666666666666</ele><time>2026-04-26T16:21:57.869Z</time></trkpt><trkpt lat="42.288964" lon="13.5600631"><ele>679.8333333333333</ele><time>2026-04-26T16:21:58.87Z</time></trkpt><trkpt lat="42.2889757" lon="13.5599026"><ele>680.0</ele><time>2026-04-26T16:22:00.869Z</time></trkpt><trkpt lat="42.2889837" lon="13.5598177"><ele>680.0</ele><time>2026-04-26T16:22:01.869Z</time></trkpt><trkpt lat="42.2889969" lon="13.5597269"><ele>680.0</ele><time>2026-04-26T16:22:02.868Z</time></trkpt><trkpt lat="42.2890116" lon="13.5596314"><ele>680.0</ele><time>2026-04-26T16:22:03.869Z</time></trkpt><trkpt lat="42.2890338" lon="13.5595364"><ele>680.0</ele><time>2026-04-26T16:22:04.869Z</time></trkpt><trkpt lat="42.2890551" lon="13.559444"><ele>680.0</ele><time>2026-04-26T16:22:05.868Z</time></trkpt><trkpt lat="42.2890756" lon="13.5593576"><ele>680.0</ele><time>2026-04-26T16:22:06.869Z</time></trkpt><trkpt lat="42.2891008" lon="13.5592794"><ele>680.0</ele><time>2026-04-26T16:22:07.869Z</time></trkpt><trkpt lat="42.2891461" lon="13.559122"><ele>678.2</ele><time>2026-04-26T16:22:09.869Z</time></trkpt><trkpt lat="42.2891672" lon="13.5590418"><ele>676.4</ele><time>2026-04-26T16:22:10.87Z</time></trkpt><trkpt lat="42.2892034" lon="13.5588869"><ele>674.5999999999999</ele><time>2026-04-26T16:22:12.869Z</time></trkpt><trkpt lat="42.2892518" lon="13.5587409"><ele>672.8</ele><time>2026-04-26T16:22:14.869Z</time></trkpt><trkpt lat="42.2892783" lon="13.5586636"><ele>671.0</ele><time>2026-04-26T16:22:15.869Z</time></trkpt><trkpt lat="42.289346" lon="13.558529"><ele>669.5</ele><time>2026-04-26T16:22:17.87Z</time></trkpt><trkpt lat="42.289433" lon="13.5584122"><ele>668.0</ele><time>2026-04-26T16:22:19.869Z</time></trkpt><trkpt lat="42.2895277" lon="13.558322"><ele>666.5</ele><time>2026-04-26T16:22:21.869Z</time></trkpt><trkpt lat="42.2896173" lon="13.5582381"><ele>665.0</ele><time>2026-04-26T16:22:23.868Z</time></trkpt><trkpt lat="42.2897076" lon="13.5581668"><ele>665.3333333333333</ele><time>2026-04-26T16:22:25.869Z</time></trkpt><trkpt lat="42.2897891" lon="13.5581003"><ele>665.6666666666666</ele><time>2026-04-26T16:22:27.868Z</time></trkpt><trkpt lat="42.2898421" lon="13.5579811"><ele>666.0</ele><time>2026-04-26T16:22:29.868Z</time></trkpt><trkpt lat="42.2898558" lon="13.5578919"><ele>666.3333333333334</ele><time>2026-04-26T16:22:30.87Z</time></trkpt><trkpt lat="42.2898564" lon="13.5577955"><ele>666.6666666666667</ele><time>2026-04-26T16:22:31.869Z</time></trkpt><trkpt lat="42.2898448" lon="13.5577103"><ele>667.0</ele><time>2026-04-26T16:22:32.869Z</time></trkpt><trkpt lat="42.2898035" lon="13.5576457"><ele>663.25</ele><time>2026-04-26T16:22:33.869Z</time></trkpt><trkpt lat="42.2897081" lon="13.5575423"><ele>659.5</ele><time>2026-04-26T16:22:35.868Z</time></trkpt><trkpt lat="42.2895939" lon="13.5574854"><ele>655.75</ele><time>2026-04-26T16:22:37.869Z</time></trkpt><trkpt lat="42.2894699" lon="13.5574845"><ele>652.0</ele><time>2026-04-26T16:22:39.869Z</time></trkpt><trkpt lat="42.2893677" lon="13.5575493"><ele>652.0</ele><time>2026-04-26T16:22:41.87Z</time></trkpt><trkpt lat="42.289273" lon="13.5576187"><ele>652.0</ele><time>2026-04-26T16:22:43.869Z</time></trkpt><trkpt lat="42.2891862" lon="13.5576877"><ele>652.0</ele><time>2026-04-26T16:22:45.87Z</time></trkpt><trkpt lat="42.2890849" lon="13.5577003"><ele>652.0</ele><time>2026-04-26T16:22:47.869Z</time></trkpt><trkpt lat="42.2889927" lon="13.557612"><ele>652.0</ele><time>2026-04-26T16:22:49.869Z</time></trkpt><trkpt lat="42.288944" lon="13.5575518"><ele>651.6666666666667</ele><time>2026-04-26T16:22:50.869Z</time></trkpt><trkpt lat="42.2889021" lon="13.5574831"><ele>651.3333333333334</ele><time>2026-04-26T16:22:51.869Z</time></trkpt><trkpt lat="42.2888623" lon="13.5574165"><ele>651.0</ele><time>2026-04-26T16:22:52.869Z</time></trkpt><trkpt lat="42.2887779" lon="13.5572874"><ele>650.6666666666666</ele><time>2026-04-26T16:22:54.868Z</time></trkpt><trkpt lat="42.2886959" lon="13.5571592"><ele>650.3333333333333</ele><time>2026-04-26T16:22:56.869Z</time></trkpt><trkpt lat="42.2886543" lon="13.5570926"><ele>650.0</ele><time>2026-04-26T16:22:57.87Z</time></trkpt><trkpt lat="42.2885785" lon="13.5569618"><ele>648.8333333333333</ele><time>2026-04-26T16:22:59.869Z</time></trkpt><trkpt lat="42.2885517" lon="13.5568656"><ele>647.6666666666666</ele><time>2026-04-26T16:23:01.869Z</time></trkpt><trkpt lat="42.2885128" lon="13.5567667"><ele>646.5</ele><time>2026-04-26T16:23:05.87Z</time></trkpt><trkpt lat="42.2884484" lon="13.5567539"><ele>645.3333333333334</ele><time>2026-04-26T16:23:07.87Z</time></trkpt><trkpt lat="42.2883985" lon="13.5566451"><ele>644.1666666666667</ele><time>2026-04-26T16:23:09.869Z</time></trkpt><trkpt lat="42.2883398" lon="13.5565211"><ele>643.0</ele><time>2026-04-26T16:23:11.868Z</time></trkpt><trkpt lat="42.2883238" lon="13.556381"><ele>643.0</ele><time>2026-04-26T16:23:13.869Z</time></trkpt><trkpt lat="42.2883211" lon="13.5562176"><ele>643.0</ele><time>2026-04-26T16:23:15.869Z</time></trkpt><trkpt lat="42.2882856" lon="13.5560378"><ele>643.0</ele><time>2026-04-26T16:23:17.869Z</time></trkpt><trkpt lat="42.2882628" lon="13.5559487"><ele>643.0</ele><time>2026-04-26T16:23:18.869Z</time></trkpt><trkpt lat="42.2882476" lon="13.5558643"><ele>643.0</ele><time>2026-04-26T16:23:19.87Z</time></trkpt><trkpt lat="42.2882305" lon="13.5557137"><ele>642.0</ele><time>2026-04-26T16:23:21.87Z</time></trkpt><trkpt lat="42.2882132" lon="13.5555877"><ele>641.0</ele><time>2026-04-26T16:23:23.87Z</time></trkpt><trkpt lat="42.2881915" lon="13.5554731"><ele>640.0</ele><time>2026-04-26T16:23:25.869Z</time></trkpt><trkpt lat="42.2881413" lon="13.5554174"><ele>639.0</ele><time>2026-04-26T16:23:27.87Z</time></trkpt><trkpt lat="42.2880733" lon="13.5553807"><ele>638.0</ele><time>2026-04-26T16:23:30.868Z</time></trkpt><trkpt lat="42.2880096" lon="13.5553601"><ele>637.0</ele><time>2026-04-26T16:23:32.869Z</time></trkpt><trkpt lat="42.2879697" lon="13.5552834"><ele>635.8000000000001</ele><time>2026-04-26T16:23:34.868Z</time></trkpt><trkpt lat="42.2879342" lon="13.5551541"><ele>634.6</ele><time>2026-04-26T16:23:36.868Z</time></trkpt><trkpt lat="42.2878839" lon="13.5550398"><ele>633.4000000000001</ele><time>2026-04-26T16:23:38.868Z</time></trkpt><trkpt lat="42.2878543" lon="13.5549577"><ele>632.2</ele><time>2026-04-26T16:23:39.87Z</time></trkpt><trkpt lat="42.287797" lon="13.554849"><ele>631.0</ele><time>2026-04-26T16:23:41.869Z</time></trkpt><trkpt lat="42.287704" lon="13.5547247"><ele>631.0</ele><time>2026-04-26T16:23:43.869Z</time></trkpt><trkpt lat="42.287648" lon="13.5546534"><ele>631.0</ele><time>2026-04-26T16:23:44.868Z</time></trkpt><trkpt lat="42.2875989" lon="13.5545796"><ele>631.0</ele><time>2026-04-26T16:23:45.868Z</time></trkpt><trkpt lat="42.2875443" lon="13.5545174"><ele>631.0</ele><time>2026-04-26T16:23:46.868Z</time></trkpt><trkpt lat="42.2874926" lon="13.5544513"><ele>631.0</ele><time>2026-04-26T16:23:47.868Z</time></trkpt><trkpt lat="42.287438" lon="13.5543878"><ele>631.0</ele><time>2026-04-26T16:23:48.869Z</time></trkpt><trkpt lat="42.2873821" lon="13.5543158"><ele>631.0</ele><time>2026-04-26T16:23:49.869Z</time></trkpt><trkpt lat="42.2873357" lon="13.554241"><ele>629.8333333333334</ele><time>2026-04-26T16:23:50.869Z</time></trkpt><trkpt lat="42.2872839" lon="13.5541777"><ele>628.6666666666667</ele><time>2026-04-26T16:23:51.869Z</time></trkpt><trkpt lat="42.2872342" lon="13.5541137"><ele>627.5</ele><time>2026-04-26T16:23:52.869Z</time></trkpt><trkpt lat="42.2871449" lon="13.5540106"><ele>626.3333333333334</ele><time>2026-04-26T16:23:54.868Z</time></trkpt><trkpt lat="42.2870978" lon="13.5539466"><ele>625.1666666666666</ele><time>2026-04-26T16:23:56.868Z</time></trkpt><trkpt lat="42.2871185" lon="13.5538423"><ele>624.0</ele><time>2026-04-26T16:24:00.869Z</time></trkpt><trkpt lat="42.2871459" lon="13.5537428"><ele>622.8571428571429</ele><time>2026-04-26T16:24:02.869Z</time></trkpt><trkpt lat="42.2870784" lon="13.553661"><ele>621.7142857142857</ele><time>2026-04-26T16:24:05.869Z</time></trkpt><trkpt lat="42.287018" lon="13.553629"><ele>620.5714285714286</ele><time>2026-04-26T16:24:07.868Z</time></trkpt><trkpt lat="42.286957" lon="13.5536043"><ele>619.4285714285714</ele><time>2026-04-26T16:24:10.868Z</time></trkpt><trkpt lat="42.2868966" lon="13.5536507"><ele>618.2857142857142</ele><time>2026-04-26T16:24:14.869Z</time></trkpt><trkpt lat="42.2869595" lon="13.553714"><ele>617.1428571428571</ele><time>2026-04-26T16:24:16.869Z</time></trkpt><trkpt lat="42.2870182" lon="13.55379"><ele>616.0</ele><time>2026-04-26T16:24:18.869Z</time></trkpt><trkpt lat="42.2870476" lon="13.5538773"><ele>616.0</ele><time>2026-04-26T16:24:21.868Z</time></trkpt><trkpt lat="42.2870091" lon="13.5539666"><ele>616.0</ele><time>2026-04-26T16:24:23.868Z</time></trkpt><trkpt lat="42.2869647" lon="13.5540363"><ele>616.0</ele><time>2026-04-26T16:24:24.869Z</time></trkpt><trkpt lat="42.2869151" lon="13.554113"><ele>616.0</ele><time>2026-04-26T16:24:25.869Z</time></trkpt><trkpt lat="42.2868574" lon="13.554198"><ele>616.0</ele><time>2026-04-26T16:24:26.869Z</time></trkpt><trkpt lat="42.286797" lon="13.5542866"><ele>616.0</ele><time>2026-04-26T16:24:27.869Z</time></trkpt><trkpt lat="42.2867278" lon="13.5543796"><ele>616.0</ele><time>2026-04-26T16:24:28.868Z</time></trkpt><trkpt lat="42.2866525" lon="13.554476"><ele>616.0</ele><time>2026-04-26T16:24:29.868Z</time></trkpt><trkpt lat="42.2865677" lon="13.5545702"><ele>616.0</ele><time>2026-04-26T16:24:30.869Z</time></trkpt><trkpt lat="42.2864747" lon="13.5546579"><ele>616.0</ele><time>2026-04-26T16:24:31.869Z</time></trkpt><trkpt lat="42.2863727" lon="13.5547349"><ele>616.0</ele><time>2026-04-26T16:24:32.869Z</time></trkpt><trkpt lat="42.2862593" lon="13.5548039"><ele>616.5</ele><time>2026-04-26T16:24:33.869Z</time></trkpt><trkpt lat="42.286137" lon="13.5548578"><ele>617.0</ele><time>2026-04-26T16:24:34.868Z</time></trkpt><trkpt lat="42.2860107" lon="13.5549082"><ele>617.5</ele><time>2026-04-26T16:24:35.87Z</time></trkpt><trkpt lat="42.2858809" lon="13.5549571"><ele>618.0</ele><time>2026-04-26T16:24:36.87Z</time></trkpt><trkpt lat="42.285746" lon="13.5550015"><ele>618.0</ele><time>2026-04-26T16:24:37.868Z</time></trkpt><trkpt lat="42.2856089" lon="13.5550416"><ele>618.0</ele><time>2026-04-26T16:24:38.868Z</time></trkpt><trkpt lat="42.2854686" lon="13.555085"><ele>618.0</ele><time>2026-04-26T16:24:39.868Z</time></trkpt><trkpt lat="42.2853268" lon="13.5551291"><ele>618.0</ele><time>2026-04-26T16:24:40.869Z</time></trkpt><trkpt lat="42.2851793" lon="13.5551758"><ele>617.0</ele><time>2026-04-26T16:24:41.87Z</time></trkpt><trkpt lat="42.2850319" lon="13.5552246"><ele>616.0</ele><time>2026-04-26T16:24:42.868Z</time></trkpt><trkpt lat="42.2848813" lon="13.5552687"><ele>615.0</ele><time>2026-04-26T16:24:43.869Z</time></trkpt><trkpt lat="42.284729" lon="13.5553097"><ele>614.3333333333334</ele><time>2026-04-26T16:24:44.868Z</time></trkpt><trkpt lat="42.2845744" lon="13.5553492"><ele>613.6666666666667</ele><time>2026-04-26T16:24:45.87Z</time></trkpt><trkpt lat="42.284416" lon="13.555382"><ele>613.0</ele><time>2026-04-26T16:24:46.868Z</time></trkpt><trkpt lat="42.2842551" lon="13.555405"><ele>614.0</ele><time>2026-04-26T16:24:47.87Z</time></trkpt><trkpt lat="42.2840946" lon="13.5554106"><ele>615.0</ele><time>2026-04-26T16:24:48.869Z</time></trkpt><trkpt lat="42.2839304" lon="13.5554007"><ele>616.0</ele><time>2026-04-26T16:24:49.87Z</time></trkpt><trkpt lat="42.2837661" lon="13.55538"><ele>615.6666666666667</ele><time>2026-04-26T16:24:50.868Z</time></trkpt><trkpt lat="42.2836051" lon="13.5553567"><ele>615.3333333333334</ele><time>2026-04-26T16:24:51.868Z</time></trkpt><trkpt lat="42.2834376" lon="13.5553304"><ele>615.0</ele><time>2026-04-26T16:24:52.869Z</time></trkpt><trkpt lat="42.2832717" lon="13.555298"><ele>615.0</ele><time>2026-04-26T16:24:53.869Z</time></trkpt><trkpt lat="42.2831053" lon="13.5552692"><ele>615.0</ele><time>2026-04-26T16:24:54.869Z</time></trkpt><trkpt lat="42.282937" lon="13.5552396"><ele>615.0</ele><time>2026-04-26T16:24:55.869Z</time></trkpt><trkpt lat="42.2827625" lon="13.555218"><ele>614.6666666666666</ele><time>2026-04-26T16:24:56.868Z</time></trkpt><trkpt lat="42.2825778" lon="13.5552068"><ele>614.3333333333333</ele><time>2026-04-26T16:24:57.868Z</time></trkpt><trkpt lat="42.2823881" lon="13.5552318"><ele>614.0</ele><time>2026-04-26T16:24:58.87Z</time></trkpt><trkpt lat="42.2821952" lon="13.5553055"><ele>614.3333333333333</ele><time>2026-04-26T16:24:59.87Z</time></trkpt><trkpt lat="42.281999" lon="13.5554212"><ele>614.6666666666666</ele><time>2026-04-26T16:25:00.868Z</time></trkpt><trkpt lat="42.2818131" lon="13.5555692"><ele>615.0</ele><time>2026-04-26T16:25:01.869Z</time></trkpt><trkpt lat="42.2816419" lon="13.5557461"><ele>615.0</ele><time>2026-04-26T16:25:02.869Z</time></trkpt><trkpt lat="42.2814971" lon="13.5559408"><ele>615.0</ele><time>2026-04-26T16:25:03.868Z</time></trkpt><trkpt lat="42.2813661" lon="13.5561634"><ele>615.0</ele><time>2026-04-26T16:25:04.869Z</time></trkpt><trkpt lat="42.2812619" lon="13.5564214"><ele>613.6666666666666</ele><time>2026-04-26T16:25:05.868Z</time></trkpt><trkpt lat="42.2811858" lon="13.5567004"><ele>612.3333333333333</ele><time>2026-04-26T16:25:06.869Z</time></trkpt><trkpt lat="42.281132" lon="13.556976"><ele>611.0</ele><time>2026-04-26T16:25:07.868Z</time></trkpt><trkpt lat="42.2810861" lon="13.5572332"><ele>611.0</ele><time>2026-04-26T16:25:08.867Z</time></trkpt><trkpt lat="42.2810445" lon="13.557477"><ele>611.0</ele><time>2026-04-26T16:25:09.868Z</time></trkpt><trkpt lat="42.2810016" lon="13.5577005"><ele>611.0</ele><time>2026-04-26T16:25:10.868Z</time></trkpt><trkpt lat="42.2809651" lon="13.5579129"><ele>611.5</ele><time>2026-04-26T16:25:11.868Z</time></trkpt><trkpt lat="42.280928" lon="13.5581117"><ele>612.0</ele><time>2026-04-26T16:25:12.869Z</time></trkpt><trkpt lat="42.2808779" lon="13.5582959"><ele>612.5</ele><time>2026-04-26T16:25:13.869Z</time></trkpt><trkpt lat="42.2808098" lon="13.5584539"><ele>613.0</ele><time>2026-04-26T16:25:14.868Z</time></trkpt><trkpt lat="42.2807084" lon="13.5585823"><ele>612.25</ele><time>2026-04-26T16:25:15.867Z</time></trkpt><trkpt lat="42.2805846" lon="13.5586748"><ele>611.5</ele><time>2026-04-26T16:25:16.867Z</time></trkpt><trkpt lat="42.2804419" lon="13.5587263"><ele>610.75</ele><time>2026-04-26T16:25:17.868Z</time></trkpt><trkpt lat="42.2802886" lon="13.5587519"><ele>610.0</ele><time>2026-04-26T16:25:18.868Z</time></trkpt><trkpt lat="42.280129" lon="13.5587692"><ele>610.0</ele><time>2026-04-26T16:25:19.867Z</time></trkpt><trkpt lat="42.2799586" lon="13.5587855"><ele>610.0</ele><time>2026-04-26T16:25:20.867Z</time></trkpt><trkpt lat="42.2797829" lon="13.5587986"><ele>610.0</ele><time>2026-04-26T16:25:21.869Z</time></trkpt><trkpt lat="42.2796014" lon="13.5588149"><ele>612.0</ele><time>2026-04-26T16:25:22.867Z</time></trkpt><trkpt lat="42.2794106" lon="13.5588345"><ele>614.0</ele><time>2026-04-26T16:25:23.868Z</time></trkpt><trkpt lat="42.2792125" lon="13.5588454"><ele>616.0</ele><time>2026-04-26T16:25:24.868Z</time></trkpt><trkpt lat="42.279007" lon="13.5588498"><ele>615.0</ele><time>2026-04-26T16:25:25.868Z</time></trkpt><trkpt lat="42.2787946" lon="13.5588506"><ele>614.0</ele><time>2026-04-26T16:25:26.868Z</time></trkpt><trkpt lat="42.278577" lon="13.5588545"><ele>613.0</ele><time>2026-04-26T16:25:27.869Z</time></trkpt><trkpt lat="42.278358" lon="13.5588432"><ele>613.0</ele><time>2026-04-26T16:25:28.868Z</time></trkpt><trkpt lat="42.2781402" lon="13.5588169"><ele>613.0</ele><time>2026-04-26T16:25:29.868Z</time></trkpt><trkpt lat="42.2779217" lon="13.5587901"><ele>613.0</ele><time>2026-04-26T16:25:30.867Z</time></trkpt><trkpt lat="42.2777037" lon="13.5587715"><ele>612.3333333333334</ele><time>2026-04-26T16:25:31.867Z</time></trkpt><trkpt lat="42.2774885" lon="13.5587507"><ele>611.6666666666666</ele><time>2026-04-26T16:25:32.868Z</time></trkpt><trkpt lat="42.2772759" lon="13.5587291"><ele>611.0</ele><time>2026-04-26T16:25:33.867Z</time></trkpt><trkpt lat="42.2770751" lon="13.5587073"><ele>609.3333333333333</ele><time>2026-04-26T16:25:34.867Z</time></trkpt><trkpt lat="42.2768907" lon="13.5586919"><ele>607.6666666666666</ele><time>2026-04-26T16:25:35.868Z</time></trkpt><trkpt lat="42.276709" lon="13.5586685"><ele>606.0</ele><time>2026-04-26T16:25:36.868Z</time></trkpt><trkpt lat="42.2765302" lon="13.5586395"><ele>608.6666666666666</ele><time>2026-04-26T16:25:37.867Z</time></trkpt><trkpt lat="42.2763651" lon="13.5585818"><ele>611.3333333333333</ele><time>2026-04-26T16:25:38.868Z</time></trkpt><trkpt lat="42.2762163" lon="13.5584708"><ele>614.0</ele><time>2026-04-26T16:25:39.868Z</time></trkpt><trkpt lat="42.2760835" lon="13.5583257"><ele>614.0</ele><time>2026-04-26T16:25:40.867Z</time></trkpt><trkpt lat="42.2759741" lon="13.5581492"><ele>614.0</ele><time>2026-04-26T16:25:41.869Z</time></trkpt><trkpt lat="42.2758694" lon="13.5579632"><ele>614.0</ele><time>2026-04-26T16:25:42.869Z</time></trkpt><trkpt lat="42.2757656" lon="13.557784"><ele>614.5</ele><time>2026-04-26T16:25:43.867Z</time></trkpt><trkpt lat="42.2756609" lon="13.5576235"><ele>615.0</ele><time>2026-04-26T16:25:44.867Z</time></trkpt><trkpt lat="42.2755531" lon="13.5574956"><ele>615.5</ele><time>2026-04-26T16:25:45.867Z</time></trkpt><trkpt lat="42.2754386" lon="13.5574083"><ele>616.0</ele><time>2026-04-26T16:25:46.867Z</time></trkpt><trkpt lat="42.275319" lon="13.557424"><ele>616.5</ele><time>2026-04-26T16:25:47.869Z</time></trkpt><trkpt lat="42.2752097" lon="13.5574878"><ele>617.0</ele><time>2026-04-26T16:25:48.867Z</time></trkpt><trkpt lat="42.2751173" lon="13.5575982"><ele>617.5</ele><time>2026-04-26T16:25:49.867Z</time></trkpt><trkpt lat="42.2750287" lon="13.5577404"><ele>618.0</ele><time>2026-04-26T16:25:50.868Z</time></trkpt><trkpt lat="42.2749406" lon="13.5578962"><ele>618.0</ele><time>2026-04-26T16:25:51.869Z</time></trkpt><trkpt lat="42.2748449" lon="13.5580615"><ele>618.0</ele><time>2026-04-26T16:25:52.869Z</time></trkpt><trkpt lat="42.2747463" lon="13.5582398"><ele>618.0</ele><time>2026-04-26T16:25:53.869Z</time></trkpt><trkpt lat="42.274636" lon="13.5584229"><ele>618.6666666666666</ele><time>2026-04-26T16:25:54.867Z</time></trkpt><trkpt lat="42.2745282" lon="13.5586015"><ele>619.3333333333333</ele><time>2026-04-26T16:25:55.869Z</time></trkpt><trkpt lat="42.274401" lon="13.558774"><ele>620.0</ele><time>2026-04-26T16:25:56.868Z</time></trkpt><trkpt lat="42.2742557" lon="13.5589249"><ele>620.0</ele><time>2026-04-26T16:25:57.868Z</time></trkpt><trkpt lat="42.2740962" lon="13.5590618"><ele>620.0</ele><time>2026-04-26T16:25:58.868Z</time></trkpt><trkpt lat="42.2739337" lon="13.559209"><ele>620.0</ele><time>2026-04-26T16:25:59.868Z</time></trkpt><trkpt lat="42.2737743" lon="13.5593636"><ele>621.0</ele><time>2026-04-26T16:26:00.867Z</time></trkpt><trkpt lat="42.2736095" lon="13.5595137"><ele>622.0</ele><time>2026-04-26T16:26:01.868Z</time></trkpt><trkpt lat="42.2734551" lon="13.5596538"><ele>623.0</ele><time>2026-04-26T16:26:02.867Z</time></trkpt><trkpt lat="42.2733037" lon="13.5597708"><ele>623.0</ele><time>2026-04-26T16:26:03.867Z</time></trkpt><trkpt lat="42.2731387" lon="13.5598398"><ele>623.0</ele><time>2026-04-26T16:26:04.868Z</time></trkpt><trkpt lat="42.2729654" lon="13.5598573"><ele>623.0</ele><time>2026-04-26T16:26:05.868Z</time></trkpt><trkpt lat="42.2727947" lon="13.5598263"><ele>622.3333333333333</ele><time>2026-04-26T16:26:06.867Z</time></trkpt><trkpt lat="42.2726191" lon="13.5597694"><ele>621.6666666666666</ele><time>2026-04-26T16:26:07.867Z</time></trkpt><trkpt lat="42.2724439" lon="13.559712"><ele>621.0</ele><time>2026-04-26T16:26:08.867Z</time></trkpt><trkpt lat="42.2722696" lon="13.5596534"><ele>622.3333333333334</ele><time>2026-04-26T16:26:09.868Z</time></trkpt><trkpt lat="42.2720963" lon="13.5595923"><ele>623.6666666666667</ele><time>2026-04-26T16:26:10.868Z</time></trkpt><trkpt lat="42.2719258" lon="13.5595356"><ele>625.0</ele><time>2026-04-26T16:26:11.868Z</time></trkpt><trkpt lat="42.2717653" lon="13.5594924"><ele>623.6666666666667</ele><time>2026-04-26T16:26:12.868Z</time></trkpt><trkpt lat="42.2716043" lon="13.5594708"><ele>622.3333333333334</ele><time>2026-04-26T16:26:13.868Z</time></trkpt><trkpt lat="42.2714495" lon="13.5594721"><ele>621.0</ele><time>2026-04-26T16:26:14.867Z</time></trkpt><trkpt lat="42.2713088" lon="13.5594908"><ele>621.0</ele><time>2026-04-26T16:26:15.868Z</time></trkpt><trkpt lat="42.2711713" lon="13.5595136"><ele>621.0</ele><time>2026-04-26T16:26:16.868Z</time></trkpt><trkpt lat="42.2710249" lon="13.5595305"><ele>621.0</ele><time>2026-04-26T16:26:17.869Z</time></trkpt><trkpt lat="42.2708744" lon="13.5595433"><ele>621.0</ele><time>2026-04-26T16:26:18.869Z</time></trkpt><trkpt lat="42.2707174" lon="13.5595608"><ele>620.0</ele><time>2026-04-26T16:26:19.868Z</time></trkpt><trkpt lat="42.2705474" lon="13.5595781"><ele>619.0</ele><time>2026-04-26T16:26:20.867Z</time></trkpt><trkpt lat="42.2703745" lon="13.5596028"><ele>618.0</ele><time>2026-04-26T16:26:21.868Z</time></trkpt><trkpt lat="42.2701952" lon="13.5596513"><ele>618.0</ele><time>2026-04-26T16:26:22.867Z</time></trkpt><trkpt lat="42.2700184" lon="13.5597265"><ele>618.0</ele><time>2026-04-26T16:26:23.868Z</time></trkpt><trkpt lat="42.2698446" lon="13.5598194"><ele>618.0</ele><time>2026-04-26T16:26:24.867Z</time></trkpt><trkpt lat="42.2696764" lon="13.5599216"><ele>616.6666666666666</ele><time>2026-04-26T16:26:25.868Z</time></trkpt><trkpt lat="42.2695174" lon="13.560027"><ele>615.3333333333333</ele><time>2026-04-26T16:26:26.868Z</time></trkpt><trkpt lat="42.2693635" lon="13.5601243"><ele>614.0</ele><time>2026-04-26T16:26:27.868Z</time></trkpt><trkpt lat="42.2692136" lon="13.5602174"><ele>614.0</ele><time>2026-04-26T16:26:28.869Z</time></trkpt><trkpt lat="42.2690729" lon="13.5602944"><ele>614.0</ele><time>2026-04-26T16:26:29.868Z</time></trkpt><trkpt lat="42.2689289" lon="13.5603438"><ele>614.0</ele><time>2026-04-26T16:26:30.868Z</time></trkpt><trkpt lat="42.2687775" lon="13.5603498"><ele>612.3333333333333</ele><time>2026-04-26T16:26:31.868Z</time></trkpt><trkpt lat="42.2686262" lon="13.5602989"><ele>610.6666666666666</ele><time>2026-04-26T16:26:32.867Z</time></trkpt><trkpt lat="42.2684795" lon="13.5601937"><ele>609.0</ele><time>2026-04-26T16:26:33.867Z</time></trkpt><trkpt lat="42.2683346" lon="13.5600622"><ele>609.0</ele><time>2026-04-26T16:26:34.867Z</time></trkpt><trkpt lat="42.2681858" lon="13.5599198"><ele>609.0</ele><time>2026-04-26T16:26:35.868Z</time></trkpt><trkpt lat="42.2680371" lon="13.5597845"><ele>609.0</ele><time>2026-04-26T16:26:36.869Z</time></trkpt><trkpt lat="42.2678929" lon="13.5596558"><ele>608.0</ele><time>2026-04-26T16:26:37.868Z</time></trkpt><trkpt lat="42.2677508" lon="13.5595291"><ele>607.0</ele><time>2026-04-26T16:26:38.869Z</time></trkpt><trkpt lat="42.2676155" lon="13.5594015"><ele>606.0</ele><time>2026-04-26T16:26:39.868Z</time></trkpt><trkpt lat="42.2674842" lon="13.5592635"><ele>606.0</ele><time>2026-04-26T16:26:40.868Z</time></trkpt><trkpt lat="42.2673618" lon="13.5591005"><ele>606.0</ele><time>2026-04-26T16:26:41.867Z</time></trkpt><trkpt lat="42.267242" lon="13.558922"><ele>606.0</ele><time>2026-04-26T16:26:42.867Z</time></trkpt><trkpt lat="42.2671236" lon="13.5587304"><ele>602.3333333333334</ele><time>2026-04-26T16:26:43.869Z</time></trkpt><trkpt lat="42.267008" lon="13.5585319"><ele>598.6666666666667</ele><time>2026-04-26T16:26:44.869Z</time></trkpt><trkpt lat="42.2668984" lon="13.5583428"><ele>595.0</ele><time>2026-04-26T16:26:45.867Z</time></trkpt><trkpt lat="42.2667857" lon="13.5581539"><ele>595.0</ele><time>2026-04-26T16:26:46.869Z</time></trkpt><trkpt lat="42.2666742" lon="13.5579613"><ele>595.0</ele><time>2026-04-26T16:26:47.867Z</time></trkpt><trkpt lat="42.266564" lon="13.5577726"><ele>595.0</ele><time>2026-04-26T16:26:48.867Z</time></trkpt><trkpt lat="42.2664666" lon="13.5575866"><ele>592.0</ele><time>2026-04-26T16:26:49.868Z</time></trkpt><trkpt lat="42.2663919" lon="13.5573757"><ele>589.0</ele><time>2026-04-26T16:26:50.868Z</time></trkpt><trkpt lat="42.2663334" lon="13.557161"><ele>586.0</ele><time>2026-04-26T16:26:51.867Z</time></trkpt><trkpt lat="42.266299" lon="13.5569423"><ele>586.0</ele><time>2026-04-26T16:26:52.867Z</time></trkpt><trkpt lat="42.2662899" lon="13.5567392"><ele>586.0</ele><time>2026-04-26T16:26:53.867Z</time></trkpt><trkpt lat="42.2663222" lon="13.556567"><ele>586.0</ele><time>2026-04-26T16:26:54.868Z</time></trkpt><trkpt lat="42.2663988" lon="13.5564299"><ele>586.0</ele><time>2026-04-26T16:26:55.868Z</time></trkpt><trkpt lat="42.2665116" lon="13.5563212"><ele>586.25</ele><time>2026-04-26T16:26:56.867Z</time></trkpt><trkpt lat="42.2666421" lon="13.5562283"><ele>586.5</ele><time>2026-04-26T16:26:57.867Z</time></trkpt><trkpt lat="42.2667672" lon="13.5561461"><ele>586.75</ele><time>2026-04-26T16:26:58.869Z</time></trkpt><trkpt lat="42.2668675" lon="13.5560531"><ele>587.0</ele><time>2026-04-26T16:26:59.869Z</time></trkpt><trkpt lat="42.2669108" lon="13.555929"><ele>587.0</ele><time>2026-04-26T16:27:00.867Z</time></trkpt><trkpt lat="42.2669131" lon="13.555814"><ele>587.0</ele><time>2026-04-26T16:27:01.869Z</time></trkpt><trkpt lat="42.2668687" lon="13.5557031"><ele>587.0</ele><time>2026-04-26T16:27:02.867Z</time></trkpt><trkpt lat="42.2667838" lon="13.5556327"><ele>587.0</ele><time>2026-04-26T16:27:03.868Z</time></trkpt><trkpt lat="42.2666747" lon="13.5556056"><ele>587.0</ele><time>2026-04-26T16:27:04.868Z</time></trkpt><trkpt lat="42.2665502" lon="13.5556199"><ele>585.0</ele><time>2026-04-26T16:27:05.868Z</time></trkpt><trkpt lat="42.2664099" lon="13.5556423"><ele>583.0</ele><time>2026-04-26T16:27:06.868Z</time></trkpt><trkpt lat="42.2662627" lon="13.5556661"><ele>581.0</ele><time>2026-04-26T16:27:07.867Z</time></trkpt><trkpt lat="42.2660972" lon="13.5556855"><ele>581.0</ele><time>2026-04-26T16:27:08.869Z</time></trkpt><trkpt lat="42.2659213" lon="13.5557106"><ele>581.0</ele><time>2026-04-26T16:27:09.868Z</time></trkpt><trkpt lat="42.2657481" lon="13.5557397"><ele>581.0</ele><time>2026-04-26T16:27:10.868Z</time></trkpt><trkpt lat="42.2655644" lon="13.5557667"><ele>578.0</ele><time>2026-04-26T16:27:11.868Z</time></trkpt><trkpt lat="42.26539" lon="13.5557939"><ele>575.0</ele><time>2026-04-26T16:27:12.867Z</time></trkpt><trkpt lat="42.2652154" lon="13.5558261"><ele>572.0</ele><time>2026-04-26T16:27:13.868Z</time></trkpt><trkpt lat="42.2650406" lon="13.5558699"><ele>572.0</ele><time>2026-04-26T16:27:14.869Z</time></trkpt><trkpt lat="42.2648746" lon="13.5559491"><ele>572.0</ele><time>2026-04-26T16:27:15.869Z</time></trkpt><trkpt lat="42.2647238" lon="13.5560653"><ele>572.0</ele><time>2026-04-26T16:27:16.868Z</time></trkpt><trkpt lat="42.2645878" lon="13.5562135"><ele>570.3333333333333</ele><time>2026-04-26T16:27:17.868Z</time></trkpt><trkpt lat="42.2644652" lon="13.5563663"><ele>568.6666666666666</ele><time>2026-04-26T16:27:18.868Z</time></trkpt><trkpt lat="42.2643422" lon="13.5565066"><ele>567.0</ele><time>2026-04-26T16:27:19.867Z</time></trkpt><trkpt lat="42.2642208" lon="13.5566414"><ele>567.0</ele><time>2026-04-26T16:27:20.868Z</time></trkpt><trkpt lat="42.2641035" lon="13.5567774"><ele>567.0</ele><time>2026-04-26T16:27:21.868Z</time></trkpt><trkpt lat="42.2639857" lon="13.5568898"><ele>567.0</ele><time>2026-04-26T16:27:22.869Z</time></trkpt><trkpt lat="42.2638653" lon="13.5569748"><ele>567.0</ele><time>2026-04-26T16:27:23.867Z</time></trkpt><trkpt lat="42.2637371" lon="13.5570232"><ele>565.75</ele><time>2026-04-26T16:27:24.868Z</time></trkpt><trkpt lat="42.2635981" lon="13.5570372"><ele>564.5</ele><time>2026-04-26T16:27:25.868Z</time></trkpt><trkpt lat="42.2634599" lon="13.5569954"><ele>563.25</ele><time>2026-04-26T16:27:26.867Z</time></trkpt><trkpt lat="42.2633378" lon="13.5568848"><ele>562.0</ele><time>2026-04-26T16:27:27.867Z</time></trkpt><trkpt lat="42.263238" lon="13.5567436"><ele>562.0</ele><time>2026-04-26T16:27:28.868Z</time></trkpt><trkpt lat="42.2631403" lon="13.5565855"><ele>562.0</ele><time>2026-04-26T16:27:29.867Z</time></trkpt><trkpt lat="42.2630314" lon="13.5564101"><ele>562.0</ele><time>2026-04-26T16:27:30.869Z</time></trkpt><trkpt lat="42.2629167" lon="13.5562247"><ele>560.6666666666667</ele><time>2026-04-26T16:27:31.868Z</time></trkpt><trkpt lat="42.2628018" lon="13.5560293"><ele>559.3333333333334</ele><time>2026-04-26T16:27:32.868Z</time></trkpt><trkpt lat="42.2626812" lon="13.5558289"><ele>558.0</ele><time>2026-04-26T16:27:33.868Z</time></trkpt><trkpt lat="42.2625533" lon="13.5556262"><ele>558.0</ele><time>2026-04-26T16:27:34.867Z</time></trkpt><trkpt lat="42.2624251" lon="13.555423"><ele>558.0</ele><time>2026-04-26T16:27:35.868Z</time></trkpt><trkpt lat="42.2622984" lon="13.555219"><ele>558.0</ele><time>2026-04-26T16:27:36.869Z</time></trkpt><trkpt lat="42.2621808" lon="13.5550282"><ele>558.0</ele><time>2026-04-26T16:27:37.868Z</time></trkpt><trkpt lat="42.2620699" lon="13.5548491"><ele>558.0</ele><time>2026-04-26T16:27:38.867Z</time></trkpt><trkpt lat="42.2619667" lon="13.5546739"><ele>558.0</ele><time>2026-04-26T16:27:39.868Z</time></trkpt><trkpt lat="42.2618683" lon="13.554517"><ele>557.25</ele><time>2026-04-26T16:27:40.869Z</time></trkpt><trkpt lat="42.2617706" lon="13.5543645"><ele>556.5</ele><time>2026-04-26T16:27:41.869Z</time></trkpt><trkpt lat="42.2616739" lon="13.5542227"><ele>555.75</ele><time>2026-04-26T16:27:42.867Z</time></trkpt><trkpt lat="42.2615842" lon="13.5540891"><ele>555.0</ele><time>2026-04-26T16:27:43.868Z</time></trkpt><trkpt lat="42.2614956" lon="13.5539624"><ele>555.6</ele><time>2026-04-26T16:27:44.867Z</time></trkpt><trkpt lat="42.2614136" lon="13.5538476"><ele>556.2</ele><time>2026-04-26T16:27:45.869Z</time></trkpt><trkpt lat="42.2613338" lon="13.5537396"><ele>556.8</ele><time>2026-04-26T16:27:46.867Z</time></trkpt><trkpt lat="42.2612674" lon="13.5536426"><ele>557.4</ele><time>2026-04-26T16:27:47.868Z</time></trkpt><trkpt lat="42.2612165" lon="13.5535694"><ele>558.0</ele><time>2026-04-26T16:27:48.867Z</time></trkpt><trkpt lat="42.2611641" lon="13.5535067"><ele>558.0</ele><time>2026-04-26T16:27:50.867Z</time></trkpt><trkpt lat="42.2611132" lon="13.5534238"><ele>558.0</ele><time>2026-04-26T16:27:59.868Z</time></trkpt><trkpt lat="42.2610288" lon="13.5532903"><ele>558.0</ele><time>2026-04-26T16:28:01.868Z</time></trkpt><trkpt lat="42.2609684" lon="13.5532109"><ele>558.0</ele><time>2026-04-26T16:28:02.868Z</time></trkpt><trkpt lat="42.2609056" lon="13.5531287"><ele>558.0</ele><time>2026-04-26T16:28:03.867Z</time></trkpt><trkpt lat="42.260841" lon="13.5530345"><ele>558.0</ele><time>2026-04-26T16:28:04.868Z</time></trkpt><trkpt lat="42.2607816" lon="13.5529415"><ele>558.0</ele><time>2026-04-26T16:28:05.868Z</time></trkpt><trkpt lat="42.2607264" lon="13.5528465"><ele>558.0</ele><time>2026-04-26T16:28:06.868Z</time></trkpt><trkpt lat="42.2606701" lon="13.5527614"><ele>558.0</ele><time>2026-04-26T16:28:07.868Z</time></trkpt><trkpt lat="42.2606171" lon="13.5527096"><ele>558.0</ele><time>2026-04-26T16:28:08.868Z</time></trkpt><trkpt lat="42.2605134" lon="13.5527299"><ele>558.0</ele><time>2026-04-26T16:28:10.868Z</time></trkpt><trkpt lat="42.2604517" lon="13.5527896"><ele>557.6</ele><time>2026-04-26T16:28:11.867Z</time></trkpt><trkpt lat="42.2603719" lon="13.5528554"><ele>557.1999999999999</ele><time>2026-04-26T16:28:12.868Z</time></trkpt><trkpt lat="42.2602869" lon="13.5529188"><ele>556.8</ele><time>2026-04-26T16:28:13.869Z</time></trkpt><trkpt lat="42.2602049" lon="13.552971"><ele>556.4</ele><time>2026-04-26T16:28:14.868Z</time></trkpt><trkpt lat="42.2601195" lon="13.5530158"><ele>556.0</ele><time>2026-04-26T16:28:15.869Z</time></trkpt><trkpt lat="42.26003" lon="13.5530421"><ele>556.0</ele><time>2026-04-26T16:28:16.868Z</time></trkpt><trkpt lat="42.2599355" lon="13.553054"><ele>556.0</ele><time>2026-04-26T16:28:17.868Z</time></trkpt><trkpt lat="42.2598415" lon="13.5530506"><ele>556.0</ele><time>2026-04-26T16:28:18.867Z</time></trkpt><trkpt lat="42.259743" lon="13.5530417"><ele>556.0</ele><time>2026-04-26T16:28:19.868Z</time></trkpt><trkpt lat="42.2596399" lon="13.553042"><ele>556.0</ele><time>2026-04-26T16:28:20.868Z</time></trkpt><trkpt lat="42.2595487" lon="13.5530591"><ele>555.8</ele><time>2026-04-26T16:28:21.867Z</time></trkpt><trkpt lat="42.2594597" lon="13.5531043"><ele>555.6</ele><time>2026-04-26T16:28:22.869Z</time></trkpt><trkpt lat="42.2593688" lon="13.5531602"><ele>555.4</ele><time>2026-04-26T16:28:23.868Z</time></trkpt><trkpt lat="42.2592725" lon="13.5532283"><ele>555.2</ele><time>2026-04-26T16:28:24.869Z</time></trkpt><trkpt lat="42.2591753" lon="13.5533006"><ele>555.0</ele><time>2026-04-26T16:28:25.867Z</time></trkpt><trkpt lat="42.259088" lon="13.553361"><ele>555.0</ele><time>2026-04-26T16:28:26.868Z</time></trkpt><trkpt lat="42.2589953" lon="13.55341"><ele>555.0</ele><time>2026-04-26T16:28:27.868Z</time></trkpt><trkpt lat="42.2588919" lon="13.55345"><ele>555.0</ele><time>2026-04-26T16:28:28.868Z</time></trkpt><trkpt lat="42.2587903" lon="13.5534689"><ele>555.0</ele><time>2026-04-26T16:28:29.868Z</time></trkpt><trkpt lat="42.2586812" lon="13.553488"><ele>555.0</ele><time>2026-04-26T16:28:30.867Z</time></trkpt><trkpt lat="42.2585656" lon="13.5535076"><ele>555.25</ele><time>2026-04-26T16:28:31.868Z</time></trkpt><trkpt lat="42.258442" lon="13.5535222"><ele>555.5</ele><time>2026-04-26T16:28:32.869Z</time></trkpt><trkpt lat="42.2583097" lon="13.5535348"><ele>555.75</ele><time>2026-04-26T16:28:33.868Z</time></trkpt><trkpt lat="42.2581719" lon="13.5535529"><ele>556.0</ele><time>2026-04-26T16:28:34.868Z</time></trkpt><trkpt lat="42.2580339" lon="13.5535801"><ele>556.0</ele><time>2026-04-26T16:28:35.868Z</time></trkpt><trkpt lat="42.2578942" lon="13.5536174"><ele>556.0</ele><time>2026-04-26T16:28:36.869Z</time></trkpt><trkpt lat="42.2577627" lon="13.5536529"><ele>556.0</ele><time>2026-04-26T16:28:37.868Z</time></trkpt><trkpt lat="42.2576347" lon="13.5536923"><ele>556.0</ele><time>2026-04-26T16:28:38.868Z</time></trkpt><trkpt lat="42.257513" lon="13.5537302"><ele>555.75</ele><time>2026-04-26T16:28:39.867Z</time></trkpt><trkpt lat="42.2573886" lon="13.5537712"><ele>555.5</ele><time>2026-04-26T16:28:40.869Z</time></trkpt><trkpt lat="42.2572655" lon="13.5538081"><ele>555.25</ele><time>2026-04-26T16:28:41.867Z</time></trkpt><trkpt lat="42.2571342" lon="13.5538459"><ele>555.0</ele><time>2026-04-26T16:28:42.868Z</time></trkpt><trkpt lat="42.2570064" lon="13.5538831"><ele>554.75</ele><time>2026-04-26T16:28:43.868Z</time></trkpt><trkpt lat="42.2568811" lon="13.553926"><ele>554.5</ele><time>2026-04-26T16:28:44.868Z</time></trkpt><trkpt lat="42.2567549" lon="13.5539614"><ele>554.25</ele><time>2026-04-26T16:28:45.868Z</time></trkpt><trkpt lat="42.2566364" lon="13.5539967"><ele>554.0</ele><time>2026-04-26T16:28:46.868Z</time></trkpt><trkpt lat="42.2565149" lon="13.5540301"><ele>554.5</ele><time>2026-04-26T16:28:47.868Z</time></trkpt><trkpt lat="42.2563878" lon="13.5540581"><ele>555.0</ele><time>2026-04-26T16:28:48.869Z</time></trkpt><trkpt lat="42.2562629" lon="13.5540885"><ele>555.5</ele><time>2026-04-26T16:28:49.867Z</time></trkpt><trkpt lat="42.2561352" lon="13.5541189"><ele>556.0</ele><time>2026-04-26T16:28:50.867Z</time></trkpt><trkpt lat="42.256004" lon="13.5541503"><ele>556.0</ele><time>2026-04-26T16:28:51.868Z</time></trkpt><trkpt lat="42.2558768" lon="13.5541832"><ele>556.0</ele><time>2026-04-26T16:28:52.867Z</time></trkpt><trkpt lat="42.2557594" lon="13.5542159"><ele>556.0</ele><time>2026-04-26T16:28:53.867Z</time></trkpt><trkpt lat="42.2556516" lon="13.5542505"><ele>556.0</ele><time>2026-04-26T16:28:54.867Z</time></trkpt><trkpt lat="42.2555446" lon="13.5542867"><ele>556.0</ele><time>2026-04-26T16:28:55.868Z</time></trkpt><trkpt lat="42.255438" lon="13.5543333"><ele>556.0</ele><time>2026-04-26T16:28:56.867Z</time></trkpt><trkpt lat="42.2553364" lon="13.5543908"><ele>556.0</ele><time>2026-04-26T16:28:57.868Z</time></trkpt><trkpt lat="42.2552393" lon="13.5544557"><ele>556.0</ele><time>2026-04-26T16:28:58.868Z</time></trkpt><trkpt lat="42.2551532" lon="13.5545379"><ele>556.0</ele><time>2026-04-26T16:28:59.867Z</time></trkpt><trkpt lat="42.2550737" lon="13.5546337"><ele>556.0</ele><time>2026-04-26T16:29:00.868Z</time></trkpt><trkpt lat="42.2549983" lon="13.5547472"><ele>556.0</ele><time>2026-04-26T16:29:01.867Z</time></trkpt><trkpt lat="42.2549255" lon="13.5548776"><ele>556.0</ele><time>2026-04-26T16:29:02.868Z</time></trkpt><trkpt lat="42.2548481" lon="13.5550163"><ele>556.0</ele><time>2026-04-26T16:29:03.868Z</time></trkpt><trkpt lat="42.2547616" lon="13.5551562"><ele>556.0</ele><time>2026-04-26T16:29:04.869Z</time></trkpt><trkpt lat="42.2546786" lon="13.5552951"><ele>556.0</ele><time>2026-04-26T16:29:05.867Z</time></trkpt><trkpt lat="42.2545981" lon="13.5554311"><ele>556.0</ele><time>2026-04-26T16:29:06.869Z</time></trkpt><trkpt lat="42.2545166" lon="13.5555446"><ele>556.0</ele><time>2026-04-26T16:29:07.867Z</time></trkpt><trkpt lat="42.2544228" lon="13.5556614"><ele>556.0</ele><time>2026-04-26T16:29:08.868Z</time></trkpt><trkpt lat="42.2543212" lon="13.5557824"><ele>556.0</ele><time>2026-04-26T16:29:09.868Z</time></trkpt><trkpt lat="42.2542118" lon="13.5559099"><ele>556.0</ele><time>2026-04-26T16:29:10.867Z</time></trkpt><trkpt lat="42.2540975" lon="13.5560373"><ele>556.0</ele><time>2026-04-26T16:29:11.867Z</time></trkpt><trkpt lat="42.2539846" lon="13.5561555"><ele>555.75</ele><time>2026-04-26T16:29:12.867Z</time></trkpt><trkpt lat="42.2538661" lon="13.556273"><ele>555.5</ele><time>2026-04-26T16:29:13.867Z</time></trkpt><trkpt lat="42.2537445" lon="13.556401"><ele>555.25</ele><time>2026-04-26T16:29:14.868Z</time></trkpt><trkpt lat="42.2536357" lon="13.556523"><ele>555.0</ele><time>2026-04-26T16:29:15.867Z</time></trkpt><trkpt lat="42.2535364" lon="13.5566475"><ele>555.0</ele><time>2026-04-26T16:29:16.868Z</time></trkpt><trkpt lat="42.2534393" lon="13.5567775"><ele>555.0</ele><time>2026-04-26T16:29:17.868Z</time></trkpt><trkpt lat="42.2533465" lon="13.5568938"><ele>555.0</ele><time>2026-04-26T16:29:18.868Z</time></trkpt><trkpt lat="42.2532594" lon="13.556992"><ele>555.0</ele><time>2026-04-26T16:29:19.867Z</time></trkpt><trkpt lat="42.2531687" lon="13.5570795"><ele>555.0</ele><time>2026-04-26T16:29:20.868Z</time></trkpt><trkpt lat="42.2530623" lon="13.5571516"><ele>555.0</ele><time>2026-04-26T16:29:21.868Z</time></trkpt><trkpt lat="42.2529474" lon="13.5572066"><ele>555.0</ele><time>2026-04-26T16:29:22.867Z</time></trkpt><trkpt lat="42.2528286" lon="13.557246"><ele>555.0</ele><time>2026-04-26T16:29:23.868Z</time></trkpt><trkpt lat="42.2527201" lon="13.5572795"><ele>555.0</ele><time>2026-04-26T16:29:24.868Z</time></trkpt><trkpt lat="42.2526452" lon="13.5573262"><ele>555.0</ele><time>2026-04-26T16:29:25.867Z</time></trkpt><trkpt lat="42.2525966" lon="13.5573824"><ele>555.0</ele><time>2026-04-26T16:29:26.868Z</time></trkpt><trkpt lat="42.2525493" lon="13.5575209"><ele>555.0</ele><time>2026-04-26T16:29:28.869Z</time></trkpt><trkpt lat="42.2525347" lon="13.5576102"><ele>555.0</ele><time>2026-04-26T16:29:29.869Z</time></trkpt><trkpt lat="42.2525244" lon="13.557717"><ele>555.0</ele><time>2026-04-26T16:29:30.868Z</time></trkpt><trkpt lat="42.252516" lon="13.5578231"><ele>554.8333333333334</ele><time>2026-04-26T16:29:31.868Z</time></trkpt><trkpt lat="42.252515" lon="13.5579334"><ele>554.6666666666666</ele><time>2026-04-26T16:29:32.868Z</time></trkpt><trkpt lat="42.2525068" lon="13.5580429"><ele>554.5</ele><time>2026-04-26T16:29:33.868Z</time></trkpt><trkpt lat="42.2524985" lon="13.5581571"><ele>554.3333333333333</ele><time>2026-04-26T16:29:34.868Z</time></trkpt><trkpt lat="42.2524874" lon="13.5582752"><ele>554.1666666666666</ele><time>2026-04-26T16:29:35.868Z</time></trkpt><trkpt lat="42.2524666" lon="13.5583855"><ele>554.0</ele><time>2026-04-26T16:29:36.868Z</time></trkpt><trkpt lat="42.2524405" lon="13.5584777"><ele>554.0</ele><time>2026-04-26T16:29:37.868Z</time></trkpt><trkpt lat="42.2523965" lon="13.558568"><ele>554.0</ele><time>2026-04-26T16:29:38.868Z</time></trkpt><trkpt lat="42.2523383" lon="13.5586538"><ele>554.0</ele><time>2026-04-26T16:29:39.869Z</time></trkpt><trkpt lat="42.2522723" lon="13.5587222"><ele>554.0</ele><time>2026-04-26T16:29:40.869Z</time></trkpt><trkpt lat="42.2522158" lon="13.5587759"><ele>554.0</ele><time>2026-04-26T16:29:41.867Z</time></trkpt><trkpt lat="42.2521557" lon="13.5588186"><ele>554.0</ele><time>2026-04-26T16:29:42.867Z</time></trkpt><trkpt lat="42.2520516" lon="13.558865"><ele>554.2</ele><time>2026-04-26T16:29:44.869Z</time></trkpt><trkpt lat="42.2519689" lon="13.5588975"><ele>554.4</ele><time>2026-04-26T16:29:46.868Z</time></trkpt><trkpt lat="42.2518804" lon="13.5589317"><ele>554.6</ele><time>2026-04-26T16:29:49.869Z</time></trkpt><trkpt lat="42.2517951" lon="13.558974"><ele>554.8</ele><time>2026-04-26T16:29:51.868Z</time></trkpt><trkpt lat="42.2517131" lon="13.559007"><ele>555.0</ele><time>2026-04-26T16:29:53.868Z</time></trkpt><trkpt lat="42.2516199" lon="13.5590649"><ele>555.0</ele><time>2026-04-26T16:29:55.866Z</time></trkpt><trkpt lat="42.2515327" lon="13.5591351"><ele>555.0</ele><time>2026-04-26T16:29:57.866Z</time></trkpt><trkpt lat="42.2514227" lon="13.5592053"><ele>555.0</ele><time>2026-04-26T16:29:59.867Z</time></trkpt><trkpt lat="42.25132" lon="13.5592798"><ele>555.0</ele><time>2026-04-26T16:30:01.866Z</time></trkpt><trkpt lat="42.2512061" lon="13.5593614"><ele>554.8333333333334</ele><time>2026-04-26T16:30:03.867Z</time></trkpt><trkpt lat="42.2511434" lon="13.5594"><ele>554.6666666666666</ele><time>2026-04-26T16:30:04.867Z</time></trkpt><trkpt lat="42.2510772" lon="13.5594529"><ele>554.5</ele><time>2026-04-26T16:30:05.866Z</time></trkpt><trkpt lat="42.2510095" lon="13.5595105"><ele>554.3333333333333</ele><time>2026-04-26T16:30:06.867Z</time></trkpt><trkpt lat="42.2509452" lon="13.5595742"><ele>554.1666666666666</ele><time>2026-04-26T16:30:07.866Z</time></trkpt><trkpt lat="42.250887" lon="13.5596559"><ele>554.0</ele><time>2026-04-26T16:30:08.866Z</time></trkpt><trkpt lat="42.2508369" lon="13.5597425"><ele>554.0</ele><time>2026-04-26T16:30:09.866Z</time></trkpt><trkpt lat="42.2507907" lon="13.5598423"><ele>554.0</ele><time>2026-04-26T16:30:10.866Z</time></trkpt><trkpt lat="42.2507415" lon="13.5599488"><ele>554.0</ele><time>2026-04-26T16:30:11.867Z</time></trkpt><trkpt lat="42.2506854" lon="13.5600553"><ele>554.0</ele><time>2026-04-26T16:30:12.866Z</time></trkpt><trkpt lat="42.2506209" lon="13.5601532"><ele>554.0</ele><time>2026-04-26T16:30:13.866Z</time></trkpt><trkpt lat="42.2505482" lon="13.5602428"><ele>554.4</ele><time>2026-04-26T16:30:14.866Z</time></trkpt><trkpt lat="42.2504654" lon="13.5603291"><ele>554.8</ele><time>2026-04-26T16:30:15.867Z</time></trkpt><trkpt lat="42.2503743" lon="13.5604087"><ele>555.2</ele><time>2026-04-26T16:30:16.866Z</time></trkpt><trkpt lat="42.2502824" lon="13.5604909"><ele>555.6</ele><time>2026-04-26T16:30:17.866Z</time></trkpt><trkpt lat="42.2501926" lon="13.5605631"><ele>556.0</ele><time>2026-04-26T16:30:18.867Z</time></trkpt><trkpt lat="42.2501038" lon="13.5606311"><ele>556.0</ele><time>2026-04-26T16:30:19.867Z</time></trkpt><trkpt lat="42.2500301" lon="13.5606954"><ele>556.0</ele><time>2026-04-26T16:30:20.867Z</time></trkpt><trkpt lat="42.2499711" lon="13.5607661"><ele>556.0</ele><time>2026-04-26T16:30:21.867Z</time></trkpt><trkpt lat="42.2499259" lon="13.5608509"><ele>556.0</ele><time>2026-04-26T16:30:22.868Z</time></trkpt><trkpt lat="42.2499085" lon="13.5609491"><ele>556.0</ele><time>2026-04-26T16:30:23.867Z</time></trkpt><trkpt lat="42.2499232" lon="13.5610602"><ele>556.0</ele><time>2026-04-26T16:30:24.866Z</time></trkpt><trkpt lat="42.2499526" lon="13.5611911"><ele>556.2</ele><time>2026-04-26T16:30:25.867Z</time></trkpt><trkpt lat="42.2499892" lon="13.5613231"><ele>556.4000000000001</ele><time>2026-04-26T16:30:26.868Z</time></trkpt><trkpt lat="42.2500206" lon="13.5614576"><ele>556.6</ele><time>2026-04-26T16:30:27.867Z</time></trkpt><trkpt lat="42.2500312" lon="13.5615933"><ele>556.8000000000001</ele><time>2026-04-26T16:30:28.868Z</time></trkpt><trkpt lat="42.2500291" lon="13.5617308"><ele>557.0</ele><time>2026-04-26T16:30:29.867Z</time></trkpt><trkpt lat="42.2500104" lon="13.5618546"><ele>557.0</ele><time>2026-04-26T16:30:30.867Z</time></trkpt><trkpt lat="42.2499705" lon="13.5619791"><ele>557.0</ele><time>2026-04-26T16:30:31.866Z</time></trkpt><trkpt lat="42.2499108" lon="13.5621053"><ele>557.0</ele><time>2026-04-26T16:30:32.866Z</time></trkpt><trkpt lat="42.2498401" lon="13.5622215"><ele>557.0</ele><time>2026-04-26T16:30:33.867Z</time></trkpt><trkpt lat="42.2497753" lon="13.5623256"><ele>557.0</ele><time>2026-04-26T16:30:34.866Z</time></trkpt><trkpt lat="42.2497049" lon="13.5624296"><ele>556.8000000000001</ele><time>2026-04-26T16:30:35.867Z</time></trkpt><trkpt lat="42.2496328" lon="13.5625267"><ele>556.6</ele><time>2026-04-26T16:30:36.866Z</time></trkpt><trkpt lat="42.2495642" lon="13.5626153"><ele>556.4000000000001</ele><time>2026-04-26T16:30:37.866Z</time></trkpt><trkpt lat="42.2494999" lon="13.5627027"><ele>556.2</ele><time>2026-04-26T16:30:38.868Z</time></trkpt><trkpt lat="42.2494425" lon="13.5627964"><ele>556.0</ele><time>2026-04-26T16:30:39.867Z</time></trkpt><trkpt lat="42.2493918" lon="13.5628958"><ele>555.6666666666667</ele><time>2026-04-26T16:30:40.867Z</time></trkpt><trkpt lat="42.2493464" lon="13.5629964"><ele>555.3333333333334</ele><time>2026-04-26T16:30:41.866Z</time></trkpt><trkpt lat="42.2493147" lon="13.5630934"><ele>555.0</ele><time>2026-04-26T16:30:42.868Z</time></trkpt><trkpt lat="42.2492815" lon="13.5631919"><ele>554.6666666666666</ele><time>2026-04-26T16:30:43.867Z</time></trkpt><trkpt lat="42.2492525" lon="13.5632945"><ele>554.3333333333333</ele><time>2026-04-26T16:30:44.866Z</time></trkpt><trkpt lat="42.2492223" lon="13.5633975"><ele>554.0</ele><time>2026-04-26T16:30:45.867Z</time></trkpt><trkpt lat="42.249193" lon="13.5634961"><ele>554.0</ele><time>2026-04-26T16:30:46.867Z</time></trkpt><trkpt lat="42.2491688" lon="13.563584"><ele>554.0</ele><time>2026-04-26T16:30:47.866Z</time></trkpt><trkpt lat="42.2491456" lon="13.5636701"><ele>554.0</ele><time>2026-04-26T16:30:48.867Z</time></trkpt><trkpt lat="42.2490931" lon="13.5638293"><ele>554.0</ele><time>2026-04-26T16:30:50.867Z</time></trkpt><trkpt lat="42.2490695" lon="13.5639091"><ele>554.0</ele><time>2026-04-26T16:30:51.868Z</time></trkpt><trkpt lat="42.2490271" lon="13.5640403"><ele>554.0</ele><time>2026-04-26T16:30:53.866Z</time></trkpt><trkpt lat="42.2489838" lon="13.5641546"><ele>554.0</ele><time>2026-04-26T16:30:55.868Z</time></trkpt><trkpt lat="42.248926" lon="13.5642632"><ele>554.0</ele><time>2026-04-26T16:30:57.868Z</time></trkpt><trkpt lat="42.248841" lon="13.5643888"><ele>554.0</ele><time>2026-04-26T16:30:59.866Z</time></trkpt><trkpt lat="42.2487835" lon="13.5644504"><ele>554.0</ele><time>2026-04-26T16:31:00.866Z</time></trkpt><trkpt lat="42.24872" lon="13.5645133"><ele>554.0</ele><time>2026-04-26T16:31:01.868Z</time></trkpt><trkpt lat="42.2486476" lon="13.5645647"><ele>553.8333333333333</ele><time>2026-04-26T16:31:02.867Z</time></trkpt><trkpt lat="42.2485745" lon="13.5646147"><ele>553.6666666666666</ele><time>2026-04-26T16:31:03.868Z</time></trkpt><trkpt lat="42.2485002" lon="13.5646751"><ele>553.5</ele><time>2026-04-26T16:31:04.868Z</time></trkpt><trkpt lat="42.2484324" lon="13.5647505"><ele>553.3333333333334</ele><time>2026-04-26T16:31:05.867Z</time></trkpt><trkpt lat="42.2483767" lon="13.5648505"><ele>553.1666666666667</ele><time>2026-04-26T16:31:06.867Z</time></trkpt><trkpt lat="42.248342" lon="13.5649575"><ele>553.0</ele><time>2026-04-26T16:31:07.866Z</time></trkpt><trkpt lat="42.248324" lon="13.5650816"><ele>553.0</ele><time>2026-04-26T16:31:08.866Z</time></trkpt><trkpt lat="42.2483275" lon="13.565216"><ele>553.0</ele><time>2026-04-26T16:31:09.867Z</time></trkpt><trkpt lat="42.2483538" lon="13.565353"><ele>553.0</ele><time>2026-04-26T16:31:10.866Z</time></trkpt><trkpt lat="42.2483771" lon="13.5654822"><ele>553.0</ele><time>2026-04-26T16:31:11.868Z</time></trkpt><trkpt lat="42.2483897" lon="13.5656183"><ele>553.0</ele><time>2026-04-26T16:31:12.866Z</time></trkpt><trkpt lat="42.2483941" lon="13.5657594"><ele>553.4</ele><time>2026-04-26T16:31:13.866Z</time></trkpt><trkpt lat="42.2484128" lon="13.565901"><ele>553.8</ele><time>2026-04-26T16:31:14.867Z</time></trkpt><trkpt lat="42.2484152" lon="13.5660435"><ele>554.2</ele><time>2026-04-26T16:31:15.866Z</time></trkpt><trkpt lat="42.248402" lon="13.5661889"><ele>554.6</ele><time>2026-04-26T16:31:16.868Z</time></trkpt><trkpt lat="42.2483758" lon="13.5663345"><ele>555.0</ele><time>2026-04-26T16:31:17.867Z</time></trkpt><trkpt lat="42.2483461" lon="13.5664762"><ele>555.2</ele><time>2026-04-26T16:31:18.866Z</time></trkpt><trkpt lat="42.2483209" lon="13.5666093"><ele>555.4</ele><time>2026-04-26T16:31:19.867Z</time></trkpt><trkpt lat="42.2482955" lon="13.5667422"><ele>555.6</ele><time>2026-04-26T16:31:20.866Z</time></trkpt><trkpt lat="42.2482694" lon="13.5668649"><ele>555.8</ele><time>2026-04-26T16:31:21.867Z</time></trkpt><trkpt lat="42.2482471" lon="13.5669754"><ele>556.0</ele><time>2026-04-26T16:31:22.867Z</time></trkpt><trkpt lat="42.2482228" lon="13.5670735"><ele>556.1666666666667</ele><time>2026-04-26T16:31:23.868Z</time></trkpt><trkpt lat="42.2482093" lon="13.5671614"><ele>556.3333333333334</ele><time>2026-04-26T16:31:24.868Z</time></trkpt><trkpt lat="42.2482022" lon="13.5672518"><ele>556.5</ele><time>2026-04-26T16:31:25.867Z</time></trkpt><trkpt lat="42.2482252" lon="13.5673846"><ele>556.6666666666666</ele><time>2026-04-26T16:31:27.866Z</time></trkpt><trkpt lat="42.2482965" lon="13.5674197"><ele>556.8333333333333</ele><time>2026-04-26T16:31:29.867Z</time></trkpt><trkpt lat="42.2484087" lon="13.5673724"><ele>557.0</ele><time>2026-04-26T16:31:31.867Z</time></trkpt><trkpt lat="42.2484698" lon="13.567332"><ele>557.0</ele><time>2026-04-26T16:31:32.867Z</time></trkpt><trkpt lat="42.248582" lon="13.5672792"><ele>557.0</ele><time>2026-04-26T16:31:34.868Z</time></trkpt><trkpt lat="42.2486584" lon="13.5672872"><ele>557.0</ele><time>2026-04-26T16:31:36.867Z</time></trkpt><trkpt lat="42.2486607" lon="13.5673776"><ele>557.0</ele><time>2026-04-26T16:31:38.866Z</time></trkpt><trkpt lat="42.2485844" lon="13.5675227"><ele>557.0</ele><time>2026-04-26T16:31:40.866Z</time></trkpt><trkpt lat="42.2485351" lon="13.5676166"><ele>557.0</ele><time>2026-04-26T16:31:41.867Z</time></trkpt><trkpt lat="42.2484736" lon="13.5677282"><ele>557.0</ele><time>2026-04-26T16:31:42.867Z</time></trkpt><trkpt lat="42.2484153" lon="13.5678361"><ele>557.0</ele><time>2026-04-26T16:31:43.867Z</time></trkpt><trkpt lat="42.2483629" lon="13.567942"><ele>557.0</ele><time>2026-04-26T16:31:44.866Z</time></trkpt><trkpt lat="42.2483091" lon="13.5680384"><ele>557.0</ele><time>2026-04-26T16:31:45.868Z</time></trkpt><trkpt lat="42.2482571" lon="13.5681499"><ele>557.75</ele><time>2026-04-26T16:31:46.867Z</time></trkpt><trkpt lat="42.248211" lon="13.5682755"><ele>558.5</ele><time>2026-04-26T16:31:47.867Z</time></trkpt><trkpt lat="42.2481696" lon="13.5684187"><ele>559.25</ele><time>2026-04-26T16:31:48.867Z</time></trkpt><trkpt lat="42.2481326" lon="13.5685728"><ele>560.0</ele><time>2026-04-26T16:31:49.867Z</time></trkpt><trkpt lat="42.2480907" lon="13.56873"><ele>560.6</ele><time>2026-04-26T16:31:50.866Z</time></trkpt><trkpt lat="42.2480489" lon="13.5688776"><ele>561.2</ele><time>2026-04-26T16:31:51.866Z</time></trkpt><trkpt lat="42.2480059" lon="13.5690177"><ele>561.8</ele><time>2026-04-26T16:31:52.866Z</time></trkpt><trkpt lat="42.2479639" lon="13.569145"><ele>562.4</ele><time>2026-04-26T16:31:53.866Z</time></trkpt><trkpt lat="42.2479158" lon="13.569252"><ele>563.0</ele><time>2026-04-26T16:31:54.867Z</time></trkpt><trkpt lat="42.2478622" lon="13.5693634"><ele>563.0</ele><time>2026-04-26T16:31:55.867Z</time></trkpt><trkpt lat="42.247816" lon="13.5694582"><ele>563.0</ele><time>2026-04-26T16:31:56.867Z</time></trkpt><trkpt lat="42.2477763" lon="13.5695579"><ele>563.0</ele><time>2026-04-26T16:31:57.867Z</time></trkpt><trkpt lat="42.2477478" lon="13.5696602"><ele>563.0</ele><time>2026-04-26T16:31:58.866Z</time></trkpt><trkpt lat="42.2476902" lon="13.5697171"><ele>563.0</ele><time>2026-04-26T16:31:59.867Z</time></trkpt><trkpt lat="42.2476113" lon="13.569812"><ele>563.0</ele><time>2026-04-26T16:32:01.866Z</time></trkpt><trkpt lat="42.2475341" lon="13.5699058"><ele>563.4</ele><time>2026-04-26T16:32:03.866Z</time></trkpt><trkpt lat="42.2474638" lon="13.5699364"><ele>563.8</ele><time>2026-04-26T16:32:26.867Z</time></trkpt><trkpt lat="42.2473364" lon="13.5700219"><ele>564.2</ele><time>2026-04-26T16:32:28.866Z</time></trkpt><trkpt lat="42.2472524" lon="13.5700583"><ele>564.6</ele><time>2026-04-26T16:32:29.867Z</time></trkpt><trkpt lat="42.247157" lon="13.5700854"><ele>565.0</ele><time>2026-04-26T16:32:30.866Z</time></trkpt><trkpt lat="42.2470599" lon="13.5700942"><ele>565.0</ele><time>2026-04-26T16:32:31.866Z</time></trkpt><trkpt lat="42.2469614" lon="13.5700876"><ele>565.0</ele><time>2026-04-26T16:32:32.867Z</time></trkpt><trkpt lat="42.2468708" lon="13.5700634"><ele>565.0</ele><time>2026-04-26T16:32:33.866Z</time></trkpt><trkpt lat="42.2467827" lon="13.570036"><ele>565.0</ele><time>2026-04-26T16:32:34.866Z</time></trkpt><trkpt lat="42.2467124" lon="13.5700093"><ele>565.0</ele><time>2026-04-26T16:32:35.866Z</time></trkpt><trkpt lat="42.2466372" lon="13.570007"><ele>565.0</ele><time>2026-04-26T16:32:36.868Z</time></trkpt><trkpt lat="42.2465542" lon="13.5700135"><ele>565.2</ele><time>2026-04-26T16:32:37.867Z</time></trkpt><trkpt lat="42.246456" lon="13.5700307"><ele>565.4</ele><time>2026-04-26T16:32:38.866Z</time></trkpt><trkpt lat="42.2463608" lon="13.5700354"><ele>565.6</ele><time>2026-04-26T16:32:39.868Z</time></trkpt><trkpt lat="42.2462619" lon="13.5700322"><ele>565.8</ele><time>2026-04-26T16:32:40.867Z</time></trkpt><trkpt lat="42.2461555" lon="13.5700273"><ele>566.0</ele><time>2026-04-26T16:32:41.866Z</time></trkpt><trkpt lat="42.2460404" lon="13.5700241"><ele>566.0</ele><time>2026-04-26T16:32:42.868Z</time></trkpt><trkpt lat="42.2459195" lon="13.570032"><ele>566.0</ele><time>2026-04-26T16:32:43.868Z</time></trkpt><trkpt lat="42.2457883" lon="13.5700359"><ele>566.0</ele><time>2026-04-26T16:32:44.866Z</time></trkpt><trkpt lat="42.2456659" lon="13.5700382"><ele>566.0</ele><time>2026-04-26T16:32:45.867Z</time></trkpt><trkpt lat="42.2455481" lon="13.570041"><ele>564.5</ele><time>2026-04-26T16:32:46.867Z</time></trkpt><trkpt lat="42.2454213" lon="13.5700376"><ele>563.0</ele><time>2026-04-26T16:32:47.867Z</time></trkpt><trkpt lat="42.245278" lon="13.5700345"><ele>561.5</ele><time>2026-04-26T16:32:48.867Z</time></trkpt><trkpt lat="42.2451276" lon="13.5700352"><ele>560.0</ele><time>2026-04-26T16:32:49.868Z</time></trkpt><trkpt lat="42.2449864" lon="13.5700383"><ele>560.0</ele><time>2026-04-26T16:32:50.867Z</time></trkpt><trkpt lat="42.2448541" lon="13.5700476"><ele>560.0</ele><time>2026-04-26T16:32:51.866Z</time></trkpt><trkpt lat="42.2447296" lon="13.5700574"><ele>560.0</ele><time>2026-04-26T16:32:52.867Z</time></trkpt><trkpt lat="42.2446089" lon="13.5700758"><ele>560.0</ele><time>2026-04-26T16:32:53.867Z</time></trkpt><trkpt lat="42.2444881" lon="13.5700926"><ele>560.5</ele><time>2026-04-26T16:32:54.867Z</time></trkpt><trkpt lat="42.2443663" lon="13.5701112"><ele>561.0</ele><time>2026-04-26T16:32:55.867Z</time></trkpt><trkpt lat="42.2442435" lon="13.5701212"><ele>561.5</ele><time>2026-04-26T16:32:56.868Z</time></trkpt><trkpt lat="42.2441243" lon="13.5701286"><ele>562.0</ele><time>2026-04-26T16:32:57.866Z</time></trkpt><trkpt lat="42.2440181" lon="13.5701255"><ele>562.0</ele><time>2026-04-26T16:32:58.866Z</time></trkpt><trkpt lat="42.2439035" lon="13.57011"><ele>562.0</ele><time>2026-04-26T16:32:59.867Z</time></trkpt><trkpt lat="42.2437885" lon="13.5700829"><ele>562.0</ele><time>2026-04-26T16:33:00.867Z</time></trkpt><trkpt lat="42.2436743" lon="13.5700549"><ele>562.0</ele><time>2026-04-26T16:33:01.867Z</time></trkpt><trkpt lat="42.2435559" lon="13.5700327"><ele>562.0</ele><time>2026-04-26T16:33:02.866Z</time></trkpt><trkpt lat="42.2434406" lon="13.5700068"><ele>562.0</ele><time>2026-04-26T16:33:03.867Z</time></trkpt><trkpt lat="42.2433221" lon="13.5699798"><ele>562.0</ele><time>2026-04-26T16:33:04.868Z</time></trkpt><trkpt lat="42.2432035" lon="13.5699493"><ele>562.0</ele><time>2026-04-26T16:33:05.866Z</time></trkpt><trkpt lat="42.2430844" lon="13.5699276"><ele>564.0</ele><time>2026-04-26T16:33:06.868Z</time></trkpt><trkpt lat="42.2429662" lon="13.5699059"><ele>566.0</ele><time>2026-04-26T16:33:07.867Z</time></trkpt><trkpt lat="42.2428557" lon="13.5698933"><ele>568.0</ele><time>2026-04-26T16:33:08.867Z</time></trkpt><trkpt lat="42.2427417" lon="13.5698932"><ele>570.0</ele><time>2026-04-26T16:33:09.867Z</time></trkpt><trkpt lat="42.2426332" lon="13.5699004"><ele>570.0</ele><time>2026-04-26T16:33:10.867Z</time></trkpt><trkpt lat="42.2425212" lon="13.5699167"><ele>570.0</ele><time>2026-04-26T16:33:11.866Z</time></trkpt><trkpt lat="42.2424014" lon="13.5699426"><ele>570.0</ele><time>2026-04-26T16:33:12.867Z</time></trkpt><trkpt lat="42.2422837" lon="13.5699821"><ele>570.0</ele><time>2026-04-26T16:33:13.867Z</time></trkpt><trkpt lat="42.2421624" lon="13.5700311"><ele>567.75</ele><time>2026-04-26T16:33:14.866Z</time></trkpt><trkpt lat="42.2420431" lon="13.5700934"><ele>565.5</ele><time>2026-04-26T16:33:15.868Z</time></trkpt><trkpt lat="42.2419216" lon="13.5701641"><ele>563.25</ele><time>2026-04-26T16:33:16.866Z</time></trkpt><trkpt lat="42.2418097" lon="13.5702273"><ele>561.0</ele><time>2026-04-26T16:33:17.866Z</time></trkpt><trkpt lat="42.2417132" lon="13.5702878"><ele>559.5</ele><time>2026-04-26T16:33:18.867Z</time></trkpt><trkpt lat="42.2416269" lon="13.570361"><ele>558.0</ele><time>2026-04-26T16:33:19.866Z</time></trkpt><trkpt lat="42.2415449" lon="13.570459"><ele>556.5</ele><time>2026-04-26T16:33:20.868Z</time></trkpt><trkpt lat="42.2414576" lon="13.5705873"><ele>555.0</ele><time>2026-04-26T16:33:21.866Z</time></trkpt><trkpt lat="42.2413658" lon="13.5707131"><ele>555.0</ele><time>2026-04-26T16:33:22.867Z</time></trkpt><trkpt lat="42.2412776" lon="13.5708298"><ele>555.0</ele><time>2026-04-26T16:33:23.868Z</time></trkpt><trkpt lat="42.2411949" lon="13.5709477"><ele>555.0</ele><time>2026-04-26T16:33:24.867Z</time></trkpt><trkpt lat="42.2411222" lon="13.5710757"><ele>555.0</ele><time>2026-04-26T16:33:25.867Z</time></trkpt><trkpt lat="42.2410672" lon="13.5712009"><ele>557.5</ele><time>2026-04-26T16:33:26.868Z</time></trkpt><trkpt lat="42.2410231" lon="13.5713437"><ele>560.0</ele><time>2026-04-26T16:33:27.868Z</time></trkpt><trkpt lat="42.2409739" lon="13.5714932"><ele>562.5</ele><time>2026-04-26T16:33:28.866Z</time></trkpt><trkpt lat="42.2409197" lon="13.5716569"><ele>565.0</ele><time>2026-04-26T16:33:29.867Z</time></trkpt><trkpt lat="42.2408593" lon="13.57182"><ele>565.0</ele><time>2026-04-26T16:33:30.866Z</time></trkpt><trkpt lat="42.2407899" lon="13.5719683"><ele>565.0</ele><time>2026-04-26T16:33:31.867Z</time></trkpt><trkpt lat="42.240721" lon="13.5721024"><ele>565.0</ele><time>2026-04-26T16:33:32.868Z</time></trkpt><trkpt lat="42.240644" lon="13.5722402"><ele>565.0</ele><time>2026-04-26T16:33:33.866Z</time></trkpt><trkpt lat="42.2405562" lon="13.5723742"><ele>565.5</ele><time>2026-04-26T16:33:34.867Z</time></trkpt><trkpt lat="42.240457" lon="13.5725051"><ele>566.0</ele><time>2026-04-26T16:33:35.867Z</time></trkpt><trkpt lat="42.240349" lon="13.5726334"><ele>566.5</ele><time>2026-04-26T16:33:36.866Z</time></trkpt><trkpt lat="42.2402469" lon="13.572763"><ele>567.0</ele><time>2026-04-26T16:33:37.867Z</time></trkpt><trkpt lat="42.2401473" lon="13.5728983"><ele>567.0</ele><time>2026-04-26T16:33:38.866Z</time></trkpt><trkpt lat="42.2400517" lon="13.5730339"><ele>567.0</ele><time>2026-04-26T16:33:39.867Z</time></trkpt><trkpt lat="42.2399613" lon="13.5731672"><ele>567.0</ele><time>2026-04-26T16:33:40.867Z</time></trkpt><trkpt lat="42.2398652" lon="13.573298"><ele>567.0</ele><time>2026-04-26T16:33:41.868Z</time></trkpt><trkpt lat="42.2397652" lon="13.5734315"><ele>564.0</ele><time>2026-04-26T16:33:42.868Z</time></trkpt><trkpt lat="42.2396699" lon="13.5735627"><ele>561.0</ele><time>2026-04-26T16:33:43.867Z</time></trkpt><trkpt lat="42.2395775" lon="13.5737115"><ele>558.0</ele><time>2026-04-26T16:33:44.867Z</time></trkpt><trkpt lat="42.2394942" lon="13.5738551"><ele>555.0</ele><time>2026-04-26T16:33:45.867Z</time></trkpt><trkpt lat="42.2394166" lon="13.5740111"><ele>555.0</ele><time>2026-04-26T16:33:46.868Z</time></trkpt><trkpt lat="42.2393382" lon="13.5741674"><ele>555.0</ele><time>2026-04-26T16:33:47.867Z</time></trkpt><trkpt lat="42.2392555" lon="13.5743339"><ele>555.0</ele><time>2026-04-26T16:33:48.866Z</time></trkpt><trkpt lat="42.2391662" lon="13.5744992"><ele>555.0</ele><time>2026-04-26T16:33:49.868Z</time></trkpt><trkpt lat="42.2390856" lon="13.5746701"><ele>553.0</ele><time>2026-04-26T16:33:50.867Z</time></trkpt><trkpt lat="42.2390082" lon="13.5748365"><ele>551.0</ele><time>2026-04-26T16:33:51.867Z</time></trkpt><trkpt lat="42.2389241" lon="13.5750048"><ele>549.0</ele><time>2026-04-26T16:33:52.867Z</time></trkpt><trkpt lat="42.2388346" lon="13.5751691"><ele>547.0</ele><time>2026-04-26T16:33:53.867Z</time></trkpt><trkpt lat="42.2387411" lon="13.5753313"><ele>548.75</ele><time>2026-04-26T16:33:54.866Z</time></trkpt><trkpt lat="42.238648" lon="13.5754793"><ele>550.5</ele><time>2026-04-26T16:33:55.866Z</time></trkpt><trkpt lat="42.2385604" lon="13.5756152"><ele>552.25</ele><time>2026-04-26T16:33:56.866Z</time></trkpt><trkpt lat="42.2384776" lon="13.5757471"><ele>554.0</ele><time>2026-04-26T16:33:57.868Z</time></trkpt><trkpt lat="42.2383962" lon="13.5758797"><ele>554.0</ele><time>2026-04-26T16:33:58.866Z</time></trkpt><trkpt lat="42.2383192" lon="13.5760066"><ele>554.0</ele><time>2026-04-26T16:33:59.867Z</time></trkpt><trkpt lat="42.2382433" lon="13.5761226"><ele>554.0</ele><time>2026-04-26T16:34:00.867Z</time></trkpt><trkpt lat="42.2381741" lon="13.5762264"><ele>554.0</ele><time>2026-04-26T16:34:01.867Z</time></trkpt><trkpt lat="42.238109" lon="13.5763237"><ele>554.0</ele><time>2026-04-26T16:34:02.868Z</time></trkpt><trkpt lat="42.238052" lon="13.5764288"><ele>553.75</ele><time>2026-04-26T16:34:03.867Z</time></trkpt><trkpt lat="42.2379943" lon="13.5765497"><ele>553.5</ele><time>2026-04-26T16:34:04.867Z</time></trkpt><trkpt lat="42.2379342" lon="13.5766849"><ele>553.25</ele><time>2026-04-26T16:34:05.867Z</time></trkpt><trkpt lat="42.2378746" lon="13.5768378"><ele>553.0</ele><time>2026-04-26T16:34:06.868Z</time></trkpt><trkpt lat="42.2378083" lon="13.5769989"><ele>555.25</ele><time>2026-04-26T16:34:07.868Z</time></trkpt><trkpt lat="42.2377444" lon="13.5771552"><ele>557.5</ele><time>2026-04-26T16:34:08.867Z</time></trkpt><trkpt lat="42.2376845" lon="13.5773148"><ele>559.75</ele><time>2026-04-26T16:34:09.866Z</time></trkpt><trkpt lat="42.237627" lon="13.5774804"><ele>562.0</ele><time>2026-04-26T16:34:10.867Z</time></trkpt><trkpt lat="42.2375758" lon="13.5776516"><ele>562.0</ele><time>2026-04-26T16:34:11.868Z</time></trkpt><trkpt lat="42.2375392" lon="13.5778254"><ele>562.0</ele><time>2026-04-26T16:34:12.867Z</time></trkpt><trkpt lat="42.2375027" lon="13.5779999"><ele>562.0</ele><time>2026-04-26T16:34:13.866Z</time></trkpt><trkpt lat="42.2374694" lon="13.5781589"><ele>562.0</ele><time>2026-04-26T16:34:14.867Z</time></trkpt><trkpt lat="42.2374342" lon="13.5783149"><ele>563.0</ele><time>2026-04-26T16:34:15.868Z</time></trkpt><trkpt lat="42.2373953" lon="13.578448"><ele>564.0</ele><time>2026-04-26T16:34:16.867Z</time></trkpt><trkpt lat="42.2373369" lon="13.5785664"><ele>565.0</ele><time>2026-04-26T16:34:17.867Z</time></trkpt><trkpt lat="42.2372717" lon="13.5786917"><ele>566.0</ele><time>2026-04-26T16:34:18.867Z</time></trkpt><trkpt lat="42.2372188" lon="13.5788437"><ele>567.0</ele><time>2026-04-26T16:34:19.866Z</time></trkpt><trkpt lat="42.2371789" lon="13.579026"><ele>561.0</ele><time>2026-04-26T16:34:20.867Z</time></trkpt><trkpt lat="42.237151" lon="13.5792331"><ele>555.0</ele><time>2026-04-26T16:34:21.867Z</time></trkpt><trkpt lat="42.2371222" lon="13.5794348"><ele>549.0</ele><time>2026-04-26T16:34:22.866Z</time></trkpt><trkpt lat="42.2370782" lon="13.5796333"><ele>549.0</ele><time>2026-04-26T16:34:23.866Z</time></trkpt><trkpt lat="42.237018" lon="13.5798259"><ele>549.0</ele><time>2026-04-26T16:34:24.867Z</time></trkpt><trkpt lat="42.2369661" lon="13.5800225"><ele>549.0</ele><time>2026-04-26T16:34:25.866Z</time></trkpt><trkpt lat="42.2369216" lon="13.5802372"><ele>549.6666666666666</ele><time>2026-04-26T16:34:26.868Z</time></trkpt><trkpt lat="42.2368819" lon="13.5804651"><ele>550.3333333333333</ele><time>2026-04-26T16:34:27.867Z</time></trkpt><trkpt lat="42.2368429" lon="13.5806756"><ele>551.0</ele><time>2026-04-26T16:34:28.867Z</time></trkpt><trkpt lat="42.2368081" lon="13.5808662"><ele>551.0</ele><time>2026-04-26T16:34:29.867Z</time></trkpt><trkpt lat="42.2367665" lon="13.5810409"><ele>551.0</ele><time>2026-04-26T16:34:30.867Z</time></trkpt><trkpt lat="42.2367164" lon="13.5811936"><ele>551.0</ele><time>2026-04-26T16:34:31.866Z</time></trkpt><trkpt lat="42.2366508" lon="13.581341"><ele>551.0</ele><time>2026-04-26T16:34:32.866Z</time></trkpt><trkpt lat="42.2365831" lon="13.5814797"><ele>552.25</ele><time>2026-04-26T16:34:33.868Z</time></trkpt><trkpt lat="42.2365066" lon="13.5816172"><ele>553.5</ele><time>2026-04-26T16:34:34.868Z</time></trkpt><trkpt lat="42.2364282" lon="13.5817675"><ele>554.75</ele><time>2026-04-26T16:34:35.866Z</time></trkpt><trkpt lat="42.2363504" lon="13.5819247"><ele>556.0</ele><time>2026-04-26T16:34:36.866Z</time></trkpt><trkpt lat="42.2362812" lon="13.5820686"><ele>553.4</ele><time>2026-04-26T16:34:37.867Z</time></trkpt><trkpt lat="42.2362243" lon="13.5822052"><ele>550.8</ele><time>2026-04-26T16:34:38.868Z</time></trkpt><trkpt lat="42.2361742" lon="13.5823278"><ele>548.1999999999999</ele><time>2026-04-26T16:34:39.866Z</time></trkpt><trkpt lat="42.2361261" lon="13.5824406"><ele>545.6</ele><time>2026-04-26T16:34:40.866Z</time></trkpt><trkpt lat="42.2360797" lon="13.5825353"><ele>543.0</ele><time>2026-04-26T16:34:41.867Z</time></trkpt><trkpt lat="42.2360292" lon="13.5826346"><ele>543.0</ele><time>2026-04-26T16:34:42.867Z</time></trkpt><trkpt lat="42.2359746" lon="13.5827334"><ele>543.0</ele><time>2026-04-26T16:34:43.867Z</time></trkpt><trkpt lat="42.2359163" lon="13.5828331"><ele>543.0</ele><time>2026-04-26T16:34:44.868Z</time></trkpt><trkpt lat="42.2358512" lon="13.5829417"><ele>543.0</ele><time>2026-04-26T16:34:45.867Z</time></trkpt><trkpt lat="42.2357844" lon="13.5830488"><ele>543.0</ele><time>2026-04-26T16:34:46.867Z</time></trkpt><trkpt lat="42.2357098" lon="13.5831837"><ele>542.5</ele><time>2026-04-26T16:34:47.867Z</time></trkpt><trkpt lat="42.2356317" lon="13.5833241"><ele>542.0</ele><time>2026-04-26T16:34:48.866Z</time></trkpt><trkpt lat="42.235555" lon="13.5834595"><ele>541.5</ele><time>2026-04-26T16:34:49.867Z</time></trkpt><trkpt lat="42.2354767" lon="13.5835902"><ele>541.0</ele><time>2026-04-26T16:34:50.867Z</time></trkpt><trkpt lat="42.2353945" lon="13.5837173"><ele>541.0</ele><time>2026-04-26T16:34:51.866Z</time></trkpt><trkpt lat="42.2353112" lon="13.5838524"><ele>541.0</ele><time>2026-04-26T16:34:52.867Z</time></trkpt><trkpt lat="42.2352225" lon="13.5839735"><ele>541.0</ele><time>2026-04-26T16:34:53.866Z</time></trkpt><trkpt lat="42.2351427" lon="13.5840653"><ele>541.0</ele><time>2026-04-26T16:34:54.865Z</time></trkpt><trkpt lat="42.235074" lon="13.5841423"><ele>541.0</ele><time>2026-04-26T16:34:55.866Z</time></trkpt><trkpt lat="42.2350066" lon="13.5842112"><ele>541.0</ele><time>2026-04-26T16:34:56.866Z</time></trkpt><trkpt lat="42.2349382" lon="13.5842815"><ele>541.0</ele><time>2026-04-26T16:34:57.865Z</time></trkpt><trkpt lat="42.2348755" lon="13.5843477"><ele>541.0</ele><time>2026-04-26T16:34:58.866Z</time></trkpt><trkpt lat="42.2348072" lon="13.584406"><ele>541.0</ele><time>2026-04-26T16:34:59.865Z</time></trkpt><trkpt lat="42.2347312" lon="13.5844838"><ele>541.0</ele><time>2026-04-26T16:35:00.866Z</time></trkpt><trkpt lat="42.2346414" lon="13.58457"><ele>541.2</ele><time>2026-04-26T16:35:01.865Z</time></trkpt><trkpt lat="42.2345444" lon="13.584654"><ele>541.4000000000001</ele><time>2026-04-26T16:35:02.865Z</time></trkpt><trkpt lat="42.2344482" lon="13.5847347"><ele>541.6</ele><time>2026-04-26T16:35:03.866Z</time></trkpt><trkpt lat="42.2343661" lon="13.5848114"><ele>541.8000000000001</ele><time>2026-04-26T16:35:04.866Z</time></trkpt><trkpt lat="42.2342911" lon="13.5849164"><ele>542.0</ele><time>2026-04-26T16:35:05.866Z</time></trkpt><trkpt lat="42.2342183" lon="13.585029"><ele>542.0</ele><time>2026-04-26T16:35:06.867Z</time></trkpt><trkpt lat="42.2341424" lon="13.5851813"><ele>542.0</ele><time>2026-04-26T16:35:07.865Z</time></trkpt><trkpt lat="42.2340654" lon="13.5853401"><ele>542.0</ele><time>2026-04-26T16:35:08.866Z</time></trkpt><trkpt lat="42.233991" lon="13.5854964"><ele>542.0</ele><time>2026-04-26T16:35:09.866Z</time></trkpt><trkpt lat="42.2339364" lon="13.585657"><ele>542.0</ele><time>2026-04-26T16:35:10.865Z</time></trkpt><trkpt lat="42.2338861" lon="13.5858094"><ele>542.0</ele><time>2026-04-26T16:35:11.865Z</time></trkpt><trkpt lat="42.2338332" lon="13.5859682"><ele>542.0</ele><time>2026-04-26T16:35:12.866Z</time></trkpt><trkpt lat="42.2337913" lon="13.5861209"><ele>542.0</ele><time>2026-04-26T16:35:13.867Z</time></trkpt><trkpt lat="42.2337477" lon="13.5862854"><ele>541.25</ele><time>2026-04-26T16:35:14.865Z</time></trkpt><trkpt lat="42.2337186" lon="13.5864662"><ele>540.5</ele><time>2026-04-26T16:35:15.866Z</time></trkpt><trkpt lat="42.2336953" lon="13.586636"><ele>539.75</ele><time>2026-04-26T16:35:16.865Z</time></trkpt><trkpt lat="42.2336768" lon="13.5867911"><ele>539.0</ele><time>2026-04-26T16:35:17.865Z</time></trkpt><trkpt lat="42.2336595" lon="13.5869453"><ele>538.8</ele><time>2026-04-26T16:35:18.866Z</time></trkpt><trkpt lat="42.2336602" lon="13.5870628"><ele>538.5999999999999</ele><time>2026-04-26T16:35:19.866Z</time></trkpt><trkpt lat="42.2336539" lon="13.5871933"><ele>538.4</ele><time>2026-04-26T16:35:20.865Z</time></trkpt><trkpt lat="42.2336429" lon="13.587319"><ele>538.1999999999999</ele><time>2026-04-26T16:35:21.865Z</time></trkpt><trkpt lat="42.2336366" lon="13.5874476"><ele>538.0</ele><time>2026-04-26T16:35:22.866Z</time></trkpt><trkpt lat="42.2336274" lon="13.5875804"><ele>538.0</ele><time>2026-04-26T16:35:23.866Z</time></trkpt><trkpt lat="42.2336059" lon="13.5877133"><ele>538.0</ele><time>2026-04-26T16:35:24.867Z</time></trkpt><trkpt lat="42.2335883" lon="13.5878863"><ele>538.0</ele><time>2026-04-26T16:35:25.865Z</time></trkpt><trkpt lat="42.2335627" lon="13.5880581"><ele>538.0</ele><time>2026-04-26T16:35:26.866Z</time></trkpt><trkpt lat="42.2335254" lon="13.5882326"><ele>538.75</ele><time>2026-04-26T16:35:27.866Z</time></trkpt><trkpt lat="42.2334797" lon="13.5884127"><ele>539.5</ele><time>2026-04-26T16:35:28.867Z</time></trkpt><trkpt lat="42.2334266" lon="13.5886011"><ele>540.25</ele><time>2026-04-26T16:35:29.866Z</time></trkpt><trkpt lat="42.233363" lon="13.5887865"><ele>541.0</ele><time>2026-04-26T16:35:30.866Z</time></trkpt><trkpt lat="42.2332913" lon="13.5889772"><ele>543.3333333333334</ele><time>2026-04-26T16:35:31.865Z</time></trkpt><trkpt lat="42.2332189" lon="13.589167"><ele>545.6666666666666</ele><time>2026-04-26T16:35:32.865Z</time></trkpt><trkpt lat="42.233147" lon="13.5893447"><ele>548.0</ele><time>2026-04-26T16:35:33.865Z</time></trkpt><trkpt lat="42.2330737" lon="13.589517"><ele>544.5</ele><time>2026-04-26T16:35:34.866Z</time></trkpt><trkpt lat="42.2330012" lon="13.5896785"><ele>541.0</ele><time>2026-04-26T16:35:35.866Z</time></trkpt><trkpt lat="42.2329282" lon="13.5898271"><ele>537.5</ele><time>2026-04-26T16:35:36.865Z</time></trkpt><trkpt lat="42.2328645" lon="13.5899724"><ele>534.0</ele><time>2026-04-26T16:35:37.865Z</time></trkpt><trkpt lat="42.2328204" lon="13.5901134"><ele>534.0</ele><time>2026-04-26T16:35:38.865Z</time></trkpt><trkpt lat="42.2327882" lon="13.5902777"><ele>534.0</ele><time>2026-04-26T16:35:39.865Z</time></trkpt><trkpt lat="42.2327553" lon="13.5904602"><ele>534.0</ele><time>2026-04-26T16:35:40.866Z</time></trkpt><trkpt lat="42.2327101" lon="13.5906257"><ele>534.0</ele><time>2026-04-26T16:35:41.866Z</time></trkpt><trkpt lat="42.2326623" lon="13.5907601"><ele>535.6</ele><time>2026-04-26T16:35:42.866Z</time></trkpt><trkpt lat="42.2326158" lon="13.5908802"><ele>537.2</ele><time>2026-04-26T16:35:43.866Z</time></trkpt><trkpt lat="42.2325593" lon="13.590995"><ele>538.8000000000001</ele><time>2026-04-26T16:35:44.865Z</time></trkpt><trkpt lat="42.2324925" lon="13.5911163"><ele>540.4</ele><time>2026-04-26T16:35:45.866Z</time></trkpt><trkpt lat="42.2324209" lon="13.5912411"><ele>542.0</ele><time>2026-04-26T16:35:46.865Z</time></trkpt><trkpt lat="42.2323425" lon="13.5913699"><ele>541.4</ele><time>2026-04-26T16:35:47.866Z</time></trkpt><trkpt lat="42.2322606" lon="13.5914818"><ele>540.8000000000001</ele><time>2026-04-26T16:35:48.865Z</time></trkpt><trkpt lat="42.2321825" lon="13.5915725"><ele>540.2</ele><time>2026-04-26T16:35:49.867Z</time></trkpt><trkpt lat="42.2321193" lon="13.5916537"><ele>539.6</ele><time>2026-04-26T16:35:50.866Z</time></trkpt><trkpt lat="42.2320605" lon="13.5917248"><ele>539.0</ele><time>2026-04-26T16:35:51.866Z</time></trkpt><trkpt lat="42.2319974" lon="13.5917831"><ele>539.0</ele><time>2026-04-26T16:35:52.867Z</time></trkpt><trkpt lat="42.2319426" lon="13.5918341"><ele>539.0</ele><time>2026-04-26T16:35:53.866Z</time></trkpt><trkpt lat="42.2318425" lon="13.5919372"><ele>539.0</ele><time>2026-04-26T16:35:55.865Z</time></trkpt><trkpt lat="42.2317959" lon="13.5920283"><ele>539.0</ele><time>2026-04-26T16:35:56.866Z</time></trkpt><trkpt lat="42.2317594" lon="13.5921497"><ele>539.0</ele><time>2026-04-26T16:35:57.865Z</time></trkpt><trkpt lat="42.2317353" lon="13.5922815"><ele>540.2</ele><time>2026-04-26T16:35:58.865Z</time></trkpt><trkpt lat="42.231719" lon="13.5924243"><ele>541.4</ele><time>2026-04-26T16:35:59.865Z</time></trkpt><trkpt lat="42.231701" lon="13.5925642"><ele>542.6</ele><time>2026-04-26T16:36:00.866Z</time></trkpt><trkpt lat="42.2316811" lon="13.5926807"><ele>543.8</ele><time>2026-04-26T16:36:01.865Z</time></trkpt><trkpt lat="42.2316514" lon="13.5927963"><ele>545.0</ele><time>2026-04-26T16:36:02.866Z</time></trkpt><trkpt lat="42.2316055" lon="13.5929055"><ele>543.6</ele><time>2026-04-26T16:36:03.866Z</time></trkpt><trkpt lat="42.2315519" lon="13.5930162"><ele>542.2</ele><time>2026-04-26T16:36:04.865Z</time></trkpt><trkpt lat="42.2314985" lon="13.593108"><ele>540.8</ele><time>2026-04-26T16:36:05.867Z</time></trkpt><trkpt lat="42.2314369" lon="13.5931909"><ele>539.4</ele><time>2026-04-26T16:36:06.866Z</time></trkpt><trkpt lat="42.2313699" lon="13.5932812"><ele>538.0</ele><time>2026-04-26T16:36:07.866Z</time></trkpt><trkpt lat="42.2312781" lon="13.5933708"><ele>538.0</ele><time>2026-04-26T16:36:08.866Z</time></trkpt><trkpt lat="42.2311859" lon="13.5934693"><ele>538.0</ele><time>2026-04-26T16:36:09.866Z</time></trkpt><trkpt lat="42.2310978" lon="13.5935672"><ele>538.0</ele><time>2026-04-26T16:36:10.866Z</time></trkpt><trkpt lat="42.2310131" lon="13.5936614"><ele>538.0</ele><time>2026-04-26T16:36:11.867Z</time></trkpt><trkpt lat="42.2309232" lon="13.593761"><ele>537.0</ele><time>2026-04-26T16:36:12.866Z</time></trkpt><trkpt lat="42.2308388" lon="13.5938548"><ele>536.0</ele><time>2026-04-26T16:36:13.865Z</time></trkpt><trkpt lat="42.2307547" lon="13.5939608"><ele>535.0</ele><time>2026-04-26T16:36:14.865Z</time></trkpt><trkpt lat="42.2306736" lon="13.5940752"><ele>534.0</ele><time>2026-04-26T16:36:15.866Z</time></trkpt><trkpt lat="42.2306015" lon="13.5941974"><ele>534.0</ele><time>2026-04-26T16:36:16.867Z</time></trkpt><trkpt lat="42.230532" lon="13.5943148"><ele>534.0</ele><time>2026-04-26T16:36:17.866Z</time></trkpt><trkpt lat="42.2304723" lon="13.5944322"><ele>534.0</ele><time>2026-04-26T16:36:18.866Z</time></trkpt><trkpt lat="42.2304201" lon="13.5945486"><ele>534.0</ele><time>2026-04-26T16:36:19.866Z</time></trkpt><trkpt lat="42.2303717" lon="13.5946645"><ele>534.0</ele><time>2026-04-26T16:36:20.866Z</time></trkpt><trkpt lat="42.230324" lon="13.5947772"><ele>534.4</ele><time>2026-04-26T16:36:21.866Z</time></trkpt><trkpt lat="42.2302765" lon="13.594895"><ele>534.8</ele><time>2026-04-26T16:36:22.866Z</time></trkpt><trkpt lat="42.2302281" lon="13.5950114"><ele>535.2</ele><time>2026-04-26T16:36:23.866Z</time></trkpt><trkpt lat="42.2301745" lon="13.5951206"><ele>535.6</ele><time>2026-04-26T16:36:24.865Z</time></trkpt><trkpt lat="42.2301135" lon="13.5952244"><ele>536.0</ele><time>2026-04-26T16:36:25.866Z</time></trkpt><trkpt lat="42.2300406" lon="13.5953177"><ele>535.2</ele><time>2026-04-26T16:36:26.865Z</time></trkpt><trkpt lat="42.2299609" lon="13.5954204"><ele>534.4000000000001</ele><time>2026-04-26T16:36:27.867Z</time></trkpt><trkpt lat="42.2298822" lon="13.5955296"><ele>533.6</ele><time>2026-04-26T16:36:28.865Z</time></trkpt><trkpt lat="42.2298109" lon="13.5956323"><ele>532.8000000000001</ele><time>2026-04-26T16:36:29.866Z</time></trkpt><trkpt lat="42.2297432" lon="13.5957308"><ele>532.0</ele><time>2026-04-26T16:36:30.865Z</time></trkpt><trkpt lat="42.2296733" lon="13.5958283"><ele>532.0</ele><time>2026-04-26T16:36:31.865Z</time></trkpt><trkpt lat="42.2295976" lon="13.5959231"><ele>532.0</ele><time>2026-04-26T16:36:32.865Z</time></trkpt><trkpt lat="42.2295242" lon="13.5960221"><ele>532.0</ele><time>2026-04-26T16:36:33.867Z</time></trkpt><trkpt lat="42.2294509" lon="13.5961282"><ele>532.0</ele><time>2026-04-26T16:36:34.867Z</time></trkpt><trkpt lat="42.2293767" lon="13.5962337"><ele>532.0</ele><time>2026-04-26T16:36:35.867Z</time></trkpt><trkpt lat="42.2293024" lon="13.5963394"><ele>532.0</ele><time>2026-04-26T16:36:36.867Z</time></trkpt><trkpt lat="42.2292347" lon="13.5964386"><ele>532.0</ele><time>2026-04-26T16:36:37.867Z</time></trkpt><trkpt lat="42.2291749" lon="13.5965376"><ele>532.0</ele><time>2026-04-26T16:36:38.866Z</time></trkpt><trkpt lat="42.2291174" lon="13.5966355"><ele>532.0</ele><time>2026-04-26T16:36:39.866Z</time></trkpt><trkpt lat="42.2290588" lon="13.5967267"><ele>532.0</ele><time>2026-04-26T16:36:40.866Z</time></trkpt><trkpt lat="42.2289993" lon="13.5968287"><ele>532.0</ele><time>2026-04-26T16:36:41.866Z</time></trkpt><trkpt lat="42.2289385" lon="13.5969293"><ele>532.0</ele><time>2026-04-26T16:36:42.865Z</time></trkpt><trkpt lat="42.2288916" lon="13.5970267"><ele>532.0</ele><time>2026-04-26T16:36:43.866Z</time></trkpt><trkpt lat="42.2288433" lon="13.597114"><ele>532.0</ele><time>2026-04-26T16:36:44.866Z</time></trkpt><trkpt lat="42.2287814" lon="13.5971838"><ele>532.0</ele><time>2026-04-26T16:36:45.867Z</time></trkpt><trkpt lat="42.2287102" lon="13.5972598"><ele>532.0</ele><time>2026-04-26T16:36:46.866Z</time></trkpt><trkpt lat="42.2286251" lon="13.5973631"><ele>531.8000000000001</ele><time>2026-04-26T16:36:47.865Z</time></trkpt><trkpt lat="42.2285423" lon="13.5974566"><ele>531.6</ele><time>2026-04-26T16:36:48.865Z</time></trkpt><trkpt lat="42.2284676" lon="13.5975317"><ele>531.4000000000001</ele><time>2026-04-26T16:36:49.865Z</time></trkpt><trkpt lat="42.228393" lon="13.5976041"><ele>531.2</ele><time>2026-04-26T16:36:50.867Z</time></trkpt><trkpt lat="42.2283182" lon="13.5976785"><ele>531.0</ele><time>2026-04-26T16:36:51.865Z</time></trkpt><trkpt lat="42.228245" lon="13.5977612"><ele>531.4</ele><time>2026-04-26T16:36:52.866Z</time></trkpt><trkpt lat="42.2281706" lon="13.5978551"><ele>531.8</ele><time>2026-04-26T16:36:53.866Z</time></trkpt><trkpt lat="42.2281025" lon="13.5979342"><ele>532.1999999999999</ele><time>2026-04-26T16:36:54.865Z</time></trkpt><trkpt lat="42.2280438" lon="13.598014"><ele>532.6</ele><time>2026-04-26T16:36:55.867Z</time></trkpt><trkpt lat="42.227979" lon="13.5980874"><ele>533.0</ele><time>2026-04-26T16:36:56.867Z</time></trkpt><trkpt lat="42.2279061" lon="13.5981678"><ele>533.0</ele><time>2026-04-26T16:36:57.867Z</time></trkpt><trkpt lat="42.2278288" lon="13.5982509"><ele>533.0</ele><time>2026-04-26T16:36:58.866Z</time></trkpt><trkpt lat="42.2277542" lon="13.598318"><ele>533.0</ele><time>2026-04-26T16:36:59.867Z</time></trkpt><trkpt lat="42.2276739" lon="13.598387"><ele>533.0</ele><time>2026-04-26T16:37:00.865Z</time></trkpt><trkpt lat="42.2275856" lon="13.5984327"><ele>533.0</ele><time>2026-04-26T16:37:01.866Z</time></trkpt><trkpt lat="42.227496" lon="13.598463"><ele>533.0</ele><time>2026-04-26T16:37:02.867Z</time></trkpt><trkpt lat="42.2274074" lon="13.5984877"><ele>533.0</ele><time>2026-04-26T16:37:03.866Z</time></trkpt><trkpt lat="42.2273288" lon="13.5984983"><ele>533.0</ele><time>2026-04-26T16:37:04.867Z</time></trkpt><trkpt lat="42.2272547" lon="13.5985078"><ele>533.0</ele><time>2026-04-26T16:37:05.867Z</time></trkpt><trkpt lat="42.2271348" lon="13.5985016"><ele>533.0</ele><time>2026-04-26T16:37:07.866Z</time></trkpt><trkpt lat="42.2270563" lon="13.5985221"><ele>533.0</ele><time>2026-04-26T16:37:08.867Z</time></trkpt><trkpt lat="42.2269806" lon="13.5985466"><ele>533.1428571428571</ele><time>2026-04-26T16:37:09.866Z</time></trkpt><trkpt lat="42.2269105" lon="13.5985813"><ele>533.2857142857142</ele><time>2026-04-26T16:37:10.866Z</time></trkpt><trkpt lat="42.2268563" lon="13.5986275"><ele>533.4285714285714</ele><time>2026-04-26T16:37:11.867Z</time></trkpt><trkpt lat="42.2267986" lon="13.598678"><ele>533.5714285714286</ele><time>2026-04-26T16:37:12.867Z</time></trkpt><trkpt lat="42.2267424" lon="13.5987198"><ele>533.7142857142858</ele><time>2026-04-26T16:37:13.866Z</time></trkpt><trkpt lat="42.2266844" lon="13.5987685"><ele>533.8571428571429</ele><time>2026-04-26T16:37:14.866Z</time></trkpt><trkpt lat="42.2266197" lon="13.5988137"><ele>534.0</ele><time>2026-04-26T16:37:15.866Z</time></trkpt><trkpt lat="42.2265598" lon="13.5988491"><ele>534.0</ele><time>2026-04-26T16:37:16.865Z</time></trkpt><trkpt lat="42.2264985" lon="13.5988852"><ele>534.0</ele><time>2026-04-26T16:37:17.866Z</time></trkpt><trkpt lat="42.2263889" lon="13.598947"><ele>534.0</ele><time>2026-04-26T16:37:19.866Z</time></trkpt><trkpt lat="42.226289" lon="13.5990104"><ele>534.0</ele><time>2026-04-26T16:37:21.867Z</time></trkpt><trkpt lat="42.2262265" lon="13.5990579"><ele>534.0</ele><time>2026-04-26T16:37:22.866Z</time></trkpt><trkpt lat="42.2261681" lon="13.5991254"><ele>534.0</ele><time>2026-04-26T16:37:23.867Z</time></trkpt><trkpt lat="42.2261078" lon="13.5991974"><ele>533.8333333333334</ele><time>2026-04-26T16:37:24.866Z</time></trkpt><trkpt lat="42.2260477" lon="13.5992841"><ele>533.6666666666666</ele><time>2026-04-26T16:37:25.866Z</time></trkpt><trkpt lat="42.2259872" lon="13.5993702"><ele>533.5</ele><time>2026-04-26T16:37:26.866Z</time></trkpt><trkpt lat="42.2259301" lon="13.5994461"><ele>533.3333333333333</ele><time>2026-04-26T16:37:27.866Z</time></trkpt><trkpt lat="42.2258682" lon="13.5995229"><ele>533.1666666666666</ele><time>2026-04-26T16:37:28.865Z</time></trkpt><trkpt lat="42.2258007" lon="13.5996024"><ele>533.0</ele><time>2026-04-26T16:37:29.866Z</time></trkpt><trkpt lat="42.2257354" lon="13.5996869"><ele>533.0</ele><time>2026-04-26T16:37:30.866Z</time></trkpt><trkpt lat="42.2256771" lon="13.5997736"><ele>533.0</ele><time>2026-04-26T16:37:31.865Z</time></trkpt><trkpt lat="42.2256381" lon="13.5998667"><ele>533.0</ele><time>2026-04-26T16:37:32.865Z</time></trkpt><trkpt lat="42.2256217" lon="13.5999699"><ele>533.0</ele><time>2026-04-26T16:37:33.865Z</time></trkpt><trkpt lat="42.2256258" lon="13.6000753"><ele>533.0</ele><time>2026-04-26T16:37:34.866Z</time></trkpt><trkpt lat="42.225646" lon="13.6001866"><ele>533.0</ele><time>2026-04-26T16:37:35.865Z</time></trkpt><trkpt lat="42.2256705" lon="13.600296"><ele>533.8</ele><time>2026-04-26T16:37:36.867Z</time></trkpt><trkpt lat="42.2256972" lon="13.600414"><ele>534.5999999999999</ele><time>2026-04-26T16:37:37.866Z</time></trkpt><trkpt lat="42.2257238" lon="13.6005348"><ele>535.4000000000001</ele><time>2026-04-26T16:37:38.866Z</time></trkpt><trkpt lat="42.2257438" lon="13.6006518"><ele>536.2</ele><time>2026-04-26T16:37:39.867Z</time></trkpt><trkpt lat="42.2257489" lon="13.6007807"><ele>537.0</ele><time>2026-04-26T16:37:40.866Z</time></trkpt><trkpt lat="42.2257363" lon="13.6009211"><ele>537.0</ele><time>2026-04-26T16:37:41.867Z</time></trkpt><trkpt lat="42.2257161" lon="13.6010792"><ele>537.0</ele><time>2026-04-26T16:37:42.866Z</time></trkpt><trkpt lat="42.2256982" lon="13.6012642"><ele>537.0</ele><time>2026-04-26T16:37:43.866Z</time></trkpt><trkpt lat="42.2256878" lon="13.6014407"><ele>537.0</ele><time>2026-04-26T16:37:44.865Z</time></trkpt><trkpt lat="42.2256728" lon="13.6016593"><ele>538.5</ele><time>2026-04-26T16:37:45.866Z</time></trkpt><trkpt lat="42.225661" lon="13.6018595"><ele>540.0</ele><time>2026-04-26T16:37:46.866Z</time></trkpt><trkpt lat="42.225656" lon="13.602035"><ele>541.5</ele><time>2026-04-26T16:37:47.866Z</time></trkpt><trkpt lat="42.2256707" lon="13.6022079"><ele>543.0</ele><time>2026-04-26T16:37:48.865Z</time></trkpt><trkpt lat="42.2256889" lon="13.6023706"><ele>542.25</ele><time>2026-04-26T16:37:49.866Z</time></trkpt><trkpt lat="42.2256972" lon="13.6025397"><ele>541.5</ele><time>2026-04-26T16:37:50.866Z</time></trkpt><trkpt lat="42.2256873" lon="13.6027138"><ele>540.75</ele><time>2026-04-26T16:37:51.866Z</time></trkpt><trkpt lat="42.2256617" lon="13.6028903"><ele>540.0</ele><time>2026-04-26T16:37:52.866Z</time></trkpt><trkpt lat="42.2256135" lon="13.6030633"><ele>540.0</ele><time>2026-04-26T16:37:53.866Z</time></trkpt><trkpt lat="42.2255564" lon="13.6032346"><ele>540.0</ele><time>2026-04-26T16:37:54.867Z</time></trkpt><trkpt lat="42.2254893" lon="13.6033958"><ele>540.0</ele><time>2026-04-26T16:37:55.866Z</time></trkpt><trkpt lat="42.2254179" lon="13.6035347"><ele>540.0</ele><time>2026-04-26T16:37:56.865Z</time></trkpt><trkpt lat="42.225358" lon="13.6036602"><ele>541.8</ele><time>2026-04-26T16:37:57.866Z</time></trkpt><trkpt lat="42.2253109" lon="13.6037832"><ele>543.6</ele><time>2026-04-26T16:37:58.865Z</time></trkpt><trkpt lat="42.2252767" lon="13.6038881"><ele>545.4</ele><time>2026-04-26T16:37:59.865Z</time></trkpt><trkpt lat="42.2252511" lon="13.6039663"><ele>547.2</ele><time>2026-04-26T16:38:00.866Z</time></trkpt><trkpt lat="42.2251691" lon="13.6040982"><ele>549.0</ele><time>2026-04-26T16:38:02.866Z</time></trkpt><trkpt lat="42.2250992" lon="13.6041668"><ele>549.0</ele><time>2026-04-26T16:38:03.866Z</time></trkpt><trkpt lat="42.2250181" lon="13.6042494"><ele>549.0</ele><time>2026-04-26T16:38:04.865Z</time></trkpt><trkpt lat="42.2249308" lon="13.6043443"><ele>549.0</ele><time>2026-04-26T16:38:05.866Z</time></trkpt><trkpt lat="42.2248361" lon="13.6044538"><ele>549.0</ele><time>2026-04-26T16:38:06.866Z</time></trkpt><trkpt lat="42.2247447" lon="13.6045741"><ele>546.25</ele><time>2026-04-26T16:38:07.866Z</time></trkpt><trkpt lat="42.2246502" lon="13.6047118"><ele>543.5</ele><time>2026-04-26T16:38:08.866Z</time></trkpt><trkpt lat="42.2245607" lon="13.6048686"><ele>540.75</ele><time>2026-04-26T16:38:09.865Z</time></trkpt><trkpt lat="42.2244627" lon="13.6050314"><ele>538.0</ele><time>2026-04-26T16:38:10.865Z</time></trkpt><trkpt lat="42.2243598" lon="13.605195"><ele>540.3333333333334</ele><time>2026-04-26T16:38:11.866Z</time></trkpt><trkpt lat="42.2242548" lon="13.605362"><ele>542.6666666666666</ele><time>2026-04-26T16:38:12.867Z</time></trkpt><trkpt lat="42.2241432" lon="13.6055343"><ele>545.0</ele><time>2026-04-26T16:38:13.865Z</time></trkpt><trkpt lat="42.2240269" lon="13.6057129"><ele>540.3333333333333</ele><time>2026-04-26T16:38:14.866Z</time></trkpt><trkpt lat="42.2239069" lon="13.6058942"><ele>535.6666666666666</ele><time>2026-04-26T16:38:15.865Z</time></trkpt><trkpt lat="42.2237826" lon="13.6060771"><ele>531.0</ele><time>2026-04-26T16:38:16.865Z</time></trkpt><trkpt lat="42.2236451" lon="13.6062626"><ele>531.0</ele><time>2026-04-26T16:38:17.865Z</time></trkpt><trkpt lat="42.2235159" lon="13.6064543"><ele>531.0</ele><time>2026-04-26T16:38:18.865Z</time></trkpt><trkpt lat="42.2234027" lon="13.6066756"><ele>531.0</ele><time>2026-04-26T16:38:19.866Z</time></trkpt><trkpt lat="42.2233106" lon="13.6069156"><ele>532.3333333333334</ele><time>2026-04-26T16:38:20.865Z</time></trkpt><trkpt lat="42.2232239" lon="13.6071481"><ele>533.6666666666667</ele><time>2026-04-26T16:38:21.865Z</time></trkpt><trkpt lat="42.2231515" lon="13.6073729"><ele>535.0</ele><time>2026-04-26T16:38:22.866Z</time></trkpt><trkpt lat="42.2230754" lon="13.6075851"><ele>534.0</ele><time>2026-04-26T16:38:23.865Z</time></trkpt><trkpt lat="42.2230016" lon="13.6077788"><ele>533.0</ele><time>2026-04-26T16:38:24.866Z</time></trkpt><trkpt lat="42.2229245" lon="13.6079564"><ele>532.0</ele><time>2026-04-26T16:38:25.866Z</time></trkpt><trkpt lat="42.2228411" lon="13.6080931"><ele>531.0</ele><time>2026-04-26T16:38:26.866Z</time></trkpt><trkpt lat="42.2227446" lon="13.6081859"><ele>531.0</ele><time>2026-04-26T16:38:27.866Z</time></trkpt><trkpt lat="42.2226313" lon="13.6082334"><ele>531.0</ele><time>2026-04-26T16:38:28.866Z</time></trkpt><trkpt lat="42.2225035" lon="13.6082374"><ele>531.0</ele><time>2026-04-26T16:38:29.866Z</time></trkpt><trkpt lat="42.222372" lon="13.6082009"><ele>531.0</ele><time>2026-04-26T16:38:30.866Z</time></trkpt><trkpt lat="42.222249" lon="13.6081519"><ele>529.25</ele><time>2026-04-26T16:38:31.866Z</time></trkpt><trkpt lat="42.2221215" lon="13.6080958"><ele>527.5</ele><time>2026-04-26T16:38:32.866Z</time></trkpt><trkpt lat="42.2219962" lon="13.6080194"><ele>525.75</ele><time>2026-04-26T16:38:33.867Z</time></trkpt><trkpt lat="42.221876" lon="13.6079218"><ele>524.0</ele><time>2026-04-26T16:38:34.866Z</time></trkpt><trkpt lat="42.2217761" lon="13.6078212"><ele>524.0</ele><time>2026-04-26T16:38:35.866Z</time></trkpt><trkpt lat="42.2216932" lon="13.6077277"><ele>524.0</ele><time>2026-04-26T16:38:36.867Z</time></trkpt><trkpt lat="42.2216178" lon="13.6076356"><ele>524.0</ele><time>2026-04-26T16:38:37.866Z</time></trkpt><trkpt lat="42.2215529" lon="13.6075531"><ele>524.0</ele><time>2026-04-26T16:38:38.866Z</time></trkpt><trkpt lat="42.2214952" lon="13.6074784"><ele>524.0</ele><time>2026-04-26T16:38:39.866Z</time></trkpt><trkpt lat="42.2214373" lon="13.6073609"><ele>524.5</ele><time>2026-04-26T16:38:41.866Z</time></trkpt><trkpt lat="42.2213733" lon="13.6072854"><ele>525.0</ele><time>2026-04-26T16:38:44.866Z</time></trkpt><trkpt lat="42.2212958" lon="13.6073755"><ele>525.5</ele><time>2026-04-26T16:38:47.866Z</time></trkpt><trkpt lat="42.2212393" lon="13.6074279"><ele>526.0</ele><time>2026-04-26T16:38:48.866Z</time></trkpt><trkpt lat="42.2211894" lon="13.6074939"><ele>526.5</ele><time>2026-04-26T16:38:49.866Z</time></trkpt><trkpt lat="42.2211291" lon="13.60758"><ele>527.0</ele><time>2026-04-26T16:38:50.867Z</time></trkpt><trkpt lat="42.2210681" lon="13.6076751"><ele>527.0</ele><time>2026-04-26T16:38:51.866Z</time></trkpt><trkpt lat="42.2210059" lon="13.6077819"><ele>527.0</ele><time>2026-04-26T16:38:52.865Z</time></trkpt><trkpt lat="42.2209414" lon="13.6078865"><ele>527.0</ele><time>2026-04-26T16:38:53.866Z</time></trkpt><trkpt lat="42.2208771" lon="13.6079815"><ele>527.0</ele><time>2026-04-26T16:38:54.866Z</time></trkpt><trkpt lat="42.2208079" lon="13.6080823"><ele>527.0</ele><time>2026-04-26T16:38:55.866Z</time></trkpt><trkpt lat="42.2207354" lon="13.6081837"><ele>527.0</ele><time>2026-04-26T16:38:56.866Z</time></trkpt><trkpt lat="42.2206725" lon="13.6082883"><ele>527.0</ele><time>2026-04-26T16:38:57.866Z</time></trkpt><trkpt lat="42.220606" lon="13.6083921"><ele>527.0</ele><time>2026-04-26T16:38:58.866Z</time></trkpt><trkpt lat="42.2205411" lon="13.6085042"><ele>527.0</ele><time>2026-04-26T16:38:59.866Z</time></trkpt><trkpt lat="42.2205086" lon="13.6086254"><ele>527.0</ele><time>2026-04-26T16:39:00.866Z</time></trkpt><trkpt lat="42.2204504" lon="13.6087343"><ele>527.0</ele><time>2026-04-26T16:39:01.866Z</time></trkpt><trkpt lat="42.2204174" lon="13.6088578"><ele>527.0</ele><time>2026-04-26T16:39:02.865Z</time></trkpt><trkpt lat="42.2203806" lon="13.6089828"><ele>527.0</ele><time>2026-04-26T16:39:03.865Z</time></trkpt><trkpt lat="42.2203286" lon="13.6091136"><ele>527.0</ele><time>2026-04-26T16:39:04.866Z</time></trkpt><trkpt lat="42.220268" lon="13.60923"><ele>527.0</ele><time>2026-04-26T16:39:05.865Z</time></trkpt><trkpt lat="42.2202027" lon="13.6093426"><ele>527.0</ele><time>2026-04-26T16:39:06.866Z</time></trkpt><trkpt lat="42.2201258" lon="13.6094515"><ele>527.0</ele><time>2026-04-26T16:39:07.866Z</time></trkpt><trkpt lat="42.2200484" lon="13.6095592"><ele>527.0</ele><time>2026-04-26T16:39:08.865Z</time></trkpt><trkpt lat="42.2199706" lon="13.6096461"><ele>527.0</ele><time>2026-04-26T16:39:09.866Z</time></trkpt><trkpt lat="42.219909" lon="13.6097203"><ele>527.0</ele><time>2026-04-26T16:39:10.866Z</time></trkpt><trkpt lat="42.2198544" lon="13.6097844"><ele>527.5</ele><time>2026-04-26T16:39:11.866Z</time></trkpt><trkpt lat="42.2197957" lon="13.6098448"><ele>528.0</ele><time>2026-04-26T16:39:14.866Z</time></trkpt><trkpt lat="42.219738" lon="13.6099497"><ele>528.5</ele><time>2026-04-26T16:39:17.866Z</time></trkpt><trkpt lat="42.219699" lon="13.6100207"><ele>529.0</ele><time>2026-04-26T16:39:18.866Z</time></trkpt><trkpt lat="42.2196533" lon="13.6101016"><ele>529.5</ele><time>2026-04-26T16:39:19.867Z</time></trkpt><trkpt lat="42.2195994" lon="13.6101912"><ele>530.0</ele><time>2026-04-26T16:39:20.866Z</time></trkpt><trkpt lat="42.2195441" lon="13.6102858"><ele>529.3333333333333</ele><time>2026-04-26T16:39:21.866Z</time></trkpt><trkpt lat="42.2194862" lon="13.6103817"><ele>528.6666666666666</ele><time>2026-04-26T16:39:22.866Z</time></trkpt><trkpt lat="42.2194309" lon="13.6104785"><ele>528.0</ele><time>2026-04-26T16:39:23.866Z</time></trkpt><trkpt lat="42.2193801" lon="13.6105775"><ele>527.3333333333334</ele><time>2026-04-26T16:39:24.865Z</time></trkpt><trkpt lat="42.2193392" lon="13.6106621"><ele>526.6666666666667</ele><time>2026-04-26T16:39:25.866Z</time></trkpt><trkpt lat="42.2193041" lon="13.6107558"><ele>526.0</ele><time>2026-04-26T16:39:26.866Z</time></trkpt><trkpt lat="42.219254" lon="13.6109045"><ele>526.0</ele><time>2026-04-26T16:39:28.866Z</time></trkpt><trkpt lat="42.2192259" lon="13.6110013"><ele>526.0</ele><time>2026-04-26T16:39:29.866Z</time></trkpt><trkpt lat="42.2192015" lon="13.6110977"><ele>526.0</ele><time>2026-04-26T16:39:30.867Z</time></trkpt><trkpt lat="42.2191527" lon="13.6112256"><ele>526.0</ele><time>2026-04-26T16:39:32.866Z</time></trkpt><trkpt lat="42.2191025" lon="13.6113631"><ele>526.0</ele><time>2026-04-26T16:39:34.865Z</time></trkpt><trkpt lat="42.2190627" lon="13.6114546"><ele>526.0</ele><time>2026-04-26T16:39:37.866Z</time></trkpt><trkpt lat="42.2190981" lon="13.6113603"><ele>526.0</ele><time>2026-04-26T16:39:51.866Z</time></trkpt><trkpt lat="42.2191275" lon="13.6112682"><ele>526.0</ele><time>2026-04-26T16:39:52.866Z</time></trkpt><trkpt lat="42.2191455" lon="13.6111694"><ele>526.0</ele><time>2026-04-26T16:39:53.866Z</time></trkpt><trkpt lat="42.2191728" lon="13.611073"><ele>526.0</ele><time>2026-04-26T16:39:54.865Z</time></trkpt><trkpt lat="42.2192119" lon="13.6109491"><ele>526.0</ele><time>2026-04-26T16:39:55.867Z</time></trkpt><trkpt lat="42.2192517" lon="13.610839"><ele>526.0</ele><time>2026-04-26T16:39:56.866Z</time></trkpt><trkpt lat="42.2193098" lon="13.6106973"><ele>526.0</ele><time>2026-04-26T16:39:57.866Z</time></trkpt><trkpt lat="42.2193458" lon="13.6105801"><ele>526.0</ele><time>2026-04-26T16:39:58.865Z</time></trkpt><trkpt lat="42.2194332" lon="13.6104476"><ele>526.0</ele><time>2026-04-26T16:39:59.866Z</time></trkpt><trkpt lat="42.2194987" lon="13.6103205"><ele>525.4</ele><time>2026-04-26T16:40:00.867Z</time></trkpt><trkpt lat="42.2195692" lon="13.6102006"><ele>524.8</ele><time>2026-04-26T16:40:01.867Z</time></trkpt><trkpt lat="42.2196284" lon="13.610085"><ele>524.1999999999999</ele><time>2026-04-26T16:40:02.866Z</time></trkpt><trkpt lat="42.2196925" lon="13.6099648"><ele>523.6</ele><time>2026-04-26T16:40:03.865Z</time></trkpt><trkpt lat="42.2197665" lon="13.6098722"><ele>523.0</ele><time>2026-04-26T16:40:04.867Z</time></trkpt><trkpt lat="42.219852" lon="13.6097879"><ele>523.0</ele><time>2026-04-26T16:40:05.865Z</time></trkpt><trkpt lat="42.2199306" lon="13.6096952"><ele>523.0</ele><time>2026-04-26T16:40:06.867Z</time></trkpt><trkpt lat="42.2200138" lon="13.6095901"><ele>523.0</ele><time>2026-04-26T16:40:07.867Z</time></trkpt><trkpt lat="42.2200989" lon="13.609484"><ele>523.0</ele><time>2026-04-26T16:40:08.865Z</time></trkpt><trkpt lat="42.220186" lon="13.6093605"><ele>524.0</ele><time>2026-04-26T16:40:09.865Z</time></trkpt><trkpt lat="42.2202629" lon="13.6092344"><ele>525.0</ele><time>2026-04-26T16:40:10.867Z</time></trkpt><trkpt lat="42.2203277" lon="13.6091102"><ele>526.0</ele><time>2026-04-26T16:40:11.866Z</time></trkpt><trkpt lat="42.2203833" lon="13.6089685"><ele>527.0</ele><time>2026-04-26T16:40:12.866Z</time></trkpt><trkpt lat="42.2204388" lon="13.6088243"><ele>527.0</ele><time>2026-04-26T16:40:13.867Z</time></trkpt><trkpt lat="42.2204882" lon="13.6086684"><ele>527.0</ele><time>2026-04-26T16:40:14.866Z</time></trkpt><trkpt lat="42.2205427" lon="13.6085223"><ele>527.0</ele><time>2026-04-26T16:40:15.866Z</time></trkpt><trkpt lat="42.2206161" lon="13.6083788"><ele>527.0</ele><time>2026-04-26T16:40:16.866Z</time></trkpt><trkpt lat="42.2207079" lon="13.6082394"><ele>527.0</ele><time>2026-04-26T16:40:17.865Z</time></trkpt><trkpt lat="42.2208078" lon="13.6080787"><ele>527.0</ele><time>2026-04-26T16:40:18.866Z</time></trkpt><trkpt lat="42.2209137" lon="13.6079329"><ele>527.0</ele><time>2026-04-26T16:40:19.867Z</time></trkpt><trkpt lat="42.220998" lon="13.6077929"><ele>527.0</ele><time>2026-04-26T16:40:20.865Z</time></trkpt><trkpt lat="42.2210784" lon="13.6076664"><ele>527.0</ele><time>2026-04-26T16:40:21.865Z</time></trkpt><trkpt lat="42.2211444" lon="13.6075417"><ele>527.0</ele><time>2026-04-26T16:40:22.866Z</time></trkpt><trkpt lat="42.2212096" lon="13.607441"><ele>527.0</ele><time>2026-04-26T16:40:23.866Z</time></trkpt><trkpt lat="42.2212721" lon="13.6073763"><ele>527.0</ele><time>2026-04-26T16:40:24.865Z</time></trkpt><trkpt lat="42.2213391" lon="13.6073263"><ele>527.0</ele><time>2026-04-26T16:40:26.865Z</time></trkpt><trkpt lat="42.2213026" lon="13.6072232"><ele>527.0</ele><time>2026-04-26T16:40:29.866Z</time></trkpt><trkpt lat="42.2212138" lon="13.6071307"><ele>527.0</ele><time>2026-04-26T16:40:31.865Z</time></trkpt><trkpt lat="42.221166" lon="13.6070606"><ele>527.0</ele><time>2026-04-26T16:40:32.866Z</time></trkpt><trkpt lat="42.2210873" lon="13.6069373"><ele>527.0</ele><time>2026-04-26T16:40:34.865Z</time></trkpt><trkpt lat="42.2210201" lon="13.6069129"><ele>527.0</ele><time>2026-04-26T16:40:35.867Z</time></trkpt><trkpt lat="42.2209395" lon="13.6069132"><ele>527.0</ele><time>2026-04-26T16:40:36.866Z</time></trkpt><trkpt lat="42.2208493" lon="13.6069358"><ele>527.0</ele><time>2026-04-26T16:40:37.866Z</time></trkpt><trkpt lat="42.2207593" lon="13.6070117"><ele>527.0</ele><time>2026-04-26T16:40:38.866Z</time></trkpt><trkpt lat="42.2206684" lon="13.6071283"><ele>527.0</ele><time>2026-04-26T16:40:39.865Z</time></trkpt><trkpt lat="42.2205613" lon="13.6072583"><ele>530.0</ele><time>2026-04-26T16:40:40.866Z</time></trkpt><trkpt lat="42.2204389" lon="13.6073855"><ele>533.0</ele><time>2026-04-26T16:40:41.866Z</time></trkpt><trkpt lat="42.2203021" lon="13.6075076"><ele>536.0</ele><time>2026-04-26T16:40:42.866Z</time></trkpt><trkpt lat="42.2201473" lon="13.6076204"><ele>536.0</ele><time>2026-04-26T16:40:43.866Z</time></trkpt><trkpt lat="42.2199875" lon="13.607711"><ele>536.0</ele><time>2026-04-26T16:40:44.866Z</time></trkpt><trkpt lat="42.2198146" lon="13.607764"><ele>536.0</ele><time>2026-04-26T16:40:45.865Z</time></trkpt><trkpt lat="42.219638" lon="13.6078034"><ele>538.0</ele><time>2026-04-26T16:40:46.867Z</time></trkpt><trkpt lat="42.2194636" lon="13.6078456"><ele>540.0</ele><time>2026-04-26T16:40:47.865Z</time></trkpt><trkpt lat="42.2192986" lon="13.6079102"><ele>542.0</ele><time>2026-04-26T16:40:48.866Z</time></trkpt><trkpt lat="42.2191497" lon="13.6080568"><ele>542.0</ele><time>2026-04-26T16:40:49.866Z</time></trkpt><trkpt lat="42.2189878" lon="13.6081723"><ele>542.0</ele><time>2026-04-26T16:40:50.866Z</time></trkpt><trkpt lat="42.2188296" lon="13.6082968"><ele>542.0</ele><time>2026-04-26T16:40:51.866Z</time></trkpt><trkpt lat="42.2186514" lon="13.6083916"><ele>548.0</ele><time>2026-04-26T16:40:52.865Z</time></trkpt><trkpt lat="42.218478" lon="13.6084751"><ele>554.0</ele><time>2026-04-26T16:40:53.866Z</time></trkpt><trkpt lat="42.218304" lon="13.6085472"><ele>560.0</ele><time>2026-04-26T16:40:54.866Z</time></trkpt><trkpt lat="42.2181424" lon="13.608641"><ele>562.6666666666666</ele><time>2026-04-26T16:40:55.866Z</time></trkpt><trkpt lat="42.2179937" lon="13.6087698"><ele>565.3333333333334</ele><time>2026-04-26T16:40:56.866Z</time></trkpt><trkpt lat="42.2178465" lon="13.6089079"><ele>568.0</ele><time>2026-04-26T16:40:57.865Z</time></trkpt><trkpt lat="42.2176905" lon="13.6090237"><ele>568.0</ele><time>2026-04-26T16:40:58.866Z</time></trkpt><trkpt lat="42.2175501" lon="13.6091327"><ele>568.0</ele><time>2026-04-26T16:40:59.866Z</time></trkpt><trkpt lat="42.2174196" lon="13.6092865"><ele>568.0</ele><time>2026-04-26T16:41:00.867Z</time></trkpt><trkpt lat="42.2173111" lon="13.6094797"><ele>573.6666666666667</ele><time>2026-04-26T16:41:01.865Z</time></trkpt><trkpt lat="42.217203" lon="13.6096811"><ele>579.3333333333334</ele><time>2026-04-26T16:41:02.867Z</time></trkpt><trkpt lat="42.2170992" lon="13.6099019"><ele>585.0</ele><time>2026-04-26T16:41:03.867Z</time></trkpt><trkpt lat="42.2169885" lon="13.6101327"><ele>580.0</ele><time>2026-04-26T16:41:04.866Z</time></trkpt><trkpt lat="42.2168686" lon="13.6103655"><ele>575.0</ele><time>2026-04-26T16:41:05.865Z</time></trkpt><trkpt lat="42.2167451" lon="13.6106043"><ele>570.0</ele><time>2026-04-26T16:41:06.866Z</time></trkpt><trkpt lat="42.2166271" lon="13.6108593"><ele>570.0</ele><time>2026-04-26T16:41:07.866Z</time></trkpt><trkpt lat="42.2165278" lon="13.6111199"><ele>570.0</ele><time>2026-04-26T16:41:08.865Z</time></trkpt><trkpt lat="42.2164478" lon="13.6113945"><ele>570.0</ele><time>2026-04-26T16:41:09.866Z</time></trkpt><trkpt lat="42.2163927" lon="13.6116769"><ele>572.6666666666666</ele><time>2026-04-26T16:41:10.866Z</time></trkpt><trkpt lat="42.2163759" lon="13.6119357"><ele>575.3333333333333</ele><time>2026-04-26T16:41:11.866Z</time></trkpt><trkpt lat="42.2163063" lon="13.6122025"><ele>578.0</ele><time>2026-04-26T16:41:12.866Z</time></trkpt><trkpt lat="42.2162438" lon="13.6124333"><ele>578.0</ele><time>2026-04-26T16:41:13.865Z</time></trkpt><trkpt lat="42.2161691" lon="13.6126517"><ele>578.0</ele><time>2026-04-26T16:41:14.865Z</time></trkpt><trkpt lat="42.2160551" lon="13.6128523"><ele>578.0</ele><time>2026-04-26T16:41:15.866Z</time></trkpt><trkpt lat="42.2159175" lon="13.6130488"><ele>576.6666666666666</ele><time>2026-04-26T16:41:16.866Z</time></trkpt><trkpt lat="42.2157793" lon="13.6132671"><ele>575.3333333333334</ele><time>2026-04-26T16:41:17.866Z</time></trkpt><trkpt lat="42.2156564" lon="13.6135026"><ele>574.0</ele><time>2026-04-26T16:41:18.866Z</time></trkpt><trkpt lat="42.2155568" lon="13.6137437"><ele>574.0</ele><time>2026-04-26T16:41:19.866Z</time></trkpt><trkpt lat="42.2154799" lon="13.6140137"><ele>574.0</ele><time>2026-04-26T16:41:20.867Z</time></trkpt><trkpt lat="42.2154234" lon="13.6143013"><ele>574.0</ele><time>2026-04-26T16:41:21.867Z</time></trkpt><trkpt lat="42.2153694" lon="13.6145992"><ele>571.0</ele><time>2026-04-26T16:41:22.866Z</time></trkpt><trkpt lat="42.2153019" lon="13.6149075"><ele>568.0</ele><time>2026-04-26T16:41:23.865Z</time></trkpt><trkpt lat="42.2152169" lon="13.6152158"><ele>564.0</ele><time>2026-04-26T16:41:24.865Z</time></trkpt><trkpt lat="42.2151243" lon="13.61553"><ele>560.0</ele><time>2026-04-26T16:41:25.866Z</time></trkpt><trkpt lat="42.2150482" lon="13.6158416"><ele>560.0</ele><time>2026-04-26T16:41:26.865Z</time></trkpt><trkpt lat="42.2149893" lon="13.6161525"><ele>560.0</ele><time>2026-04-26T16:41:27.866Z</time></trkpt><trkpt lat="42.2149416" lon="13.6164592"><ele>558.6666666666666</ele><time>2026-04-26T16:41:28.866Z</time></trkpt><trkpt lat="42.214888" lon="13.6167492"><ele>557.3333333333334</ele><time>2026-04-26T16:41:29.866Z</time></trkpt><trkpt lat="42.2148151" lon="13.6170252"><ele>556.0</ele><time>2026-04-26T16:41:30.865Z</time></trkpt><trkpt lat="42.214717" lon="13.6172923"><ele>561.5</ele><time>2026-04-26T16:41:31.865Z</time></trkpt><trkpt lat="42.2146002" lon="13.6175561"><ele>567.0</ele><time>2026-04-26T16:41:32.866Z</time></trkpt><trkpt lat="42.2144728" lon="13.6178159"><ele>564.0</ele><time>2026-04-26T16:41:33.865Z</time></trkpt><trkpt lat="42.2143481" lon="13.6180837"><ele>561.0</ele><time>2026-04-26T16:41:34.865Z</time></trkpt><trkpt lat="42.2142179" lon="13.6183538"><ele>561.0</ele><time>2026-04-26T16:41:35.866Z</time></trkpt><trkpt lat="42.2140788" lon="13.618627"><ele>561.0</ele><time>2026-04-26T16:41:36.866Z</time></trkpt><trkpt lat="42.2139348" lon="13.618897"><ele>565.0</ele><time>2026-04-26T16:41:37.866Z</time></trkpt><trkpt lat="42.2137981" lon="13.619182"><ele>569.0</ele><time>2026-04-26T16:41:38.865Z</time></trkpt><trkpt lat="42.2136661" lon="13.619466"><ele>565.0</ele><time>2026-04-26T16:41:39.864Z</time></trkpt><trkpt lat="42.2135407" lon="13.6197268"><ele>561.0</ele><time>2026-04-26T16:41:40.866Z</time></trkpt><trkpt lat="42.2134137" lon="13.6199897"><ele>561.0</ele><time>2026-04-26T16:41:41.866Z</time></trkpt><trkpt lat="42.2132626" lon="13.6201531"><ele>561.0</ele><time>2026-04-26T16:41:42.866Z</time></trkpt><trkpt lat="42.2131275" lon="13.6203651"><ele>561.0</ele><time>2026-04-26T16:41:43.865Z</time></trkpt><trkpt lat="42.2130111" lon="13.6205998"><ele>561.0</ele><time>2026-04-26T16:41:44.865Z</time></trkpt><trkpt lat="42.2129107" lon="13.6208561"><ele>561.0</ele><time>2026-04-26T16:41:45.864Z</time></trkpt><trkpt lat="42.2128226" lon="13.6211229"><ele>561.0</ele><time>2026-04-26T16:41:46.865Z</time></trkpt><trkpt lat="42.2127182" lon="13.6213928"><ele>561.0</ele><time>2026-04-26T16:41:47.866Z</time></trkpt><trkpt lat="42.2126325" lon="13.6216661"><ele>561.0</ele><time>2026-04-26T16:41:48.866Z</time></trkpt><trkpt lat="42.212482" lon="13.621942"><ele>563.5</ele><time>2026-04-26T16:41:49.866Z</time></trkpt><trkpt lat="42.2123553" lon="13.6222139"><ele>566.0</ele><time>2026-04-26T16:41:50.865Z</time></trkpt><trkpt lat="42.2122179" lon="13.6225229"><ele>566.0</ele><time>2026-04-26T16:41:51.864Z</time></trkpt><trkpt lat="42.2120847" lon="13.6228077"><ele>566.0</ele><time>2026-04-26T16:41:52.866Z</time></trkpt><trkpt lat="42.2119479" lon="13.6230939"><ele>564.0</ele><time>2026-04-26T16:41:53.864Z</time></trkpt><trkpt lat="42.2118111" lon="13.6233863"><ele>562.0</ele><time>2026-04-26T16:41:54.865Z</time></trkpt><trkpt lat="42.2116774" lon="13.6236694"><ele>558.0</ele><time>2026-04-26T16:41:55.866Z</time></trkpt><trkpt lat="42.2115503" lon="13.6239867"><ele>554.0</ele><time>2026-04-26T16:41:56.865Z</time></trkpt><trkpt lat="42.2114146" lon="13.6242894"><ele>560.5</ele><time>2026-04-26T16:41:57.865Z</time></trkpt><trkpt lat="42.2112826" lon="13.6245786"><ele>567.0</ele><time>2026-04-26T16:41:58.865Z</time></trkpt><trkpt lat="42.2111496" lon="13.6248576"><ele>567.0</ele><time>2026-04-26T16:41:59.864Z</time></trkpt><trkpt lat="42.2110199" lon="13.6251138"><ele>567.0</ele><time>2026-04-26T16:42:00.864Z</time></trkpt><trkpt lat="42.210894" lon="13.6253563"><ele>567.0</ele><time>2026-04-26T16:42:01.864Z</time></trkpt><trkpt lat="42.2107744" lon="13.6255843"><ele>567.0</ele><time>2026-04-26T16:42:02.865Z</time></trkpt><trkpt lat="42.2106472" lon="13.6258031"><ele>567.0</ele><time>2026-04-26T16:42:03.864Z</time></trkpt><trkpt lat="42.210513" lon="13.6260166"><ele>567.0</ele><time>2026-04-26T16:42:04.866Z</time></trkpt><trkpt lat="42.2103735" lon="13.6262364"><ele>564.0</ele><time>2026-04-26T16:42:05.865Z</time></trkpt><trkpt lat="42.2102296" lon="13.626466"><ele>561.0</ele><time>2026-04-26T16:42:06.866Z</time></trkpt><trkpt lat="42.2100888" lon="13.626696"><ele>558.0</ele><time>2026-04-26T16:42:07.864Z</time></trkpt><trkpt lat="42.20996" lon="13.6269251"><ele>555.6666666666666</ele><time>2026-04-26T16:42:08.865Z</time></trkpt><trkpt lat="42.2098524" lon="13.6271651"><ele>553.3333333333333</ele><time>2026-04-26T16:42:09.865Z</time></trkpt><trkpt lat="42.209753" lon="13.6274078"><ele>551.0</ele><time>2026-04-26T16:42:10.865Z</time></trkpt><trkpt lat="42.209649" lon="13.6276595"><ele>557.0</ele><time>2026-04-26T16:42:11.866Z</time></trkpt><trkpt lat="42.2096769" lon="13.6279503"><ele>563.0</ele><time>2026-04-26T16:42:12.864Z</time></trkpt><trkpt lat="42.2096114" lon="13.6282273"><ele>569.0</ele><time>2026-04-26T16:42:13.865Z</time></trkpt><trkpt lat="42.209522" lon="13.6284992"><ele>566.3333333333333</ele><time>2026-04-26T16:42:14.864Z</time></trkpt><trkpt lat="42.2094151" lon="13.6287617"><ele>563.6666666666666</ele><time>2026-04-26T16:42:15.866Z</time></trkpt><trkpt lat="42.2093125" lon="13.6290232"><ele>561.0</ele><time>2026-04-26T16:42:16.864Z</time></trkpt><trkpt lat="42.2092028" lon="13.6292753"><ele>563.0</ele><time>2026-04-26T16:42:17.864Z</time></trkpt><trkpt lat="42.209065" lon="13.6295051"><ele>565.0</ele><time>2026-04-26T16:42:18.865Z</time></trkpt><trkpt lat="42.2089224" lon="13.6297263"><ele>567.0</ele><time>2026-04-26T16:42:19.864Z</time></trkpt><trkpt lat="42.2087762" lon="13.6299398"><ele>567.0</ele><time>2026-04-26T16:42:20.866Z</time></trkpt><trkpt lat="42.2086417" lon="13.6301488"><ele>567.0</ele><time>2026-04-26T16:42:21.865Z</time></trkpt><trkpt lat="42.208506" lon="13.6303692"><ele>567.0</ele><time>2026-04-26T16:42:22.864Z</time></trkpt><trkpt lat="42.208391" lon="13.6305993"><ele>566.6666666666666</ele><time>2026-04-26T16:42:23.864Z</time></trkpt><trkpt lat="42.2083027" lon="13.6308794"><ele>566.3333333333333</ele><time>2026-04-26T16:42:24.865Z</time></trkpt><trkpt lat="42.2081984" lon="13.6311288"><ele>566.0</ele><time>2026-04-26T16:42:25.864Z</time></trkpt><trkpt lat="42.2080856" lon="13.6313723"><ele>566.0</ele><time>2026-04-26T16:42:26.864Z</time></trkpt><trkpt lat="42.2079759" lon="13.6315968"><ele>566.0</ele><time>2026-04-26T16:42:27.864Z</time></trkpt><trkpt lat="42.2078604" lon="13.6318052"><ele>566.0</ele><time>2026-04-26T16:42:28.866Z</time></trkpt><trkpt lat="42.2077202" lon="13.6319965"><ele>567.0</ele><time>2026-04-26T16:42:29.865Z</time></trkpt><trkpt lat="42.2075521" lon="13.6321751"><ele>568.0</ele><time>2026-04-26T16:42:30.865Z</time></trkpt><trkpt lat="42.2074009" lon="13.6323626"><ele>569.0</ele><time>2026-04-26T16:42:31.864Z</time></trkpt><trkpt lat="42.2072434" lon="13.6325598"><ele>569.0</ele><time>2026-04-26T16:42:32.865Z</time></trkpt><trkpt lat="42.2070828" lon="13.6327537"><ele>569.0</ele><time>2026-04-26T16:42:33.865Z</time></trkpt><trkpt lat="42.2069088" lon="13.6329318"><ele>569.0</ele><time>2026-04-26T16:42:34.866Z</time></trkpt><trkpt lat="42.2067264" lon="13.6331041"><ele>570.6666666666666</ele><time>2026-04-26T16:42:35.866Z</time></trkpt><trkpt lat="42.2065451" lon="13.6332745"><ele>572.3333333333334</ele><time>2026-04-26T16:42:36.866Z</time></trkpt><trkpt lat="42.2063604" lon="13.6334246"><ele>574.0</ele><time>2026-04-26T16:42:37.865Z</time></trkpt><trkpt lat="42.206169" lon="13.6335546"><ele>572.3333333333334</ele><time>2026-04-26T16:42:38.865Z</time></trkpt><trkpt lat="42.20598" lon="13.6336621"><ele>570.6666666666666</ele><time>2026-04-26T16:42:39.864Z</time></trkpt><trkpt lat="42.2058028" lon="13.6337651"><ele>569.0</ele><time>2026-04-26T16:42:40.865Z</time></trkpt><trkpt lat="42.2056403" lon="13.6338575"><ele>572.75</ele><time>2026-04-26T16:42:41.866Z</time></trkpt><trkpt lat="42.2054917" lon="13.6339377"><ele>576.5</ele><time>2026-04-26T16:42:42.864Z</time></trkpt><trkpt lat="42.2053641" lon="13.6340105"><ele>580.25</ele><time>2026-04-26T16:42:43.866Z</time></trkpt><trkpt lat="42.2052614" lon="13.6340964"><ele>584.0</ele><time>2026-04-26T16:42:44.864Z</time></trkpt><trkpt lat="42.205202" lon="13.6342073"><ele>584.0</ele><time>2026-04-26T16:42:45.864Z</time></trkpt><trkpt lat="42.2051737" lon="13.6343457"><ele>584.0</ele><time>2026-04-26T16:42:46.865Z</time></trkpt><trkpt lat="42.205136" lon="13.6344847"><ele>584.0</ele><time>2026-04-26T16:42:47.865Z</time></trkpt><trkpt lat="42.2050609" lon="13.6346144"><ele>584.0</ele><time>2026-04-26T16:42:48.864Z</time></trkpt><trkpt lat="42.2049638" lon="13.634752"><ele>582.5</ele><time>2026-04-26T16:42:49.865Z</time></trkpt><trkpt lat="42.2048673" lon="13.6348944"><ele>581.0</ele><time>2026-04-26T16:42:50.865Z</time></trkpt><trkpt lat="42.2047679" lon="13.6350418"><ele>579.5</ele><time>2026-04-26T16:42:51.865Z</time></trkpt><trkpt lat="42.2046739" lon="13.6351804"><ele>578.0</ele><time>2026-04-26T16:42:52.866Z</time></trkpt><trkpt lat="42.204581" lon="13.6353035"><ele>580.0</ele><time>2026-04-26T16:42:53.864Z</time></trkpt><trkpt lat="42.2045078" lon="13.6354108"><ele>582.0</ele><time>2026-04-26T16:42:54.865Z</time></trkpt><trkpt lat="42.2044507" lon="13.6355069"><ele>584.0</ele><time>2026-04-26T16:42:55.865Z</time></trkpt><trkpt lat="42.2044044" lon="13.6355982"><ele>586.0</ele><time>2026-04-26T16:42:56.864Z</time></trkpt><trkpt lat="42.2043593" lon="13.635686"><ele>588.0</ele><time>2026-04-26T16:42:57.866Z</time></trkpt><trkpt lat="42.204324" lon="13.6357985"><ele>588.0</ele><time>2026-04-26T16:42:58.864Z</time></trkpt><trkpt lat="42.2043067" lon="13.6359064"><ele>588.0</ele><time>2026-04-26T16:42:59.865Z</time></trkpt><trkpt lat="42.2042911" lon="13.6360285"><ele>588.0</ele><time>2026-04-26T16:43:00.865Z</time></trkpt><trkpt lat="42.2042731" lon="13.636159"><ele>588.0</ele><time>2026-04-26T16:43:01.865Z</time></trkpt><trkpt lat="42.2042583" lon="13.6362747"><ele>588.0</ele><time>2026-04-26T16:43:02.864Z</time></trkpt><trkpt lat="42.2042447" lon="13.6363866"><ele>588.0</ele><time>2026-04-26T16:43:03.865Z</time></trkpt><trkpt lat="42.2042252" lon="13.6364848"><ele>588.0</ele><time>2026-04-26T16:43:04.865Z</time></trkpt><trkpt lat="42.2041991" lon="13.6365732"><ele>588.0</ele><time>2026-04-26T16:43:05.865Z</time></trkpt><trkpt lat="42.2041661" lon="13.6366612"><ele>588.0</ele><time>2026-04-26T16:43:06.864Z</time></trkpt><trkpt lat="42.2041224" lon="13.6367449"><ele>588.0</ele><time>2026-04-26T16:43:07.865Z</time></trkpt><trkpt lat="42.2040676" lon="13.6368342"><ele>588.0</ele><time>2026-04-26T16:43:08.864Z</time></trkpt><trkpt lat="42.2040032" lon="13.6369077"><ele>588.0</ele><time>2026-04-26T16:43:09.865Z</time></trkpt><trkpt lat="42.2039261" lon="13.6369649"><ele>586.1666666666666</ele><time>2026-04-26T16:43:10.865Z</time></trkpt><trkpt lat="42.2038325" lon="13.6370103"><ele>584.3333333333334</ele><time>2026-04-26T16:43:11.864Z</time></trkpt><trkpt lat="42.2037499" lon="13.6370561"><ele>582.5</ele><time>2026-04-26T16:43:12.864Z</time></trkpt><trkpt lat="42.2036838" lon="13.6371158"><ele>580.6666666666667</ele><time>2026-04-26T16:43:13.865Z</time></trkpt><trkpt lat="42.2036043" lon="13.6372222"><ele>578.8333333333334</ele><time>2026-04-26T16:43:15.865Z</time></trkpt><trkpt lat="42.2035419" lon="13.6372419"><ele>577.0</ele><time>2026-04-26T16:43:17.864Z</time></trkpt><trkpt lat="42.203562" lon="13.6371333"><ele>577.0</ele><time>2026-04-26T16:43:20.866Z</time></trkpt><trkpt lat="42.2036496" lon="13.6370678"><ele>577.0</ele><time>2026-04-26T16:43:22.865Z</time></trkpt><trkpt lat="42.2036799" lon="13.6369533"><ele>577.0</ele><time>2026-04-26T16:43:24.865Z</time></trkpt><trkpt lat="42.2036194" lon="13.6368383"><ele>577.0</ele><time>2026-04-26T16:43:26.865Z</time></trkpt><trkpt lat="42.2035373" lon="13.6367015"><ele>577.0</ele><time>2026-04-26T16:43:28.864Z</time></trkpt><trkpt lat="42.2034944" lon="13.6366249"><ele>578.8333333333334</ele><time>2026-04-26T16:43:29.865Z</time></trkpt><trkpt lat="42.2034604" lon="13.6365407"><ele>580.6666666666667</ele><time>2026-04-26T16:43:30.864Z</time></trkpt><trkpt lat="42.2034253" lon="13.6364581"><ele>582.5</ele><time>2026-04-26T16:43:31.866Z</time></trkpt><trkpt lat="42.2033866" lon="13.6363651"><ele>584.3333333333334</ele><time>2026-04-26T16:43:32.865Z</time></trkpt><trkpt lat="42.2033471" lon="13.6362658"><ele>586.1666666666666</ele><time>2026-04-26T16:43:33.865Z</time></trkpt><trkpt lat="42.2033034" lon="13.6361502"><ele>588.0</ele><time>2026-04-26T16:43:34.865Z</time></trkpt><trkpt lat="42.2032569" lon="13.6360224"><ele>591.75</ele><time>2026-04-26T16:43:35.864Z</time></trkpt><trkpt lat="42.2032063" lon="13.6358876"><ele>595.5</ele><time>2026-04-26T16:43:36.865Z</time></trkpt><trkpt lat="42.2031596" lon="13.6357462"><ele>599.25</ele><time>2026-04-26T16:43:37.865Z</time></trkpt><trkpt lat="42.2031142" lon="13.6355974"><ele>603.0</ele><time>2026-04-26T16:43:38.866Z</time></trkpt><trkpt lat="42.2030788" lon="13.6354481"><ele>608.6</ele><time>2026-04-26T16:43:39.866Z</time></trkpt><trkpt lat="42.2030451" lon="13.6353009"><ele>614.1999999999999</ele><time>2026-04-26T16:43:40.866Z</time></trkpt><trkpt lat="42.2030187" lon="13.6351606"><ele>619.8</ele><time>2026-04-26T16:43:41.865Z</time></trkpt><trkpt lat="42.2030076" lon="13.6350163"><ele>625.4</ele><time>2026-04-26T16:43:42.866Z</time></trkpt><trkpt lat="42.2030014" lon="13.6348638"><ele>631.0</ele><time>2026-04-26T16:43:43.864Z</time></trkpt><trkpt lat="42.2029826" lon="13.6347093"><ele>631.0</ele><time>2026-04-26T16:43:44.864Z</time></trkpt><trkpt lat="42.202963" lon="13.6345599"><ele>631.0</ele><time>2026-04-26T16:43:45.865Z</time></trkpt><trkpt lat="42.2029518" lon="13.6344256"><ele>631.0</ele><time>2026-04-26T16:43:46.865Z</time></trkpt><trkpt lat="42.2029531" lon="13.6343048"><ele>631.0</ele><time>2026-04-26T16:43:47.865Z</time></trkpt><trkpt lat="42.2029511" lon="13.6342066"><ele>631.0</ele><time>2026-04-26T16:43:48.865Z</time></trkpt><trkpt lat="42.2028429" lon="13.6341478"><ele>635.5</ele><time>2026-04-26T16:43:50.864Z</time></trkpt><trkpt lat="42.2026943" lon="13.6341878"><ele>640.0</ele><time>2026-04-26T16:43:52.865Z</time></trkpt><trkpt lat="42.2025965" lon="13.6342033"><ele>644.5</ele><time>2026-04-26T16:43:53.866Z</time></trkpt><trkpt lat="42.2024895" lon="13.6342346"><ele>649.0</ele><time>2026-04-26T16:43:54.865Z</time></trkpt><trkpt lat="42.2023817" lon="13.6342645"><ele>652.25</ele><time>2026-04-26T16:43:55.865Z</time></trkpt><trkpt lat="42.2022744" lon="13.6343139"><ele>655.5</ele><time>2026-04-26T16:43:56.865Z</time></trkpt><trkpt lat="42.2021607" lon="13.6343596"><ele>658.75</ele><time>2026-04-26T16:43:57.866Z</time></trkpt><trkpt lat="42.2020656" lon="13.6344226"><ele>662.0</ele><time>2026-04-26T16:43:58.865Z</time></trkpt><trkpt lat="42.201984" lon="13.6345923"><ele>662.0</ele><time>2026-04-26T16:43:59.864Z</time></trkpt><trkpt lat="42.2019036" lon="13.6347019"><ele>662.0</ele><time>2026-04-26T16:44:00.865Z</time></trkpt><trkpt lat="42.2018229" lon="13.6347947"><ele>662.0</ele><time>2026-04-26T16:44:01.865Z</time></trkpt><trkpt lat="42.2017376" lon="13.6348673"><ele>662.0</ele><time>2026-04-26T16:44:02.865Z</time></trkpt><trkpt lat="42.2016452" lon="13.6349131"><ele>662.0</ele><time>2026-04-26T16:44:03.865Z</time></trkpt><trkpt lat="42.2015369" lon="13.6349539"><ele>671.0</ele><time>2026-04-26T16:44:04.864Z</time></trkpt><trkpt lat="42.2014222" lon="13.634996"><ele>680.0</ele><time>2026-04-26T16:44:05.864Z</time></trkpt><trkpt lat="42.2012991" lon="13.6350551"><ele>689.0</ele><time>2026-04-26T16:44:06.865Z</time></trkpt><trkpt lat="42.2011802" lon="13.6351444"><ele>698.0</ele><time>2026-04-26T16:44:07.864Z</time></trkpt><trkpt lat="42.2010754" lon="13.6352406"><ele>691.25</ele><time>2026-04-26T16:44:08.866Z</time></trkpt><trkpt lat="42.2009751" lon="13.6353432"><ele>684.5</ele><time>2026-04-26T16:44:09.865Z</time></trkpt><trkpt lat="42.200877" lon="13.635428"><ele>677.75</ele><time>2026-04-26T16:44:10.864Z</time></trkpt><trkpt lat="42.200776" lon="13.6354945"><ele>671.0</ele><time>2026-04-26T16:44:11.864Z</time></trkpt><trkpt lat="42.2006676" lon="13.635541"><ele>678.75</ele><time>2026-04-26T16:44:12.865Z</time></trkpt><trkpt lat="42.2005492" lon="13.635581"><ele>686.5</ele><time>2026-04-26T16:44:13.864Z</time></trkpt><trkpt lat="42.2004346" lon="13.6356253"><ele>694.25</ele><time>2026-04-26T16:44:14.865Z</time></trkpt><trkpt lat="42.2003185" lon="13.6356804"><ele>702.0</ele><time>2026-04-26T16:44:15.865Z</time></trkpt><trkpt lat="42.2002081" lon="13.6357497"><ele>702.0</ele><time>2026-04-26T16:44:16.865Z</time></trkpt><trkpt lat="42.2001019" lon="13.635824"><ele>702.0</ele><time>2026-04-26T16:44:17.864Z</time></trkpt><trkpt lat="42.1999917" lon="13.6359025"><ele>702.0</ele><time>2026-04-26T16:44:18.864Z</time></trkpt><trkpt lat="42.1998774" lon="13.6359798"><ele>702.0</ele><time>2026-04-26T16:44:19.865Z</time></trkpt><trkpt lat="42.1997615" lon="13.6360604"><ele>705.5</ele><time>2026-04-26T16:44:20.865Z</time></trkpt><trkpt lat="42.1996457" lon="13.6361473"><ele>709.0</ele><time>2026-04-26T16:44:21.866Z</time></trkpt><trkpt lat="42.1995358" lon="13.6362408"><ele>712.5</ele><time>2026-04-26T16:44:22.865Z</time></trkpt><trkpt lat="42.1994302" lon="13.6363472"><ele>716.0</ele><time>2026-04-26T16:44:23.866Z</time></trkpt><trkpt lat="42.1993318" lon="13.6364618"><ele>716.0</ele><time>2026-04-26T16:44:24.866Z</time></trkpt><trkpt lat="42.1992281" lon="13.6365657"><ele>716.0</ele><time>2026-04-26T16:44:25.866Z</time></trkpt><trkpt lat="42.1991181" lon="13.6366443"><ele>716.0</ele><time>2026-04-26T16:44:26.865Z</time></trkpt><trkpt lat="42.1990049" lon="13.6367012"><ele>716.0</ele><time>2026-04-26T16:44:27.865Z</time></trkpt><trkpt lat="42.1989165" lon="13.6367658"><ele>719.3333333333333</ele><time>2026-04-26T16:44:28.865Z</time></trkpt><trkpt lat="42.1988335" lon="13.6368593"><ele>722.6666666666666</ele><time>2026-04-26T16:44:29.864Z</time></trkpt><trkpt lat="42.1988407" lon="13.636966"><ele>726.0</ele><time>2026-04-26T16:44:30.866Z</time></trkpt><trkpt lat="42.1987866" lon="13.6370311"><ele>729.3333333333334</ele><time>2026-04-26T16:44:31.865Z</time></trkpt><trkpt lat="42.1987154" lon="13.6370602"><ele>732.6666666666667</ele><time>2026-04-26T16:44:32.864Z</time></trkpt><trkpt lat="42.1986343" lon="13.6370729"><ele>736.0</ele><time>2026-04-26T16:44:33.866Z</time></trkpt><trkpt lat="42.1985523" lon="13.6370988"><ele>736.0</ele><time>2026-04-26T16:44:34.865Z</time></trkpt><trkpt lat="42.1984818" lon="13.6371768"><ele>736.0</ele><time>2026-04-26T16:44:35.865Z</time></trkpt><trkpt lat="42.1984134" lon="13.6372762"><ele>736.0</ele><time>2026-04-26T16:44:36.865Z</time></trkpt><trkpt lat="42.1983387" lon="13.6373697"><ele>736.0</ele><time>2026-04-26T16:44:37.865Z</time></trkpt><trkpt lat="42.1982592" lon="13.6374639"><ele>736.0</ele><time>2026-04-26T16:44:38.865Z</time></trkpt><trkpt lat="42.1981685" lon="13.6375392"><ele>739.4</ele><time>2026-04-26T16:44:39.865Z</time></trkpt><trkpt lat="42.1980706" lon="13.6375961"><ele>742.8</ele><time>2026-04-26T16:44:40.865Z</time></trkpt><trkpt lat="42.1979796" lon="13.6376424"><ele>746.1999999999999</ele><time>2026-04-26T16:44:41.865Z</time></trkpt><trkpt lat="42.1978935" lon="13.6376857"><ele>749.5999999999999</ele><time>2026-04-26T16:44:42.866Z</time></trkpt><trkpt lat="42.197823" lon="13.6377178"><ele>753.0</ele><time>2026-04-26T16:44:43.865Z</time></trkpt><trkpt lat="42.1977144" lon="13.6378051"><ele>753.0</ele><time>2026-04-26T16:44:45.865Z</time></trkpt><trkpt lat="42.1976524" lon="13.6378743"><ele>753.0</ele><time>2026-04-26T16:44:46.864Z</time></trkpt><trkpt lat="42.1975799" lon="13.6379492"><ele>753.0</ele><time>2026-04-26T16:44:47.865Z</time></trkpt><trkpt lat="42.1975063" lon="13.6380217"><ele>753.0</ele><time>2026-04-26T16:44:48.864Z</time></trkpt><trkpt lat="42.1974298" lon="13.6380943"><ele>753.0</ele><time>2026-04-26T16:44:49.864Z</time></trkpt><trkpt lat="42.197349" lon="13.6381709"><ele>760.4</ele><time>2026-04-26T16:44:50.864Z</time></trkpt><trkpt lat="42.1972618" lon="13.6382398"><ele>767.8</ele><time>2026-04-26T16:44:51.866Z</time></trkpt><trkpt lat="42.1971672" lon="13.6383143"><ele>775.2</ele><time>2026-04-26T16:44:52.866Z</time></trkpt><trkpt lat="42.1970663" lon="13.638392"><ele>782.6</ele><time>2026-04-26T16:44:53.866Z</time></trkpt><trkpt lat="42.1969608" lon="13.6384717"><ele>790.0</ele><time>2026-04-26T16:44:54.864Z</time></trkpt><trkpt lat="42.1968519" lon="13.6385467"><ele>790.0</ele><time>2026-04-26T16:44:55.864Z</time></trkpt><trkpt lat="42.1967406" lon="13.6386119"><ele>790.0</ele><time>2026-04-26T16:44:56.864Z</time></trkpt><trkpt lat="42.196632" lon="13.6386759"><ele>790.0</ele><time>2026-04-26T16:44:57.865Z</time></trkpt><trkpt lat="42.196524" lon="13.6387395"><ele>790.0</ele><time>2026-04-26T16:44:58.865Z</time></trkpt><trkpt lat="42.1964196" lon="13.6388095"><ele>792.8</ele><time>2026-04-26T16:44:59.865Z</time></trkpt><trkpt lat="42.196319" lon="13.6388817"><ele>795.6</ele><time>2026-04-26T16:45:00.864Z</time></trkpt><trkpt lat="42.1962252" lon="13.6389541"><ele>798.4000000000001</ele><time>2026-04-26T16:45:01.866Z</time></trkpt><trkpt lat="42.1961335" lon="13.6390237"><ele>801.2</ele><time>2026-04-26T16:45:02.864Z</time></trkpt><trkpt lat="42.1960478" lon="13.6390905"><ele>804.0</ele><time>2026-04-26T16:45:03.864Z</time></trkpt><trkpt lat="42.195967" lon="13.6391535"><ele>804.0</ele><time>2026-04-26T16:45:04.865Z</time></trkpt><trkpt lat="42.1958943" lon="13.6392034"><ele>804.0</ele><time>2026-04-26T16:45:05.864Z</time></trkpt><trkpt lat="42.195819" lon="13.6392615"><ele>804.0</ele><time>2026-04-26T16:45:06.865Z</time></trkpt><trkpt lat="42.1957388" lon="13.6393208"><ele>804.0</ele><time>2026-04-26T16:45:07.865Z</time></trkpt><trkpt lat="42.1956526" lon="13.6393771"><ele>804.0</ele><time>2026-04-26T16:45:08.864Z</time></trkpt><trkpt lat="42.1955615" lon="13.6394405"><ele>806.4000000000001</ele><time>2026-04-26T16:45:09.864Z</time></trkpt><trkpt lat="42.1954722" lon="13.6394998"><ele>808.8</ele><time>2026-04-26T16:45:10.864Z</time></trkpt><trkpt lat="42.1954089" lon="13.6395511"><ele>811.2</ele><time>2026-04-26T16:45:11.865Z</time></trkpt><trkpt lat="42.1953092" lon="13.6395902"><ele>813.5999999999999</ele><time>2026-04-26T16:45:13.865Z</time></trkpt><trkpt lat="42.1953018" lon="13.6394831"><ele>816.0</ele><time>2026-04-26T16:45:15.865Z</time></trkpt><trkpt lat="42.1953845" lon="13.6393534"><ele>821.0</ele><time>2026-04-26T16:45:17.864Z</time></trkpt><trkpt lat="42.1954301" lon="13.6392491"><ele>826.0</ele><time>2026-04-26T16:45:18.864Z</time></trkpt><trkpt lat="42.1954694" lon="13.6391379"><ele>831.0</ele><time>2026-04-26T16:45:19.864Z</time></trkpt><trkpt lat="42.1955044" lon="13.6390171"><ele>836.0</ele><time>2026-04-26T16:45:20.865Z</time></trkpt><trkpt lat="42.1955408" lon="13.6388873"><ele>841.0</ele><time>2026-04-26T16:45:21.865Z</time></trkpt><trkpt lat="42.1955803" lon="13.6387482"><ele>837.75</ele><time>2026-04-26T16:45:22.864Z</time></trkpt><trkpt lat="42.1956155" lon="13.638595"><ele>834.5</ele><time>2026-04-26T16:45:23.864Z</time></trkpt><trkpt lat="42.1956512" lon="13.6384363"><ele>831.25</ele><time>2026-04-26T16:45:24.865Z</time></trkpt><trkpt lat="42.1956856" lon="13.6382792"><ele>828.0</ele><time>2026-04-26T16:45:25.866Z</time></trkpt><trkpt lat="42.1957159" lon="13.6381223"><ele>828.0</ele><time>2026-04-26T16:45:26.866Z</time></trkpt><trkpt lat="42.1957475" lon="13.6379699"><ele>828.0</ele><time>2026-04-26T16:45:27.866Z</time></trkpt><trkpt lat="42.1957776" lon="13.6378166"><ele>828.0</ele><time>2026-04-26T16:45:28.866Z</time></trkpt><trkpt lat="42.195808" lon="13.637666"><ele>828.0</ele><time>2026-04-26T16:45:29.864Z</time></trkpt><trkpt lat="42.1958396" lon="13.6375185"><ele>833.5</ele><time>2026-04-26T16:45:30.866Z</time></trkpt><trkpt lat="42.1958739" lon="13.6373723"><ele>839.0</ele><time>2026-04-26T16:45:31.866Z</time></trkpt><trkpt lat="42.1959153" lon="13.6372274"><ele>844.5</ele><time>2026-04-26T16:45:32.865Z</time></trkpt><trkpt lat="42.1959554" lon="13.6370793"><ele>850.0</ele><time>2026-04-26T16:45:33.865Z</time></trkpt><trkpt lat="42.1959956" lon="13.6369313"><ele>855.25</ele><time>2026-04-26T16:45:34.865Z</time></trkpt><trkpt lat="42.1960322" lon="13.6367806"><ele>860.5</ele><time>2026-04-26T16:45:35.865Z</time></trkpt><trkpt lat="42.1960514" lon="13.6366251"><ele>865.75</ele><time>2026-04-26T16:45:36.865Z</time></trkpt><trkpt lat="42.1960616" lon="13.6364688"><ele>871.0</ele><time>2026-04-26T16:45:37.864Z</time></trkpt><trkpt lat="42.196078" lon="13.6363188"><ele>871.0</ele><time>2026-04-26T16:45:38.865Z</time></trkpt><trkpt lat="42.1961071" lon="13.6361728"><ele>870.9999999999999</ele><time>2026-04-26T16:45:39.865Z</time></trkpt><trkpt lat="42.1961462" lon="13.6360328"><ele>870.9999999999999</ele><time>2026-04-26T16:45:40.865Z</time></trkpt><trkpt lat="42.1961921" lon="13.6358984"><ele>871.0</ele><time>2026-04-26T16:45:41.865Z</time></trkpt><trkpt lat="42.1962449" lon="13.6357624"><ele>871.0</ele><time>2026-04-26T16:45:42.866Z</time></trkpt><trkpt lat="42.1962973" lon="13.6356207"><ele>876.5</ele><time>2026-04-26T16:45:43.864Z</time></trkpt><trkpt lat="42.1963497" lon="13.6354701"><ele>882.0</ele><time>2026-04-26T16:45:44.865Z</time></trkpt><trkpt lat="42.1963814" lon="13.6353094"><ele>887.5</ele><time>2026-04-26T16:45:45.864Z</time></trkpt><trkpt lat="42.1963782" lon="13.635138"><ele>893.0</ele><time>2026-04-26T16:45:46.865Z</time></trkpt><trkpt lat="42.1963525" lon="13.6349744"><ele>898.25</ele><time>2026-04-26T16:45:47.865Z</time></trkpt><trkpt lat="42.196323" lon="13.6348167"><ele>903.5</ele><time>2026-04-26T16:45:48.865Z</time></trkpt><trkpt lat="42.1963084" lon="13.6346599"><ele>908.75</ele><time>2026-04-26T16:45:49.865Z</time></trkpt><trkpt lat="42.1963194" lon="13.6344949"><ele>914.0</ele><time>2026-04-26T16:45:50.865Z</time></trkpt><trkpt lat="42.196325" lon="13.6343415"><ele>911.0</ele><time>2026-04-26T16:45:51.865Z</time></trkpt><trkpt lat="42.1963418" lon="13.6341981"><ele>908.0000000000001</ele><time>2026-04-26T16:45:52.864Z</time></trkpt><trkpt lat="42.1963949" lon="13.6341401"><ele>905.0000000000001</ele><time>2026-04-26T16:45:53.864Z</time></trkpt><trkpt lat="42.1964523" lon="13.6340561"><ele>902.0</ele><time>2026-04-26T16:45:54.865Z</time></trkpt><trkpt lat="42.1965589" lon="13.6340333"><ele>899.0</ele><time>2026-04-26T16:45:55.866Z</time></trkpt><trkpt lat="42.1966466" lon="13.6339571"><ele>899.0</ele><time>2026-04-26T16:45:56.866Z</time></trkpt><trkpt lat="42.1967313" lon="13.6338713"><ele>899.0000000000001</ele><time>2026-04-26T16:45:57.865Z</time></trkpt><trkpt lat="42.1968242" lon="13.6337897"><ele>899.0000000000001</ele><time>2026-04-26T16:45:58.865Z</time></trkpt><trkpt lat="42.1969207" lon="13.6337185"><ele>899.0</ele><time>2026-04-26T16:45:59.864Z</time></trkpt><trkpt lat="42.1970146" lon="13.6336226"><ele>899.0</ele><time>2026-04-26T16:46:00.864Z</time></trkpt><trkpt lat="42.1970997" lon="13.6335279"><ele>907.75</ele><time>2026-04-26T16:46:01.864Z</time></trkpt><trkpt lat="42.1971733" lon="13.6333574"><ele>916.5</ele><time>2026-04-26T16:46:02.865Z</time></trkpt><trkpt lat="42.1972354" lon="13.6332031"><ele>925.25</ele><time>2026-04-26T16:46:03.865Z</time></trkpt><trkpt lat="42.1972969" lon="13.6330319"><ele>934.0</ele><time>2026-04-26T16:46:04.864Z</time></trkpt><trkpt lat="42.1973271" lon="13.6328668"><ele>932.0</ele><time>2026-04-26T16:46:05.865Z</time></trkpt><trkpt lat="42.1973699" lon="13.6326863"><ele>930.0</ele><time>2026-04-26T16:46:06.864Z</time></trkpt><trkpt lat="42.1974005" lon="13.632528"><ele>928.0</ele><time>2026-04-26T16:46:07.864Z</time></trkpt><trkpt lat="42.1974276" lon="13.6323683"><ele>926.0</ele><time>2026-04-26T16:46:08.865Z</time></trkpt><trkpt lat="42.197443" lon="13.6322022"><ele>926.0</ele><time>2026-04-26T16:46:09.864Z</time></trkpt><trkpt lat="42.1974547" lon="13.6320494"><ele>925.9999999999999</ele><time>2026-04-26T16:46:10.865Z</time></trkpt><trkpt lat="42.197467" lon="13.6319025"><ele>925.9999999999999</ele><time>2026-04-26T16:46:11.864Z</time></trkpt><trkpt lat="42.1974779" lon="13.6317525"><ele>926.0</ele><time>2026-04-26T16:46:12.864Z</time></trkpt><trkpt lat="42.1974911" lon="13.6316051"><ele>926.0</ele><time>2026-04-26T16:46:13.865Z</time></trkpt><trkpt lat="42.1975123" lon="13.6314543"><ele>931.75</ele><time>2026-04-26T16:46:14.864Z</time></trkpt><trkpt lat="42.197544" lon="13.6313025"><ele>937.5</ele><time>2026-04-26T16:46:15.864Z</time></trkpt><trkpt lat="42.1975825" lon="13.6311576"><ele>943.25</ele><time>2026-04-26T16:46:16.864Z</time></trkpt><trkpt lat="42.1976238" lon="13.6310048"><ele>949.0</ele><time>2026-04-26T16:46:17.865Z</time></trkpt><trkpt lat="42.1976764" lon="13.6308455"><ele>953.0</ele><time>2026-04-26T16:46:18.866Z</time></trkpt><trkpt lat="42.1977411" lon="13.6306777"><ele>957.0</ele><time>2026-04-26T16:46:19.864Z</time></trkpt><trkpt lat="42.1978078" lon="13.6304983"><ele>961.0</ele><time>2026-04-26T16:46:20.865Z</time></trkpt><trkpt lat="42.1978684" lon="13.6303114"><ele>965.0</ele><time>2026-04-26T16:46:21.865Z</time></trkpt><trkpt lat="42.1979246" lon="13.6301184"><ele>970.5</ele><time>2026-04-26T16:46:22.864Z</time></trkpt><trkpt lat="42.1979798" lon="13.6299267"><ele>976.0</ele><time>2026-04-26T16:46:23.865Z</time></trkpt><trkpt lat="42.1980347" lon="13.6297459"><ele>981.5</ele><time>2026-04-26T16:46:24.866Z</time></trkpt><trkpt lat="42.1980816" lon="13.6295801"><ele>987.0</ele><time>2026-04-26T16:46:25.864Z</time></trkpt><trkpt lat="42.1981338" lon="13.6294082"><ele>991.8</ele><time>2026-04-26T16:46:26.864Z</time></trkpt><trkpt lat="42.198151" lon="13.6292223"><ele>996.6</ele><time>2026-04-26T16:46:28.864Z</time></trkpt><trkpt lat="42.1981368" lon="13.629074"><ele>1001.3999999999999</ele><time>2026-04-26T16:46:30.865Z</time></trkpt><trkpt lat="42.1980797" lon="13.6291797"><ele>1006.1999999999999</ele><time>2026-04-26T16:46:31.865Z</time></trkpt><trkpt lat="42.1980189" lon="13.6292743"><ele>1011.0</ele><time>2026-04-26T16:46:33.865Z</time></trkpt><trkpt lat="42.1979599" lon="13.6293248"><ele>1011.0</ele><time>2026-04-26T16:46:35.865Z</time></trkpt><trkpt lat="42.1979495" lon="13.6292122"><ele>1010.9999999999999</ele><time>2026-04-26T16:46:38.865Z</time></trkpt><trkpt lat="42.1979825" lon="13.6290781"><ele>1010.9999999999999</ele><time>2026-04-26T16:46:40.865Z</time></trkpt><trkpt lat="42.1980543" lon="13.6289095"><ele>1011.0</ele><time>2026-04-26T16:46:42.865Z</time></trkpt><trkpt lat="42.1981124" lon="13.6288132"><ele>1011.0</ele><time>2026-04-26T16:46:43.865Z</time></trkpt><trkpt lat="42.198185" lon="13.6286992"><ele>1009.25</ele><time>2026-04-26T16:46:44.865Z</time></trkpt><trkpt lat="42.1982753" lon="13.6285859"><ele>1007.5</ele><time>2026-04-26T16:46:45.865Z</time></trkpt><trkpt lat="42.1983795" lon="13.6284905"><ele>1005.75</ele><time>2026-04-26T16:46:46.864Z</time></trkpt><trkpt lat="42.198473" lon="13.6283949"><ele>1004.0</ele><time>2026-04-26T16:46:47.865Z</time></trkpt><trkpt lat="42.1985988" lon="13.6283398"><ele>1004.0</ele><time>2026-04-26T16:46:48.865Z</time></trkpt><trkpt lat="42.1987055" lon="13.6282807"><ele>1004.0</ele><time>2026-04-26T16:46:49.865Z</time></trkpt><trkpt lat="42.1988197" lon="13.628197"><ele>1004.0</ele><time>2026-04-26T16:46:50.866Z</time></trkpt><trkpt lat="42.1989216" lon="13.6280978"><ele>1004.0</ele><time>2026-04-26T16:46:51.865Z</time></trkpt><trkpt lat="42.1989992" lon="13.6280082"><ele>1004.0</ele><time>2026-04-26T16:46:52.865Z</time></trkpt><trkpt lat="42.199065" lon="13.6279046"><ele>1004.0000000000001</ele><time>2026-04-26T16:46:53.866Z</time></trkpt><trkpt lat="42.1991236" lon="13.6277908"><ele>1004.0000000000001</ele><time>2026-04-26T16:46:54.865Z</time></trkpt><trkpt lat="42.1991616" lon="13.6276533"><ele>1004.0</ele><time>2026-04-26T16:46:55.866Z</time></trkpt><trkpt lat="42.1991934" lon="13.627502"><ele>1004.0</ele><time>2026-04-26T16:46:56.865Z</time></trkpt><trkpt lat="42.1992111" lon="13.627353"><ele>1004.0</ele><time>2026-04-26T16:46:57.865Z</time></trkpt><trkpt lat="42.1992102" lon="13.6271954"><ele>1004.0</ele><time>2026-04-26T16:46:58.865Z</time></trkpt><trkpt lat="42.19919" lon="13.6270399"><ele>1004.0</ele><time>2026-04-26T16:46:59.865Z</time></trkpt><trkpt lat="42.1991832" lon="13.6268725"><ele>1004.0</ele><time>2026-04-26T16:47:00.865Z</time></trkpt><trkpt lat="42.1991806" lon="13.6267029"><ele>1007.0</ele><time>2026-04-26T16:47:01.864Z</time></trkpt><trkpt lat="42.1991683" lon="13.6265192"><ele>1010.0</ele><time>2026-04-26T16:47:02.865Z</time></trkpt><trkpt lat="42.1991732" lon="13.6263358"><ele>1013.0</ele><time>2026-04-26T16:47:03.865Z</time></trkpt><trkpt lat="42.1991794" lon="13.6261401"><ele>1016.0</ele><time>2026-04-26T16:47:04.864Z</time></trkpt><trkpt lat="42.1991809" lon="13.6259639"><ele>1019.25</ele><time>2026-04-26T16:47:05.865Z</time></trkpt><trkpt lat="42.1991911" lon="13.6257944"><ele>1022.5</ele><time>2026-04-26T16:47:06.866Z</time></trkpt><trkpt lat="42.1992212" lon="13.6256339"><ele>1025.75</ele><time>2026-04-26T16:47:07.866Z</time></trkpt><trkpt lat="42.1992616" lon="13.6254976"><ele>1029.0</ele><time>2026-04-26T16:47:08.866Z</time></trkpt><trkpt lat="42.1993122" lon="13.6253657"><ele>1034.75</ele><time>2026-04-26T16:47:09.866Z</time></trkpt><trkpt lat="42.1993712" lon="13.625211"><ele>1040.5</ele><time>2026-04-26T16:47:10.865Z</time></trkpt><trkpt lat="42.1994311" lon="13.6250534"><ele>1046.25</ele><time>2026-04-26T16:47:11.864Z</time></trkpt><trkpt lat="42.1994845" lon="13.6248843"><ele>1052.0</ele><time>2026-04-26T16:47:12.865Z</time></trkpt><trkpt lat="42.1995352" lon="13.6247059"><ele>1052.0</ele><time>2026-04-26T16:47:13.865Z</time></trkpt><trkpt lat="42.1995795" lon="13.6245214"><ele>1052.0</ele><time>2026-04-26T16:47:14.865Z</time></trkpt><trkpt lat="42.1996153" lon="13.6243366"><ele>1052.0</ele><time>2026-04-26T16:47:15.864Z</time></trkpt><trkpt lat="42.1996484" lon="13.6241382"><ele>1052.0</ele><time>2026-04-26T16:47:16.864Z</time></trkpt><trkpt lat="42.1996744" lon="13.6239394"><ele>1057.0</ele><time>2026-04-26T16:47:17.865Z</time></trkpt><trkpt lat="42.1996956" lon="13.6237576"><ele>1062.0</ele><time>2026-04-26T16:47:18.866Z</time></trkpt><trkpt lat="42.1997062" lon="13.6235747"><ele>1067.0</ele><time>2026-04-26T16:47:19.865Z</time></trkpt><trkpt lat="42.1997308" lon="13.6234147"><ele>1072.0</ele><time>2026-04-26T16:47:20.865Z</time></trkpt><trkpt lat="42.1997556" lon="13.6232722"><ele>1072.4</ele><time>2026-04-26T16:47:21.864Z</time></trkpt><trkpt lat="42.1998574" lon="13.6232015"><ele>1072.8000000000002</ele><time>2026-04-26T16:47:22.865Z</time></trkpt><trkpt lat="42.199922" lon="13.6230944"><ele>1073.2</ele><time>2026-04-26T16:47:23.865Z</time></trkpt><trkpt lat="42.1999771" lon="13.6229739"><ele>1073.6000000000001</ele><time>2026-04-26T16:47:24.864Z</time></trkpt><trkpt lat="42.2000164" lon="13.6228446"><ele>1074.0</ele><time>2026-04-26T16:47:25.864Z</time></trkpt><trkpt lat="42.2000336" lon="13.6226963"><ele>1074.0</ele><time>2026-04-26T16:47:26.866Z</time></trkpt><trkpt lat="42.2000481" lon="13.6225632"><ele>1074.0</ele><time>2026-04-26T16:47:27.864Z</time></trkpt><trkpt lat="42.2000502" lon="13.6224197"><ele>1074.0</ele><time>2026-04-26T16:47:28.864Z</time></trkpt><trkpt lat="42.2000517" lon="13.6222778"><ele>1074.0</ele><time>2026-04-26T16:47:29.864Z</time></trkpt><trkpt lat="42.2000756" lon="13.6221459"><ele>1074.0</ele><time>2026-04-26T16:47:30.864Z</time></trkpt><trkpt lat="42.2001142" lon="13.6220186"><ele>1081.75</ele><time>2026-04-26T16:47:31.865Z</time></trkpt><trkpt lat="42.2001798" lon="13.6219011"><ele>1089.5</ele><time>2026-04-26T16:47:32.864Z</time></trkpt><trkpt lat="42.200238" lon="13.6217781"><ele>1097.25</ele><time>2026-04-26T16:47:33.864Z</time></trkpt><trkpt lat="42.2003256" lon="13.6216511"><ele>1105.0</ele><time>2026-04-26T16:47:34.865Z</time></trkpt><trkpt lat="42.2004304" lon="13.6215468"><ele>1105.0</ele><time>2026-04-26T16:47:35.864Z</time></trkpt><trkpt lat="42.2005348" lon="13.6214353"><ele>1105.0</ele><time>2026-04-26T16:47:36.865Z</time></trkpt><trkpt lat="42.2006417" lon="13.6213227"><ele>1105.0</ele><time>2026-04-26T16:47:37.864Z</time></trkpt><trkpt lat="42.2007517" lon="13.6212146"><ele>1105.0</ele><time>2026-04-26T16:47:38.864Z</time></trkpt><trkpt lat="42.2008427" lon="13.621116"><ele>1103.75</ele><time>2026-04-26T16:47:39.864Z</time></trkpt><trkpt lat="42.2009332" lon="13.6210076"><ele>1102.5</ele><time>2026-04-26T16:47:40.864Z</time></trkpt><trkpt lat="42.2010124" lon="13.6208656"><ele>1101.25</ele><time>2026-04-26T16:47:41.864Z</time></trkpt><trkpt lat="42.2010839" lon="13.6207083"><ele>1100.0</ele><time>2026-04-26T16:47:42.864Z</time></trkpt><trkpt lat="42.2011657" lon="13.6205585"><ele>1100.0</ele><time>2026-04-26T16:47:43.864Z</time></trkpt><trkpt lat="42.2012485" lon="13.6203957"><ele>1100.0</ele><time>2026-04-26T16:47:44.865Z</time></trkpt><trkpt lat="42.201326" lon="13.6202454"><ele>1100.0</ele><time>2026-04-26T16:47:45.866Z</time></trkpt><trkpt lat="42.2014015" lon="13.6201005"><ele>1100.0</ele><time>2026-04-26T16:47:46.864Z</time></trkpt><trkpt lat="42.2014721" lon="13.6199595"><ele>1098.25</ele><time>2026-04-26T16:47:47.865Z</time></trkpt><trkpt lat="42.2015494" lon="13.6198134"><ele>1096.5</ele><time>2026-04-26T16:47:48.864Z</time></trkpt><trkpt lat="42.2016376" lon="13.6196608"><ele>1094.75</ele><time>2026-04-26T16:47:49.865Z</time></trkpt><trkpt lat="42.2017318" lon="13.6195009"><ele>1093.0</ele><time>2026-04-26T16:47:50.865Z</time></trkpt><trkpt lat="42.2018242" lon="13.6193269"><ele>1101.6666666666665</ele><time>2026-04-26T16:47:51.866Z</time></trkpt><trkpt lat="42.2019109" lon="13.6191405"><ele>1110.3333333333333</ele><time>2026-04-26T16:47:52.866Z</time></trkpt><trkpt lat="42.2020081" lon="13.6189663"><ele>1119.0</ele><time>2026-04-26T16:47:53.865Z</time></trkpt><trkpt lat="42.202099" lon="13.6188158"><ele>1119.0</ele><time>2026-04-26T16:47:54.865Z</time></trkpt><trkpt lat="42.2021765" lon="13.6186839"><ele>1119.0</ele><time>2026-04-26T16:47:55.864Z</time></trkpt><trkpt lat="42.2022403" lon="13.618566"><ele>1119.0</ele><time>2026-04-26T16:47:56.866Z</time></trkpt><trkpt lat="42.2022984" lon="13.618456"><ele>1119.0</ele><time>2026-04-26T16:47:57.865Z</time></trkpt><trkpt lat="42.2023131" lon="13.6183186"><ele>1119.0</ele><time>2026-04-26T16:47:58.866Z</time></trkpt><trkpt lat="42.2023235" lon="13.6181831"><ele>1118.2</ele><time>2026-04-26T16:47:59.866Z</time></trkpt><trkpt lat="42.2023356" lon="13.6180544"><ele>1117.4</ele><time>2026-04-26T16:48:00.866Z</time></trkpt><trkpt lat="42.2023639" lon="13.6179279"><ele>1116.6</ele><time>2026-04-26T16:48:01.866Z</time></trkpt><trkpt lat="42.2024051" lon="13.6178024"><ele>1115.8</ele><time>2026-04-26T16:48:02.865Z</time></trkpt><trkpt lat="42.202458" lon="13.6176768"><ele>1115.0</ele><time>2026-04-26T16:48:03.866Z</time></trkpt><trkpt lat="42.2025264" lon="13.6175507"><ele>1115.0</ele><time>2026-04-26T16:48:04.864Z</time></trkpt><trkpt lat="42.2026013" lon="13.6174504"><ele>1115.0</ele><time>2026-04-26T16:48:05.865Z</time></trkpt><trkpt lat="42.2026638" lon="13.6173436"><ele>1115.0</ele><time>2026-04-26T16:48:06.865Z</time></trkpt><trkpt lat="42.202724" lon="13.6172355"><ele>1115.0</ele><time>2026-04-26T16:48:07.865Z</time></trkpt><trkpt lat="42.2027292" lon="13.6170912"><ele>1115.0</ele><time>2026-04-26T16:48:08.865Z</time></trkpt><trkpt lat="42.202742" lon="13.6169819"><ele>1115.3333333333335</ele><time>2026-04-26T16:48:09.864Z</time></trkpt><trkpt lat="42.2027346" lon="13.6168855"><ele>1115.6666666666667</ele><time>2026-04-26T16:48:10.865Z</time></trkpt><trkpt lat="42.2027319" lon="13.6167923"><ele>1116.0</ele><time>2026-04-26T16:48:11.865Z</time></trkpt><trkpt lat="42.2027115" lon="13.6166906"><ele>1116.3333333333333</ele><time>2026-04-26T16:48:12.865Z</time></trkpt><trkpt lat="42.2027066" lon="13.6165763"><ele>1116.6666666666665</ele><time>2026-04-26T16:48:13.865Z</time></trkpt><trkpt lat="42.2027041" lon="13.6164698"><ele>1117.0</ele><time>2026-04-26T16:48:14.864Z</time></trkpt><trkpt lat="42.2026964" lon="13.6163603"><ele>1117.0</ele><time>2026-04-26T16:48:15.864Z</time></trkpt><trkpt lat="42.2026886" lon="13.6162481"><ele>1117.0</ele><time>2026-04-26T16:48:16.864Z</time></trkpt><trkpt lat="42.2026876" lon="13.6161413"><ele>1117.0</ele><time>2026-04-26T16:48:17.864Z</time></trkpt><trkpt lat="42.2026875" lon="13.6160369"><ele>1117.0</ele><time>2026-04-26T16:48:18.866Z</time></trkpt><trkpt lat="42.2026905" lon="13.6159367"><ele>1117.0</ele><time>2026-04-26T16:48:19.865Z</time></trkpt><trkpt lat="42.2026952" lon="13.6158344"><ele>1117.0</ele><time>2026-04-26T16:48:20.866Z</time></trkpt><trkpt lat="42.2026521" lon="13.6157138"><ele>1116.6</ele><time>2026-04-26T16:48:22.864Z</time></trkpt><trkpt lat="42.202596" lon="13.6156645"><ele>1116.2</ele><time>2026-04-26T16:48:23.865Z</time></trkpt><trkpt lat="42.2025307" lon="13.6156011"><ele>1115.8</ele><time>2026-04-26T16:48:24.865Z</time></trkpt><trkpt lat="42.2024731" lon="13.6155021"><ele>1115.4</ele><time>2026-04-26T16:48:25.865Z</time></trkpt><trkpt lat="42.2023966" lon="13.6153843"><ele>1115.0</ele><time>2026-04-26T16:48:26.865Z</time></trkpt><trkpt lat="42.2023523" lon="13.6152538"><ele>1116.5</ele><time>2026-04-26T16:48:27.865Z</time></trkpt><trkpt lat="42.2022954" lon="13.6151495"><ele>1118.0</ele><time>2026-04-26T16:48:28.865Z</time></trkpt><trkpt lat="42.2022574" lon="13.6150382"><ele>1119.5</ele><time>2026-04-26T16:48:29.866Z</time></trkpt><trkpt lat="42.202221" lon="13.6149382"><ele>1121.0</ele><time>2026-04-26T16:48:30.865Z</time></trkpt><trkpt lat="42.2022112" lon="13.6148199"><ele>1122.5</ele><time>2026-04-26T16:48:31.865Z</time></trkpt><trkpt lat="42.2022272" lon="13.6147069"><ele>1124.0</ele><time>2026-04-26T16:48:32.865Z</time></trkpt><trkpt lat="42.2022544" lon="13.6146058"><ele>1124.0</ele><time>2026-04-26T16:48:33.865Z</time></trkpt><trkpt lat="42.2022515" lon="13.6144901"><ele>1124.0</ele><time>2026-04-26T16:48:34.866Z</time></trkpt><trkpt lat="42.2022198" lon="13.6143846"><ele>1124.0</ele><time>2026-04-26T16:48:35.865Z</time></trkpt><trkpt lat="42.2021555" lon="13.6143018"><ele>1124.0</ele><time>2026-04-26T16:48:36.865Z</time></trkpt><trkpt lat="42.2020755" lon="13.6142224"><ele>1124.0</ele><time>2026-04-26T16:48:37.866Z</time></trkpt><trkpt lat="42.2019766" lon="13.6141437"><ele>1121.25</ele><time>2026-04-26T16:48:38.865Z</time></trkpt><trkpt lat="42.2018646" lon="13.6140689"><ele>1118.5</ele><time>2026-04-26T16:48:39.864Z</time></trkpt><trkpt lat="42.2017558" lon="13.6139898"><ele>1115.75</ele><time>2026-04-26T16:48:40.864Z</time></trkpt><trkpt lat="42.2016433" lon="13.6139125"><ele>1113.0</ele><time>2026-04-26T16:48:41.864Z</time></trkpt><trkpt lat="42.2015381" lon="13.6138411"><ele>1112.8</ele><time>2026-04-26T16:48:42.866Z</time></trkpt><trkpt lat="42.2014395" lon="13.6137769"><ele>1112.6</ele><time>2026-04-26T16:48:43.864Z</time></trkpt><trkpt lat="42.2013456" lon="13.6137101"><ele>1112.4</ele><time>2026-04-26T16:48:44.865Z</time></trkpt><trkpt lat="42.2012533" lon="13.6136317"><ele>1112.2</ele><time>2026-04-26T16:48:45.865Z</time></trkpt><trkpt lat="42.2011713" lon="13.6135426"><ele>1112.0</ele><time>2026-04-26T16:48:46.865Z</time></trkpt><trkpt lat="42.2010993" lon="13.6134472"><ele>1112.0</ele><time>2026-04-26T16:48:47.866Z</time></trkpt><trkpt lat="42.2010397" lon="13.6133546"><ele>1112.0</ele><time>2026-04-26T16:48:48.865Z</time></trkpt><trkpt lat="42.2009924" lon="13.6132513"><ele>1112.0</ele><time>2026-04-26T16:48:49.864Z</time></trkpt><trkpt lat="42.2009499" lon="13.6131413"><ele>1112.0</ele><time>2026-04-26T16:48:50.864Z</time></trkpt><trkpt lat="42.2009156" lon="13.6130209"><ele>1112.0</ele><time>2026-04-26T16:48:51.865Z</time></trkpt><trkpt lat="42.2008948" lon="13.6128807"><ele>1107.3333333333335</ele><time>2026-04-26T16:48:52.865Z</time></trkpt><trkpt lat="42.2008892" lon="13.6127157"><ele>1102.6666666666667</ele><time>2026-04-26T16:48:53.865Z</time></trkpt><trkpt lat="42.2008891" lon="13.6125584"><ele>1098.0</ele><time>2026-04-26T16:48:54.864Z</time></trkpt><trkpt lat="42.2008235" lon="13.612269"><ele>1098.0</ele><time>2026-04-26T16:48:56.864Z</time></trkpt><trkpt lat="42.2007741" lon="13.6121297"><ele>1098.0</ele><time>2026-04-26T16:48:57.865Z</time></trkpt><trkpt lat="42.2007279" lon="13.6120087"><ele>1098.0</ele><time>2026-04-26T16:48:58.865Z</time></trkpt><trkpt lat="42.2006585" lon="13.6119064"><ele>1098.0</ele><time>2026-04-26T16:48:59.864Z</time></trkpt><trkpt lat="42.2005874" lon="13.6118216"><ele>1098.0</ele><time>2026-04-26T16:49:00.865Z</time></trkpt><trkpt lat="42.2004998" lon="13.6117734"><ele>1095.6</ele><time>2026-04-26T16:49:01.865Z</time></trkpt><trkpt lat="42.2004033" lon="13.6117464"><ele>1093.1999999999998</ele><time>2026-04-26T16:49:02.866Z</time></trkpt><trkpt lat="42.2002966" lon="13.6117421"><ele>1090.8</ele><time>2026-04-26T16:49:03.865Z</time></trkpt><trkpt lat="42.2001921" lon="13.6117446"><ele>1088.3999999999999</ele><time>2026-04-26T16:49:04.865Z</time></trkpt><trkpt lat="42.2000939" lon="13.6117728"><ele>1086.0</ele><time>2026-04-26T16:49:05.865Z</time></trkpt><trkpt lat="42.2000048" lon="13.611797"><ele>1086.0</ele><time>2026-04-26T16:49:06.866Z</time></trkpt><trkpt lat="42.1999233" lon="13.6118245"><ele>1086.0</ele><time>2026-04-26T16:49:07.865Z</time></trkpt><trkpt lat="42.1998549" lon="13.6118442"><ele>1086.0</ele><time>2026-04-26T16:49:08.865Z</time></trkpt><trkpt lat="42.1997534" lon="13.6118537"><ele>1086.0</ele><time>2026-04-26T16:49:10.865Z</time></trkpt><trkpt lat="42.1996572" lon="13.6118527"><ele>1086.0</ele><time>2026-04-26T16:49:12.865Z</time></trkpt><trkpt lat="42.1995301" lon="13.611868"><ele>1085.0</ele><time>2026-04-26T16:49:14.866Z</time></trkpt><trkpt lat="42.1994223" lon="13.6118903"><ele>1084.0</ele><time>2026-04-26T16:49:16.865Z</time></trkpt><trkpt lat="42.1993329" lon="13.6119047"><ele>1083.0</ele><time>2026-04-26T16:49:18.864Z</time></trkpt><trkpt lat="42.1992437" lon="13.611924"><ele>1082.0</ele><time>2026-04-26T16:49:20.864Z</time></trkpt><trkpt lat="42.1991518" lon="13.6119533"><ele>1081.0</ele><time>2026-04-26T16:49:22.864Z</time></trkpt><trkpt lat="42.1990888" lon="13.6119783"><ele>1081.142857142857</ele><time>2026-04-26T16:49:23.864Z</time></trkpt><trkpt lat="42.1990194" lon="13.6119959"><ele>1081.2857142857142</ele><time>2026-04-26T16:49:24.864Z</time></trkpt><trkpt lat="42.1989437" lon="13.6120049"><ele>1081.4285714285716</ele><time>2026-04-26T16:49:25.864Z</time></trkpt><trkpt lat="42.1988687" lon="13.6119996"><ele>1081.5714285714284</ele><time>2026-04-26T16:49:26.865Z</time></trkpt><trkpt lat="42.1988003" lon="13.6119776"><ele>1081.7142857142858</ele><time>2026-04-26T16:49:27.864Z</time></trkpt><trkpt lat="42.1987363" lon="13.611945"><ele>1081.857142857143</ele><time>2026-04-26T16:49:28.866Z</time></trkpt><trkpt lat="42.1986722" lon="13.6118893"><ele>1082.0</ele><time>2026-04-26T16:49:29.865Z</time></trkpt><trkpt lat="42.1986201" lon="13.6118184"><ele>1081.1666666666667</ele><time>2026-04-26T16:49:30.866Z</time></trkpt><trkpt lat="42.198571" lon="13.6117482"><ele>1080.3333333333335</ele><time>2026-04-26T16:49:31.865Z</time></trkpt><trkpt lat="42.198523" lon="13.6116722"><ele>1079.5</ele><time>2026-04-26T16:49:32.865Z</time></trkpt><trkpt lat="42.1984857" lon="13.6116021"><ele>1078.6666666666667</ele><time>2026-04-26T16:49:33.865Z</time></trkpt><trkpt lat="42.1984252" lon="13.6114871"><ele>1077.8333333333333</ele><time>2026-04-26T16:49:35.865Z</time></trkpt><trkpt lat="42.1983579" lon="13.611442"><ele>1077.0</ele><time>2026-04-26T16:49:38.865Z</time></trkpt><trkpt lat="42.1982799" lon="13.6114815"><ele>1077.0</ele><time>2026-04-26T16:49:41.865Z</time></trkpt><trkpt lat="42.1982696" lon="13.6115811"><ele>1077.0</ele><time>2026-04-26T16:49:44.864Z</time></trkpt><trkpt lat="42.1983343" lon="13.6115606"><ele>1077.0</ele><time>2026-04-26T16:49:47.865Z</time></trkpt><trkpt lat="42.198366" lon="13.6114745"><ele>1077.0</ele><time>2026-04-26T16:49:50.865Z</time></trkpt><trkpt lat="42.198437" lon="13.6114883"><ele>1077.0</ele><time>2026-04-26T16:53:11.864Z</time></trkpt><trkpt lat="42.1984753" lon="13.6115854"><ele>1077.0</ele><time>2026-04-26T16:53:13.863Z</time></trkpt><trkpt lat="42.1985164" lon="13.6116706"><ele>1077.0</ele><time>2026-04-26T16:53:15.863Z</time></trkpt><trkpt lat="42.1985584" lon="13.6117524"><ele>1077.0</ele><time>2026-04-26T16:53:17.863Z</time></trkpt><trkpt lat="42.1986225" lon="13.6118438"><ele>1077.0</ele><time>2026-04-26T16:53:19.864Z</time></trkpt><trkpt lat="42.1987043" lon="13.6119311"><ele>1077.0</ele><time>2026-04-26T16:53:21.863Z</time></trkpt><trkpt lat="42.1988026" lon="13.6119836"><ele>1077.0</ele><time>2026-04-26T16:53:23.864Z</time></trkpt><trkpt lat="42.1989287" lon="13.6120065"><ele>1077.0</ele><time>2026-04-26T16:53:25.864Z</time></trkpt><trkpt lat="42.1990001" lon="13.6120009"><ele>1077.6666666666667</ele><time>2026-04-26T16:53:26.865Z</time></trkpt><trkpt lat="42.1990709" lon="13.6119811"><ele>1078.3333333333333</ele><time>2026-04-26T16:53:27.863Z</time></trkpt><trkpt lat="42.1991462" lon="13.6119521"><ele>1079.0</ele><time>2026-04-26T16:53:28.863Z</time></trkpt><trkpt lat="42.1992228" lon="13.6119245"><ele>1079.6666666666665</ele><time>2026-04-26T16:53:29.865Z</time></trkpt><trkpt lat="42.1993048" lon="13.6118996"><ele>1080.3333333333333</ele><time>2026-04-26T16:53:30.864Z</time></trkpt><trkpt lat="42.1993913" lon="13.6118787"><ele>1081.0</ele><time>2026-04-26T16:53:31.864Z</time></trkpt><trkpt lat="42.1994815" lon="13.6118622"><ele>1081.0</ele><time>2026-04-26T16:53:32.864Z</time></trkpt><trkpt lat="42.1995572" lon="13.6118519"><ele>1081.0</ele><time>2026-04-26T16:53:33.864Z</time></trkpt><trkpt lat="42.199634" lon="13.6118414"><ele>1081.0</ele><time>2026-04-26T16:53:34.864Z</time></trkpt><trkpt lat="42.1997072" lon="13.6118366"><ele>1081.0</ele><time>2026-04-26T16:53:35.863Z</time></trkpt><trkpt lat="42.1997797" lon="13.6118342"><ele>1081.0</ele><time>2026-04-26T16:53:36.864Z</time></trkpt><trkpt lat="42.1998669" lon="13.6118277"><ele>1081.0</ele><time>2026-04-26T16:53:37.864Z</time></trkpt><trkpt lat="42.1999755" lon="13.6118092"><ele>1082.0</ele><time>2026-04-26T16:53:38.864Z</time></trkpt><trkpt lat="42.2000829" lon="13.6117792"><ele>1083.0</ele><time>2026-04-26T16:53:39.864Z</time></trkpt><trkpt lat="42.2001905" lon="13.6117563"><ele>1084.0</ele><time>2026-04-26T16:53:40.864Z</time></trkpt><trkpt lat="42.2002988" lon="13.6117419"><ele>1085.0</ele><time>2026-04-26T16:53:41.864Z</time></trkpt><trkpt lat="42.200392" lon="13.6117436"><ele>1086.0</ele><time>2026-04-26T16:53:42.863Z</time></trkpt><trkpt lat="42.2004845" lon="13.611771"><ele>1086.0</ele><time>2026-04-26T16:53:43.864Z</time></trkpt><trkpt lat="42.2005695" lon="13.6118242"><ele>1086.0</ele><time>2026-04-26T16:53:44.864Z</time></trkpt><trkpt lat="42.200641" lon="13.6118993"><ele>1086.0</ele><time>2026-04-26T16:53:45.863Z</time></trkpt><trkpt lat="42.2006997" lon="13.6119924"><ele>1086.0</ele><time>2026-04-26T16:53:46.864Z</time></trkpt><trkpt lat="42.2007465" lon="13.6121033"><ele>1086.0</ele><time>2026-04-26T16:53:47.864Z</time></trkpt><trkpt lat="42.2007916" lon="13.6122369"><ele>1088.3999999999999</ele><time>2026-04-26T16:53:48.864Z</time></trkpt><trkpt lat="42.200833" lon="13.6123812"><ele>1090.8</ele><time>2026-04-26T16:53:49.865Z</time></trkpt><trkpt lat="42.200867" lon="13.6125231"><ele>1093.1999999999998</ele><time>2026-04-26T16:53:50.865Z</time></trkpt><trkpt lat="42.2008844" lon="13.6126597"><ele>1095.6</ele><time>2026-04-26T16:53:51.864Z</time></trkpt><trkpt lat="42.2008871" lon="13.6127978"><ele>1098.0</ele><time>2026-04-26T16:53:52.865Z</time></trkpt><trkpt lat="42.2008918" lon="13.6129327"><ele>1101.5</ele><time>2026-04-26T16:53:53.864Z</time></trkpt><trkpt lat="42.2009057" lon="13.6130828"><ele>1105.0</ele><time>2026-04-26T16:53:54.864Z</time></trkpt><trkpt lat="42.2009311" lon="13.613241"><ele>1108.5</ele><time>2026-04-26T16:53:55.865Z</time></trkpt><trkpt lat="42.2010133" lon="13.6133529"><ele>1112.0</ele><time>2026-04-26T16:53:56.864Z</time></trkpt><trkpt lat="42.2010795" lon="13.6134739"><ele>1112.0</ele><time>2026-04-26T16:53:57.865Z</time></trkpt><trkpt lat="42.201169" lon="13.6135789"><ele>1112.0</ele><time>2026-04-26T16:53:58.865Z</time></trkpt><trkpt lat="42.2012599" lon="13.6136724"><ele>1112.0</ele><time>2026-04-26T16:53:59.865Z</time></trkpt><trkpt lat="42.2013626" lon="13.6137607"><ele>1112.0</ele><time>2026-04-26T16:54:00.864Z</time></trkpt><trkpt lat="42.2014912" lon="13.6138349"><ele>1112.25</ele><time>2026-04-26T16:54:01.863Z</time></trkpt><trkpt lat="42.2016027" lon="13.6139146"><ele>1112.5</ele><time>2026-04-26T16:54:02.864Z</time></trkpt><trkpt lat="42.2017153" lon="13.6139919"><ele>1112.75</ele><time>2026-04-26T16:54:03.864Z</time></trkpt><trkpt lat="42.2018199" lon="13.6140658"><ele>1113.0</ele><time>2026-04-26T16:54:04.864Z</time></trkpt><trkpt lat="42.2019255" lon="13.6141412"><ele>1113.0</ele><time>2026-04-26T16:54:05.864Z</time></trkpt><trkpt lat="42.2020201" lon="13.6142117"><ele>1113.0</ele><time>2026-04-26T16:54:06.864Z</time></trkpt><trkpt lat="42.202097" lon="13.6142766"><ele>1113.0</ele><time>2026-04-26T16:54:07.864Z</time></trkpt><trkpt lat="42.2021582" lon="13.6143379"><ele>1113.0</ele><time>2026-04-26T16:54:08.864Z</time></trkpt><trkpt lat="42.2022097" lon="13.6144093"><ele>1113.0</ele><time>2026-04-26T16:54:09.863Z</time></trkpt><trkpt lat="42.202243" lon="13.6145752"><ele>1114.8333333333333</ele><time>2026-04-26T16:54:11.863Z</time></trkpt><trkpt lat="42.202225" lon="13.6146761"><ele>1116.6666666666667</ele><time>2026-04-26T16:54:12.863Z</time></trkpt><trkpt lat="42.2022029" lon="13.6147873"><ele>1118.5</ele><time>2026-04-26T16:54:13.864Z</time></trkpt><trkpt lat="42.2022123" lon="13.6149026"><ele>1120.3333333333335</ele><time>2026-04-26T16:54:14.863Z</time></trkpt><trkpt lat="42.2022304" lon="13.6149968"><ele>1122.1666666666667</ele><time>2026-04-26T16:54:15.864Z</time></trkpt><trkpt lat="42.2022519" lon="13.615104"><ele>1124.0</ele><time>2026-04-26T16:54:16.864Z</time></trkpt><trkpt lat="42.202325" lon="13.6152048"><ele>1122.2</ele><time>2026-04-26T16:54:17.864Z</time></trkpt><trkpt lat="42.2023799" lon="13.6153334"><ele>1120.4</ele><time>2026-04-26T16:54:18.864Z</time></trkpt><trkpt lat="42.2024375" lon="13.6154571"><ele>1118.6</ele><time>2026-04-26T16:54:19.863Z</time></trkpt><trkpt lat="42.2025053" lon="13.6155616"><ele>1116.8</ele><time>2026-04-26T16:54:20.864Z</time></trkpt><trkpt lat="42.2025705" lon="13.6156333"><ele>1115.0</ele><time>2026-04-26T16:54:21.863Z</time></trkpt><trkpt lat="42.2026317" lon="13.6156801"><ele>1115.0</ele><time>2026-04-26T16:54:22.864Z</time></trkpt><trkpt lat="42.2026948" lon="13.6157035"><ele>1115.0</ele><time>2026-04-26T16:54:23.864Z</time></trkpt><trkpt lat="42.2027647" lon="13.6157154"><ele>1115.0</ele><time>2026-04-26T16:54:24.864Z</time></trkpt><trkpt lat="42.2028423" lon="13.6157151"><ele>1115.0</ele><time>2026-04-26T16:54:25.865Z</time></trkpt><trkpt lat="42.2029208" lon="13.6157045"><ele>1115.0</ele><time>2026-04-26T16:54:26.864Z</time></trkpt><trkpt lat="42.2029892" lon="13.615685"><ele>1115.0</ele><time>2026-04-26T16:54:27.864Z</time></trkpt><trkpt lat="42.2030552" lon="13.6156593"><ele>1115.0</ele><time>2026-04-26T16:54:28.865Z</time></trkpt><trkpt lat="42.203118" lon="13.6156035"><ele>1115.4</ele><time>2026-04-26T16:54:29.865Z</time></trkpt><trkpt lat="42.2031778" lon="13.6155103"><ele>1115.8</ele><time>2026-04-26T16:54:30.864Z</time></trkpt><trkpt lat="42.2032482" lon="13.6154214"><ele>1116.2</ele><time>2026-04-26T16:54:31.864Z</time></trkpt><trkpt lat="42.2033322" lon="13.6153477"><ele>1116.6</ele><time>2026-04-26T16:54:32.864Z</time></trkpt><trkpt lat="42.2034375" lon="13.6152705"><ele>1117.0</ele><time>2026-04-26T16:54:33.864Z</time></trkpt><trkpt lat="42.2035546" lon="13.6151963"><ele>1114.75</ele><time>2026-04-26T16:54:34.864Z</time></trkpt><trkpt lat="42.2036736" lon="13.6151299"><ele>1112.5</ele><time>2026-04-26T16:54:35.863Z</time></trkpt><trkpt lat="42.2037799" lon="13.6150711"><ele>1110.25</ele><time>2026-04-26T16:54:36.864Z</time></trkpt><trkpt lat="42.2038834" lon="13.6150136"><ele>1108.0</ele><time>2026-04-26T16:54:37.864Z</time></trkpt><trkpt lat="42.2039852" lon="13.6149561"><ele>1109.25</ele><time>2026-04-26T16:54:38.863Z</time></trkpt><trkpt lat="42.204074" lon="13.6148804"><ele>1110.5</ele><time>2026-04-26T16:54:39.865Z</time></trkpt><trkpt lat="42.2041538" lon="13.6147789"><ele>1111.75</ele><time>2026-04-26T16:54:40.864Z</time></trkpt><trkpt lat="42.2042305" lon="13.6146526"><ele>1113.0</ele><time>2026-04-26T16:54:41.863Z</time></trkpt><trkpt lat="42.2043043" lon="13.6145145"><ele>1111.0</ele><time>2026-04-26T16:54:42.864Z</time></trkpt><trkpt lat="42.2043815" lon="13.6143687"><ele>1109.0</ele><time>2026-04-26T16:54:43.863Z</time></trkpt><trkpt lat="42.2044533" lon="13.6142347"><ele>1107.0</ele><time>2026-04-26T16:54:44.864Z</time></trkpt><trkpt lat="42.2045182" lon="13.6141056"><ele>1105.0</ele><time>2026-04-26T16:54:45.864Z</time></trkpt><trkpt lat="42.2045831" lon="13.6139913"><ele>1105.0</ele><time>2026-04-26T16:54:46.865Z</time></trkpt><trkpt lat="42.2046451" lon="13.6138837"><ele>1105.0</ele><time>2026-04-26T16:54:47.863Z</time></trkpt><trkpt lat="42.2047121" lon="13.6137935"><ele>1105.0</ele><time>2026-04-26T16:54:48.864Z</time></trkpt><trkpt lat="42.2047833" lon="13.6137194"><ele>1105.0</ele><time>2026-04-26T16:54:49.864Z</time></trkpt><trkpt lat="42.204859" lon="13.6136673"><ele>1105.0</ele><time>2026-04-26T16:54:50.865Z</time></trkpt><trkpt lat="42.2049401" lon="13.6136261"><ele>1104.6</ele><time>2026-04-26T16:54:51.864Z</time></trkpt><trkpt lat="42.2050208" lon="13.6135805"><ele>1104.2</ele><time>2026-04-26T16:54:52.864Z</time></trkpt><trkpt lat="42.2050953" lon="13.6135098"><ele>1103.8</ele><time>2026-04-26T16:54:53.864Z</time></trkpt><trkpt lat="42.2051758" lon="13.6134095"><ele>1103.4</ele><time>2026-04-26T16:54:54.863Z</time></trkpt><trkpt lat="42.2052541" lon="13.6132902"><ele>1103.0</ele><time>2026-04-26T16:54:55.863Z</time></trkpt><trkpt lat="42.2053295" lon="13.6131579"><ele>1103.0</ele><time>2026-04-26T16:54:56.863Z</time></trkpt><trkpt lat="42.2054037" lon="13.6130276"><ele>1103.0</ele><time>2026-04-26T16:54:57.865Z</time></trkpt><trkpt lat="42.2054697" lon="13.6129047"><ele>1103.0</ele><time>2026-04-26T16:54:58.865Z</time></trkpt><trkpt lat="42.2055366" lon="13.6127765"><ele>1103.0</ele><time>2026-04-26T16:54:59.864Z</time></trkpt><trkpt lat="42.2056105" lon="13.6126481"><ele>1102.4</ele><time>2026-04-26T16:55:00.864Z</time></trkpt><trkpt lat="42.2056814" lon="13.6125233"><ele>1101.8</ele><time>2026-04-26T16:55:01.865Z</time></trkpt><trkpt lat="42.2057495" lon="13.6124134"><ele>1101.2</ele><time>2026-04-26T16:55:02.864Z</time></trkpt><trkpt lat="42.2058178" lon="13.612295"><ele>1100.6</ele><time>2026-04-26T16:55:03.863Z</time></trkpt><trkpt lat="42.2058796" lon="13.612182"><ele>1100.0</ele><time>2026-04-26T16:55:04.863Z</time></trkpt><trkpt lat="42.2059254" lon="13.6120549"><ele>1098.2</ele><time>2026-04-26T16:55:05.864Z</time></trkpt><trkpt lat="42.2059845" lon="13.611932"><ele>1096.4</ele><time>2026-04-26T16:55:06.863Z</time></trkpt><trkpt lat="42.2060512" lon="13.6118206"><ele>1094.6</ele><time>2026-04-26T16:55:07.864Z</time></trkpt><trkpt lat="42.2061239" lon="13.6117149"><ele>1092.8</ele><time>2026-04-26T16:55:08.863Z</time></trkpt><trkpt lat="42.2061986" lon="13.6116331"><ele>1091.0</ele><time>2026-04-26T16:55:09.863Z</time></trkpt><trkpt lat="42.2062788" lon="13.6115534"><ele>1091.0</ele><time>2026-04-26T16:55:10.863Z</time></trkpt><trkpt lat="42.2063501" lon="13.6114819"><ele>1091.0</ele><time>2026-04-26T16:55:11.864Z</time></trkpt><trkpt lat="42.2064011" lon="13.611389"><ele>1091.0</ele><time>2026-04-26T16:55:12.865Z</time></trkpt><trkpt lat="42.2064316" lon="13.6112753"><ele>1091.0</ele><time>2026-04-26T16:55:13.865Z</time></trkpt><trkpt lat="42.2064384" lon="13.6111485"><ele>1091.0</ele><time>2026-04-26T16:55:14.864Z</time></trkpt><trkpt lat="42.2064362" lon="13.6110146"><ele>1089.0</ele><time>2026-04-26T16:55:15.865Z</time></trkpt><trkpt lat="42.2064395" lon="13.6108795"><ele>1087.0</ele><time>2026-04-26T16:55:16.864Z</time></trkpt><trkpt lat="42.2064369" lon="13.6107402"><ele>1085.0</ele><time>2026-04-26T16:55:17.864Z</time></trkpt><trkpt lat="42.2064334" lon="13.6106068"><ele>1083.0</ele><time>2026-04-26T16:55:18.863Z</time></trkpt><trkpt lat="42.2064317" lon="13.610487"><ele>1081.0</ele><time>2026-04-26T16:55:19.863Z</time></trkpt><trkpt lat="42.20643" lon="13.6103721"><ele>1079.1666666666665</ele><time>2026-04-26T16:55:20.864Z</time></trkpt><trkpt lat="42.2064225" lon="13.6102562"><ele>1077.3333333333333</ele><time>2026-04-26T16:55:21.863Z</time></trkpt><trkpt lat="42.2064167" lon="13.6101452"><ele>1075.5</ele><time>2026-04-26T16:55:22.864Z</time></trkpt><trkpt lat="42.2064175" lon="13.6100344"><ele>1073.6666666666667</ele><time>2026-04-26T16:55:23.864Z</time></trkpt><trkpt lat="42.2064108" lon="13.6099155"><ele>1071.8333333333335</ele><time>2026-04-26T16:55:24.863Z</time></trkpt><trkpt lat="42.2064059" lon="13.6097938"><ele>1070.0</ele><time>2026-04-26T16:55:25.864Z</time></trkpt><trkpt lat="42.2064081" lon="13.6096709"><ele>1070.0</ele><time>2026-04-26T16:55:26.863Z</time></trkpt><trkpt lat="42.2064364" lon="13.6095333"><ele>1070.0</ele><time>2026-04-26T16:55:27.863Z</time></trkpt><trkpt lat="42.2064608" lon="13.6093898"><ele>1070.0</ele><time>2026-04-26T16:55:28.865Z</time></trkpt><trkpt lat="42.206486" lon="13.6092462"><ele>1070.0</ele><time>2026-04-26T16:55:29.863Z</time></trkpt><trkpt lat="42.206499" lon="13.6091044"><ele>1070.0</ele><time>2026-04-26T16:55:30.863Z</time></trkpt><trkpt lat="42.2065235" lon="13.6089679"><ele>1070.6</ele><time>2026-04-26T16:55:31.864Z</time></trkpt><trkpt lat="42.2065382" lon="13.6088293"><ele>1071.2</ele><time>2026-04-26T16:55:32.864Z</time></trkpt><trkpt lat="42.2065604" lon="13.6086932"><ele>1071.8</ele><time>2026-04-26T16:55:33.865Z</time></trkpt><trkpt lat="42.2065996" lon="13.6085596"><ele>1072.4</ele><time>2026-04-26T16:55:34.864Z</time></trkpt><trkpt lat="42.2066454" lon="13.6084256"><ele>1073.0</ele><time>2026-04-26T16:55:35.863Z</time></trkpt><trkpt lat="42.206704" lon="13.608285"><ele>1073.0</ele><time>2026-04-26T16:55:36.864Z</time></trkpt><trkpt lat="42.2067618" lon="13.608164"><ele>1073.0</ele><time>2026-04-26T16:55:37.864Z</time></trkpt><trkpt lat="42.2068173" lon="13.6080663"><ele>1073.0</ele><time>2026-04-26T16:55:38.864Z</time></trkpt><trkpt lat="42.2068835" lon="13.6079861"><ele>1073.0</ele><time>2026-04-26T16:55:39.865Z</time></trkpt><trkpt lat="42.2069605" lon="13.6079067"><ele>1073.0</ele><time>2026-04-26T16:55:40.865Z</time></trkpt><trkpt lat="42.2070478" lon="13.6078361"><ele>1071.8</ele><time>2026-04-26T16:55:41.865Z</time></trkpt><trkpt lat="42.2071359" lon="13.6077642"><ele>1070.6</ele><time>2026-04-26T16:55:42.864Z</time></trkpt><trkpt lat="42.2072186" lon="13.6076854"><ele>1069.4</ele><time>2026-04-26T16:55:43.863Z</time></trkpt><trkpt lat="42.2072959" lon="13.6075872"><ele>1068.2</ele><time>2026-04-26T16:55:44.863Z</time></trkpt><trkpt lat="42.207358" lon="13.6074802"><ele>1067.0</ele><time>2026-04-26T16:55:45.864Z</time></trkpt><trkpt lat="42.2074138" lon="13.6073552"><ele>1067.0</ele><time>2026-04-26T16:55:46.864Z</time></trkpt><trkpt lat="42.2074578" lon="13.6072196"><ele>1067.0</ele><time>2026-04-26T16:55:47.864Z</time></trkpt><trkpt lat="42.2074947" lon="13.6070827"><ele>1067.0</ele><time>2026-04-26T16:55:48.864Z</time></trkpt><trkpt lat="42.207516" lon="13.6069431"><ele>1067.0</ele><time>2026-04-26T16:55:49.864Z</time></trkpt><trkpt lat="42.2075413" lon="13.6068281"><ele>1067.0</ele><time>2026-04-26T16:55:50.863Z</time></trkpt><trkpt lat="42.2075861" lon="13.6067243"><ele>1065.4</ele><time>2026-04-26T16:55:51.865Z</time></trkpt><trkpt lat="42.2076389" lon="13.6066405"><ele>1063.8000000000002</ele><time>2026-04-26T16:55:52.865Z</time></trkpt><trkpt lat="42.2077128" lon="13.6065725"><ele>1062.2</ele><time>2026-04-26T16:55:53.863Z</time></trkpt><trkpt lat="42.2078011" lon="13.6065231"><ele>1060.6000000000001</ele><time>2026-04-26T16:55:54.863Z</time></trkpt><trkpt lat="42.2079054" lon="13.6064783"><ele>1059.0</ele><time>2026-04-26T16:55:55.864Z</time></trkpt><trkpt lat="42.2080179" lon="13.6064319"><ele>1059.0</ele><time>2026-04-26T16:55:56.864Z</time></trkpt><trkpt lat="42.2081283" lon="13.6063751"><ele>1059.0</ele><time>2026-04-26T16:55:57.865Z</time></trkpt><trkpt lat="42.2082174" lon="13.6062867"><ele>1059.0</ele><time>2026-04-26T16:55:58.865Z</time></trkpt><trkpt lat="42.2083115" lon="13.6061768"><ele>1059.0</ele><time>2026-04-26T16:55:59.863Z</time></trkpt><trkpt lat="42.2083991" lon="13.606048"><ele>1059.4</ele><time>2026-04-26T16:56:00.864Z</time></trkpt><trkpt lat="42.2084843" lon="13.6059308"><ele>1059.8000000000002</ele><time>2026-04-26T16:56:01.864Z</time></trkpt><trkpt lat="42.2085632" lon="13.6058193"><ele>1060.1999999999998</ele><time>2026-04-26T16:56:02.864Z</time></trkpt><trkpt lat="42.2086463" lon="13.605723"><ele>1060.6</ele><time>2026-04-26T16:56:03.864Z</time></trkpt><trkpt lat="42.2087321" lon="13.6056475"><ele>1061.0</ele><time>2026-04-26T16:56:04.864Z</time></trkpt><trkpt lat="42.2088116" lon="13.605571"><ele>1061.0</ele><time>2026-04-26T16:56:05.864Z</time></trkpt><trkpt lat="42.208869" lon="13.6054883"><ele>1061.0</ele><time>2026-04-26T16:56:06.864Z</time></trkpt><trkpt lat="42.2089239" lon="13.6053788"><ele>1061.0</ele><time>2026-04-26T16:56:07.865Z</time></trkpt><trkpt lat="42.2089832" lon="13.6052526"><ele>1061.0</ele><time>2026-04-26T16:56:08.865Z</time></trkpt><trkpt lat="42.2089818" lon="13.6050836"><ele>1061.0</ele><time>2026-04-26T16:56:09.865Z</time></trkpt><trkpt lat="42.2090095" lon="13.6049493"><ele>1059.8</ele><time>2026-04-26T16:56:10.864Z</time></trkpt><trkpt lat="42.2090428" lon="13.6048071"><ele>1058.6</ele><time>2026-04-26T16:56:11.865Z</time></trkpt><trkpt lat="42.2090935" lon="13.604682"><ele>1057.4</ele><time>2026-04-26T16:56:12.864Z</time></trkpt><trkpt lat="42.209143" lon="13.6045538"><ele>1056.2</ele><time>2026-04-26T16:56:13.864Z</time></trkpt><trkpt lat="42.2091841" lon="13.6044273"><ele>1055.0</ele><time>2026-04-26T16:56:14.864Z</time></trkpt><trkpt lat="42.2092187" lon="13.6043016"><ele>1053.8</ele><time>2026-04-26T16:56:15.863Z</time></trkpt><trkpt lat="42.2092459" lon="13.6041745"><ele>1052.6</ele><time>2026-04-26T16:56:16.863Z</time></trkpt><trkpt lat="42.2092662" lon="13.6040457"><ele>1051.4</ele><time>2026-04-26T16:56:17.863Z</time></trkpt><trkpt lat="42.2092762" lon="13.6038982"><ele>1050.2</ele><time>2026-04-26T16:56:18.865Z</time></trkpt><trkpt lat="42.2092909" lon="13.6037579"><ele>1049.0</ele><time>2026-04-26T16:56:19.864Z</time></trkpt><trkpt lat="42.2093005" lon="13.6036182"><ele>1047.4</ele><time>2026-04-26T16:56:20.864Z</time></trkpt><trkpt lat="42.2092994" lon="13.6034895"><ele>1045.8000000000002</ele><time>2026-04-26T16:56:21.863Z</time></trkpt><trkpt lat="42.2092959" lon="13.6033596"><ele>1044.1999999999998</ele><time>2026-04-26T16:56:22.864Z</time></trkpt><trkpt lat="42.2092699" lon="13.6032239"><ele>1042.6</ele><time>2026-04-26T16:56:23.864Z</time></trkpt><trkpt lat="42.2092337" lon="13.6031067"><ele>1041.0</ele><time>2026-04-26T16:56:24.863Z</time></trkpt><trkpt lat="42.2091893" lon="13.6029996"><ele>1041.0</ele><time>2026-04-26T16:56:25.864Z</time></trkpt><trkpt lat="42.2091657" lon="13.6028987"><ele>1041.0</ele><time>2026-04-26T16:56:26.865Z</time></trkpt><trkpt lat="42.2091697" lon="13.6028076"><ele>1041.0</ele><time>2026-04-26T16:56:27.863Z</time></trkpt><trkpt lat="42.2091947" lon="13.6027168"><ele>1041.0</ele><time>2026-04-26T16:56:28.863Z</time></trkpt><trkpt lat="42.2092417" lon="13.6026217"><ele>1041.0</ele><time>2026-04-26T16:56:29.864Z</time></trkpt><trkpt lat="42.2092976" lon="13.6025363"><ele>1041.0</ele><time>2026-04-26T16:56:30.863Z</time></trkpt><trkpt lat="42.2093526" lon="13.6024573"><ele>1039.8333333333333</ele><time>2026-04-26T16:56:31.865Z</time></trkpt><trkpt lat="42.2094194" lon="13.602383"><ele>1038.6666666666667</ele><time>2026-04-26T16:56:32.864Z</time></trkpt><trkpt lat="42.2094969" lon="13.6023208"><ele>1037.5</ele><time>2026-04-26T16:56:33.863Z</time></trkpt><trkpt lat="42.2095703" lon="13.6022681"><ele>1036.3333333333335</ele><time>2026-04-26T16:56:34.865Z</time></trkpt><trkpt lat="42.2096531" lon="13.6022316"><ele>1035.1666666666667</ele><time>2026-04-26T16:56:35.864Z</time></trkpt><trkpt lat="42.2097495" lon="13.6022019"><ele>1034.0</ele><time>2026-04-26T16:56:36.863Z</time></trkpt><trkpt lat="42.2098587" lon="13.6021978"><ele>1034.0</ele><time>2026-04-26T16:56:37.863Z</time></trkpt><trkpt lat="42.2099605" lon="13.6022061"><ele>1034.0</ele><time>2026-04-26T16:56:38.863Z</time></trkpt><trkpt lat="42.21005" lon="13.6022237"><ele>1034.0</ele><time>2026-04-26T16:56:39.865Z</time></trkpt><trkpt lat="42.2101411" lon="13.6022618"><ele>1034.0</ele><time>2026-04-26T16:56:40.864Z</time></trkpt><trkpt lat="42.2102385" lon="13.6023227"><ele>1034.0</ele><time>2026-04-26T16:56:41.863Z</time></trkpt><trkpt lat="42.2103307" lon="13.6023981"><ele>1034.0</ele><time>2026-04-26T16:56:42.864Z</time></trkpt><trkpt lat="42.2104119" lon="13.6024636"><ele>1034.0</ele><time>2026-04-26T16:56:43.864Z</time></trkpt><trkpt lat="42.2104898" lon="13.6025035"><ele>1034.0</ele><time>2026-04-26T16:56:44.863Z</time></trkpt><trkpt lat="42.2105709" lon="13.6024975"><ele>1034.0</ele><time>2026-04-26T16:56:45.863Z</time></trkpt><trkpt lat="42.2106441" lon="13.6024576"><ele>1034.0</ele><time>2026-04-26T16:56:46.865Z</time></trkpt><trkpt lat="42.2107067" lon="13.6023729"><ele>1034.0</ele><time>2026-04-26T16:56:47.865Z</time></trkpt><trkpt lat="42.2107682" lon="13.6022573"><ele>1032.5</ele><time>2026-04-26T16:56:48.864Z</time></trkpt><trkpt lat="42.2108314" lon="13.6021155"><ele>1031.0</ele><time>2026-04-26T16:56:49.864Z</time></trkpt><trkpt lat="42.2109053" lon="13.6019773"><ele>1029.5</ele><time>2026-04-26T16:56:50.863Z</time></trkpt><trkpt lat="42.2109768" lon="13.6018534"><ele>1028.0</ele><time>2026-04-26T16:56:51.863Z</time></trkpt><trkpt lat="42.2110554" lon="13.6017175"><ele>1027.75</ele><time>2026-04-26T16:56:52.864Z</time></trkpt><trkpt lat="42.2111397" lon="13.6015898"><ele>1027.5</ele><time>2026-04-26T16:56:53.865Z</time></trkpt><trkpt lat="42.2112223" lon="13.6014697"><ele>1027.25</ele><time>2026-04-26T16:56:54.863Z</time></trkpt><trkpt lat="42.2112992" lon="13.6013475"><ele>1027.0</ele><time>2026-04-26T16:56:55.864Z</time></trkpt><trkpt lat="42.2113701" lon="13.6012381"><ele>1026.8</ele><time>2026-04-26T16:56:56.863Z</time></trkpt><trkpt lat="42.2114356" lon="13.6011218"><ele>1026.6</ele><time>2026-04-26T16:56:57.864Z</time></trkpt><trkpt lat="42.2114956" lon="13.6010004"><ele>1026.3999999999999</ele><time>2026-04-26T16:56:58.865Z</time></trkpt><trkpt lat="42.2115384" lon="13.6008779"><ele>1026.2</ele><time>2026-04-26T16:56:59.864Z</time></trkpt><trkpt lat="42.2115628" lon="13.6007439"><ele>1026.0</ele><time>2026-04-26T16:57:00.864Z</time></trkpt><trkpt lat="42.2115728" lon="13.6006245"><ele>1026.0</ele><time>2026-04-26T16:57:01.863Z</time></trkpt><trkpt lat="42.21157" lon="13.6005058"><ele>1026.0</ele><time>2026-04-26T16:57:02.864Z</time></trkpt><trkpt lat="42.2115636" lon="13.6003828"><ele>1026.0</ele><time>2026-04-26T16:57:03.863Z</time></trkpt><trkpt lat="42.2115554" lon="13.6002604"><ele>1026.0</ele><time>2026-04-26T16:57:04.863Z</time></trkpt><trkpt lat="42.2115552" lon="13.6001202"><ele>1026.0</ele><time>2026-04-26T16:57:05.864Z</time></trkpt><trkpt lat="42.2115509" lon="13.5999682"><ele>1026.2</ele><time>2026-04-26T16:57:06.863Z</time></trkpt><trkpt lat="42.2115468" lon="13.5998191"><ele>1026.3999999999999</ele><time>2026-04-26T16:57:07.864Z</time></trkpt><trkpt lat="42.211549" lon="13.5996765"><ele>1026.6</ele><time>2026-04-26T16:57:08.864Z</time></trkpt><trkpt lat="42.2115509" lon="13.5995307"><ele>1026.8</ele><time>2026-04-26T16:57:09.863Z</time></trkpt><trkpt lat="42.2115556" lon="13.5993992"><ele>1027.0</ele><time>2026-04-26T16:57:10.864Z</time></trkpt><trkpt lat="42.2115796" lon="13.599285"><ele>1027.0</ele><time>2026-04-26T16:57:11.864Z</time></trkpt><trkpt lat="42.2116179" lon="13.5991883"><ele>1027.0</ele><time>2026-04-26T16:57:12.863Z</time></trkpt><trkpt lat="42.2116795" lon="13.5991035"><ele>1027.0</ele><time>2026-04-26T16:57:13.863Z</time></trkpt><trkpt lat="42.2117542" lon="13.5990264"><ele>1027.0</ele><time>2026-04-26T16:57:14.864Z</time></trkpt><trkpt lat="42.2118371" lon="13.5989533"><ele>1027.0</ele><time>2026-04-26T16:57:15.864Z</time></trkpt><trkpt lat="42.2119194" lon="13.5988835"><ele>1027.0</ele><time>2026-04-26T16:57:16.863Z</time></trkpt><trkpt lat="42.2120047" lon="13.5988146"><ele>1027.0</ele><time>2026-04-26T16:57:17.864Z</time></trkpt><trkpt lat="42.2120925" lon="13.5987425"><ele>1027.0</ele><time>2026-04-26T16:57:18.864Z</time></trkpt><trkpt lat="42.2121721" lon="13.5986695"><ele>1027.0</ele><time>2026-04-26T16:57:19.863Z</time></trkpt><trkpt lat="42.2122547" lon="13.5985999"><ele>1027.0</ele><time>2026-04-26T16:57:20.864Z</time></trkpt><trkpt lat="42.2123404" lon="13.5985467"><ele>1027.1666666666665</ele><time>2026-04-26T16:57:21.862Z</time></trkpt><trkpt lat="42.2124256" lon="13.5984806"><ele>1027.3333333333333</ele><time>2026-04-26T16:57:22.863Z</time></trkpt><trkpt lat="42.212481" lon="13.598391"><ele>1027.5</ele><time>2026-04-26T16:57:23.863Z</time></trkpt><trkpt lat="42.2125137" lon="13.5982901"><ele>1027.6666666666667</ele><time>2026-04-26T16:57:24.863Z</time></trkpt><trkpt lat="42.2125184" lon="13.5981873"><ele>1027.8333333333335</ele><time>2026-04-26T16:57:25.864Z</time></trkpt><trkpt lat="42.2125043" lon="13.5980742"><ele>1028.0</ele><time>2026-04-26T16:57:26.863Z</time></trkpt><trkpt lat="42.2124976" lon="13.5979578"><ele>1028.0</ele><time>2026-04-26T16:57:27.863Z</time></trkpt><trkpt lat="42.2125023" lon="13.5978397"><ele>1028.0</ele><time>2026-04-26T16:57:28.864Z</time></trkpt><trkpt lat="42.2125033" lon="13.5977426"><ele>1028.0</ele><time>2026-04-26T16:57:29.863Z</time></trkpt><trkpt lat="42.2125134" lon="13.5975823"><ele>1028.0</ele><time>2026-04-26T16:57:31.864Z</time></trkpt><trkpt lat="42.2125408" lon="13.5974996"><ele>1028.0</ele><time>2026-04-26T16:57:32.862Z</time></trkpt><trkpt lat="42.2125763" lon="13.5974125"><ele>1028.0</ele><time>2026-04-26T16:57:33.863Z</time></trkpt><trkpt lat="42.2126239" lon="13.5973186"><ele>1028.8333333333335</ele><time>2026-04-26T16:57:34.864Z</time></trkpt><trkpt lat="42.2126709" lon="13.5972419"><ele>1029.6666666666667</ele><time>2026-04-26T16:57:35.862Z</time></trkpt><trkpt lat="42.2127365" lon="13.5971803"><ele>1030.5</ele><time>2026-04-26T16:57:36.863Z</time></trkpt><trkpt lat="42.2128192" lon="13.5971434"><ele>1031.3333333333333</ele><time>2026-04-26T16:57:37.863Z</time></trkpt><trkpt lat="42.2128984" lon="13.5971212"><ele>1032.1666666666665</ele><time>2026-04-26T16:57:38.863Z</time></trkpt><trkpt lat="42.2129583" lon="13.5970741"><ele>1033.0</ele><time>2026-04-26T16:57:39.862Z</time></trkpt><trkpt lat="42.213007" lon="13.5969895"><ele>1033.4</ele><time>2026-04-26T16:57:40.863Z</time></trkpt><trkpt lat="42.2130534" lon="13.5968851"><ele>1033.8</ele><time>2026-04-26T16:57:41.862Z</time></trkpt><trkpt lat="42.2130673" lon="13.596751"><ele>1034.2</ele><time>2026-04-26T16:57:42.862Z</time></trkpt><trkpt lat="42.2130966" lon="13.5966184"><ele>1034.6</ele><time>2026-04-26T16:57:43.862Z</time></trkpt><trkpt lat="42.2131213" lon="13.5964793"><ele>1035.0</ele><time>2026-04-26T16:57:44.863Z</time></trkpt><trkpt lat="42.2131499" lon="13.5963232"><ele>1035.0</ele><time>2026-04-26T16:57:45.862Z</time></trkpt><trkpt lat="42.2131875" lon="13.5961751"><ele>1035.0</ele><time>2026-04-26T16:57:46.863Z</time></trkpt><trkpt lat="42.2132268" lon="13.5960252"><ele>1035.0</ele><time>2026-04-26T16:57:47.864Z</time></trkpt><trkpt lat="42.2132701" lon="13.5958767"><ele>1035.0</ele><time>2026-04-26T16:57:48.863Z</time></trkpt><trkpt lat="42.2133258" lon="13.595735"><ele>1035.0</ele><time>2026-04-26T16:57:49.863Z</time></trkpt><trkpt lat="42.2133901" lon="13.5955957"><ele>1035.0</ele><time>2026-04-26T16:57:50.863Z</time></trkpt><trkpt lat="42.213456" lon="13.5954668"><ele>1035.0</ele><time>2026-04-26T16:57:51.863Z</time></trkpt><trkpt lat="42.2135172" lon="13.5953374"><ele>1035.0</ele><time>2026-04-26T16:57:52.863Z</time></trkpt><trkpt lat="42.2135779" lon="13.5952102"><ele>1035.4</ele><time>2026-04-26T16:57:53.862Z</time></trkpt><trkpt lat="42.213638" lon="13.5950958"><ele>1035.8</ele><time>2026-04-26T16:57:54.863Z</time></trkpt><trkpt lat="42.2136965" lon="13.5949791"><ele>1036.2</ele><time>2026-04-26T16:57:55.863Z</time></trkpt><trkpt lat="42.2137594" lon="13.594858"><ele>1036.6</ele><time>2026-04-26T16:57:56.864Z</time></trkpt><trkpt lat="42.2138242" lon="13.5947227"><ele>1037.0</ele><time>2026-04-26T16:57:57.864Z</time></trkpt><trkpt lat="42.2138868" lon="13.5945855"><ele>1037.0</ele><time>2026-04-26T16:57:58.863Z</time></trkpt><trkpt lat="42.2139372" lon="13.5944586"><ele>1037.0</ele><time>2026-04-26T16:57:59.863Z</time></trkpt><trkpt lat="42.213989" lon="13.594347"><ele>1037.0</ele><time>2026-04-26T16:58:00.863Z</time></trkpt><trkpt lat="42.2140456" lon="13.5942403"><ele>1037.0</ele><time>2026-04-26T16:58:01.863Z</time></trkpt><trkpt lat="42.2140965" lon="13.5941126"><ele>1037.0</ele><time>2026-04-26T16:58:02.862Z</time></trkpt><trkpt lat="42.2141526" lon="13.5939927"><ele>1037.4</ele><time>2026-04-26T16:58:03.864Z</time></trkpt><trkpt lat="42.2142083" lon="13.5938693"><ele>1037.8000000000002</ele><time>2026-04-26T16:58:04.863Z</time></trkpt><trkpt lat="42.2142617" lon="13.5937386"><ele>1038.2</ele><time>2026-04-26T16:58:05.863Z</time></trkpt><trkpt lat="42.214312" lon="13.5936058"><ele>1038.6000000000001</ele><time>2026-04-26T16:58:06.862Z</time></trkpt><trkpt lat="42.2143615" lon="13.5934744"><ele>1039.0</ele><time>2026-04-26T16:58:07.864Z</time></trkpt><trkpt lat="42.2144131" lon="13.5933505"><ele>1039.2</ele><time>2026-04-26T16:58:08.862Z</time></trkpt><trkpt lat="42.2144564" lon="13.5932439"><ele>1039.4</ele><time>2026-04-26T16:58:09.863Z</time></trkpt><trkpt lat="42.2145104" lon="13.5931467"><ele>1039.6</ele><time>2026-04-26T16:58:10.862Z</time></trkpt><trkpt lat="42.214577" lon="13.593059"><ele>1039.8</ele><time>2026-04-26T16:58:11.863Z</time></trkpt><trkpt lat="42.2146549" lon="13.5929778"><ele>1040.0</ele><time>2026-04-26T16:58:12.863Z</time></trkpt><trkpt lat="42.2147384" lon="13.5929006"><ele>1040.0</ele><time>2026-04-26T16:58:13.864Z</time></trkpt><trkpt lat="42.2148207" lon="13.5928536"><ele>1040.0</ele><time>2026-04-26T16:58:14.862Z</time></trkpt><trkpt lat="42.2148936" lon="13.5928096"><ele>1040.0</ele><time>2026-04-26T16:58:15.863Z</time></trkpt><trkpt lat="42.2149608" lon="13.5927425"><ele>1040.0</ele><time>2026-04-26T16:58:16.863Z</time></trkpt><trkpt lat="42.2150236" lon="13.5926643"><ele>1040.0</ele><time>2026-04-26T16:58:17.862Z</time></trkpt><trkpt lat="42.2150594" lon="13.5925202"><ele>1040.0</ele><time>2026-04-26T16:58:18.863Z</time></trkpt><trkpt lat="42.2151204" lon="13.592401"><ele>1040.0</ele><time>2026-04-26T16:58:19.864Z</time></trkpt><trkpt lat="42.215176" lon="13.5922651"><ele>1040.0</ele><time>2026-04-26T16:58:20.864Z</time></trkpt><trkpt lat="42.2152369" lon="13.5921341"><ele>1040.0</ele><time>2026-04-26T16:58:21.863Z</time></trkpt><trkpt lat="42.215299" lon="13.5919882"><ele>1040.0</ele><time>2026-04-26T16:58:22.863Z</time></trkpt><trkpt lat="42.2153599" lon="13.5918193"><ele>1040.0</ele><time>2026-04-26T16:58:23.864Z</time></trkpt><trkpt lat="42.2154247" lon="13.5916532"><ele>1040.0</ele><time>2026-04-26T16:58:24.863Z</time></trkpt><trkpt lat="42.2154966" lon="13.5914908"><ele>1040.0</ele><time>2026-04-26T16:58:25.863Z</time></trkpt><trkpt lat="42.2155671" lon="13.5913332"><ele>1040.0</ele><time>2026-04-26T16:58:26.863Z</time></trkpt><trkpt lat="42.2156316" lon="13.5911795"><ele>1040.0</ele><time>2026-04-26T16:58:27.864Z</time></trkpt><trkpt lat="42.2156994" lon="13.5910212"><ele>1040.0</ele><time>2026-04-26T16:58:28.863Z</time></trkpt><trkpt lat="42.2157632" lon="13.5908799"><ele>1040.0</ele><time>2026-04-26T16:58:29.863Z</time></trkpt><trkpt lat="42.2158323" lon="13.590744"><ele>1040.6666666666667</ele><time>2026-04-26T16:58:30.863Z</time></trkpt><trkpt lat="42.2158892" lon="13.5906265"><ele>1041.3333333333335</ele><time>2026-04-26T16:58:31.862Z</time></trkpt><trkpt lat="42.2159268" lon="13.590525"><ele>1042.0</ele><time>2026-04-26T16:58:32.864Z</time></trkpt><trkpt lat="42.2159378" lon="13.5904316"><ele>1042.6666666666667</ele><time>2026-04-26T16:58:33.864Z</time></trkpt><trkpt lat="42.2159147" lon="13.5903416"><ele>1043.3333333333333</ele><time>2026-04-26T16:58:34.863Z</time></trkpt><trkpt lat="42.2158948" lon="13.5902576"><ele>1044.0</ele><time>2026-04-26T16:58:35.863Z</time></trkpt><trkpt lat="42.2158056" lon="13.5902149"><ele>1043.6000000000001</ele><time>2026-04-26T16:58:36.863Z</time></trkpt><trkpt lat="42.2157222" lon="13.5902001"><ele>1043.2</ele><time>2026-04-26T16:58:37.862Z</time></trkpt><trkpt lat="42.2156357" lon="13.5902163"><ele>1042.8000000000002</ele><time>2026-04-26T16:58:38.862Z</time></trkpt><trkpt lat="42.2155593" lon="13.5902226"><ele>1042.4</ele><time>2026-04-26T16:58:39.862Z</time></trkpt><trkpt lat="42.215488" lon="13.5902086"><ele>1042.0</ele><time>2026-04-26T16:58:40.863Z</time></trkpt><trkpt lat="42.2153872" lon="13.5900958"><ele>1042.0</ele><time>2026-04-26T16:58:42.862Z</time></trkpt><trkpt lat="42.2153564" lon="13.5900025"><ele>1042.0</ele><time>2026-04-26T16:58:43.863Z</time></trkpt><trkpt lat="42.2153408" lon="13.5898959"><ele>1042.0</ele><time>2026-04-26T16:58:44.863Z</time></trkpt><trkpt lat="42.2153182" lon="13.5897695"><ele>1042.0</ele><time>2026-04-26T16:58:45.863Z</time></trkpt><trkpt lat="42.2152937" lon="13.5896479"><ele>1042.0</ele><time>2026-04-26T16:58:46.864Z</time></trkpt><trkpt lat="42.2152721" lon="13.5895329"><ele>1042.0</ele><time>2026-04-26T16:58:47.864Z</time></trkpt><trkpt lat="42.2152544" lon="13.5894245"><ele>1042.0</ele><time>2026-04-26T16:58:48.863Z</time></trkpt><trkpt lat="42.2152352" lon="13.5893273"><ele>1042.0</ele><time>2026-04-26T16:58:49.863Z</time></trkpt><trkpt lat="42.2152211" lon="13.5892269"><ele>1042.0</ele><time>2026-04-26T16:58:50.864Z</time></trkpt><trkpt lat="42.21522" lon="13.5891272"><ele>1042.0</ele><time>2026-04-26T16:58:51.862Z</time></trkpt><trkpt lat="42.2152071" lon="13.5890176"><ele>1042.0</ele><time>2026-04-26T16:58:52.863Z</time></trkpt><trkpt lat="42.2151832" lon="13.588902"><ele>1042.0</ele><time>2026-04-26T16:58:53.863Z</time></trkpt><trkpt lat="42.2151673" lon="13.5887826"><ele>1042.8333333333333</ele><time>2026-04-26T16:58:54.863Z</time></trkpt><trkpt lat="42.2151582" lon="13.5886612"><ele>1043.6666666666665</ele><time>2026-04-26T16:58:55.862Z</time></trkpt><trkpt lat="42.2151646" lon="13.5885416"><ele>1044.5</ele><time>2026-04-26T16:58:56.862Z</time></trkpt><trkpt lat="42.2151855" lon="13.5884192"><ele>1045.3333333333333</ele><time>2026-04-26T16:58:57.862Z</time></trkpt><trkpt lat="42.2152179" lon="13.5883065"><ele>1046.1666666666667</ele><time>2026-04-26T16:58:58.863Z</time></trkpt><trkpt lat="42.2152544" lon="13.5882002"><ele>1047.0</ele><time>2026-04-26T16:58:59.862Z</time></trkpt><trkpt lat="42.2152832" lon="13.5881079"><ele>1047.0</ele><time>2026-04-26T16:59:00.863Z</time></trkpt><trkpt lat="42.2153275" lon="13.5879756"><ele>1047.0</ele><time>2026-04-26T16:59:02.862Z</time></trkpt><trkpt lat="42.2153695" lon="13.5878547"><ele>1047.0</ele><time>2026-04-26T16:59:04.863Z</time></trkpt><trkpt lat="42.2153836" lon="13.5877095"><ele>1047.0</ele><time>2026-04-26T16:59:06.862Z</time></trkpt><trkpt lat="42.2154286" lon="13.5875783"><ele>1047.0</ele><time>2026-04-26T16:59:08.863Z</time></trkpt><trkpt lat="42.2154912" lon="13.5874351"><ele>1049.8</ele><time>2026-04-26T16:59:10.864Z</time></trkpt><trkpt lat="42.2155363" lon="13.5872833"><ele>1052.6</ele><time>2026-04-26T16:59:12.863Z</time></trkpt><trkpt lat="42.2155984" lon="13.5871552"><ele>1055.3999999999999</ele><time>2026-04-26T16:59:14.862Z</time></trkpt><trkpt lat="42.2156317" lon="13.5870829"><ele>1058.2</ele><time>2026-04-26T16:59:15.862Z</time></trkpt><trkpt lat="42.2157036" lon="13.5869575"><ele>1061.0</ele><time>2026-04-26T16:59:17.864Z</time></trkpt><trkpt lat="42.2157874" lon="13.5868245"><ele>1063.2</ele><time>2026-04-26T16:59:19.864Z</time></trkpt><trkpt lat="42.2158698" lon="13.5867219"><ele>1065.3999999999999</ele><time>2026-04-26T16:59:21.864Z</time></trkpt><trkpt lat="42.2159487" lon="13.5865866"><ele>1067.6</ele><time>2026-04-26T16:59:23.863Z</time></trkpt><trkpt lat="42.2159833" lon="13.5865148"><ele>1069.8</ele><time>2026-04-26T16:59:24.864Z</time></trkpt><trkpt lat="42.2160493" lon="13.5863718"><ele>1072.0</ele><time>2026-04-26T16:59:26.863Z</time></trkpt><trkpt lat="42.2160776" lon="13.5862863"><ele>1072.0</ele><time>2026-04-26T16:59:27.862Z</time></trkpt><trkpt lat="42.2161058" lon="13.5861966"><ele>1072.0</ele><time>2026-04-26T16:59:28.863Z</time></trkpt><trkpt lat="42.2161323" lon="13.5861011"><ele>1072.0</ele><time>2026-04-26T16:59:29.863Z</time></trkpt><trkpt lat="42.2161527" lon="13.5860078"><ele>1072.0</ele><time>2026-04-26T16:59:30.862Z</time></trkpt><trkpt lat="42.2161748" lon="13.5859166"><ele>1072.0</ele><time>2026-04-26T16:59:31.862Z</time></trkpt><trkpt lat="42.2161958" lon="13.5858206"><ele>1072.0</ele><time>2026-04-26T16:59:32.862Z</time></trkpt><trkpt lat="42.216226" lon="13.5857229"><ele>1072.0</ele><time>2026-04-26T16:59:33.863Z</time></trkpt><trkpt lat="42.2162469" lon="13.585621"><ele>1073.142857142857</ele><time>2026-04-26T16:59:34.864Z</time></trkpt><trkpt lat="42.2162692" lon="13.5855191"><ele>1074.2857142857142</ele><time>2026-04-26T16:59:35.864Z</time></trkpt><trkpt lat="42.2162964" lon="13.5854352"><ele>1075.4285714285713</ele><time>2026-04-26T16:59:36.862Z</time></trkpt><trkpt lat="42.2163298" lon="13.5853596"><ele>1076.5714285714284</ele><time>2026-04-26T16:59:37.863Z</time></trkpt><trkpt lat="42.2163568" lon="13.5852743"><ele>1077.7142857142856</ele><time>2026-04-26T16:59:38.862Z</time></trkpt><trkpt lat="42.216384" lon="13.5851898"><ele>1078.857142857143</ele><time>2026-04-26T16:59:39.863Z</time></trkpt><trkpt lat="42.216411" lon="13.5851053"><ele>1080.0</ele><time>2026-04-26T16:59:40.863Z</time></trkpt><trkpt lat="42.2164927" lon="13.5849778"><ele>1080.1666666666667</ele><time>2026-04-26T16:59:42.862Z</time></trkpt><trkpt lat="42.2165384" lon="13.5849064"><ele>1080.3333333333333</ele><time>2026-04-26T16:59:43.862Z</time></trkpt><trkpt lat="42.2165879" lon="13.5848264"><ele>1080.5</ele><time>2026-04-26T16:59:44.862Z</time></trkpt><trkpt lat="42.2166445" lon="13.5847426"><ele>1080.6666666666665</ele><time>2026-04-26T16:59:45.862Z</time></trkpt><trkpt lat="42.2167053" lon="13.5846584"><ele>1080.8333333333333</ele><time>2026-04-26T16:59:46.862Z</time></trkpt><trkpt lat="42.2167664" lon="13.5845658"><ele>1081.0</ele><time>2026-04-26T16:59:47.864Z</time></trkpt><trkpt lat="42.2168345" lon="13.584478"><ele>1081.6666666666665</ele><time>2026-04-26T16:59:48.862Z</time></trkpt><trkpt lat="42.2168945" lon="13.5843838"><ele>1082.3333333333333</ele><time>2026-04-26T16:59:49.862Z</time></trkpt><trkpt lat="42.2169564" lon="13.5842959"><ele>1083.0</ele><time>2026-04-26T16:59:50.863Z</time></trkpt><trkpt lat="42.2170187" lon="13.5842106"><ele>1083.6666666666667</ele><time>2026-04-26T16:59:51.864Z</time></trkpt><trkpt lat="42.217078" lon="13.5841226"><ele>1084.3333333333335</ele><time>2026-04-26T16:59:52.864Z</time></trkpt><trkpt lat="42.2171366" lon="13.5840369"><ele>1085.0</ele><time>2026-04-26T16:59:53.863Z</time></trkpt><trkpt lat="42.2171994" lon="13.5839586"><ele>1085.0</ele><time>2026-04-26T16:59:54.863Z</time></trkpt><trkpt lat="42.2172601" lon="13.5838727"><ele>1085.0</ele><time>2026-04-26T16:59:55.863Z</time></trkpt><trkpt lat="42.2173185" lon="13.5837802"><ele>1085.0</ele><time>2026-04-26T16:59:56.862Z</time></trkpt><trkpt lat="42.2173689" lon="13.5836803"><ele>1085.0</ele><time>2026-04-26T16:59:57.863Z</time></trkpt><trkpt lat="42.2174028" lon="13.5835823"><ele>1085.0</ele><time>2026-04-26T16:59:58.863Z</time></trkpt><trkpt lat="42.2174199" lon="13.5834827"><ele>1085.0</ele><time>2026-04-26T16:59:59.864Z</time></trkpt><trkpt lat="42.217422" lon="13.5833863"><ele>1085.3333333333335</ele><time>2026-04-26T17:00:00.862Z</time></trkpt><trkpt lat="42.2173981" lon="13.5832835"><ele>1085.6666666666667</ele><time>2026-04-26T17:00:01.863Z</time></trkpt><trkpt lat="42.2173647" lon="13.5831898"><ele>1086.0</ele><time>2026-04-26T17:00:02.863Z</time></trkpt><trkpt lat="42.217342" lon="13.5830881"><ele>1086.3333333333333</ele><time>2026-04-26T17:00:03.864Z</time></trkpt><trkpt lat="42.2173255" lon="13.5829757"><ele>1086.6666666666665</ele><time>2026-04-26T17:00:04.862Z</time></trkpt><trkpt lat="42.217321" lon="13.5828573"><ele>1087.0</ele><time>2026-04-26T17:00:05.863Z</time></trkpt><trkpt lat="42.2173313" lon="13.5827246"><ele>1087.3333333333333</ele><time>2026-04-26T17:00:06.862Z</time></trkpt><trkpt lat="42.2173507" lon="13.582595"><ele>1087.6666666666665</ele><time>2026-04-26T17:00:07.863Z</time></trkpt><trkpt lat="42.2173717" lon="13.5824616"><ele>1088.0</ele><time>2026-04-26T17:00:08.862Z</time></trkpt><trkpt lat="42.2173956" lon="13.5823459"><ele>1088.3333333333333</ele><time>2026-04-26T17:00:09.864Z</time></trkpt><trkpt lat="42.2174217" lon="13.5822386"><ele>1088.6666666666667</ele><time>2026-04-26T17:00:10.862Z</time></trkpt><trkpt lat="42.217443" lon="13.5821416"><ele>1089.0</ele><time>2026-04-26T17:00:11.863Z</time></trkpt><trkpt lat="42.2174655" lon="13.58205"><ele>1088.8</ele><time>2026-04-26T17:00:12.864Z</time></trkpt><trkpt lat="42.2175082" lon="13.5819134"><ele>1088.6000000000001</ele><time>2026-04-26T17:00:14.863Z</time></trkpt><trkpt lat="42.2175483" lon="13.5817794"><ele>1088.4</ele><time>2026-04-26T17:00:16.863Z</time></trkpt><trkpt lat="42.2175647" lon="13.5816109"><ele>1088.2</ele><time>2026-04-26T17:00:18.863Z</time></trkpt><trkpt lat="42.2175475" lon="13.5815179"><ele>1088.0</ele><time>2026-04-26T17:00:19.862Z</time></trkpt><trkpt lat="42.2175138" lon="13.5814214"><ele>1088.0</ele><time>2026-04-26T17:00:20.863Z</time></trkpt><trkpt lat="42.2174676" lon="13.581327"><ele>1088.0</ele><time>2026-04-26T17:00:21.862Z</time></trkpt><trkpt lat="42.2174204" lon="13.5812293"><ele>1088.0</ele><time>2026-04-26T17:00:22.863Z</time></trkpt><trkpt lat="42.2173694" lon="13.5811203"><ele>1088.0</ele><time>2026-04-26T17:00:23.864Z</time></trkpt><trkpt lat="42.2173155" lon="13.5810102"><ele>1088.0</ele><time>2026-04-26T17:00:24.863Z</time></trkpt><trkpt lat="42.2172644" lon="13.5809164"><ele>1088.8333333333335</ele><time>2026-04-26T17:00:25.863Z</time></trkpt><trkpt lat="42.2172162" lon="13.5808155"><ele>1089.6666666666667</ele><time>2026-04-26T17:00:26.862Z</time></trkpt><trkpt lat="42.217178" lon="13.5807102"><ele>1090.5</ele><time>2026-04-26T17:00:27.863Z</time></trkpt><trkpt lat="42.2171475" lon="13.580612"><ele>1091.3333333333333</ele><time>2026-04-26T17:00:28.862Z</time></trkpt><trkpt lat="42.2171444" lon="13.5805071"><ele>1092.1666666666665</ele><time>2026-04-26T17:00:29.864Z</time></trkpt><trkpt lat="42.2171636" lon="13.5803968"><ele>1093.0</ele><time>2026-04-26T17:00:30.862Z</time></trkpt><trkpt lat="42.2171942" lon="13.5802926"><ele>1093.3333333333333</ele><time>2026-04-26T17:00:31.863Z</time></trkpt><trkpt lat="42.2172388" lon="13.5801807"><ele>1093.6666666666665</ele><time>2026-04-26T17:00:32.862Z</time></trkpt><trkpt lat="42.2172806" lon="13.5800719"><ele>1094.0</ele><time>2026-04-26T17:00:33.863Z</time></trkpt><trkpt lat="42.2173189" lon="13.5799676"><ele>1094.3333333333333</ele><time>2026-04-26T17:00:34.863Z</time></trkpt><trkpt lat="42.2173561" lon="13.5798727"><ele>1094.6666666666667</ele><time>2026-04-26T17:00:35.864Z</time></trkpt><trkpt lat="42.2173978" lon="13.5797769"><ele>1095.0</ele><time>2026-04-26T17:00:36.862Z</time></trkpt><trkpt lat="42.2174339" lon="13.5796811"><ele>1094.5</ele><time>2026-04-26T17:00:37.863Z</time></trkpt><trkpt lat="42.2174667" lon="13.579581"><ele>1094.0</ele><time>2026-04-26T17:00:38.864Z</time></trkpt><trkpt lat="42.2175161" lon="13.5794948"><ele>1093.5</ele><time>2026-04-26T17:00:41.862Z</time></trkpt><trkpt lat="42.2175668" lon="13.5793674"><ele>1093.0</ele><time>2026-04-26T17:00:43.863Z</time></trkpt><trkpt lat="42.2176019" lon="13.5792832"><ele>1092.5</ele><time>2026-04-26T17:00:44.863Z</time></trkpt><trkpt lat="42.2176348" lon="13.5791966"><ele>1092.0</ele><time>2026-04-26T17:00:45.863Z</time></trkpt><trkpt lat="42.2176857" lon="13.5791044"><ele>1092.0</ele><time>2026-04-26T17:00:46.863Z</time></trkpt><trkpt lat="42.2177528" lon="13.5790189"><ele>1092.0</ele><time>2026-04-26T17:00:47.863Z</time></trkpt><trkpt lat="42.2178108" lon="13.5789488"><ele>1092.0</ele><time>2026-04-26T17:00:48.863Z</time></trkpt><trkpt lat="42.2178735" lon="13.5788727"><ele>1092.0</ele><time>2026-04-26T17:00:49.862Z</time></trkpt><trkpt lat="42.2179321" lon="13.5787975"><ele>1092.0</ele><time>2026-04-26T17:00:50.863Z</time></trkpt><trkpt lat="42.2179678" lon="13.5787262"><ele>1092.0</ele><time>2026-04-26T17:00:51.863Z</time></trkpt><trkpt lat="42.2180151" lon="13.578645"><ele>1093.6</ele><time>2026-04-26T17:00:52.863Z</time></trkpt><trkpt lat="42.2179877" lon="13.5784215"><ele>1095.2</ele><time>2026-04-26T17:00:54.862Z</time></trkpt><trkpt lat="42.217985" lon="13.5783289"><ele>1096.8</ele><time>2026-04-26T17:00:55.862Z</time></trkpt><trkpt lat="42.2180171" lon="13.5782445"><ele>1098.4</ele><time>2026-04-26T17:00:56.862Z</time></trkpt><trkpt lat="42.2180594" lon="13.5781592"><ele>1100.0</ele><time>2026-04-26T17:00:57.863Z</time></trkpt><trkpt lat="42.2180877" lon="13.5780731"><ele>1098.6666666666667</ele><time>2026-04-26T17:00:58.864Z</time></trkpt><trkpt lat="42.2181849" lon="13.5780316"><ele>1097.3333333333335</ele><time>2026-04-26T17:00:59.863Z</time></trkpt><trkpt lat="42.2182457" lon="13.5779604"><ele>1096.0</ele><time>2026-04-26T17:01:00.862Z</time></trkpt><trkpt lat="42.2183114" lon="13.5778906"><ele>1094.6666666666667</ele><time>2026-04-26T17:01:01.862Z</time></trkpt><trkpt lat="42.2183694" lon="13.5778167"><ele>1093.3333333333333</ele><time>2026-04-26T17:01:02.863Z</time></trkpt><trkpt lat="42.2184499" lon="13.5778052"><ele>1092.0</ele><time>2026-04-26T17:01:03.863Z</time></trkpt><trkpt lat="42.218522" lon="13.5777894"><ele>1092.0</ele><time>2026-04-26T17:01:04.863Z</time></trkpt><trkpt lat="42.2186006" lon="13.5777749"><ele>1092.0</ele><time>2026-04-26T17:01:05.862Z</time></trkpt><trkpt lat="42.2186617" lon="13.5777109"><ele>1092.0</ele><time>2026-04-26T17:01:06.863Z</time></trkpt><trkpt lat="42.2187113" lon="13.5776335"><ele>1092.0</ele><time>2026-04-26T17:01:07.863Z</time></trkpt><trkpt lat="42.21877" lon="13.5775516"><ele>1092.0</ele><time>2026-04-26T17:01:08.864Z</time></trkpt><trkpt lat="42.2188338" lon="13.5774483"><ele>1092.0</ele><time>2026-04-26T17:01:09.864Z</time></trkpt><trkpt lat="42.2188934" lon="13.5773308"><ele>1092.0</ele><time>2026-04-26T17:01:10.864Z</time></trkpt><trkpt lat="42.2189525" lon="13.5772227"><ele>1092.0</ele><time>2026-04-26T17:01:11.863Z</time></trkpt><trkpt lat="42.2190203" lon="13.5771323"><ele>1092.0</ele><time>2026-04-26T17:01:12.863Z</time></trkpt><trkpt lat="42.2190976" lon="13.5770358"><ele>1092.0</ele><time>2026-04-26T17:01:13.862Z</time></trkpt><trkpt lat="42.219185" lon="13.5769379"><ele>1092.0</ele><time>2026-04-26T17:01:14.863Z</time></trkpt><trkpt lat="42.2192816" lon="13.5768376"><ele>1089.25</ele><time>2026-04-26T17:01:15.863Z</time></trkpt><trkpt lat="42.2193871" lon="13.5767307"><ele>1086.5</ele><time>2026-04-26T17:01:16.862Z</time></trkpt><trkpt lat="42.219479" lon="13.5766375"><ele>1083.75</ele><time>2026-04-26T17:01:17.862Z</time></trkpt><trkpt lat="42.2195698" lon="13.5765452"><ele>1081.0</ele><time>2026-04-26T17:01:18.862Z</time></trkpt><trkpt lat="42.2196569" lon="13.57646"><ele>1081.0</ele><time>2026-04-26T17:01:19.862Z</time></trkpt><trkpt lat="42.2197365" lon="13.5763786"><ele>1081.0</ele><time>2026-04-26T17:01:20.864Z</time></trkpt><trkpt lat="42.2198055" lon="13.5762994"><ele>1081.0</ele><time>2026-04-26T17:01:21.863Z</time></trkpt><trkpt lat="42.2198717" lon="13.5762267"><ele>1081.0</ele><time>2026-04-26T17:01:22.863Z</time></trkpt><trkpt lat="42.2199341" lon="13.576165"><ele>1081.0</ele><time>2026-04-26T17:01:23.864Z</time></trkpt><trkpt lat="42.2199845" lon="13.576102"><ele>1081.0</ele><time>2026-04-26T17:01:24.863Z</time></trkpt><trkpt lat="42.2200444" lon="13.5760389"><ele>1080.3333333333333</ele><time>2026-04-26T17:01:25.862Z</time></trkpt><trkpt lat="42.2200994" lon="13.5759858"><ele>1079.6666666666665</ele><time>2026-04-26T17:01:26.863Z</time></trkpt><trkpt lat="42.2201687" lon="13.5759269"><ele>1079.0</ele><time>2026-04-26T17:01:27.863Z</time></trkpt><trkpt lat="42.2202305" lon="13.5758628"><ele>1078.3333333333333</ele><time>2026-04-26T17:01:28.863Z</time></trkpt><trkpt lat="42.2203057" lon="13.5758075"><ele>1077.6666666666667</ele><time>2026-04-26T17:01:29.864Z</time></trkpt><trkpt lat="42.2203766" lon="13.5757538"><ele>1077.0</ele><time>2026-04-26T17:01:30.863Z</time></trkpt><trkpt lat="42.2204452" lon="13.5757075"><ele>1077.0</ele><time>2026-04-26T17:01:31.862Z</time></trkpt><trkpt lat="42.2205093" lon="13.5756787"><ele>1077.0</ele><time>2026-04-26T17:01:32.863Z</time></trkpt><trkpt lat="42.220602" lon="13.5756427"><ele>1077.0</ele><time>2026-04-26T17:01:34.864Z</time></trkpt><trkpt lat="42.2206681" lon="13.5756361"><ele>1077.0</ele><time>2026-04-26T17:01:35.864Z</time></trkpt><trkpt lat="42.2207399" lon="13.5756137"><ele>1077.0</ele><time>2026-04-26T17:01:36.862Z</time></trkpt><trkpt lat="42.2208145" lon="13.5755734"><ele>1077.0</ele><time>2026-04-26T17:01:37.864Z</time></trkpt><trkpt lat="42.2209302" lon="13.575467"><ele>1077.3333333333333</ele><time>2026-04-26T17:01:39.863Z</time></trkpt><trkpt lat="42.2209916" lon="13.5754151"><ele>1077.6666666666667</ele><time>2026-04-26T17:01:40.863Z</time></trkpt><trkpt lat="42.2210556" lon="13.5753735"><ele>1078.0</ele><time>2026-04-26T17:01:41.864Z</time></trkpt><trkpt lat="42.2211321" lon="13.5752917"><ele>1078.3333333333335</ele><time>2026-04-26T17:01:43.864Z</time></trkpt><trkpt lat="42.2211954" lon="13.575192"><ele>1078.6666666666667</ele><time>2026-04-26T17:01:46.863Z</time></trkpt><trkpt lat="42.2212563" lon="13.5751082"><ele>1079.0</ele><time>2026-04-26T17:01:48.862Z</time></trkpt><trkpt lat="42.221338" lon="13.5750021"><ele>1079.8</ele><time>2026-04-26T17:01:50.862Z</time></trkpt><trkpt lat="42.2213715" lon="13.5749273"><ele>1080.6000000000001</ele><time>2026-04-26T17:01:51.862Z</time></trkpt><trkpt lat="42.2214406" lon="13.5748189"><ele>1081.4</ele><time>2026-04-26T17:01:53.863Z</time></trkpt><trkpt lat="42.2215136" lon="13.5746981"><ele>1082.2</ele><time>2026-04-26T17:01:55.864Z</time></trkpt><trkpt lat="42.2215983" lon="13.5745804"><ele>1083.0</ele><time>2026-04-26T17:01:57.863Z</time></trkpt><trkpt lat="42.2216558" lon="13.5745346"><ele>1084.3333333333333</ele><time>2026-04-26T17:01:58.863Z</time></trkpt><trkpt lat="42.2217708" lon="13.5744604"><ele>1085.6666666666667</ele><time>2026-04-26T17:02:00.863Z</time></trkpt><trkpt lat="42.2218502" lon="13.5744724"><ele>1087.0</ele><time>2026-04-26T17:02:01.863Z</time></trkpt><trkpt lat="42.2219194" lon="13.5744773"><ele>1088.3333333333335</ele><time>2026-04-26T17:02:02.862Z</time></trkpt><trkpt lat="42.2219844" lon="13.5744922"><ele>1089.6666666666667</ele><time>2026-04-26T17:02:03.863Z</time></trkpt><trkpt lat="42.2220467" lon="13.5745191"><ele>1091.0</ele><time>2026-04-26T17:02:04.862Z</time></trkpt><trkpt lat="42.2221621" lon="13.5745674"><ele>1091.0</ele><time>2026-04-26T17:02:06.863Z</time></trkpt><trkpt lat="42.2222577" lon="13.5746496"><ele>1091.0</ele><time>2026-04-26T17:02:08.863Z</time></trkpt><trkpt lat="42.2223363" lon="13.5747441"><ele>1091.0</ele><time>2026-04-26T17:02:10.862Z</time></trkpt><trkpt lat="42.2224236" lon="13.5748291"><ele>1091.0</ele><time>2026-04-26T17:02:12.862Z</time></trkpt><trkpt lat="42.2225109" lon="13.5748964"><ele>1091.0</ele><time>2026-04-26T17:02:14.863Z</time></trkpt><trkpt lat="42.2226143" lon="13.5749523"><ele>1092.0</ele><time>2026-04-26T17:02:16.864Z</time></trkpt><trkpt lat="42.2227091" lon="13.5749917"><ele>1093.0</ele><time>2026-04-26T17:02:18.863Z</time></trkpt><trkpt lat="42.2227692" lon="13.57502"><ele>1094.0</ele><time>2026-04-26T17:02:19.864Z</time></trkpt><trkpt lat="42.222872" lon="13.5750619"><ele>1095.0</ele><time>2026-04-26T17:02:21.863Z</time></trkpt><trkpt lat="42.2229547" lon="13.5751109"><ele>1096.0</ele><time>2026-04-26T17:02:23.864Z</time></trkpt><trkpt lat="42.2230553" lon="13.5751526"><ele>1097.3333333333333</ele><time>2026-04-26T17:02:25.863Z</time></trkpt><trkpt lat="42.2231591" lon="13.575114"><ele>1098.6666666666665</ele><time>2026-04-26T17:02:27.862Z</time></trkpt><trkpt lat="42.2232662" lon="13.5750384"><ele>1100.0</ele><time>2026-04-26T17:02:29.863Z</time></trkpt><trkpt lat="42.2233222" lon="13.5749897"><ele>1101.3333333333333</ele><time>2026-04-26T17:02:30.862Z</time></trkpt><trkpt lat="42.2233795" lon="13.5749293"><ele>1102.6666666666667</ele><time>2026-04-26T17:02:31.863Z</time></trkpt><trkpt lat="42.2234291" lon="13.5748651"><ele>1104.0</ele><time>2026-04-26T17:02:32.864Z</time></trkpt><trkpt lat="42.2234751" lon="13.57479"><ele>1104.0</ele><time>2026-04-26T17:02:33.862Z</time></trkpt><trkpt lat="42.2235061" lon="13.5747001"><ele>1104.0</ele><time>2026-04-26T17:02:34.863Z</time></trkpt><trkpt lat="42.2235332" lon="13.5745974"><ele>1104.0</ele><time>2026-04-26T17:02:35.863Z</time></trkpt><trkpt lat="42.2235627" lon="13.5744934"><ele>1104.0</ele><time>2026-04-26T17:02:36.862Z</time></trkpt><trkpt lat="42.2235962" lon="13.5743933"><ele>1104.0</ele><time>2026-04-26T17:02:37.862Z</time></trkpt><trkpt lat="42.2236381" lon="13.5743074"><ele>1104.0</ele><time>2026-04-26T17:02:38.862Z</time></trkpt><trkpt lat="42.2236911" lon="13.5742268"><ele>1104.3333333333333</ele><time>2026-04-26T17:02:39.863Z</time></trkpt><trkpt lat="42.2237373" lon="13.5741466"><ele>1104.6666666666667</ele><time>2026-04-26T17:02:40.864Z</time></trkpt><trkpt lat="42.2237667" lon="13.5740473"><ele>1105.0</ele><time>2026-04-26T17:02:41.862Z</time></trkpt><trkpt lat="42.2237775" lon="13.5739356"><ele>1105.3333333333335</ele><time>2026-04-26T17:02:42.862Z</time></trkpt><trkpt lat="42.2237716" lon="13.5738345"><ele>1105.6666666666667</ele><time>2026-04-26T17:02:43.862Z</time></trkpt><trkpt lat="42.2237589" lon="13.5737454"><ele>1106.0</ele><time>2026-04-26T17:02:44.862Z</time></trkpt><trkpt lat="42.2237503" lon="13.573595"><ele>1106.6666666666667</ele><time>2026-04-26T17:02:46.863Z</time></trkpt><trkpt lat="42.2238136" lon="13.5734739"><ele>1107.3333333333335</ele><time>2026-04-26T17:02:48.863Z</time></trkpt><trkpt lat="42.2238763" lon="13.5733308"><ele>1108.0</ele><time>2026-04-26T17:02:50.863Z</time></trkpt><trkpt lat="42.2239086" lon="13.5732525"><ele>1108.6666666666667</ele><time>2026-04-26T17:02:51.862Z</time></trkpt><trkpt lat="42.2239431" lon="13.5731685"><ele>1109.3333333333333</ele><time>2026-04-26T17:02:52.862Z</time></trkpt><trkpt lat="42.2239773" lon="13.5730833"><ele>1110.0</ele><time>2026-04-26T17:02:53.863Z</time></trkpt><trkpt lat="42.2240069" lon="13.5730007"><ele>1113.0</ele><time>2026-04-26T17:02:54.863Z</time></trkpt><trkpt lat="42.2240314" lon="13.572898"><ele>1116.0</ele><time>2026-04-26T17:02:55.862Z</time></trkpt><trkpt lat="42.2240451" lon="13.5728002"><ele>1119.0</ele><time>2026-04-26T17:02:56.863Z</time></trkpt><trkpt lat="42.2240501" lon="13.5727121"><ele>1122.0</ele><time>2026-04-26T17:02:57.862Z</time></trkpt><trkpt lat="42.2240794" lon="13.5725445"><ele>1125.0</ele><time>2026-04-26T17:02:59.863Z</time></trkpt><trkpt lat="42.2240998" lon="13.5724593"><ele>1128.0</ele><time>2026-04-26T17:03:00.862Z</time></trkpt><trkpt lat="42.2241225" lon="13.5723703"><ele>1128.0</ele><time>2026-04-26T17:03:01.862Z</time></trkpt><trkpt lat="42.2241411" lon="13.5722704"><ele>1128.0</ele><time>2026-04-26T17:03:02.863Z</time></trkpt><trkpt lat="42.2241603" lon="13.5721681"><ele>1128.0</ele><time>2026-04-26T17:03:03.864Z</time></trkpt><trkpt lat="42.2241839" lon="13.572069"><ele>1128.0</ele><time>2026-04-26T17:03:04.863Z</time></trkpt><trkpt lat="42.2242092" lon="13.5719672"><ele>1128.0</ele><time>2026-04-26T17:03:05.863Z</time></trkpt><trkpt lat="42.2242369" lon="13.5718676"><ele>1128.0</ele><time>2026-04-26T17:03:06.863Z</time></trkpt><trkpt lat="42.2242759" lon="13.5717788"><ele>1128.0</ele><time>2026-04-26T17:03:07.863Z</time></trkpt><trkpt lat="42.2243243" lon="13.5716899"><ele>1128.0</ele><time>2026-04-26T17:03:08.862Z</time></trkpt><trkpt lat="42.2243777" lon="13.5716099"><ele>1128.0</ele><time>2026-04-26T17:03:09.863Z</time></trkpt><trkpt lat="42.2244387" lon="13.5715397"><ele>1128.0</ele><time>2026-04-26T17:03:10.864Z</time></trkpt><trkpt lat="42.2244926" lon="13.5714685"><ele>1128.0</ele><time>2026-04-26T17:03:11.862Z</time></trkpt><trkpt lat="42.2245259" lon="13.5713665"><ele>1128.0</ele><time>2026-04-26T17:03:12.863Z</time></trkpt><trkpt lat="42.2245621" lon="13.571255"><ele>1128.0</ele><time>2026-04-26T17:03:13.863Z</time></trkpt><trkpt lat="42.2245922" lon="13.5711291"><ele>1128.0</ele><time>2026-04-26T17:03:14.863Z</time></trkpt><trkpt lat="42.2246225" lon="13.5709898"><ele>1128.0</ele><time>2026-04-26T17:03:15.863Z</time></trkpt><trkpt lat="42.2246622" lon="13.570843"><ele>1128.0</ele><time>2026-04-26T17:03:16.862Z</time></trkpt><trkpt lat="42.2247092" lon="13.5706946"><ele>1128.0</ele><time>2026-04-26T17:03:17.863Z</time></trkpt><trkpt lat="42.2247528" lon="13.5705588"><ele>1128.0</ele><time>2026-04-26T17:03:18.863Z</time></trkpt><trkpt lat="42.2247946" lon="13.5704146"><ele>1128.0</ele><time>2026-04-26T17:03:19.862Z</time></trkpt><trkpt lat="42.2248402" lon="13.5702746"><ele>1128.0</ele><time>2026-04-26T17:03:20.864Z</time></trkpt><trkpt lat="42.2248911" lon="13.5701565"><ele>1128.0</ele><time>2026-04-26T17:03:21.863Z</time></trkpt><trkpt lat="42.2249381" lon="13.570036"><ele>1128.0</ele><time>2026-04-26T17:03:22.861Z</time></trkpt><trkpt lat="42.224964" lon="13.5699015"><ele>1128.5</ele><time>2026-04-26T17:03:23.861Z</time></trkpt><trkpt lat="42.2249633" lon="13.5697602"><ele>1129.0</ele><time>2026-04-26T17:03:24.861Z</time></trkpt><trkpt lat="42.2249579" lon="13.5696513"><ele>1129.5</ele><time>2026-04-26T17:03:25.861Z</time></trkpt><trkpt lat="42.2249422" lon="13.5695421"><ele>1130.0</ele><time>2026-04-26T17:03:27.862Z</time></trkpt><trkpt lat="42.2249149" lon="13.5694608"><ele>1130.5</ele><time>2026-04-26T17:03:30.862Z</time></trkpt><trkpt lat="42.2248975" lon="13.5693537"><ele>1131.0</ele><time>2026-04-26T17:03:33.862Z</time></trkpt><trkpt lat="42.2248973" lon="13.5692647"><ele>1131.0</ele><time>2026-04-26T17:03:35.861Z</time></trkpt><trkpt lat="42.2249367" lon="13.5691537"><ele>1131.0</ele><time>2026-04-26T17:03:37.862Z</time></trkpt><trkpt lat="42.2250106" lon="13.5690451"><ele>1131.0</ele><time>2026-04-26T17:03:39.862Z</time></trkpt><trkpt lat="42.2250552" lon="13.5689837"><ele>1131.0</ele><time>2026-04-26T17:03:40.862Z</time></trkpt><trkpt lat="42.2250998" lon="13.5689186"><ele>1131.0</ele><time>2026-04-26T17:03:41.862Z</time></trkpt><trkpt lat="42.2251493" lon="13.5688559"><ele>1131.0</ele><time>2026-04-26T17:03:42.862Z</time></trkpt><trkpt lat="42.2251954" lon="13.5687926"><ele>1131.0</ele><time>2026-04-26T17:03:43.861Z</time></trkpt><trkpt lat="42.2252389" lon="13.5687028"><ele>1131.0</ele><time>2026-04-26T17:03:44.862Z</time></trkpt><trkpt lat="42.2252863" lon="13.5686125"><ele>1131.0</ele><time>2026-04-26T17:03:45.862Z</time></trkpt><trkpt lat="42.2253344" lon="13.5685189"><ele>1131.0</ele><time>2026-04-26T17:03:46.861Z</time></trkpt><trkpt lat="42.2253789" lon="13.5684224"><ele>1131.0</ele><time>2026-04-26T17:03:47.862Z</time></trkpt><trkpt lat="42.2254245" lon="13.5683305"><ele>1131.0</ele><time>2026-04-26T17:03:48.862Z</time></trkpt><trkpt lat="42.2254665" lon="13.5682462"><ele>1130.7142857142858</ele><time>2026-04-26T17:03:49.861Z</time></trkpt><trkpt lat="42.2255102" lon="13.5681618"><ele>1130.4285714285716</ele><time>2026-04-26T17:03:50.862Z</time></trkpt><trkpt lat="42.2255403" lon="13.5680733"><ele>1130.142857142857</ele><time>2026-04-26T17:03:51.862Z</time></trkpt><trkpt lat="42.2255494" lon="13.5679842"><ele>1129.857142857143</ele><time>2026-04-26T17:03:52.863Z</time></trkpt><trkpt lat="42.2255505" lon="13.5678933"><ele>1129.5714285714284</ele><time>2026-04-26T17:03:53.863Z</time></trkpt><trkpt lat="42.2255735" lon="13.5678076"><ele>1129.2857142857142</ele><time>2026-04-26T17:03:54.863Z</time></trkpt><trkpt lat="42.2256042" lon="13.5677287"><ele>1129.0</ele><time>2026-04-26T17:03:55.862Z</time></trkpt><trkpt lat="42.225636" lon="13.5676494"><ele>1131.0</ele><time>2026-04-26T17:03:56.861Z</time></trkpt><trkpt lat="42.2256756" lon="13.5675785"><ele>1133.0</ele><time>2026-04-26T17:03:57.862Z</time></trkpt><trkpt lat="42.2257891" lon="13.5675208"><ele>1135.0</ele><time>2026-04-26T17:03:59.862Z</time></trkpt><trkpt lat="42.2259081" lon="13.5674814"><ele>1137.0</ele><time>2026-04-26T17:04:01.861Z</time></trkpt><trkpt lat="42.2259554" lon="13.5674152"><ele>1139.0</ele><time>2026-04-26T17:04:02.862Z</time></trkpt><trkpt lat="42.2259804" lon="13.5673335"><ele>1141.0</ele><time>2026-04-26T17:04:03.862Z</time></trkpt><trkpt lat="42.2259782" lon="13.5672446"><ele>1141.0</ele><time>2026-04-26T17:04:04.862Z</time></trkpt><trkpt lat="42.2259713" lon="13.567144"><ele>1141.0</ele><time>2026-04-26T17:04:05.863Z</time></trkpt><trkpt lat="42.2259647" lon="13.567054"><ele>1141.0</ele><time>2026-04-26T17:04:06.863Z</time></trkpt><trkpt lat="42.2259742" lon="13.566967"><ele>1141.0</ele><time>2026-04-26T17:04:07.862Z</time></trkpt><trkpt lat="42.2259869" lon="13.5668793"><ele>1141.0</ele><time>2026-04-26T17:04:08.862Z</time></trkpt><trkpt lat="42.2260167" lon="13.5668001"><ele>1141.0</ele><time>2026-04-26T17:04:09.862Z</time></trkpt><trkpt lat="42.2260568" lon="13.5667268"><ele>1141.0</ele><time>2026-04-26T17:04:10.861Z</time></trkpt><trkpt lat="42.2260995" lon="13.5666603"><ele>1141.0</ele><time>2026-04-26T17:04:11.861Z</time></trkpt><trkpt lat="42.2261388" lon="13.5665827"><ele>1141.0</ele><time>2026-04-26T17:04:12.862Z</time></trkpt><trkpt lat="42.2261809" lon="13.5665071"><ele>1141.0</ele><time>2026-04-26T17:04:13.862Z</time></trkpt><trkpt lat="42.2262299" lon="13.5664398"><ele>1141.0</ele><time>2026-04-26T17:04:14.862Z</time></trkpt><trkpt lat="42.2262793" lon="13.5663738"><ele>1141.0</ele><time>2026-04-26T17:04:15.862Z</time></trkpt><trkpt lat="42.2263308" lon="13.5663078"><ele>1141.0</ele><time>2026-04-26T17:04:16.861Z</time></trkpt><trkpt lat="42.226387" lon="13.5662427"><ele>1141.0</ele><time>2026-04-26T17:04:17.862Z</time></trkpt><trkpt lat="42.2264434" lon="13.5661775"><ele>1143.8333333333333</ele><time>2026-04-26T17:04:18.862Z</time></trkpt><trkpt lat="42.2264935" lon="13.5660959"><ele>1146.6666666666665</ele><time>2026-04-26T17:04:19.861Z</time></trkpt><trkpt lat="42.226545" lon="13.5660102"><ele>1149.5</ele><time>2026-04-26T17:04:20.862Z</time></trkpt><trkpt lat="42.226598" lon="13.5659175"><ele>1152.3333333333333</ele><time>2026-04-26T17:04:21.861Z</time></trkpt><trkpt lat="42.2266454" lon="13.5658197"><ele>1155.1666666666667</ele><time>2026-04-26T17:04:22.863Z</time></trkpt><trkpt lat="42.2266782" lon="13.5657351"><ele>1158.0</ele><time>2026-04-26T17:04:23.862Z</time></trkpt><trkpt lat="42.2267108" lon="13.5656598"><ele>1157.9999999999998</ele><time>2026-04-26T17:04:24.862Z</time></trkpt><trkpt lat="42.2267519" lon="13.5655918"><ele>1158.0</ele><time>2026-04-26T17:04:25.862Z</time></trkpt><trkpt lat="42.2267993" lon="13.5655328"><ele>1158.0</ele><time>2026-04-26T17:04:26.861Z</time></trkpt><trkpt lat="42.2268524" lon="13.565475"><ele>1158.0</ele><time>2026-04-26T17:04:27.862Z</time></trkpt><trkpt lat="42.2269106" lon="13.565428"><ele>1158.0</ele><time>2026-04-26T17:04:28.862Z</time></trkpt><trkpt lat="42.2269738" lon="13.5653887"><ele>1157.9999999999998</ele><time>2026-04-26T17:04:29.862Z</time></trkpt><trkpt lat="42.2270424" lon="13.5653379"><ele>1158.0</ele><time>2026-04-26T17:04:30.862Z</time></trkpt><trkpt lat="42.2271111" lon="13.5652852"><ele>1158.3333333333333</ele><time>2026-04-26T17:04:31.862Z</time></trkpt><trkpt lat="42.2271742" lon="13.5652103"><ele>1158.6666666666667</ele><time>2026-04-26T17:04:32.863Z</time></trkpt><trkpt lat="42.2272355" lon="13.5651219"><ele>1159.0</ele><time>2026-04-26T17:04:33.863Z</time></trkpt><trkpt lat="42.2272955" lon="13.5650317"><ele>1159.3333333333335</ele><time>2026-04-26T17:04:34.862Z</time></trkpt><trkpt lat="42.2273552" lon="13.5649354"><ele>1159.6666666666667</ele><time>2026-04-26T17:04:35.862Z</time></trkpt><trkpt lat="42.2274151" lon="13.5648408"><ele>1160.0</ele><time>2026-04-26T17:04:36.863Z</time></trkpt><trkpt lat="42.2274773" lon="13.5647454"><ele>1161.0</ele><time>2026-04-26T17:04:37.862Z</time></trkpt><trkpt lat="42.2275372" lon="13.5646563"><ele>1162.0</ele><time>2026-04-26T17:04:38.861Z</time></trkpt><trkpt lat="42.2275981" lon="13.564569"><ele>1163.0</ele><time>2026-04-26T17:04:39.862Z</time></trkpt><trkpt lat="42.2276536" lon="13.5644812"><ele>1164.0</ele><time>2026-04-26T17:04:40.862Z</time></trkpt><trkpt lat="42.2277095" lon="13.5643911"><ele>1165.0</ele><time>2026-04-26T17:04:41.862Z</time></trkpt><trkpt lat="42.2277532" lon="13.5643064"><ele>1166.0</ele><time>2026-04-26T17:04:42.862Z</time></trkpt><trkpt lat="42.2277931" lon="13.5642204"><ele>1166.0</ele><time>2026-04-26T17:04:43.862Z</time></trkpt><trkpt lat="42.2278254" lon="13.5641189"><ele>1166.0</ele><time>2026-04-26T17:04:44.863Z</time></trkpt><trkpt lat="42.2278698" lon="13.5640292"><ele>1166.0</ele><time>2026-04-26T17:04:45.861Z</time></trkpt><trkpt lat="42.2279186" lon="13.5639381"><ele>1166.0</ele><time>2026-04-26T17:04:46.862Z</time></trkpt><trkpt lat="42.2279609" lon="13.5638472"><ele>1166.0</ele><time>2026-04-26T17:04:47.863Z</time></trkpt><trkpt lat="42.2280203" lon="13.5637761"><ele>1166.0</ele><time>2026-04-26T17:04:48.862Z</time></trkpt><trkpt lat="42.2280917" lon="13.5637299"><ele>1167.6666666666667</ele><time>2026-04-26T17:04:49.862Z</time></trkpt><trkpt lat="42.228165" lon="13.5637015"><ele>1169.3333333333335</ele><time>2026-04-26T17:04:50.862Z</time></trkpt><trkpt lat="42.2282401" lon="13.5636759"><ele>1171.0</ele><time>2026-04-26T17:04:51.862Z</time></trkpt><trkpt lat="42.2283184" lon="13.5636581"><ele>1172.6666666666667</ele><time>2026-04-26T17:04:52.862Z</time></trkpt><trkpt lat="42.2283993" lon="13.5636564"><ele>1174.3333333333333</ele><time>2026-04-26T17:04:53.862Z</time></trkpt><trkpt lat="42.2284791" lon="13.5636651"><ele>1176.0</ele><time>2026-04-26T17:04:54.861Z</time></trkpt><trkpt lat="42.2285597" lon="13.5636633"><ele>1176.0</ele><time>2026-04-26T17:04:55.861Z</time></trkpt><trkpt lat="42.2286344" lon="13.5636487"><ele>1176.0</ele><time>2026-04-26T17:04:56.862Z</time></trkpt><trkpt lat="42.2286984" lon="13.5636164"><ele>1176.0</ele><time>2026-04-26T17:04:57.862Z</time></trkpt><trkpt lat="42.2287957" lon="13.5635517"><ele>1176.0</ele><time>2026-04-26T17:04:58.863Z</time></trkpt><trkpt lat="42.2288704" lon="13.5635328"><ele>1176.0</ele><time>2026-04-26T17:04:59.863Z</time></trkpt><trkpt lat="42.2289508" lon="13.5635033"><ele>1176.0</ele><time>2026-04-26T17:05:00.861Z</time></trkpt><trkpt lat="42.2290244" lon="13.5634677"><ele>1177.0</ele><time>2026-04-26T17:05:01.861Z</time></trkpt><trkpt lat="42.2290918" lon="13.5634238"><ele>1178.0</ele><time>2026-04-26T17:05:02.861Z</time></trkpt><trkpt lat="42.2291206" lon="13.5633291"><ele>1179.0</ele><time>2026-04-26T17:05:03.861Z</time></trkpt><trkpt lat="42.2291744" lon="13.5632705"><ele>1180.0</ele><time>2026-04-26T17:05:05.861Z</time></trkpt><trkpt lat="42.2292464" lon="13.5632487"><ele>1181.0</ele><time>2026-04-26T17:05:19.862Z</time></trkpt><trkpt lat="42.2292718" lon="13.5631439"><ele>1182.0</ele><time>2026-04-26T17:05:23.861Z</time></trkpt><trkpt lat="42.2293284" lon="13.5630783"><ele>1182.0</ele><time>2026-04-26T17:05:26.862Z</time></trkpt><trkpt lat="42.2294167" lon="13.5630022"><ele>1182.0</ele><time>2026-04-26T17:05:29.863Z</time></trkpt><trkpt lat="42.22947" lon="13.5628675"><ele>1182.0</ele><time>2026-04-26T17:05:31.862Z</time></trkpt><trkpt lat="42.22951" lon="13.5627695"><ele>1182.0</ele><time>2026-04-26T17:05:32.861Z</time></trkpt><trkpt lat="42.2295415" lon="13.5626843"><ele>1182.0</ele><time>2026-04-26T17:05:33.861Z</time></trkpt><trkpt lat="42.2296147" lon="13.5625874"><ele>1182.4</ele><time>2026-04-26T17:05:34.863Z</time></trkpt><trkpt lat="42.2296666" lon="13.5624726"><ele>1182.8000000000002</ele><time>2026-04-26T17:05:35.861Z</time></trkpt><trkpt lat="42.2297265" lon="13.562353"><ele>1183.2</ele><time>2026-04-26T17:05:36.861Z</time></trkpt><trkpt lat="42.2297856" lon="13.5622534"><ele>1183.6000000000001</ele><time>2026-04-26T17:05:37.863Z</time></trkpt><trkpt lat="42.2298378" lon="13.5621371"><ele>1184.0</ele><time>2026-04-26T17:05:38.862Z</time></trkpt><trkpt lat="42.229879" lon="13.5620308"><ele>1184.0</ele><time>2026-04-26T17:05:39.861Z</time></trkpt><trkpt lat="42.2299187" lon="13.5619335"><ele>1184.0</ele><time>2026-04-26T17:05:40.862Z</time></trkpt><trkpt lat="42.2299843" lon="13.5618671"><ele>1184.0</ele><time>2026-04-26T17:05:41.862Z</time></trkpt><trkpt lat="42.2299803" lon="13.5616968"><ele>1184.0</ele><time>2026-04-26T17:05:43.863Z</time></trkpt><trkpt lat="42.2299626" lon="13.5616046"><ele>1184.0</ele><time>2026-04-26T17:05:44.862Z</time></trkpt><trkpt lat="42.229929" lon="13.5615154"><ele>1184.0</ele><time>2026-04-26T17:05:45.861Z</time></trkpt><trkpt lat="42.229881" lon="13.5614437"><ele>1184.0</ele><time>2026-04-26T17:05:47.863Z</time></trkpt><trkpt lat="42.2298439" lon="13.5613699"><ele>1184.0</ele><time>2026-04-26T17:05:49.863Z</time></trkpt><trkpt lat="42.2298026" lon="13.5613035"><ele>1184.0</ele><time>2026-04-26T17:05:51.862Z</time></trkpt><trkpt lat="42.2297538" lon="13.56119"><ele>1184.0</ele><time>2026-04-26T17:05:54.862Z</time></trkpt><trkpt lat="42.2297232" lon="13.5610825"><ele>1184.0</ele><time>2026-04-26T17:05:57.863Z</time></trkpt><trkpt lat="42.2297074" lon="13.5609678"><ele>1184.0</ele><time>2026-04-26T17:05:59.863Z</time></trkpt><trkpt lat="42.2297053" lon="13.5608814"><ele>1183.8333333333335</ele><time>2026-04-26T17:06:01.862Z</time></trkpt><trkpt lat="42.2297072" lon="13.5607609"><ele>1183.6666666666667</ele><time>2026-04-26T17:06:03.862Z</time></trkpt><trkpt lat="42.2297047" lon="13.5606222"><ele>1183.5</ele><time>2026-04-26T17:06:05.863Z</time></trkpt><trkpt lat="42.2297353" lon="13.560466"><ele>1183.3333333333333</ele><time>2026-04-26T17:06:07.862Z</time></trkpt><trkpt lat="42.2297376" lon="13.5603734"><ele>1183.1666666666665</ele><time>2026-04-26T17:06:08.861Z</time></trkpt><trkpt lat="42.2297406" lon="13.5602819"><ele>1183.0</ele><time>2026-04-26T17:06:09.861Z</time></trkpt><trkpt lat="42.2298085" lon="13.5601625"><ele>1183.0</ele><time>2026-04-26T17:06:11.863Z</time></trkpt><trkpt lat="42.2298698" lon="13.5601389"><ele>1183.0</ele><time>2026-04-26T17:06:12.863Z</time></trkpt><trkpt lat="42.2299852" lon="13.5601895"><ele>1183.0</ele><time>2026-04-26T17:06:14.862Z</time></trkpt><trkpt lat="42.230044" lon="13.5602302"><ele>1183.0</ele><time>2026-04-26T17:06:15.861Z</time></trkpt><trkpt lat="42.2300888" lon="13.5602944"><ele>1183.0</ele><time>2026-04-26T17:06:16.861Z</time></trkpt><trkpt lat="42.2301318" lon="13.5604057"><ele>1183.0</ele><time>2026-04-26T17:06:17.862Z</time></trkpt><trkpt lat="42.2302129" lon="13.5604858"><ele>1183.0</ele><time>2026-04-26T17:06:19.862Z</time></trkpt><trkpt lat="42.2302712" lon="13.560582"><ele>1183.0</ele><time>2026-04-26T17:06:21.861Z</time></trkpt><trkpt lat="42.230327" lon="13.5604357"><ele>1183.0</ele><time>2026-04-26T17:06:23.862Z</time></trkpt><trkpt lat="42.2303653" lon="13.5603421"><ele>1183.0</ele><time>2026-04-26T17:06:24.861Z</time></trkpt><trkpt lat="42.2304073" lon="13.5602357"><ele>1183.0</ele><time>2026-04-26T17:06:25.863Z</time></trkpt><trkpt lat="42.2304536" lon="13.5601334"><ele>1183.0</ele><time>2026-04-26T17:06:26.863Z</time></trkpt><trkpt lat="42.2304848" lon="13.5600305"><ele>1183.0</ele><time>2026-04-26T17:06:27.862Z</time></trkpt><trkpt lat="42.2305013" lon="13.5599257"><ele>1183.0</ele><time>2026-04-26T17:06:28.862Z</time></trkpt><trkpt lat="42.2304824" lon="13.5598258"><ele>1183.0</ele><time>2026-04-26T17:06:29.862Z</time></trkpt><trkpt lat="42.2304731" lon="13.5597255"><ele>1183.0</ele><time>2026-04-26T17:06:30.863Z</time></trkpt><trkpt lat="42.2304796" lon="13.5595716"><ele>1183.0</ele><time>2026-04-26T17:06:32.862Z</time></trkpt><trkpt lat="42.2305241" lon="13.5594261"><ele>1184.5</ele><time>2026-04-26T17:06:34.861Z</time></trkpt><trkpt lat="42.2304726" lon="13.5592562"><ele>1186.0</ele><time>2026-04-26T17:06:36.861Z</time></trkpt><trkpt lat="42.2304222" lon="13.5591793"><ele>1187.5</ele><time>2026-04-26T17:06:37.862Z</time></trkpt><trkpt lat="42.2303757" lon="13.5590959"><ele>1189.0</ele><time>2026-04-26T17:06:38.862Z</time></trkpt><trkpt lat="42.2303335" lon="13.5590265"><ele>1190.5</ele><time>2026-04-26T17:06:39.862Z</time></trkpt><trkpt lat="42.2302775" lon="13.5589822"><ele>1192.0</ele><time>2026-04-26T17:06:40.862Z</time></trkpt><trkpt lat="42.2302077" lon="13.5589038"><ele>1192.0</ele><time>2026-04-26T17:06:41.862Z</time></trkpt><trkpt lat="42.2301077" lon="13.5588407"><ele>1192.0</ele><time>2026-04-26T17:06:42.862Z</time></trkpt><trkpt lat="42.2300271" lon="13.5587775"><ele>1192.0</ele><time>2026-04-26T17:06:43.861Z</time></trkpt><trkpt lat="42.2299615" lon="13.5587082"><ele>1192.0</ele><time>2026-04-26T17:06:44.861Z</time></trkpt><trkpt lat="42.229879" lon="13.5586593"><ele>1192.0</ele><time>2026-04-26T17:06:45.863Z</time></trkpt><trkpt lat="42.2298024" lon="13.5585931"><ele>1195.1666666666665</ele><time>2026-04-26T17:06:46.862Z</time></trkpt><trkpt lat="42.2297242" lon="13.5585411"><ele>1198.3333333333333</ele><time>2026-04-26T17:06:47.862Z</time></trkpt><trkpt lat="42.2296371" lon="13.5585355"><ele>1201.5</ele><time>2026-04-26T17:06:48.862Z</time></trkpt><trkpt lat="42.2295629" lon="13.5586124"><ele>1204.6666666666667</ele><time>2026-04-26T17:06:49.863Z</time></trkpt><trkpt lat="42.2294951" lon="13.5586194"><ele>1207.8333333333335</ele><time>2026-04-26T17:06:50.861Z</time></trkpt><trkpt lat="42.2294467" lon="13.5585624"><ele>1211.0</ele><time>2026-04-26T17:06:51.862Z</time></trkpt><trkpt lat="42.229346" lon="13.5584991"><ele>1211.0</ele><time>2026-04-26T17:06:53.863Z</time></trkpt><trkpt lat="42.2292577" lon="13.5584271"><ele>1211.0</ele><time>2026-04-26T17:06:55.862Z</time></trkpt><trkpt lat="42.2291993" lon="13.5583833"><ele>1211.0</ele><time>2026-04-26T17:06:56.861Z</time></trkpt><trkpt lat="42.2291458" lon="13.55833"><ele>1211.0</ele><time>2026-04-26T17:06:57.862Z</time></trkpt><trkpt lat="42.2290859" lon="13.5582844"><ele>1211.0</ele><time>2026-04-26T17:06:58.861Z</time></trkpt><trkpt lat="42.2290228" lon="13.5582389"><ele>1211.0</ele><time>2026-04-26T17:06:59.862Z</time></trkpt><trkpt lat="42.2289679" lon="13.558178"><ele>1211.0</ele><time>2026-04-26T17:07:00.862Z</time></trkpt><trkpt lat="42.2289142" lon="13.5581016"><ele>1212.5</ele><time>2026-04-26T17:07:01.863Z</time></trkpt><trkpt lat="42.2288651" lon="13.55801"><ele>1214.0</ele><time>2026-04-26T17:07:02.861Z</time></trkpt><trkpt lat="42.2288303" lon="13.5579051"><ele>1215.5</ele><time>2026-04-26T17:07:03.861Z</time></trkpt><trkpt lat="42.2288203" lon="13.5577955"><ele>1217.0</ele><time>2026-04-26T17:07:04.861Z</time></trkpt><trkpt lat="42.228821" lon="13.5576943"><ele>1218.5</ele><time>2026-04-26T17:07:05.862Z</time></trkpt><trkpt lat="42.2288359" lon="13.5575947"><ele>1220.0</ele><time>2026-04-26T17:07:06.862Z</time></trkpt><trkpt lat="42.2288402" lon="13.557487"><ele>1220.0</ele><time>2026-04-26T17:07:07.862Z</time></trkpt><trkpt lat="42.2288416" lon="13.5573765"><ele>1220.0</ele><time>2026-04-26T17:07:08.862Z</time></trkpt><trkpt lat="42.2288062" lon="13.5572744"><ele>1220.0</ele><time>2026-04-26T17:07:09.862Z</time></trkpt><trkpt lat="42.2287846" lon="13.5571559"><ele>1220.0</ele><time>2026-04-26T17:07:10.862Z</time></trkpt><trkpt lat="42.2287498" lon="13.5570498"><ele>1220.0</ele><time>2026-04-26T17:07:11.862Z</time></trkpt><trkpt lat="42.2287219" lon="13.5569425"><ele>1220.0</ele><time>2026-04-26T17:07:12.863Z</time></trkpt><trkpt lat="42.2286969" lon="13.5568191"><ele>1220.0</ele><time>2026-04-26T17:07:13.863Z</time></trkpt><trkpt lat="42.2286798" lon="13.5567009"><ele>1220.0</ele><time>2026-04-26T17:07:14.863Z</time></trkpt><trkpt lat="42.2286744" lon="13.556574"><ele>1220.0</ele><time>2026-04-26T17:07:15.862Z</time></trkpt><trkpt lat="42.2286794" lon="13.5564578"><ele>1220.0</ele><time>2026-04-26T17:07:16.861Z</time></trkpt><trkpt lat="42.2286991" lon="13.5563428"><ele>1220.0</ele><time>2026-04-26T17:07:17.862Z</time></trkpt><trkpt lat="42.2287358" lon="13.5562267"><ele>1220.0</ele><time>2026-04-26T17:07:18.861Z</time></trkpt><trkpt lat="42.2287841" lon="13.5561199"><ele>1220.0</ele><time>2026-04-26T17:07:19.862Z</time></trkpt><trkpt lat="42.2288419" lon="13.55601"><ele>1220.0</ele><time>2026-04-26T17:07:20.862Z</time></trkpt><trkpt lat="42.2288807" lon="13.5558995"><ele>1220.0</ele><time>2026-04-26T17:07:21.861Z</time></trkpt><trkpt lat="42.2289207" lon="13.5558029"><ele>1220.0</ele><time>2026-04-26T17:07:22.862Z</time></trkpt><trkpt lat="42.2289546" lon="13.555693"><ele>1220.0</ele><time>2026-04-26T17:07:23.862Z</time></trkpt><trkpt lat="42.2288934" lon="13.5555866"><ele>1220.0</ele><time>2026-04-26T17:07:24.861Z</time></trkpt><trkpt lat="42.228884" lon="13.5554792"><ele>1220.0</ele><time>2026-04-26T17:07:25.863Z</time></trkpt><trkpt lat="42.2289029" lon="13.5553504"><ele>1220.0</ele><time>2026-04-26T17:07:26.862Z</time></trkpt><trkpt lat="42.2289398" lon="13.5552214"><ele>1220.0</ele><time>2026-04-26T17:07:27.861Z</time></trkpt><trkpt lat="42.2289874" lon="13.555075"><ele>1222.25</ele><time>2026-04-26T17:07:28.862Z</time></trkpt><trkpt lat="42.2290337" lon="13.5549325"><ele>1224.5</ele><time>2026-04-26T17:07:29.862Z</time></trkpt><trkpt lat="42.2290694" lon="13.5547322"><ele>1226.75</ele><time>2026-04-26T17:07:30.861Z</time></trkpt><trkpt lat="42.229117" lon="13.5545705"><ele>1229.0</ele><time>2026-04-26T17:07:31.861Z</time></trkpt><trkpt lat="42.2291587" lon="13.5544127"><ele>1229.0</ele><time>2026-04-26T17:07:32.861Z</time></trkpt><trkpt lat="42.2292058" lon="13.5542672"><ele>1229.0</ele><time>2026-04-26T17:07:33.861Z</time></trkpt><trkpt lat="42.229248" lon="13.5541284"><ele>1229.0</ele><time>2026-04-26T17:07:34.862Z</time></trkpt><trkpt lat="42.2292904" lon="13.5539843"><ele>1229.0</ele><time>2026-04-26T17:07:35.862Z</time></trkpt><trkpt lat="42.229332" lon="13.553838"><ele>1229.0</ele><time>2026-04-26T17:07:36.863Z</time></trkpt><trkpt lat="42.2293694" lon="13.5537093"><ele>1229.0</ele><time>2026-04-26T17:07:37.862Z</time></trkpt><trkpt lat="42.2294102" lon="13.5535886"><ele>1229.0</ele><time>2026-04-26T17:07:38.861Z</time></trkpt><trkpt lat="42.2294569" lon="13.5534861"><ele>1229.0</ele><time>2026-04-26T17:07:39.862Z</time></trkpt><trkpt lat="42.2295037" lon="13.5533946"><ele>1229.0</ele><time>2026-04-26T17:07:40.862Z</time></trkpt><trkpt lat="42.2295529" lon="13.5533091"><ele>1228.8333333333335</ele><time>2026-04-26T17:07:41.863Z</time></trkpt><trkpt lat="42.2296152" lon="13.5532178"><ele>1228.6666666666667</ele><time>2026-04-26T17:07:42.861Z</time></trkpt><trkpt lat="42.2296836" lon="13.5531329"><ele>1228.5</ele><time>2026-04-26T17:07:43.862Z</time></trkpt><trkpt lat="42.2297285" lon="13.5530464"><ele>1228.3333333333333</ele><time>2026-04-26T17:07:44.861Z</time></trkpt><trkpt lat="42.2297678" lon="13.5529585"><ele>1228.1666666666665</ele><time>2026-04-26T17:07:45.863Z</time></trkpt><trkpt lat="42.2298032" lon="13.5528814"><ele>1228.0</ele><time>2026-04-26T17:07:46.862Z</time></trkpt><trkpt lat="42.2298374" lon="13.5527791"><ele>1230.6</ele><time>2026-04-26T17:07:47.863Z</time></trkpt><trkpt lat="42.2299156" lon="13.5526062"><ele>1233.1999999999998</ele><time>2026-04-26T17:07:49.862Z</time></trkpt><trkpt lat="42.2299684" lon="13.5525366"><ele>1235.8</ele><time>2026-04-26T17:07:50.861Z</time></trkpt><trkpt lat="42.230007" lon="13.552464"><ele>1238.3999999999999</ele><time>2026-04-26T17:07:51.861Z</time></trkpt><trkpt lat="42.2300804" lon="13.5524186"><ele>1241.0</ele><time>2026-04-26T17:07:52.863Z</time></trkpt><trkpt lat="42.2301515" lon="13.552371"><ele>1241.0</ele><time>2026-04-26T17:07:53.863Z</time></trkpt><trkpt lat="42.2302304" lon="13.5523149"><ele>1241.0</ele><time>2026-04-26T17:07:54.863Z</time></trkpt><trkpt lat="42.2303008" lon="13.5522532"><ele>1241.0</ele><time>2026-04-26T17:07:55.862Z</time></trkpt><trkpt lat="42.2303726" lon="13.5521968"><ele>1241.0</ele><time>2026-04-26T17:07:56.863Z</time></trkpt><trkpt lat="42.2304414" lon="13.5521559"><ele>1241.0</ele><time>2026-04-26T17:07:57.861Z</time></trkpt><trkpt lat="42.2305109" lon="13.5521023"><ele>1241.0</ele><time>2026-04-26T17:07:58.862Z</time></trkpt><trkpt lat="42.230581" lon="13.5520321"><ele>1241.6666666666667</ele><time>2026-04-26T17:07:59.862Z</time></trkpt><trkpt lat="42.2306368" lon="13.5519373"><ele>1242.3333333333335</ele><time>2026-04-26T17:08:00.861Z</time></trkpt><trkpt lat="42.2306866" lon="13.5518495"><ele>1243.0</ele><time>2026-04-26T17:08:01.862Z</time></trkpt><trkpt lat="42.2307185" lon="13.5517559"><ele>1243.6666666666667</ele><time>2026-04-26T17:08:02.861Z</time></trkpt><trkpt lat="42.2307492" lon="13.5516727"><ele>1244.3333333333333</ele><time>2026-04-26T17:08:03.862Z</time></trkpt><trkpt lat="42.2307876" lon="13.5515893"><ele>1245.0</ele><time>2026-04-26T17:08:04.862Z</time></trkpt><trkpt lat="42.2308012" lon="13.5515056"><ele>1245.0</ele><time>2026-04-26T17:08:05.861Z</time></trkpt><trkpt lat="42.2308381" lon="13.5514268"><ele>1245.0</ele><time>2026-04-26T17:08:06.862Z</time></trkpt><trkpt lat="42.2308726" lon="13.5513271"><ele>1245.0</ele><time>2026-04-26T17:08:07.863Z</time></trkpt><trkpt lat="42.2309063" lon="13.5512369"><ele>1245.0</ele><time>2026-04-26T17:08:08.863Z</time></trkpt><trkpt lat="42.2309392" lon="13.5511535"><ele>1245.0</ele><time>2026-04-26T17:08:09.863Z</time></trkpt><trkpt lat="42.2309681" lon="13.5510726"><ele>1245.0</ele><time>2026-04-26T17:08:10.861Z</time></trkpt><trkpt lat="42.2310203" lon="13.5509862"><ele>1245.0</ele><time>2026-04-26T17:08:11.861Z</time></trkpt><trkpt lat="42.2310863" lon="13.550903"><ele>1245.6</ele><time>2026-04-26T17:08:12.862Z</time></trkpt><trkpt lat="42.2311718" lon="13.5508249"><ele>1246.2</ele><time>2026-04-26T17:08:13.862Z</time></trkpt><trkpt lat="42.2312636" lon="13.5507466"><ele>1246.8</ele><time>2026-04-26T17:08:14.862Z</time></trkpt><trkpt lat="42.2313492" lon="13.5506666"><ele>1247.4</ele><time>2026-04-26T17:08:15.862Z</time></trkpt><trkpt lat="42.2314362" lon="13.5506005"><ele>1248.0</ele><time>2026-04-26T17:08:16.862Z</time></trkpt><trkpt lat="42.2315216" lon="13.5505368"><ele>1248.8333333333333</ele><time>2026-04-26T17:08:17.862Z</time></trkpt><trkpt lat="42.2316081" lon="13.5504861"><ele>1249.6666666666667</ele><time>2026-04-26T17:08:18.862Z</time></trkpt><trkpt lat="42.2316845" lon="13.5504393"><ele>1250.5</ele><time>2026-04-26T17:08:19.861Z</time></trkpt><trkpt lat="42.2317529" lon="13.5503758"><ele>1251.3333333333335</ele><time>2026-04-26T17:08:20.862Z</time></trkpt><trkpt lat="42.2318066" lon="13.550289"><ele>1252.1666666666667</ele><time>2026-04-26T17:08:21.862Z</time></trkpt><trkpt lat="42.2318538" lon="13.5501717"><ele>1253.0</ele><time>2026-04-26T17:08:22.861Z</time></trkpt><trkpt lat="42.2319075" lon="13.5500502"><ele>1253.0</ele><time>2026-04-26T17:08:23.862Z</time></trkpt><trkpt lat="42.2319522" lon="13.549947"><ele>1253.0</ele><time>2026-04-26T17:08:24.862Z</time></trkpt><trkpt lat="42.2319968" lon="13.5498546"><ele>1253.0</ele><time>2026-04-26T17:08:25.862Z</time></trkpt><trkpt lat="42.2320342" lon="13.5497702"><ele>1253.0</ele><time>2026-04-26T17:08:26.861Z</time></trkpt><trkpt lat="42.2320744" lon="13.5496911"><ele>1253.0</ele><time>2026-04-26T17:08:27.862Z</time></trkpt><trkpt lat="42.2321335" lon="13.5496317"><ele>1253.0</ele><time>2026-04-26T17:08:28.863Z</time></trkpt><trkpt lat="42.232194" lon="13.5495652"><ele>1253.8333333333335</ele><time>2026-04-26T17:08:29.862Z</time></trkpt><trkpt lat="42.2322665" lon="13.5495011"><ele>1254.6666666666667</ele><time>2026-04-26T17:08:30.861Z</time></trkpt><trkpt lat="42.2323424" lon="13.5494365"><ele>1255.5</ele><time>2026-04-26T17:08:31.861Z</time></trkpt><trkpt lat="42.2324169" lon="13.5493784"><ele>1256.3333333333333</ele><time>2026-04-26T17:08:32.863Z</time></trkpt><trkpt lat="42.2324925" lon="13.5493179"><ele>1257.1666666666665</ele><time>2026-04-26T17:08:33.862Z</time></trkpt><trkpt lat="42.232573" lon="13.5492718"><ele>1258.0</ele><time>2026-04-26T17:08:34.862Z</time></trkpt><trkpt lat="42.2326604" lon="13.549239"><ele>1258.0</ele><time>2026-04-26T17:08:35.862Z</time></trkpt><trkpt lat="42.2327364" lon="13.5492055"><ele>1258.0</ele><time>2026-04-26T17:08:36.861Z</time></trkpt><trkpt lat="42.2327974" lon="13.5491631"><ele>1258.0</ele><time>2026-04-26T17:08:37.861Z</time></trkpt><trkpt lat="42.2328551" lon="13.5491168"><ele>1258.0</ele><time>2026-04-26T17:08:38.862Z</time></trkpt><trkpt lat="42.2328994" lon="13.5490477"><ele>1258.0</ele><time>2026-04-26T17:08:39.862Z</time></trkpt><trkpt lat="42.2329285" lon="13.5489579"><ele>1258.0</ele><time>2026-04-26T17:08:40.861Z</time></trkpt><trkpt lat="42.2329347" lon="13.5488562"><ele>1258.0</ele><time>2026-04-26T17:08:41.861Z</time></trkpt><trkpt lat="42.2329277" lon="13.5487314"><ele>1259.0</ele><time>2026-04-26T17:08:42.862Z</time></trkpt><trkpt lat="42.2329319" lon="13.5486112"><ele>1260.0</ele><time>2026-04-26T17:08:43.861Z</time></trkpt><trkpt lat="42.2329566" lon="13.5484913"><ele>1261.0</ele><time>2026-04-26T17:08:44.861Z</time></trkpt><trkpt lat="42.2329869" lon="13.548404"><ele>1262.0</ele><time>2026-04-26T17:08:45.862Z</time></trkpt><trkpt lat="42.2330084" lon="13.5483108"><ele>1263.0</ele><time>2026-04-26T17:08:46.862Z</time></trkpt><trkpt lat="42.233055" lon="13.5482102"><ele>1264.0</ele><time>2026-04-26T17:08:47.861Z</time></trkpt><trkpt lat="42.2330918" lon="13.548119"><ele>1263.6666666666665</ele><time>2026-04-26T17:08:48.862Z</time></trkpt><trkpt lat="42.2331418" lon="13.5480278"><ele>1263.3333333333333</ele><time>2026-04-26T17:08:49.862Z</time></trkpt><trkpt lat="42.2331689" lon="13.5479197"><ele>1263.0</ele><time>2026-04-26T17:08:50.863Z</time></trkpt><trkpt lat="42.2331909" lon="13.5478068"><ele>1262.6666666666667</ele><time>2026-04-26T17:08:51.863Z</time></trkpt><trkpt lat="42.2331997" lon="13.547686"><ele>1262.3333333333335</ele><time>2026-04-26T17:08:52.862Z</time></trkpt><trkpt lat="42.2332131" lon="13.5475731"><ele>1262.0</ele><time>2026-04-26T17:08:53.862Z</time></trkpt><trkpt lat="42.233212" lon="13.5474343"><ele>1262.0</ele><time>2026-04-26T17:08:54.862Z</time></trkpt><trkpt lat="42.2331675" lon="13.5473474"><ele>1262.0</ele><time>2026-04-26T17:08:55.863Z</time></trkpt><trkpt lat="42.2331798" lon="13.5472424"><ele>1262.0</ele><time>2026-04-26T17:08:56.863Z</time></trkpt><trkpt lat="42.233203" lon="13.5471475"><ele>1262.0</ele><time>2026-04-26T17:08:57.862Z</time></trkpt><trkpt lat="42.2332307" lon="13.5470452"><ele>1262.0</ele><time>2026-04-26T17:08:58.862Z</time></trkpt><trkpt lat="42.2332499" lon="13.5469395"><ele>1262.0</ele><time>2026-04-26T17:08:59.861Z</time></trkpt><trkpt lat="42.2333072" lon="13.5468281"><ele>1263.3333333333335</ele><time>2026-04-26T17:09:01.863Z</time></trkpt><trkpt lat="42.2333492" lon="13.5467639"><ele>1264.6666666666667</ele><time>2026-04-26T17:09:02.862Z</time></trkpt><trkpt lat="42.2334016" lon="13.5467139"><ele>1266.0</ele><time>2026-04-26T17:09:03.863Z</time></trkpt><trkpt lat="42.2334685" lon="13.5466538"><ele>1267.3333333333333</ele><time>2026-04-26T17:09:04.862Z</time></trkpt><trkpt lat="42.2335317" lon="13.5465925"><ele>1268.6666666666665</ele><time>2026-04-26T17:09:05.862Z</time></trkpt><trkpt lat="42.2336375" lon="13.5465245"><ele>1270.0</ele><time>2026-04-26T17:09:06.862Z</time></trkpt><trkpt lat="42.2337462" lon="13.5464514"><ele>1270.0</ele><time>2026-04-26T17:09:07.862Z</time></trkpt><trkpt lat="42.2338403" lon="13.5463793"><ele>1270.0</ele><time>2026-04-26T17:09:08.862Z</time></trkpt><trkpt lat="42.2339211" lon="13.5463022"><ele>1270.0</ele><time>2026-04-26T17:09:09.862Z</time></trkpt><trkpt lat="42.2339965" lon="13.5462136"><ele>1270.0</ele><time>2026-04-26T17:09:10.862Z</time></trkpt><trkpt lat="42.2340565" lon="13.5461118"><ele>1270.0</ele><time>2026-04-26T17:09:11.861Z</time></trkpt><trkpt lat="42.2341015" lon="13.5459923"><ele>1267.8</ele><time>2026-04-26T17:09:12.862Z</time></trkpt><trkpt lat="42.2341398" lon="13.5458625"><ele>1265.6</ele><time>2026-04-26T17:09:13.863Z</time></trkpt><trkpt lat="42.2341967" lon="13.5457363"><ele>1263.4</ele><time>2026-04-26T17:09:14.862Z</time></trkpt><trkpt lat="42.2342749" lon="13.5456181"><ele>1261.2</ele><time>2026-04-26T17:09:15.862Z</time></trkpt><trkpt lat="42.234356" lon="13.5455181"><ele>1259.0</ele><time>2026-04-26T17:09:16.861Z</time></trkpt><trkpt lat="42.2344137" lon="13.5454223"><ele>1259.4</ele><time>2026-04-26T17:09:17.862Z</time></trkpt><trkpt lat="42.2344441" lon="13.5453235"><ele>1259.8000000000002</ele><time>2026-04-26T17:09:18.861Z</time></trkpt><trkpt lat="42.2344545" lon="13.5452053"><ele>1260.1999999999998</ele><time>2026-04-26T17:09:19.862Z</time></trkpt><trkpt lat="42.2344442" lon="13.5450766"><ele>1260.6</ele><time>2026-04-26T17:09:20.861Z</time></trkpt><trkpt lat="42.2344432" lon="13.5449389"><ele>1261.0</ele><time>2026-04-26T17:09:21.862Z</time></trkpt><trkpt lat="42.2344628" lon="13.5447988"><ele>1261.0</ele><time>2026-04-26T17:09:22.861Z</time></trkpt><trkpt lat="42.2344965" lon="13.5446445"><ele>1261.0</ele><time>2026-04-26T17:09:23.862Z</time></trkpt><trkpt lat="42.2345348" lon="13.5444859"><ele>1261.0</ele><time>2026-04-26T17:09:24.862Z</time></trkpt><trkpt lat="42.2345683" lon="13.5443265"><ele>1261.0</ele><time>2026-04-26T17:09:25.862Z</time></trkpt><trkpt lat="42.2346125" lon="13.544169"><ele>1261.0</ele><time>2026-04-26T17:09:26.861Z</time></trkpt><trkpt lat="42.2346752" lon="13.5440245"><ele>1261.0</ele><time>2026-04-26T17:09:27.862Z</time></trkpt><trkpt lat="42.23473" lon="13.5438705"><ele>1261.0</ele><time>2026-04-26T17:09:28.863Z</time></trkpt><trkpt lat="42.2347789" lon="13.5437327"><ele>1261.0</ele><time>2026-04-26T17:09:29.862Z</time></trkpt><trkpt lat="42.2348319" lon="13.5436016"><ele>1259.8</ele><time>2026-04-26T17:09:30.863Z</time></trkpt><trkpt lat="42.2348959" lon="13.5434855"><ele>1258.6</ele><time>2026-04-26T17:09:31.862Z</time></trkpt><trkpt lat="42.2349705" lon="13.5433729"><ele>1257.4</ele><time>2026-04-26T17:09:32.863Z</time></trkpt><trkpt lat="42.2350503" lon="13.5432669"><ele>1256.2</ele><time>2026-04-26T17:09:33.863Z</time></trkpt><trkpt lat="42.2351354" lon="13.5431618"><ele>1255.0</ele><time>2026-04-26T17:09:34.862Z</time></trkpt><trkpt lat="42.2352098" lon="13.5430531"><ele>1255.0</ele><time>2026-04-26T17:09:35.861Z</time></trkpt><trkpt lat="42.2352785" lon="13.5429498"><ele>1255.0</ele><time>2026-04-26T17:09:36.861Z</time></trkpt><trkpt lat="42.2353538" lon="13.5428577"><ele>1255.0</ele><time>2026-04-26T17:09:37.862Z</time></trkpt><trkpt lat="42.2354318" lon="13.5427532"><ele>1255.0</ele><time>2026-04-26T17:09:38.862Z</time></trkpt><trkpt lat="42.2355128" lon="13.5426516"><ele>1255.0</ele><time>2026-04-26T17:09:39.862Z</time></trkpt><trkpt lat="42.2355874" lon="13.5425334"><ele>1254.5</ele><time>2026-04-26T17:09:40.861Z</time></trkpt><trkpt lat="42.2356513" lon="13.5423957"><ele>1254.0</ele><time>2026-04-26T17:09:41.863Z</time></trkpt><trkpt lat="42.2357173" lon="13.5422556"><ele>1253.5</ele><time>2026-04-26T17:09:42.862Z</time></trkpt><trkpt lat="42.2357897" lon="13.5421239"><ele>1253.0</ele><time>2026-04-26T17:09:43.862Z</time></trkpt><trkpt lat="42.2358548" lon="13.541991"><ele>1253.0</ele><time>2026-04-26T17:09:44.862Z</time></trkpt><trkpt lat="42.2359226" lon="13.5418687"><ele>1253.0</ele><time>2026-04-26T17:09:45.861Z</time></trkpt><trkpt lat="42.2359928" lon="13.5417496"><ele>1253.0</ele><time>2026-04-26T17:09:46.862Z</time></trkpt><trkpt lat="42.2360563" lon="13.5416215"><ele>1253.0</ele><time>2026-04-26T17:09:47.861Z</time></trkpt><trkpt lat="42.2361081" lon="13.5414804"><ele>1253.0</ele><time>2026-04-26T17:09:48.861Z</time></trkpt><trkpt lat="42.2361551" lon="13.5413426"><ele>1253.0</ele><time>2026-04-26T17:09:49.861Z</time></trkpt><trkpt lat="42.2361999" lon="13.541218"><ele>1253.0</ele><time>2026-04-26T17:09:50.861Z</time></trkpt><trkpt lat="42.236242" lon="13.5411082"><ele>1253.0</ele><time>2026-04-26T17:09:51.862Z</time></trkpt><trkpt lat="42.2362842" lon="13.5409999"><ele>1253.0</ele><time>2026-04-26T17:09:52.861Z</time></trkpt><trkpt lat="42.2363163" lon="13.5408811"><ele>1253.6</ele><time>2026-04-26T17:09:53.861Z</time></trkpt><trkpt lat="42.2363318" lon="13.5407606"><ele>1254.1999999999998</ele><time>2026-04-26T17:09:54.861Z</time></trkpt><trkpt lat="42.2362888" lon="13.5406225"><ele>1254.8</ele><time>2026-04-26T17:09:55.86Z</time></trkpt><trkpt lat="42.2362314" lon="13.5404957"><ele>1255.3999999999999</ele><time>2026-04-26T17:09:56.861Z</time></trkpt><trkpt lat="42.2361766" lon="13.5403524"><ele>1256.0</ele><time>2026-04-26T17:09:57.861Z</time></trkpt><trkpt lat="42.236145" lon="13.5401741"><ele>1257.0</ele><time>2026-04-26T17:09:58.861Z</time></trkpt><trkpt lat="42.2361247" lon="13.5399941"><ele>1258.0</ele><time>2026-04-26T17:09:59.861Z</time></trkpt><trkpt lat="42.2361232" lon="13.5398151"><ele>1259.0</ele><time>2026-04-26T17:10:00.86Z</time></trkpt><trkpt lat="42.2361394" lon="13.539653"><ele>1260.0</ele><time>2026-04-26T17:10:01.86Z</time></trkpt><trkpt lat="42.2361657" lon="13.539503"><ele>1260.6</ele><time>2026-04-26T17:10:02.86Z</time></trkpt><trkpt lat="42.2361716" lon="13.5393556"><ele>1261.2</ele><time>2026-04-26T17:10:03.861Z</time></trkpt><trkpt lat="42.2361517" lon="13.539222"><ele>1261.8</ele><time>2026-04-26T17:10:04.861Z</time></trkpt><trkpt lat="42.2361002" lon="13.539108"><ele>1262.4</ele><time>2026-04-26T17:10:05.86Z</time></trkpt><trkpt lat="42.2360394" lon="13.5389988"><ele>1263.0</ele><time>2026-04-26T17:10:06.861Z</time></trkpt><trkpt lat="42.2359827" lon="13.5388923"><ele>1263.0</ele><time>2026-04-26T17:10:07.861Z</time></trkpt><trkpt lat="42.2359342" lon="13.5387819"><ele>1263.0</ele><time>2026-04-26T17:10:08.86Z</time></trkpt><trkpt lat="42.2359056" lon="13.5386601"><ele>1263.0</ele><time>2026-04-26T17:10:09.862Z</time></trkpt><trkpt lat="42.2359067" lon="13.538543"><ele>1263.0</ele><time>2026-04-26T17:10:10.862Z</time></trkpt><trkpt lat="42.2359272" lon="13.5384289"><ele>1263.0</ele><time>2026-04-26T17:10:11.86Z</time></trkpt><trkpt lat="42.2359586" lon="13.5383091"><ele>1263.2</ele><time>2026-04-26T17:10:12.861Z</time></trkpt><trkpt lat="42.2359921" lon="13.5381812"><ele>1263.4</ele><time>2026-04-26T17:10:13.86Z</time></trkpt><trkpt lat="42.2360313" lon="13.5380514"><ele>1263.6000000000001</ele><time>2026-04-26T17:10:14.86Z</time></trkpt><trkpt lat="42.2360692" lon="13.5379192"><ele>1263.8</ele><time>2026-04-26T17:10:15.862Z</time></trkpt><trkpt lat="42.2361144" lon="13.5377828"><ele>1264.0</ele><time>2026-04-26T17:10:16.861Z</time></trkpt><trkpt lat="42.2361623" lon="13.5376705"><ele>1264.0</ele><time>2026-04-26T17:10:17.861Z</time></trkpt><trkpt lat="42.2362134" lon="13.5375779"><ele>1264.0</ele><time>2026-04-26T17:10:18.862Z</time></trkpt><trkpt lat="42.2362878" lon="13.5375152"><ele>1264.0</ele><time>2026-04-26T17:10:19.861Z</time></trkpt><trkpt lat="42.236371" lon="13.5374626"><ele>1264.0</ele><time>2026-04-26T17:10:20.861Z</time></trkpt><trkpt lat="42.2364571" lon="13.5373989"><ele>1264.0</ele><time>2026-04-26T17:10:21.86Z</time></trkpt><trkpt lat="42.2365365" lon="13.5373226"><ele>1264.4</ele><time>2026-04-26T17:10:22.86Z</time></trkpt><trkpt lat="42.2366024" lon="13.5372167"><ele>1264.8000000000002</ele><time>2026-04-26T17:10:23.862Z</time></trkpt><trkpt lat="42.2366597" lon="13.5370957"><ele>1265.1999999999998</ele><time>2026-04-26T17:10:24.86Z</time></trkpt><trkpt lat="42.2367171" lon="13.5369692"><ele>1265.6</ele><time>2026-04-26T17:10:25.86Z</time></trkpt><trkpt lat="42.2367741" lon="13.5368471"><ele>1266.0</ele><time>2026-04-26T17:10:26.861Z</time></trkpt><trkpt lat="42.2368253" lon="13.5367389"><ele>1266.0</ele><time>2026-04-26T17:10:27.86Z</time></trkpt><trkpt lat="42.236865" lon="13.536624"><ele>1266.0</ele><time>2026-04-26T17:10:28.86Z</time></trkpt><trkpt lat="42.2368681" lon="13.5365041"><ele>1266.0</ele><time>2026-04-26T17:10:29.862Z</time></trkpt><trkpt lat="42.2368375" lon="13.5363852"><ele>1266.0</ele><time>2026-04-26T17:10:30.86Z</time></trkpt><trkpt lat="42.2367979" lon="13.5362635"><ele>1266.0</ele><time>2026-04-26T17:10:31.86Z</time></trkpt><trkpt lat="42.2367576" lon="13.5361545"><ele>1266.6</ele><time>2026-04-26T17:10:32.861Z</time></trkpt><trkpt lat="42.2367155" lon="13.5360629"><ele>1267.1999999999998</ele><time>2026-04-26T17:10:33.86Z</time></trkpt><trkpt lat="42.2366807" lon="13.5359087"><ele>1267.8000000000002</ele><time>2026-04-26T17:10:35.86Z</time></trkpt><trkpt lat="42.2367574" lon="13.5358174"><ele>1268.4</ele><time>2026-04-26T17:10:37.861Z</time></trkpt><trkpt lat="42.236868" lon="13.5358538"><ele>1269.0</ele><time>2026-04-26T17:10:39.86Z</time></trkpt><trkpt lat="42.236934" lon="13.535842"><ele>1269.0</ele><time>2026-04-26T17:10:40.861Z</time></trkpt><trkpt lat="42.2369899" lon="13.5357868"><ele>1269.0</ele><time>2026-04-26T17:10:41.862Z</time></trkpt><trkpt lat="42.2370503" lon="13.5357235"><ele>1269.0</ele><time>2026-04-26T17:10:42.86Z</time></trkpt><trkpt lat="42.2371238" lon="13.5356683"><ele>1269.0</ele><time>2026-04-26T17:10:43.86Z</time></trkpt><trkpt lat="42.2372044" lon="13.5356134"><ele>1269.0</ele><time>2026-04-26T17:10:44.861Z</time></trkpt><trkpt lat="42.2372868" lon="13.5355469"><ele>1269.0</ele><time>2026-04-26T17:10:45.86Z</time></trkpt><trkpt lat="42.2373717" lon="13.5354664"><ele>1269.5</ele><time>2026-04-26T17:10:46.861Z</time></trkpt><trkpt lat="42.2374693" lon="13.5353841"><ele>1270.0</ele><time>2026-04-26T17:10:47.861Z</time></trkpt><trkpt lat="42.2375768" lon="13.5353245"><ele>1270.5</ele><time>2026-04-26T17:10:48.86Z</time></trkpt><trkpt lat="42.2376847" lon="13.5352743"><ele>1271.0</ele><time>2026-04-26T17:10:49.86Z</time></trkpt><trkpt lat="42.2377807" lon="13.535192"><ele>1271.0</ele><time>2026-04-26T17:10:50.86Z</time></trkpt><trkpt lat="42.2378526" lon="13.5350752"><ele>1271.0</ele><time>2026-04-26T17:10:51.861Z</time></trkpt><trkpt lat="42.2379146" lon="13.5349448"><ele>1271.0</ele><time>2026-04-26T17:10:52.862Z</time></trkpt><trkpt lat="42.2379733" lon="13.5348078"><ele>1271.0</ele><time>2026-04-26T17:10:53.862Z</time></trkpt><trkpt lat="42.2380241" lon="13.5346694"><ele>1271.0</ele><time>2026-04-26T17:10:54.861Z</time></trkpt><trkpt lat="42.2380798" lon="13.5345421"><ele>1271.0</ele><time>2026-04-26T17:10:55.861Z</time></trkpt><trkpt lat="42.238152" lon="13.5344295"><ele>1271.0</ele><time>2026-04-26T17:10:56.86Z</time></trkpt><trkpt lat="42.2382358" lon="13.534333"><ele>1271.0</ele><time>2026-04-26T17:10:57.861Z</time></trkpt><trkpt lat="42.2383101" lon="13.534228"><ele>1271.0</ele><time>2026-04-26T17:10:58.861Z</time></trkpt><trkpt lat="42.2383682" lon="13.5340964"><ele>1271.0</ele><time>2026-04-26T17:10:59.861Z</time></trkpt><trkpt lat="42.2384221" lon="13.5339576"><ele>1271.0</ele><time>2026-04-26T17:11:00.861Z</time></trkpt><trkpt lat="42.2384704" lon="13.5338232"><ele>1271.0</ele><time>2026-04-26T17:11:01.86Z</time></trkpt><trkpt lat="42.2385057" lon="13.5336783"><ele>1271.0</ele><time>2026-04-26T17:11:02.86Z</time></trkpt><trkpt lat="42.2385082" lon="13.5335227"><ele>1271.5</ele><time>2026-04-26T17:11:03.861Z</time></trkpt><trkpt lat="42.2384858" lon="13.5333671"><ele>1272.0</ele><time>2026-04-26T17:11:04.861Z</time></trkpt><trkpt lat="42.2384555" lon="13.5332188"><ele>1272.5</ele><time>2026-04-26T17:11:05.862Z</time></trkpt><trkpt lat="42.2384261" lon="13.533066"><ele>1273.0</ele><time>2026-04-26T17:11:06.86Z</time></trkpt><trkpt lat="42.2384022" lon="13.53292"><ele>1273.8333333333333</ele><time>2026-04-26T17:11:07.861Z</time></trkpt><trkpt lat="42.2383835" lon="13.532792"><ele>1274.6666666666665</ele><time>2026-04-26T17:11:08.861Z</time></trkpt><trkpt lat="42.2383616" lon="13.5326723"><ele>1275.5</ele><time>2026-04-26T17:11:09.862Z</time></trkpt><trkpt lat="42.2383436" lon="13.532559"><ele>1276.3333333333333</ele><time>2026-04-26T17:11:10.86Z</time></trkpt><trkpt lat="42.2383031" lon="13.5324718"><ele>1277.1666666666667</ele><time>2026-04-26T17:11:11.86Z</time></trkpt><trkpt lat="42.2382515" lon="13.5324185"><ele>1278.0</ele><time>2026-04-26T17:11:12.861Z</time></trkpt><trkpt lat="42.2381548" lon="13.5323885"><ele>1279.8333333333333</ele><time>2026-04-26T17:11:14.86Z</time></trkpt><trkpt lat="42.2380655" lon="13.5324404"><ele>1281.6666666666667</ele><time>2026-04-26T17:11:16.862Z</time></trkpt><trkpt lat="42.2379515" lon="13.5325097"><ele>1283.5</ele><time>2026-04-26T17:11:18.861Z</time></trkpt><trkpt lat="42.237891" lon="13.5325528"><ele>1285.3333333333335</ele><time>2026-04-26T17:11:19.861Z</time></trkpt><trkpt lat="42.2378381" lon="13.5326156"><ele>1287.1666666666667</ele><time>2026-04-26T17:11:20.861Z</time></trkpt><trkpt lat="42.2377805" lon="13.5326789"><ele>1289.0</ele><time>2026-04-26T17:11:21.861Z</time></trkpt><trkpt lat="42.2377187" lon="13.5327393"><ele>1289.0</ele><time>2026-04-26T17:11:22.86Z</time></trkpt><trkpt lat="42.2376545" lon="13.5328012"><ele>1289.0</ele><time>2026-04-26T17:11:23.862Z</time></trkpt><trkpt lat="42.2375895" lon="13.5328625"><ele>1289.0</ele><time>2026-04-26T17:11:24.861Z</time></trkpt><trkpt lat="42.2375222" lon="13.5329239"><ele>1289.0</ele><time>2026-04-26T17:11:25.862Z</time></trkpt><trkpt lat="42.2374519" lon="13.5329819"><ele>1289.0</ele><time>2026-04-26T17:11:26.86Z</time></trkpt><trkpt lat="42.2373817" lon="13.5330384"><ele>1289.0</ele><time>2026-04-26T17:11:27.861Z</time></trkpt><trkpt lat="42.2373141" lon="13.5330945"><ele>1289.0</ele><time>2026-04-26T17:11:28.86Z</time></trkpt><trkpt lat="42.237225" lon="13.5331459"><ele>1289.0</ele><time>2026-04-26T17:11:30.861Z</time></trkpt><trkpt lat="42.237292" lon="13.5331222"><ele>1289.0</ele><time>2026-04-26T17:11:36.86Z</time></trkpt><trkpt lat="42.2373612" lon="13.5330527"><ele>1289.0</ele><time>2026-04-26T17:11:38.862Z</time></trkpt><trkpt lat="42.2374618" lon="13.5329789"><ele>1289.0</ele><time>2026-04-26T17:11:40.86Z</time></trkpt><trkpt lat="42.2375682" lon="13.5328853"><ele>1289.0</ele><time>2026-04-26T17:11:42.861Z</time></trkpt><trkpt lat="42.2376255" lon="13.532842"><ele>1289.0</ele><time>2026-04-26T17:11:43.861Z</time></trkpt><trkpt lat="42.237679" lon="13.5327945"><ele>1289.0</ele><time>2026-04-26T17:11:44.86Z</time></trkpt><trkpt lat="42.2377851" lon="13.5326965"><ele>1289.0</ele><time>2026-04-26T17:11:46.861Z</time></trkpt><trkpt lat="42.2378889" lon="13.532602"><ele>1289.0</ele><time>2026-04-26T17:11:48.862Z</time></trkpt><trkpt lat="42.2379439" lon="13.5325536"><ele>1289.0</ele><time>2026-04-26T17:11:49.862Z</time></trkpt><trkpt lat="42.2380033" lon="13.5325058"><ele>1289.0</ele><time>2026-04-26T17:11:50.861Z</time></trkpt><trkpt lat="42.2380608" lon="13.5324628"><ele>1289.0</ele><time>2026-04-26T17:11:51.861Z</time></trkpt><trkpt lat="42.2381471" lon="13.5323596"><ele>1289.0</ele><time>2026-04-26T17:11:53.86Z</time></trkpt><trkpt lat="42.2382071" lon="13.5322485"><ele>1289.0</ele><time>2026-04-26T17:11:55.86Z</time></trkpt><trkpt lat="42.2382731" lon="13.5321171"><ele>1289.0</ele><time>2026-04-26T17:11:57.86Z</time></trkpt><trkpt lat="42.2383075" lon="13.5320363"><ele>1286.75</ele><time>2026-04-26T17:11:58.861Z</time></trkpt><trkpt lat="42.2383747" lon="13.5318994"><ele>1284.5</ele><time>2026-04-26T17:12:00.86Z</time></trkpt><trkpt lat="42.2384379" lon="13.5317693"><ele>1282.25</ele><time>2026-04-26T17:12:02.861Z</time></trkpt><trkpt lat="42.2384939" lon="13.5316391"><ele>1280.0</ele><time>2026-04-26T17:12:04.861Z</time></trkpt><trkpt lat="42.238557" lon="13.5314988"><ele>1280.0</ele><time>2026-04-26T17:12:06.86Z</time></trkpt><trkpt lat="42.2385946" lon="13.531421"><ele>1280.0</ele><time>2026-04-26T17:12:07.86Z</time></trkpt><trkpt lat="42.2386404" lon="13.5313363"><ele>1280.0</ele><time>2026-04-26T17:12:08.861Z</time></trkpt><trkpt lat="42.2386948" lon="13.5312489"><ele>1280.0</ele><time>2026-04-26T17:12:09.86Z</time></trkpt><trkpt lat="42.2387526" lon="13.5311642"><ele>1280.0</ele><time>2026-04-26T17:12:10.86Z</time></trkpt><trkpt lat="42.238819" lon="13.5310819"><ele>1280.0</ele><time>2026-04-26T17:12:11.861Z</time></trkpt><trkpt lat="42.2388887" lon="13.5309974"><ele>1280.8</ele><time>2026-04-26T17:12:12.861Z</time></trkpt><trkpt lat="42.2389661" lon="13.5309081"><ele>1281.6</ele><time>2026-04-26T17:12:13.861Z</time></trkpt><trkpt lat="42.2390408" lon="13.5308105"><ele>1282.4</ele><time>2026-04-26T17:12:14.862Z</time></trkpt><trkpt lat="42.2391175" lon="13.5307045"><ele>1283.2</ele><time>2026-04-26T17:12:15.861Z</time></trkpt><trkpt lat="42.239201" lon="13.5305968"><ele>1284.0</ele><time>2026-04-26T17:12:16.86Z</time></trkpt><trkpt lat="42.2392744" lon="13.5305062"><ele>1282.4</ele><time>2026-04-26T17:12:17.86Z</time></trkpt><trkpt lat="42.2393442" lon="13.5304095"><ele>1280.8000000000002</ele><time>2026-04-26T17:12:18.861Z</time></trkpt><trkpt lat="42.239408" lon="13.5303217"><ele>1279.1999999999998</ele><time>2026-04-26T17:12:19.86Z</time></trkpt><trkpt lat="42.2394729" lon="13.5302354"><ele>1277.6</ele><time>2026-04-26T17:12:20.86Z</time></trkpt><trkpt lat="42.239535" lon="13.5301481"><ele>1276.0</ele><time>2026-04-26T17:12:21.861Z</time></trkpt><trkpt lat="42.2396016" lon="13.5300632"><ele>1276.0</ele><time>2026-04-26T17:12:22.861Z</time></trkpt><trkpt lat="42.2396686" lon="13.5299766"><ele>1276.0</ele><time>2026-04-26T17:12:23.861Z</time></trkpt><trkpt lat="42.2397314" lon="13.5298823"><ele>1276.0</ele><time>2026-04-26T17:12:24.86Z</time></trkpt><trkpt lat="42.2397971" lon="13.5297886"><ele>1276.0</ele><time>2026-04-26T17:12:25.861Z</time></trkpt><trkpt lat="42.2398649" lon="13.529714"><ele>1276.0</ele><time>2026-04-26T17:12:26.86Z</time></trkpt><trkpt lat="42.2399351" lon="13.5296698"><ele>1276.0</ele><time>2026-04-26T17:12:27.861Z</time></trkpt><trkpt lat="42.2400048" lon="13.5296521"><ele>1274.1666666666665</ele><time>2026-04-26T17:12:28.861Z</time></trkpt><trkpt lat="42.2400698" lon="13.5296659"><ele>1272.3333333333333</ele><time>2026-04-26T17:12:29.861Z</time></trkpt><trkpt lat="42.2401292" lon="13.5297036"><ele>1270.5</ele><time>2026-04-26T17:12:30.86Z</time></trkpt><trkpt lat="42.2401906" lon="13.5297491"><ele>1268.6666666666667</ele><time>2026-04-26T17:12:31.86Z</time></trkpt><trkpt lat="42.2402629" lon="13.529788"><ele>1266.8333333333335</ele><time>2026-04-26T17:12:32.861Z</time></trkpt><trkpt lat="42.2403484" lon="13.5297934"><ele>1265.0</ele><time>2026-04-26T17:12:33.861Z</time></trkpt><trkpt lat="42.2404352" lon="13.5297701"><ele>1265.0</ele><time>2026-04-26T17:12:34.861Z</time></trkpt><trkpt lat="42.2405225" lon="13.5297281"><ele>1265.0</ele><time>2026-04-26T17:12:35.86Z</time></trkpt><trkpt lat="42.2406097" lon="13.5296605"><ele>1265.0</ele><time>2026-04-26T17:12:36.861Z</time></trkpt><trkpt lat="42.2406983" lon="13.5296038"><ele>1265.0</ele><time>2026-04-26T17:12:37.861Z</time></trkpt><trkpt lat="42.2407832" lon="13.5295447"><ele>1265.0</ele><time>2026-04-26T17:12:38.861Z</time></trkpt><trkpt lat="42.2408722" lon="13.5294971"><ele>1266.6</ele><time>2026-04-26T17:12:39.862Z</time></trkpt><trkpt lat="42.2409583" lon="13.5294528"><ele>1268.2</ele><time>2026-04-26T17:12:40.862Z</time></trkpt><trkpt lat="42.2410639" lon="13.5294819"><ele>1269.8</ele><time>2026-04-26T17:12:41.86Z</time></trkpt><trkpt lat="42.2411624" lon="13.5295017"><ele>1271.4</ele><time>2026-04-26T17:12:42.861Z</time></trkpt><trkpt lat="42.2412613" lon="13.529509"><ele>1273.0</ele><time>2026-04-26T17:12:43.861Z</time></trkpt><trkpt lat="42.2413591" lon="13.5295006"><ele>1273.0</ele><time>2026-04-26T17:12:44.861Z</time></trkpt><trkpt lat="42.2414577" lon="13.5294806"><ele>1273.0</ele><time>2026-04-26T17:12:45.86Z</time></trkpt><trkpt lat="42.2415473" lon="13.529432"><ele>1273.0</ele><time>2026-04-26T17:12:46.861Z</time></trkpt><trkpt lat="42.241641" lon="13.529372"><ele>1273.0</ele><time>2026-04-26T17:12:47.861Z</time></trkpt><trkpt lat="42.2417336" lon="13.5293057"><ele>1273.0</ele><time>2026-04-26T17:12:48.861Z</time></trkpt><trkpt lat="42.2418272" lon="13.529239"><ele>1272.4</ele><time>2026-04-26T17:12:49.862Z</time></trkpt><trkpt lat="42.2419227" lon="13.5291743"><ele>1271.8</ele><time>2026-04-26T17:12:50.861Z</time></trkpt><trkpt lat="42.2420097" lon="13.5291163"><ele>1271.2</ele><time>2026-04-26T17:12:51.86Z</time></trkpt><trkpt lat="42.2420837" lon="13.5290448"><ele>1270.6</ele><time>2026-04-26T17:12:52.861Z</time></trkpt><trkpt lat="42.2421454" lon="13.5289518"><ele>1270.0</ele><time>2026-04-26T17:12:53.86Z</time></trkpt><trkpt lat="42.2421986" lon="13.528838"><ele>1269.6</ele><time>2026-04-26T17:12:54.86Z</time></trkpt><trkpt lat="42.2422606" lon="13.5287248"><ele>1269.2</ele><time>2026-04-26T17:12:55.861Z</time></trkpt><trkpt lat="42.2423302" lon="13.528636"><ele>1268.8</ele><time>2026-04-26T17:12:56.861Z</time></trkpt><trkpt lat="42.2424131" lon="13.5285594"><ele>1268.4</ele><time>2026-04-26T17:12:57.861Z</time></trkpt><trkpt lat="42.2425034" lon="13.5284905"><ele>1268.0</ele><time>2026-04-26T17:12:58.861Z</time></trkpt><trkpt lat="42.2426013" lon="13.5284275"><ele>1268.0</ele><time>2026-04-26T17:12:59.862Z</time></trkpt><trkpt lat="42.2427026" lon="13.5283567"><ele>1268.0</ele><time>2026-04-26T17:13:00.861Z</time></trkpt><trkpt lat="42.242809" lon="13.5282944"><ele>1268.0</ele><time>2026-04-26T17:13:01.86Z</time></trkpt><trkpt lat="42.2429089" lon="13.5282354"><ele>1268.0</ele><time>2026-04-26T17:13:02.861Z</time></trkpt><trkpt lat="42.2430126" lon="13.5281801"><ele>1268.0</ele><time>2026-04-26T17:13:03.861Z</time></trkpt><trkpt lat="42.2431168" lon="13.5281161"><ele>1268.0</ele><time>2026-04-26T17:13:04.861Z</time></trkpt><trkpt lat="42.243209" lon="13.5280389"><ele>1268.0</ele><time>2026-04-26T17:13:05.862Z</time></trkpt><trkpt lat="42.2432853" lon="13.5279526"><ele>1268.0</ele><time>2026-04-26T17:13:06.86Z</time></trkpt><trkpt lat="42.2433443" lon="13.5278388"><ele>1268.0</ele><time>2026-04-26T17:13:07.861Z</time></trkpt><trkpt lat="42.2433928" lon="13.5277104"><ele>1266.8</ele><time>2026-04-26T17:13:08.861Z</time></trkpt><trkpt lat="42.2434413" lon="13.5275782"><ele>1265.6</ele><time>2026-04-26T17:13:09.86Z</time></trkpt><trkpt lat="42.2434883" lon="13.5274447"><ele>1264.4</ele><time>2026-04-26T17:13:10.862Z</time></trkpt><trkpt lat="42.243528" lon="13.5273075"><ele>1263.2</ele><time>2026-04-26T17:13:11.861Z</time></trkpt><trkpt lat="42.2435701" lon="13.5271763"><ele>1262.0</ele><time>2026-04-26T17:13:12.86Z</time></trkpt><trkpt lat="42.2436311" lon="13.5270634"><ele>1262.8</ele><time>2026-04-26T17:13:13.86Z</time></trkpt><trkpt lat="42.2437054" lon="13.5269656"><ele>1263.6</ele><time>2026-04-26T17:13:14.86Z</time></trkpt><trkpt lat="42.2437869" lon="13.5268823"><ele>1264.3999999999999</ele><time>2026-04-26T17:13:15.861Z</time></trkpt><trkpt lat="42.2438762" lon="13.5268099"><ele>1265.2</ele><time>2026-04-26T17:13:16.861Z</time></trkpt><trkpt lat="42.2439696" lon="13.5267418"><ele>1266.0</ele><time>2026-04-26T17:13:17.861Z</time></trkpt><trkpt lat="42.2440576" lon="13.5266621"><ele>1266.0</ele><time>2026-04-26T17:13:18.862Z</time></trkpt><trkpt lat="42.2441359" lon="13.5265601"><ele>1266.0</ele><time>2026-04-26T17:13:19.861Z</time></trkpt><trkpt lat="42.2442082" lon="13.5264479"><ele>1266.0</ele><time>2026-04-26T17:13:20.861Z</time></trkpt><trkpt lat="42.2442783" lon="13.526326"><ele>1266.0</ele><time>2026-04-26T17:13:21.862Z</time></trkpt><trkpt lat="42.2443449" lon="13.5262072"><ele>1266.0</ele><time>2026-04-26T17:13:22.862Z</time></trkpt><trkpt lat="42.2444097" lon="13.5261046"><ele>1266.8333333333333</ele><time>2026-04-26T17:13:23.861Z</time></trkpt><trkpt lat="42.2444819" lon="13.5260391"><ele>1267.6666666666667</ele><time>2026-04-26T17:13:24.86Z</time></trkpt><trkpt lat="42.2445555" lon="13.5260096"><ele>1268.5</ele><time>2026-04-26T17:13:25.861Z</time></trkpt><trkpt lat="42.2446392" lon="13.5260048"><ele>1269.3333333333335</ele><time>2026-04-26T17:13:26.861Z</time></trkpt><trkpt lat="42.2447236" lon="13.5260196"><ele>1270.1666666666667</ele><time>2026-04-26T17:13:27.861Z</time></trkpt><trkpt lat="42.2448099" lon="13.5260432"><ele>1271.0</ele><time>2026-04-26T17:13:28.86Z</time></trkpt><trkpt lat="42.2449015" lon="13.5260572"><ele>1271.0</ele><time>2026-04-26T17:13:29.861Z</time></trkpt><trkpt lat="42.2449964" lon="13.526053"><ele>1271.0</ele><time>2026-04-26T17:13:30.86Z</time></trkpt><trkpt lat="42.2450911" lon="13.5260249"><ele>1271.0</ele><time>2026-04-26T17:13:31.862Z</time></trkpt><trkpt lat="42.2451821" lon="13.5259747"><ele>1271.0</ele><time>2026-04-26T17:13:32.861Z</time></trkpt><trkpt lat="42.2452746" lon="13.5259113"><ele>1271.0</ele><time>2026-04-26T17:13:33.861Z</time></trkpt><trkpt lat="42.245368" lon="13.5258438"><ele>1271.0</ele><time>2026-04-26T17:13:34.861Z</time></trkpt><trkpt lat="42.2454608" lon="13.5257797"><ele>1271.0</ele><time>2026-04-26T17:13:35.86Z</time></trkpt><trkpt lat="42.2455531" lon="13.5257169"><ele>1271.0</ele><time>2026-04-26T17:13:36.861Z</time></trkpt><trkpt lat="42.2456394" lon="13.5256414"><ele>1271.0</ele><time>2026-04-26T17:13:37.86Z</time></trkpt><trkpt lat="42.2457172" lon="13.5255517"><ele>1271.0</ele><time>2026-04-26T17:13:38.861Z</time></trkpt><trkpt lat="42.2457703" lon="13.5254474"><ele>1272.0</ele><time>2026-04-26T17:13:39.861Z</time></trkpt><trkpt lat="42.2458026" lon="13.5253428"><ele>1273.0</ele><time>2026-04-26T17:13:40.862Z</time></trkpt><trkpt lat="42.2458189" lon="13.5252441"><ele>1274.0</ele><time>2026-04-26T17:13:41.862Z</time></trkpt><trkpt lat="42.2458303" lon="13.5251412"><ele>1275.0</ele><time>2026-04-26T17:13:42.862Z</time></trkpt><trkpt lat="42.2458395" lon="13.5250461"><ele>1276.0</ele><time>2026-04-26T17:13:43.861Z</time></trkpt><trkpt lat="42.2458508" lon="13.5249447"><ele>1277.0</ele><time>2026-04-26T17:13:44.86Z</time></trkpt><trkpt lat="42.2458621" lon="13.5248422"><ele>1277.0</ele><time>2026-04-26T17:13:45.86Z</time></trkpt><trkpt lat="42.245879" lon="13.5247314"><ele>1277.0</ele><time>2026-04-26T17:13:46.86Z</time></trkpt><trkpt lat="42.2459121" lon="13.5246247"><ele>1277.0</ele><time>2026-04-26T17:13:47.861Z</time></trkpt><trkpt lat="42.2459565" lon="13.5245205"><ele>1277.0</ele><time>2026-04-26T17:13:48.861Z</time></trkpt><trkpt lat="42.2460111" lon="13.524412"><ele>1277.0</ele><time>2026-04-26T17:13:49.86Z</time></trkpt><trkpt lat="42.2460731" lon="13.5243071"><ele>1277.6</ele><time>2026-04-26T17:13:50.86Z</time></trkpt><trkpt lat="42.2461355" lon="13.5241992"><ele>1278.2</ele><time>2026-04-26T17:13:51.862Z</time></trkpt><trkpt lat="42.2462014" lon="13.524088"><ele>1278.8</ele><time>2026-04-26T17:13:52.861Z</time></trkpt><trkpt lat="42.2462662" lon="13.5239856"><ele>1279.4</ele><time>2026-04-26T17:13:53.861Z</time></trkpt><trkpt lat="42.2463348" lon="13.5238852"><ele>1280.0</ele><time>2026-04-26T17:13:54.862Z</time></trkpt><trkpt lat="42.246409" lon="13.5237981"><ele>1281.0</ele><time>2026-04-26T17:13:55.86Z</time></trkpt><trkpt lat="42.2464942" lon="13.5237258"><ele>1282.0</ele><time>2026-04-26T17:13:56.861Z</time></trkpt><trkpt lat="42.2465795" lon="13.5236486"><ele>1283.0</ele><time>2026-04-26T17:13:57.86Z</time></trkpt><trkpt lat="42.2466666" lon="13.5235713"><ele>1284.0</ele><time>2026-04-26T17:13:58.861Z</time></trkpt><trkpt lat="42.2467544" lon="13.5234994"><ele>1285.0</ele><time>2026-04-26T17:13:59.86Z</time></trkpt><trkpt lat="42.2468375" lon="13.5234366"><ele>1285.0</ele><time>2026-04-26T17:14:00.861Z</time></trkpt><trkpt lat="42.2469157" lon="13.5233807"><ele>1285.0</ele><time>2026-04-26T17:14:01.861Z</time></trkpt><trkpt lat="42.2469886" lon="13.5233336"><ele>1285.0</ele><time>2026-04-26T17:14:02.861Z</time></trkpt><trkpt lat="42.2470506" lon="13.5232913"><ele>1285.0</ele><time>2026-04-26T17:14:03.862Z</time></trkpt><trkpt lat="42.2471356" lon="13.5231809"><ele>1285.0</ele><time>2026-04-26T17:14:05.861Z</time></trkpt><trkpt lat="42.2471624" lon="13.5230235"><ele>1285.0000000000002</ele><time>2026-04-26T17:14:07.861Z</time></trkpt><trkpt lat="42.2471708" lon="13.522935"><ele>1285.0</ele><time>2026-04-26T17:14:08.861Z</time></trkpt><trkpt lat="42.2471746" lon="13.5228406"><ele>1285.0</ele><time>2026-04-26T17:14:09.862Z</time></trkpt><trkpt lat="42.2471764" lon="13.5227395"><ele>1285.0</ele><time>2026-04-26T17:14:10.862Z</time></trkpt><trkpt lat="42.2471772" lon="13.5226377"><ele>1285.0</ele><time>2026-04-26T17:14:11.86Z</time></trkpt><trkpt lat="42.247169" lon="13.5225323"><ele>1285.0000000000002</ele><time>2026-04-26T17:14:12.862Z</time></trkpt><trkpt lat="42.2471583" lon="13.5224264"><ele>1285.0</ele><time>2026-04-26T17:14:13.861Z</time></trkpt><trkpt lat="42.2471487" lon="13.5223176"><ele>1285.6</ele><time>2026-04-26T17:14:14.862Z</time></trkpt><trkpt lat="42.2471396" lon="13.5222032"><ele>1286.2</ele><time>2026-04-26T17:14:15.86Z</time></trkpt><trkpt lat="42.2471282" lon="13.5220876"><ele>1286.8000000000002</ele><time>2026-04-26T17:14:16.861Z</time></trkpt><trkpt lat="42.247119" lon="13.5219635"><ele>1287.4</ele><time>2026-04-26T17:14:17.862Z</time></trkpt><trkpt lat="42.2471099" lon="13.5218373"><ele>1288.0</ele><time>2026-04-26T17:14:18.86Z</time></trkpt><trkpt lat="42.2470999" lon="13.5217058"><ele>1288.8000000000002</ele><time>2026-04-26T17:14:19.861Z</time></trkpt><trkpt lat="42.2470929" lon="13.5215737"><ele>1289.6</ele><time>2026-04-26T17:14:20.861Z</time></trkpt><trkpt lat="42.2470886" lon="13.5214453"><ele>1290.4</ele><time>2026-04-26T17:14:21.86Z</time></trkpt><trkpt lat="42.2470902" lon="13.521322"><ele>1291.1999999999998</ele><time>2026-04-26T17:14:22.861Z</time></trkpt><trkpt lat="42.2470955" lon="13.5211994"><ele>1292.0</ele><time>2026-04-26T17:14:23.861Z</time></trkpt><trkpt lat="42.2471015" lon="13.5210785"><ele>1292.6666666666667</ele><time>2026-04-26T17:14:24.86Z</time></trkpt><trkpt lat="42.2471065" lon="13.5209783"><ele>1293.3333333333335</ele><time>2026-04-26T17:14:25.86Z</time></trkpt><trkpt lat="42.2471076" lon="13.5208898"><ele>1294.0</ele><time>2026-04-26T17:14:26.861Z</time></trkpt><trkpt lat="42.247117" lon="13.520799"><ele>1294.6666666666667</ele><time>2026-04-26T17:14:27.861Z</time></trkpt><trkpt lat="42.2471505" lon="13.5206832"><ele>1295.3333333333333</ele><time>2026-04-26T17:14:29.861Z</time></trkpt><trkpt lat="42.24723" lon="13.5206025"><ele>1296.0</ele><time>2026-04-26T17:14:31.861Z</time></trkpt><trkpt lat="42.2473028" lon="13.5205717"><ele>1296.0</ele><time>2026-04-26T17:14:32.861Z</time></trkpt><trkpt lat="42.247397" lon="13.5205463"><ele>1296.0</ele><time>2026-04-26T17:14:33.862Z</time></trkpt><trkpt lat="42.2475037" lon="13.5205091"><ele>1296.0</ele><time>2026-04-26T17:14:34.862Z</time></trkpt><trkpt lat="42.2476232" lon="13.5204676"><ele>1296.0</ele><time>2026-04-26T17:14:35.861Z</time></trkpt><trkpt lat="42.2477537" lon="13.5204204"><ele>1295.6666666666667</ele><time>2026-04-26T17:14:36.861Z</time></trkpt><trkpt lat="42.2478932" lon="13.5203802"><ele>1295.3333333333335</ele><time>2026-04-26T17:14:37.862Z</time></trkpt><trkpt lat="42.2480409" lon="13.5203325"><ele>1295.0</ele><time>2026-04-26T17:14:38.861Z</time></trkpt><trkpt lat="42.2481961" lon="13.5202764"><ele>1294.6666666666667</ele><time>2026-04-26T17:14:39.862Z</time></trkpt><trkpt lat="42.2483589" lon="13.5202009"><ele>1294.3333333333333</ele><time>2026-04-26T17:14:40.86Z</time></trkpt><trkpt lat="42.2485254" lon="13.5201022"><ele>1294.0</ele><time>2026-04-26T17:14:41.861Z</time></trkpt><trkpt lat="42.2486841" lon="13.5199683"><ele>1294.0</ele><time>2026-04-26T17:14:42.86Z</time></trkpt><trkpt lat="42.2488255" lon="13.5198019"><ele>1294.0</ele><time>2026-04-26T17:14:43.862Z</time></trkpt><trkpt lat="42.24894" lon="13.5195952"><ele>1294.0</ele><time>2026-04-26T17:14:44.861Z</time></trkpt><trkpt lat="42.2490412" lon="13.5193642"><ele>1293.6666666666665</ele><time>2026-04-26T17:14:45.86Z</time></trkpt><trkpt lat="42.2491413" lon="13.5191333"><ele>1293.3333333333333</ele><time>2026-04-26T17:14:46.861Z</time></trkpt><trkpt lat="42.2492394" lon="13.5188964"><ele>1293.0</ele><time>2026-04-26T17:14:47.861Z</time></trkpt><trkpt lat="42.2493355" lon="13.5186615"><ele>1297.0</ele><time>2026-04-26T17:14:48.86Z</time></trkpt><trkpt lat="42.2494372" lon="13.5184253"><ele>1301.0</ele><time>2026-04-26T17:14:49.86Z</time></trkpt><trkpt lat="42.2495424" lon="13.5181931"><ele>1305.0</ele><time>2026-04-26T17:14:50.861Z</time></trkpt><trkpt lat="42.249648" lon="13.5179678"><ele>1308.0</ele><time>2026-04-26T17:14:51.86Z</time></trkpt><trkpt lat="42.249748" lon="13.5177458"><ele>1311.0</ele><time>2026-04-26T17:14:52.862Z</time></trkpt><trkpt lat="42.2498434" lon="13.517539"><ele>1314.0</ele><time>2026-04-26T17:14:53.86Z</time></trkpt><trkpt lat="42.2499361" lon="13.5173414"><ele>1308.3333333333333</ele><time>2026-04-26T17:14:54.861Z</time></trkpt><trkpt lat="42.2500258" lon="13.5171549"><ele>1302.6666666666665</ele><time>2026-04-26T17:14:55.861Z</time></trkpt><trkpt lat="42.2500986" lon="13.5169669"><ele>1297.0</ele><time>2026-04-26T17:14:56.86Z</time></trkpt><trkpt lat="42.2501553" lon="13.5167731"><ele>1297.0</ele><time>2026-04-26T17:14:57.861Z</time></trkpt><trkpt lat="42.250196" lon="13.5165829"><ele>1297.0</ele><time>2026-04-26T17:14:58.861Z</time></trkpt><trkpt lat="42.2502241" lon="13.5163905"><ele>1297.0</ele><time>2026-04-26T17:14:59.861Z</time></trkpt><trkpt lat="42.2502458" lon="13.5162044"><ele>1297.0</ele><time>2026-04-26T17:15:00.861Z</time></trkpt><trkpt lat="42.2502613" lon="13.5160266"><ele>1296.5</ele><time>2026-04-26T17:15:01.861Z</time></trkpt><trkpt lat="42.2502772" lon="13.515853"><ele>1296.0</ele><time>2026-04-26T17:15:02.861Z</time></trkpt><trkpt lat="42.2502912" lon="13.5156855"><ele>1295.5</ele><time>2026-04-26T17:15:03.86Z</time></trkpt><trkpt lat="42.2503126" lon="13.5155255"><ele>1295.0</ele><time>2026-04-26T17:15:04.862Z</time></trkpt><trkpt lat="42.2503438" lon="13.5153711"><ele>1295.0</ele><time>2026-04-26T17:15:05.86Z</time></trkpt><trkpt lat="42.2503936" lon="13.5152172"><ele>1295.0</ele><time>2026-04-26T17:15:06.861Z</time></trkpt><trkpt lat="42.2504615" lon="13.5150724"><ele>1295.0</ele><time>2026-04-26T17:15:07.86Z</time></trkpt><trkpt lat="42.2505549" lon="13.5149349"><ele>1295.0</ele><time>2026-04-26T17:15:08.861Z</time></trkpt><trkpt lat="42.2506575" lon="13.5148003"><ele>1293.3333333333335</ele><time>2026-04-26T17:15:09.862Z</time></trkpt><trkpt lat="42.2507651" lon="13.5146621"><ele>1291.6666666666667</ele><time>2026-04-26T17:15:10.86Z</time></trkpt><trkpt lat="42.2508775" lon="13.5145178"><ele>1290.0</ele><time>2026-04-26T17:15:11.861Z</time></trkpt><trkpt lat="42.2509927" lon="13.5143696"><ele>1290.0</ele><time>2026-04-26T17:15:12.861Z</time></trkpt><trkpt lat="42.2511122" lon="13.5142184"><ele>1290.0</ele><time>2026-04-26T17:15:13.862Z</time></trkpt><trkpt lat="42.2512379" lon="13.5140623"><ele>1290.0</ele><time>2026-04-26T17:15:14.861Z</time></trkpt><trkpt lat="42.2513643" lon="13.5139024"><ele>1285.0</ele><time>2026-04-26T17:15:15.861Z</time></trkpt><trkpt lat="42.2514874" lon="13.5137304"><ele>1280.0</ele><time>2026-04-26T17:15:16.862Z</time></trkpt><trkpt lat="42.2516074" lon="13.5135438"><ele>1275.0</ele><time>2026-04-26T17:15:17.861Z</time></trkpt><trkpt lat="42.2517178" lon="13.5133427"><ele>1275.0</ele><time>2026-04-26T17:15:18.86Z</time></trkpt><trkpt lat="42.251824" lon="13.5131284"><ele>1275.0</ele><time>2026-04-26T17:15:19.862Z</time></trkpt><trkpt lat="42.2519279" lon="13.5128949"><ele>1275.0</ele><time>2026-04-26T17:15:20.86Z</time></trkpt><trkpt lat="42.2520199" lon="13.5126374"><ele>1280.3333333333333</ele><time>2026-04-26T17:15:21.86Z</time></trkpt><trkpt lat="42.2520961" lon="13.5123651"><ele>1285.6666666666665</ele><time>2026-04-26T17:15:22.86Z</time></trkpt><trkpt lat="42.2521502" lon="13.5120945"><ele>1291.0</ele><time>2026-04-26T17:15:23.861Z</time></trkpt><trkpt lat="42.2521937" lon="13.5118234"><ele>1294.6666666666665</ele><time>2026-04-26T17:15:24.861Z</time></trkpt><trkpt lat="42.2522309" lon="13.5115541"><ele>1298.3333333333333</ele><time>2026-04-26T17:15:25.862Z</time></trkpt><trkpt lat="42.2522671" lon="13.5112925"><ele>1302.0</ele><time>2026-04-26T17:15:26.862Z</time></trkpt><trkpt lat="42.2523064" lon="13.5110278"><ele>1291.3333333333333</ele><time>2026-04-26T17:15:27.862Z</time></trkpt><trkpt lat="42.2523526" lon="13.5107505"><ele>1280.6666666666665</ele><time>2026-04-26T17:15:28.86Z</time></trkpt><trkpt lat="42.252424" lon="13.5104731"><ele>1270.0</ele><time>2026-04-26T17:15:29.86Z</time></trkpt><trkpt lat="42.252515" lon="13.5102023"><ele>1270.0</ele><time>2026-04-26T17:15:30.862Z</time></trkpt><trkpt lat="42.2526225" lon="13.5099393"><ele>1270.0</ele><time>2026-04-26T17:15:31.862Z</time></trkpt><trkpt lat="42.2527392" lon="13.5096821"><ele>1270.0</ele><time>2026-04-26T17:15:32.861Z</time></trkpt><trkpt lat="42.2528552" lon="13.5094354"><ele>1275.3333333333333</ele><time>2026-04-26T17:15:33.861Z</time></trkpt><trkpt lat="42.2529808" lon="13.5092026"><ele>1280.6666666666667</ele><time>2026-04-26T17:15:34.861Z</time></trkpt><trkpt lat="42.2531337" lon="13.5089789"><ele>1286.0</ele><time>2026-04-26T17:15:35.861Z</time></trkpt><trkpt lat="42.2533097" lon="13.5087705"><ele>1272.0</ele><time>2026-04-26T17:15:36.861Z</time></trkpt><trkpt lat="42.253492" lon="13.5085687"><ele>1258.0</ele><time>2026-04-26T17:15:37.861Z</time></trkpt><trkpt lat="42.2536699" lon="13.5083799"><ele>1258.0</ele><time>2026-04-26T17:15:38.861Z</time></trkpt><trkpt lat="42.2538407" lon="13.5081917"><ele>1258.0</ele><time>2026-04-26T17:15:39.86Z</time></trkpt><trkpt lat="42.2540114" lon="13.5080236"><ele>1258.0</ele><time>2026-04-26T17:15:40.861Z</time></trkpt><trkpt lat="42.2541822" lon="13.5078807"><ele>1255.6666666666665</ele><time>2026-04-26T17:15:41.861Z</time></trkpt><trkpt lat="42.2543577" lon="13.5077658"><ele>1253.3333333333333</ele><time>2026-04-26T17:15:42.861Z</time></trkpt><trkpt lat="42.2545347" lon="13.5076934"><ele>1251.0</ele><time>2026-04-26T17:15:43.86Z</time></trkpt><trkpt lat="42.2547206" lon="13.507673"><ele>1245.3333333333333</ele><time>2026-04-26T17:15:44.86Z</time></trkpt><trkpt lat="42.2549147" lon="13.5076961"><ele>1239.6666666666665</ele><time>2026-04-26T17:15:45.86Z</time></trkpt><trkpt lat="42.2551162" lon="13.5077448"><ele>1234.0</ele><time>2026-04-26T17:15:46.86Z</time></trkpt><trkpt lat="42.2553275" lon="13.5078159"><ele>1234.0</ele><time>2026-04-26T17:15:47.86Z</time></trkpt><trkpt lat="42.2555447" lon="13.5079017"><ele>1234.0</ele><time>2026-04-26T17:15:48.861Z</time></trkpt><trkpt lat="42.2557697" lon="13.5079996"><ele>1233.0</ele><time>2026-04-26T17:15:49.861Z</time></trkpt><trkpt lat="42.2559977" lon="13.5081119"><ele>1232.0</ele><time>2026-04-26T17:15:50.861Z</time></trkpt><trkpt lat="42.2562238" lon="13.5082492"><ele>1232.0</ele><time>2026-04-26T17:15:51.862Z</time></trkpt><trkpt lat="42.2564408" lon="13.5084064"><ele>1232.0</ele><time>2026-04-26T17:15:52.861Z</time></trkpt><trkpt lat="42.2566483" lon="13.5085697"><ele>1231.0</ele><time>2026-04-26T17:15:53.86Z</time></trkpt><trkpt lat="42.2568514" lon="13.5087391"><ele>1230.0</ele><time>2026-04-26T17:15:54.862Z</time></trkpt><trkpt lat="42.2570493" lon="13.5089127"><ele>1230.0</ele><time>2026-04-26T17:15:55.861Z</time></trkpt><trkpt lat="42.2572481" lon="13.5090799"><ele>1230.0</ele><time>2026-04-26T17:15:56.862Z</time></trkpt><trkpt lat="42.2574533" lon="13.5092435"><ele>1227.5</ele><time>2026-04-26T17:15:57.862Z</time></trkpt><trkpt lat="42.2576716" lon="13.5093817"><ele>1225.0</ele><time>2026-04-26T17:15:58.862Z</time></trkpt><trkpt lat="42.257904" lon="13.5094927"><ele>1225.5</ele><time>2026-04-26T17:15:59.86Z</time></trkpt><trkpt lat="42.2581421" lon="13.5095789"><ele>1226.0</ele><time>2026-04-26T17:16:00.861Z</time></trkpt><trkpt lat="42.2583946" lon="13.509653"><ele>1226.0</ele><time>2026-04-26T17:16:01.861Z</time></trkpt><trkpt lat="42.2586528" lon="13.5097259"><ele>1226.0</ele><time>2026-04-26T17:16:02.86Z</time></trkpt><trkpt lat="42.258912" lon="13.5098087"><ele>1225.5</ele><time>2026-04-26T17:16:03.86Z</time></trkpt><trkpt lat="42.2591659" lon="13.5099065"><ele>1225.0</ele><time>2026-04-26T17:16:04.861Z</time></trkpt><trkpt lat="42.2594155" lon="13.510006"><ele>1225.0</ele><time>2026-04-26T17:16:05.862Z</time></trkpt><trkpt lat="42.2596513" lon="13.5100898"><ele>1225.0</ele><time>2026-04-26T17:16:06.86Z</time></trkpt><trkpt lat="42.2598795" lon="13.5101675"><ele>1225.0</ele><time>2026-04-26T17:16:07.86Z</time></trkpt><trkpt lat="42.2600978" lon="13.5102318"><ele>1225.0</ele><time>2026-04-26T17:16:08.86Z</time></trkpt><trkpt lat="42.2603148" lon="13.5102742"><ele>1225.0</ele><time>2026-04-26T17:16:09.861Z</time></trkpt><trkpt lat="42.2605309" lon="13.5102799"><ele>1223.3333333333333</ele><time>2026-04-26T17:16:10.86Z</time></trkpt><trkpt lat="42.2607463" lon="13.5102493"><ele>1221.6666666666667</ele><time>2026-04-26T17:16:11.86Z</time></trkpt><trkpt lat="42.2609641" lon="13.5101792"><ele>1220.0</ele><time>2026-04-26T17:16:12.862Z</time></trkpt><trkpt lat="42.2611804" lon="13.5100749"><ele>1220.0</ele><time>2026-04-26T17:16:13.86Z</time></trkpt><trkpt lat="42.2614013" lon="13.5099617"><ele>1220.0</ele><time>2026-04-26T17:16:14.861Z</time></trkpt><trkpt lat="42.261627" lon="13.5098413"><ele>1222.0</ele><time>2026-04-26T17:16:15.861Z</time></trkpt><trkpt lat="42.2618562" lon="13.5097181"><ele>1224.0</ele><time>2026-04-26T17:16:16.861Z</time></trkpt><trkpt lat="42.2620865" lon="13.5095955"><ele>1223.5</ele><time>2026-04-26T17:16:17.86Z</time></trkpt><trkpt lat="42.2623186" lon="13.5094727"><ele>1223.0</ele><time>2026-04-26T17:16:18.861Z</time></trkpt><trkpt lat="42.2625512" lon="13.5093507"><ele>1223.0</ele><time>2026-04-26T17:16:19.86Z</time></trkpt><trkpt lat="42.2627787" lon="13.5092253"><ele>1223.0</ele><time>2026-04-26T17:16:20.861Z</time></trkpt><trkpt lat="42.2629968" lon="13.5090858"><ele>1224.0</ele><time>2026-04-26T17:16:21.862Z</time></trkpt><trkpt lat="42.263195" lon="13.5089264"><ele>1225.0</ele><time>2026-04-26T17:16:22.861Z</time></trkpt><trkpt lat="42.2633726" lon="13.5087525"><ele>1224.3333333333333</ele><time>2026-04-26T17:16:23.86Z</time></trkpt><trkpt lat="42.2635252" lon="13.5085707"><ele>1223.6666666666667</ele><time>2026-04-26T17:16:24.861Z</time></trkpt><trkpt lat="42.263651" lon="13.5083756"><ele>1223.0</ele><time>2026-04-26T17:16:25.861Z</time></trkpt><trkpt lat="42.2637387" lon="13.5081654"><ele>1223.0</ele><time>2026-04-26T17:16:26.861Z</time></trkpt><trkpt lat="42.2637913" lon="13.5079325"><ele>1223.0</ele><time>2026-04-26T17:16:27.86Z</time></trkpt><trkpt lat="42.2638278" lon="13.5076832"><ele>1223.0</ele><time>2026-04-26T17:16:28.862Z</time></trkpt><trkpt lat="42.2638685" lon="13.507431"><ele>1220.3333333333335</ele><time>2026-04-26T17:16:29.861Z</time></trkpt><trkpt lat="42.2639347" lon="13.507183"><ele>1217.6666666666667</ele><time>2026-04-26T17:16:30.861Z</time></trkpt><trkpt lat="42.2640067" lon="13.506947"><ele>1215.0</ele><time>2026-04-26T17:16:31.862Z</time></trkpt><trkpt lat="42.2640781" lon="13.5067119"><ele>1215.0</ele><time>2026-04-26T17:16:32.861Z</time></trkpt><trkpt lat="42.2641502" lon="13.5064765"><ele>1215.0</ele><time>2026-04-26T17:16:33.861Z</time></trkpt><trkpt lat="42.2642159" lon="13.5062503"><ele>1215.0</ele><time>2026-04-26T17:16:34.861Z</time></trkpt><trkpt lat="42.2642807" lon="13.5060246"><ele>1218.3333333333333</ele><time>2026-04-26T17:16:35.861Z</time></trkpt><trkpt lat="42.2643427" lon="13.5058116"><ele>1221.6666666666665</ele><time>2026-04-26T17:16:36.861Z</time></trkpt><trkpt lat="42.2644025" lon="13.5056053"><ele>1225.0</ele><time>2026-04-26T17:16:37.861Z</time></trkpt><trkpt lat="42.2644614" lon="13.5054139"><ele>1227.0</ele><time>2026-04-26T17:16:38.861Z</time></trkpt><trkpt lat="42.2645403" lon="13.5052584"><ele>1229.0</ele><time>2026-04-26T17:16:39.861Z</time></trkpt><trkpt lat="42.2646421" lon="13.5051503"><ele>1231.0</ele><time>2026-04-26T17:16:40.861Z</time></trkpt><trkpt lat="42.2647582" lon="13.5051025"><ele>1233.0</ele><time>2026-04-26T17:16:41.862Z</time></trkpt><trkpt lat="42.2648775" lon="13.5050954"><ele>1227.75</ele><time>2026-04-26T17:16:42.86Z</time></trkpt><trkpt lat="42.2649961" lon="13.5051561"><ele>1222.5</ele><time>2026-04-26T17:16:43.861Z</time></trkpt><trkpt lat="42.2651094" lon="13.5052531"><ele>1217.25</ele><time>2026-04-26T17:16:44.861Z</time></trkpt><trkpt lat="42.2652281" lon="13.505365"><ele>1212.0</ele><time>2026-04-26T17:16:45.861Z</time></trkpt><trkpt lat="42.2653482" lon="13.5054664"><ele>1209.0</ele><time>2026-04-26T17:16:46.861Z</time></trkpt><trkpt lat="42.2654698" lon="13.5055576"><ele>1206.0</ele><time>2026-04-26T17:16:47.861Z</time></trkpt><trkpt lat="42.265602" lon="13.5056126"><ele>1203.0</ele><time>2026-04-26T17:16:48.86Z</time></trkpt><trkpt lat="42.2657404" lon="13.5056112"><ele>1200.0</ele><time>2026-04-26T17:16:49.861Z</time></trkpt><trkpt lat="42.2658757" lon="13.5055594"><ele>1199.3333333333333</ele><time>2026-04-26T17:16:50.861Z</time></trkpt><trkpt lat="42.2660154" lon="13.5054824"><ele>1198.6666666666665</ele><time>2026-04-26T17:16:51.861Z</time></trkpt><trkpt lat="42.2661596" lon="13.5053977"><ele>1198.0</ele><time>2026-04-26T17:16:52.861Z</time></trkpt><trkpt lat="42.2663091" lon="13.5053054"><ele>1198.6666666666665</ele><time>2026-04-26T17:16:53.862Z</time></trkpt><trkpt lat="42.2664649" lon="13.5052076"><ele>1199.3333333333333</ele><time>2026-04-26T17:16:54.862Z</time></trkpt><trkpt lat="42.2666242" lon="13.5051101"><ele>1200.0</ele><time>2026-04-26T17:16:55.861Z</time></trkpt><trkpt lat="42.2667842" lon="13.5050201"><ele>1200.0</ele><time>2026-04-26T17:16:56.86Z</time></trkpt><trkpt lat="42.2669365" lon="13.5049168"><ele>1200.0</ele><time>2026-04-26T17:16:57.862Z</time></trkpt><trkpt lat="42.2670729" lon="13.5047817"><ele>1200.0</ele><time>2026-04-26T17:16:58.86Z</time></trkpt><trkpt lat="42.2671873" lon="13.5046051"><ele>1197.0</ele><time>2026-04-26T17:16:59.862Z</time></trkpt><trkpt lat="42.2672912" lon="13.5044036"><ele>1194.0</ele><time>2026-04-26T17:17:00.86Z</time></trkpt><trkpt lat="42.2673979" lon="13.5041893"><ele>1191.0</ele><time>2026-04-26T17:17:01.862Z</time></trkpt><trkpt lat="42.2675091" lon="13.5039562"><ele>1197.0</ele><time>2026-04-26T17:17:02.861Z</time></trkpt><trkpt lat="42.2676237" lon="13.5037181"><ele>1203.0</ele><time>2026-04-26T17:17:03.861Z</time></trkpt><trkpt lat="42.2677388" lon="13.5034788"><ele>1209.0</ele><time>2026-04-26T17:17:04.86Z</time></trkpt><trkpt lat="42.2678475" lon="13.503234"><ele>1209.0</ele><time>2026-04-26T17:17:05.862Z</time></trkpt><trkpt lat="42.2679571" lon="13.5029932"><ele>1209.0</ele><time>2026-04-26T17:17:06.861Z</time></trkpt><trkpt lat="42.2680587" lon="13.5027454"><ele>1209.0</ele><time>2026-04-26T17:17:07.86Z</time></trkpt><trkpt lat="42.2681531" lon="13.5024973"><ele>1204.6666666666667</ele><time>2026-04-26T17:17:08.862Z</time></trkpt><trkpt lat="42.2682511" lon="13.5022444"><ele>1200.3333333333335</ele><time>2026-04-26T17:17:09.861Z</time></trkpt><trkpt lat="42.2683267" lon="13.5020412"><ele>1196.0</ele><time>2026-04-26T17:17:10.861Z</time></trkpt><trkpt lat="42.2683914" lon="13.5018286"><ele>1196.0</ele><time>2026-04-26T17:17:11.861Z</time></trkpt><trkpt lat="42.2684345" lon="13.5016221"><ele>1196.0</ele><time>2026-04-26T17:17:12.86Z</time></trkpt><trkpt lat="42.2684567" lon="13.501431"><ele>1196.0</ele><time>2026-04-26T17:17:13.86Z</time></trkpt><trkpt lat="42.2684732" lon="13.5012543"><ele>1196.0</ele><time>2026-04-26T17:17:14.861Z</time></trkpt><trkpt lat="42.2684828" lon="13.5010929"><ele>1196.75</ele><time>2026-04-26T17:17:15.861Z</time></trkpt><trkpt lat="42.2684939" lon="13.5009395"><ele>1197.5</ele><time>2026-04-26T17:17:16.861Z</time></trkpt><trkpt lat="42.268491" lon="13.5007793"><ele>1198.25</ele><time>2026-04-26T17:17:17.862Z</time></trkpt><trkpt lat="42.2684719" lon="13.5006103"><ele>1199.0</ele><time>2026-04-26T17:17:18.862Z</time></trkpt><trkpt lat="42.2684355" lon="13.5004346"><ele>1197.0</ele><time>2026-04-26T17:17:19.861Z</time></trkpt><trkpt lat="42.2683861" lon="13.500255"><ele>1195.0</ele><time>2026-04-26T17:17:20.861Z</time></trkpt><trkpt lat="42.2683282" lon="13.5000641"><ele>1193.0</ele><time>2026-04-26T17:17:21.861Z</time></trkpt><trkpt lat="42.2682676" lon="13.4998652"><ele>1193.0</ele><time>2026-04-26T17:17:22.861Z</time></trkpt><trkpt lat="42.2682036" lon="13.4996596"><ele>1193.0</ele><time>2026-04-26T17:17:23.862Z</time></trkpt><trkpt lat="42.268146" lon="13.4994473"><ele>1193.0</ele><time>2026-04-26T17:17:24.861Z</time></trkpt><trkpt lat="42.2680952" lon="13.4992303"><ele>1193.3333333333335</ele><time>2026-04-26T17:17:25.861Z</time></trkpt><trkpt lat="42.2680674" lon="13.4990104"><ele>1193.6666666666667</ele><time>2026-04-26T17:17:26.86Z</time></trkpt><trkpt lat="42.2680759" lon="13.4987836"><ele>1194.0</ele><time>2026-04-26T17:17:27.862Z</time></trkpt><trkpt lat="42.2681115" lon="13.4985599"><ele>1194.0</ele><time>2026-04-26T17:17:28.861Z</time></trkpt><trkpt lat="42.2681536" lon="13.4983324"><ele>1194.0</ele><time>2026-04-26T17:17:29.861Z</time></trkpt><trkpt lat="42.2682028" lon="13.498101"><ele>1194.0</ele><time>2026-04-26T17:17:30.861Z</time></trkpt><trkpt lat="42.2682676" lon="13.4978665"><ele>1195.6666666666667</ele><time>2026-04-26T17:17:31.86Z</time></trkpt><trkpt lat="42.2683592" lon="13.4976345"><ele>1197.3333333333335</ele><time>2026-04-26T17:17:32.861Z</time></trkpt><trkpt lat="42.2684602" lon="13.4974162"><ele>1199.0</ele><time>2026-04-26T17:17:33.861Z</time></trkpt><trkpt lat="42.268562" lon="13.4972128"><ele>1201.75</ele><time>2026-04-26T17:17:34.86Z</time></trkpt><trkpt lat="42.268674" lon="13.4970085"><ele>1204.5</ele><time>2026-04-26T17:17:35.86Z</time></trkpt><trkpt lat="42.2687515" lon="13.4968804"><ele>1207.25</ele><time>2026-04-26T17:17:36.86Z</time></trkpt><trkpt lat="42.2688473" lon="13.4967688"><ele>1210.0</ele><time>2026-04-26T17:17:37.861Z</time></trkpt><trkpt lat="42.26895" lon="13.4967095"><ele>1203.5</ele><time>2026-04-26T17:17:38.861Z</time></trkpt><trkpt lat="42.2690637" lon="13.4966882"><ele>1197.0</ele><time>2026-04-26T17:17:39.861Z</time></trkpt><trkpt lat="42.2691816" lon="13.4967199"><ele>1190.5</ele><time>2026-04-26T17:17:40.861Z</time></trkpt><trkpt lat="42.2692992" lon="13.4967916"><ele>1184.0</ele><time>2026-04-26T17:17:41.861Z</time></trkpt><trkpt lat="42.2694239" lon="13.4968746"><ele>1184.0</ele><time>2026-04-26T17:17:42.861Z</time></trkpt><trkpt lat="42.2695527" lon="13.4969651"><ele>1184.0</ele><time>2026-04-26T17:17:43.861Z</time></trkpt><trkpt lat="42.2696828" lon="13.4970567"><ele>1184.0</ele><time>2026-04-26T17:17:44.861Z</time></trkpt><trkpt lat="42.269825" lon="13.4971331"><ele>1184.0</ele><time>2026-04-26T17:17:45.86Z</time></trkpt><trkpt lat="42.269979" lon="13.4971593"><ele>1180.3333333333335</ele><time>2026-04-26T17:17:46.861Z</time></trkpt><trkpt lat="42.2701385" lon="13.4971439"><ele>1176.6666666666667</ele><time>2026-04-26T17:17:47.861Z</time></trkpt><trkpt lat="42.2703006" lon="13.4970973"><ele>1173.0</ele><time>2026-04-26T17:17:48.86Z</time></trkpt><trkpt lat="42.270467" lon="13.4970466"><ele>1172.3333333333333</ele><time>2026-04-26T17:17:49.861Z</time></trkpt><trkpt lat="42.2706337" lon="13.4970066"><ele>1171.6666666666665</ele><time>2026-04-26T17:17:50.861Z</time></trkpt><trkpt lat="42.2707993" lon="13.4969639"><ele>1171.0</ele><time>2026-04-26T17:17:51.861Z</time></trkpt><trkpt lat="42.2709567" lon="13.4969183"><ele>1171.0</ele><time>2026-04-26T17:17:52.862Z</time></trkpt><trkpt lat="42.2711008" lon="13.4968354"><ele>1171.0</ele><time>2026-04-26T17:17:53.86Z</time></trkpt><trkpt lat="42.2712206" lon="13.4967129"><ele>1171.0</ele><time>2026-04-26T17:17:54.862Z</time></trkpt><trkpt lat="42.2713018" lon="13.4965474"><ele>1171.0</ele><time>2026-04-26T17:17:55.861Z</time></trkpt><trkpt lat="42.2713501" lon="13.4963529"><ele>1171.0</ele><time>2026-04-26T17:17:56.861Z</time></trkpt><trkpt lat="42.2713824" lon="13.4961313"><ele>1171.0</ele><time>2026-04-26T17:17:57.861Z</time></trkpt><trkpt lat="42.2714137" lon="13.4959075"><ele>1171.6666666666665</ele><time>2026-04-26T17:17:58.861Z</time></trkpt><trkpt lat="42.2714456" lon="13.4956732"><ele>1172.3333333333333</ele><time>2026-04-26T17:17:59.861Z</time></trkpt><trkpt lat="42.2714807" lon="13.4954385"><ele>1173.0</ele><time>2026-04-26T17:18:00.861Z</time></trkpt><trkpt lat="42.2715184" lon="13.4952027"><ele>1173.0</ele><time>2026-04-26T17:18:01.861Z</time></trkpt><trkpt lat="42.2715515" lon="13.4949677"><ele>1173.0</ele><time>2026-04-26T17:18:02.861Z</time></trkpt><trkpt lat="42.2715856" lon="13.4947345"><ele>1173.0</ele><time>2026-04-26T17:18:03.861Z</time></trkpt><trkpt lat="42.2716205" lon="13.494502"><ele>1172.0</ele><time>2026-04-26T17:18:04.861Z</time></trkpt><trkpt lat="42.2716557" lon="13.4942724"><ele>1171.0</ele><time>2026-04-26T17:18:05.861Z</time></trkpt><trkpt lat="42.2716794" lon="13.4940552"><ele>1170.0</ele><time>2026-04-26T17:18:06.862Z</time></trkpt><trkpt lat="42.2716973" lon="13.4938483"><ele>1170.3333333333333</ele><time>2026-04-26T17:18:07.861Z</time></trkpt><trkpt lat="42.2716887" lon="13.4936399"><ele>1170.6666666666665</ele><time>2026-04-26T17:18:08.86Z</time></trkpt><trkpt lat="42.2716786" lon="13.4934144"><ele>1171.0</ele><time>2026-04-26T17:18:09.86Z</time></trkpt><trkpt lat="42.271662" lon="13.4931713"><ele>1172.0</ele><time>2026-04-26T17:18:10.86Z</time></trkpt><trkpt lat="42.271639" lon="13.4929164"><ele>1173.0</ele><time>2026-04-26T17:18:11.861Z</time></trkpt><trkpt lat="42.2716155" lon="13.4926532"><ele>1174.0</ele><time>2026-04-26T17:18:12.861Z</time></trkpt><trkpt lat="42.2715916" lon="13.4923802"><ele>1174.0</ele><time>2026-04-26T17:18:13.86Z</time></trkpt><trkpt lat="42.2715648" lon="13.4921103"><ele>1174.0</ele><time>2026-04-26T17:18:14.86Z</time></trkpt><trkpt lat="42.2715407" lon="13.491841"><ele>1174.0</ele><time>2026-04-26T17:18:15.861Z</time></trkpt><trkpt lat="42.2715168" lon="13.4915898"><ele>1173.3333333333333</ele><time>2026-04-26T17:18:16.861Z</time></trkpt><trkpt lat="42.2714898" lon="13.4913457"><ele>1172.6666666666667</ele><time>2026-04-26T17:18:17.862Z</time></trkpt><trkpt lat="42.2714684" lon="13.4911105"><ele>1172.0</ele><time>2026-04-26T17:18:18.861Z</time></trkpt><trkpt lat="42.2714657" lon="13.4908871"><ele>1171.5</ele><time>2026-04-26T17:18:19.86Z</time></trkpt><trkpt lat="42.2714946" lon="13.4906877"><ele>1171.0</ele><time>2026-04-26T17:18:20.86Z</time></trkpt><trkpt lat="42.2715578" lon="13.4905056"><ele>1170.5</ele><time>2026-04-26T17:18:21.86Z</time></trkpt><trkpt lat="42.2716529" lon="13.4903495"><ele>1170.0</ele><time>2026-04-26T17:18:22.861Z</time></trkpt><trkpt lat="42.2717696" lon="13.4902135"><ele>1172.0</ele><time>2026-04-26T17:18:23.86Z</time></trkpt><trkpt lat="42.2719092" lon="13.4900947"><ele>1174.0</ele><time>2026-04-26T17:18:24.86Z</time></trkpt><trkpt lat="42.2720534" lon="13.4899762"><ele>1176.0</ele><time>2026-04-26T17:18:25.861Z</time></trkpt><trkpt lat="42.2721911" lon="13.4898568"><ele>1173.5</ele><time>2026-04-26T17:18:26.861Z</time></trkpt><trkpt lat="42.2723177" lon="13.4897419"><ele>1171.0</ele><time>2026-04-26T17:18:27.861Z</time></trkpt><trkpt lat="42.2724302" lon="13.4896232"><ele>1168.5</ele><time>2026-04-26T17:18:28.861Z</time></trkpt><trkpt lat="42.2725263" lon="13.4894826"><ele>1166.0</ele><time>2026-04-26T17:18:29.86Z</time></trkpt><trkpt lat="42.2726025" lon="13.4893183"><ele>1165.6666666666667</ele><time>2026-04-26T17:18:30.86Z</time></trkpt><trkpt lat="42.2726543" lon="13.4891308"><ele>1165.3333333333333</ele><time>2026-04-26T17:18:31.861Z</time></trkpt><trkpt lat="42.2726903" lon="13.4889184"><ele>1165.0</ele><time>2026-04-26T17:18:32.862Z</time></trkpt><trkpt lat="42.272716" lon="13.4886982"><ele>1165.0</ele><time>2026-04-26T17:18:33.862Z</time></trkpt><trkpt lat="42.2727459" lon="13.4884851"><ele>1165.0</ele><time>2026-04-26T17:18:34.86Z</time></trkpt><trkpt lat="42.2727739" lon="13.4882775"><ele>1165.0</ele><time>2026-04-26T17:18:35.86Z</time></trkpt><trkpt lat="42.2727955" lon="13.4880734"><ele>1164.75</ele><time>2026-04-26T17:18:36.862Z</time></trkpt><trkpt lat="42.2728207" lon="13.4878708"><ele>1164.5</ele><time>2026-04-26T17:18:37.861Z</time></trkpt><trkpt lat="42.2728462" lon="13.4876737"><ele>1164.25</ele><time>2026-04-26T17:18:38.86Z</time></trkpt><trkpt lat="42.2728733" lon="13.4874785"><ele>1164.0</ele><time>2026-04-26T17:18:39.86Z</time></trkpt><trkpt lat="42.2728808" lon="13.4872799"><ele>1162.25</ele><time>2026-04-26T17:18:40.86Z</time></trkpt><trkpt lat="42.2728627" lon="13.487088"><ele>1160.5</ele><time>2026-04-26T17:18:41.86Z</time></trkpt><trkpt lat="42.2728122" lon="13.4869077"><ele>1158.75</ele><time>2026-04-26T17:18:42.861Z</time></trkpt><trkpt lat="42.2727343" lon="13.4867377"><ele>1157.0</ele><time>2026-04-26T17:18:43.86Z</time></trkpt><trkpt lat="42.2726563" lon="13.4865793"><ele>1157.0</ele><time>2026-04-26T17:18:44.861Z</time></trkpt><trkpt lat="42.2725756" lon="13.4864169"><ele>1157.0</ele><time>2026-04-26T17:18:45.862Z</time></trkpt><trkpt lat="42.2724939" lon="13.4862557"><ele>1157.0</ele><time>2026-04-26T17:18:46.861Z</time></trkpt><trkpt lat="42.2724159" lon="13.4860942"><ele>1157.0</ele><time>2026-04-26T17:18:47.86Z</time></trkpt><trkpt lat="42.2723365" lon="13.4859378"><ele>1158.25</ele><time>2026-04-26T17:18:48.861Z</time></trkpt><trkpt lat="42.2722616" lon="13.4857941"><ele>1159.5</ele><time>2026-04-26T17:18:49.861Z</time></trkpt><trkpt lat="42.2721962" lon="13.4856403"><ele>1160.75</ele><time>2026-04-26T17:18:50.861Z</time></trkpt><trkpt lat="42.2721634" lon="13.4854802"><ele>1162.0</ele><time>2026-04-26T17:18:51.862Z</time></trkpt><trkpt lat="42.2721744" lon="13.485327"><ele>1162.0</ele><time>2026-04-26T17:18:52.862Z</time></trkpt><trkpt lat="42.2722189" lon="13.4852009"><ele>1162.0</ele><time>2026-04-26T17:18:53.862Z</time></trkpt><trkpt lat="42.2722939" lon="13.4851045"><ele>1162.0</ele><time>2026-04-26T17:18:54.86Z</time></trkpt><trkpt lat="42.2723883" lon="13.4850497"><ele>1162.0</ele><time>2026-04-26T17:18:55.862Z</time></trkpt><trkpt lat="42.2724984" lon="13.4850447"><ele>1162.0</ele><time>2026-04-26T17:18:56.861Z</time></trkpt><trkpt lat="42.2726163" lon="13.4850753"><ele>1156.25</ele><time>2026-04-26T17:18:57.861Z</time></trkpt><trkpt lat="42.2727328" lon="13.4851223"><ele>1150.5</ele><time>2026-04-26T17:18:58.861Z</time></trkpt><trkpt lat="42.2728426" lon="13.4851661"><ele>1144.75</ele><time>2026-04-26T17:18:59.861Z</time></trkpt><trkpt lat="42.2729549" lon="13.4852116"><ele>1139.0</ele><time>2026-04-26T17:19:00.861Z</time></trkpt><trkpt lat="42.2730772" lon="13.4852583"><ele>1137.5</ele><time>2026-04-26T17:19:01.86Z</time></trkpt><trkpt lat="42.273197" lon="13.4853125"><ele>1136.0</ele><time>2026-04-26T17:19:02.861Z</time></trkpt><trkpt lat="42.2733151" lon="13.4853621"><ele>1134.5</ele><time>2026-04-26T17:19:03.862Z</time></trkpt><trkpt lat="42.2734371" lon="13.4854002"><ele>1133.0</ele><time>2026-04-26T17:19:04.862Z</time></trkpt><trkpt lat="42.273554" lon="13.4853977"><ele>1133.0</ele><time>2026-04-26T17:19:05.86Z</time></trkpt><trkpt lat="42.2736581" lon="13.4853563"><ele>1133.0</ele><time>2026-04-26T17:19:06.861Z</time></trkpt><trkpt lat="42.2737398" lon="13.4852741"><ele>1133.0</ele><time>2026-04-26T17:19:07.861Z</time></trkpt><trkpt lat="42.2737974" lon="13.4851501"><ele>1133.0</ele><time>2026-04-26T17:19:08.862Z</time></trkpt><trkpt lat="42.2738337" lon="13.4849923"><ele>1133.0</ele><time>2026-04-26T17:19:09.861Z</time></trkpt><trkpt lat="42.2738702" lon="13.484798"><ele>1130.3333333333335</ele><time>2026-04-26T17:19:10.86Z</time></trkpt><trkpt lat="42.2739065" lon="13.4845776"><ele>1127.6666666666667</ele><time>2026-04-26T17:19:11.861Z</time></trkpt><trkpt lat="42.2739473" lon="13.4843424"><ele>1125.0</ele><time>2026-04-26T17:19:12.86Z</time></trkpt><trkpt lat="42.2739776" lon="13.4840712"><ele>1121.3333333333333</ele><time>2026-04-26T17:19:13.861Z</time></trkpt><trkpt lat="42.2740055" lon="13.4837859"><ele>1117.6666666666665</ele><time>2026-04-26T17:19:14.86Z</time></trkpt><trkpt lat="42.2740465" lon="13.4834909"><ele>1114.0</ele><time>2026-04-26T17:19:15.861Z</time></trkpt><trkpt lat="42.2740884" lon="13.4831942"><ele>1115.6666666666665</ele><time>2026-04-26T17:19:16.861Z</time></trkpt><trkpt lat="42.2741452" lon="13.4829092"><ele>1117.3333333333333</ele><time>2026-04-26T17:19:17.861Z</time></trkpt><trkpt lat="42.2742158" lon="13.4826398"><ele>1119.0</ele><time>2026-04-26T17:19:18.861Z</time></trkpt><trkpt lat="42.2742961" lon="13.4823929"><ele>1119.0</ele><time>2026-04-26T17:19:19.86Z</time></trkpt><trkpt lat="42.2743629" lon="13.4821502"><ele>1119.0</ele><time>2026-04-26T17:19:20.861Z</time></trkpt><trkpt lat="42.2744102" lon="13.4819035"><ele>1119.0</ele><time>2026-04-26T17:19:21.861Z</time></trkpt><trkpt lat="42.2744499" lon="13.4816581"><ele>1120.3333333333333</ele><time>2026-04-26T17:19:22.861Z</time></trkpt><trkpt lat="42.2744907" lon="13.4814153"><ele>1121.6666666666665</ele><time>2026-04-26T17:19:23.862Z</time></trkpt><trkpt lat="42.2745275" lon="13.4811703"><ele>1123.0</ele><time>2026-04-26T17:19:24.861Z</time></trkpt><trkpt lat="42.2745571" lon="13.4809264"><ele>1123.0</ele><time>2026-04-26T17:19:25.861Z</time></trkpt><trkpt lat="42.274574" lon="13.4806824"><ele>1123.0</ele><time>2026-04-26T17:19:26.86Z</time></trkpt><trkpt lat="42.2745728" lon="13.4804342"><ele>1123.0</ele><time>2026-04-26T17:19:27.861Z</time></trkpt><trkpt lat="42.2745604" lon="13.4801867"><ele>1122.6666666666665</ele><time>2026-04-26T17:19:28.859Z</time></trkpt><trkpt lat="42.2745398" lon="13.4799315"><ele>1122.3333333333333</ele><time>2026-04-26T17:19:29.859Z</time></trkpt><trkpt lat="42.2745189" lon="13.4796697"><ele>1122.0</ele><time>2026-04-26T17:19:30.859Z</time></trkpt><trkpt lat="42.274497" lon="13.479402"><ele>1121.0</ele><time>2026-04-26T17:19:31.861Z</time></trkpt><trkpt lat="42.2744747" lon="13.4791429"><ele>1120.0</ele><time>2026-04-26T17:19:32.861Z</time></trkpt><trkpt lat="42.2744518" lon="13.4788959"><ele>1119.0</ele><time>2026-04-26T17:19:33.86Z</time></trkpt><trkpt lat="42.2744265" lon="13.4786584"><ele>1119.0</ele><time>2026-04-26T17:19:34.86Z</time></trkpt><trkpt lat="42.2744118" lon="13.478427"><ele>1119.0</ele><time>2026-04-26T17:19:35.859Z</time></trkpt><trkpt lat="42.2744118" lon="13.4782018"><ele>1119.0</ele><time>2026-04-26T17:19:36.86Z</time></trkpt><trkpt lat="42.2744438" lon="13.4779882"><ele>1118.0</ele><time>2026-04-26T17:19:37.861Z</time></trkpt><trkpt lat="42.2744898" lon="13.4777884"><ele>1117.0</ele><time>2026-04-26T17:19:38.859Z</time></trkpt><trkpt lat="42.2745343" lon="13.4776032"><ele>1116.0</ele><time>2026-04-26T17:19:39.859Z</time></trkpt><trkpt lat="42.2745824" lon="13.4774282"><ele>1115.0</ele><time>2026-04-26T17:19:40.86Z</time></trkpt><trkpt lat="42.274627" lon="13.4772843"><ele>1115.0</ele><time>2026-04-26T17:19:41.86Z</time></trkpt><trkpt lat="42.2746895" lon="13.477138"><ele>1115.0</ele><time>2026-04-26T17:19:42.86Z</time></trkpt><trkpt lat="42.2747784" lon="13.4769984"><ele>1115.0</ele><time>2026-04-26T17:19:43.861Z</time></trkpt><trkpt lat="42.2748921" lon="13.4768907"><ele>1115.0</ele><time>2026-04-26T17:19:44.86Z</time></trkpt><trkpt lat="42.2750251" lon="13.4768331"><ele>1110.0</ele><time>2026-04-26T17:19:45.859Z</time></trkpt><trkpt lat="42.2751632" lon="13.4768044"><ele>1105.0</ele><time>2026-04-26T17:19:46.859Z</time></trkpt><trkpt lat="42.2753213" lon="13.476869"><ele>1100.0</ele><time>2026-04-26T17:19:47.86Z</time></trkpt><trkpt lat="42.2754642" lon="13.4769828"><ele>1099.6666666666667</ele><time>2026-04-26T17:19:48.859Z</time></trkpt><trkpt lat="42.2755814" lon="13.4771396"><ele>1099.3333333333333</ele><time>2026-04-26T17:19:49.859Z</time></trkpt><trkpt lat="42.275656" lon="13.4773178"><ele>1099.0</ele><time>2026-04-26T17:19:50.86Z</time></trkpt><trkpt lat="42.2756832" lon="13.477523"><ele>1097.6666666666665</ele><time>2026-04-26T17:19:51.859Z</time></trkpt><trkpt lat="42.2756689" lon="13.4777449"><ele>1096.3333333333333</ele><time>2026-04-26T17:19:52.859Z</time></trkpt><trkpt lat="42.2756239" lon="13.4779831"><ele>1095.0</ele><time>2026-04-26T17:19:53.86Z</time></trkpt><trkpt lat="42.2755688" lon="13.4782317"><ele>1095.0</ele><time>2026-04-26T17:19:54.86Z</time></trkpt><trkpt lat="42.2755153" lon="13.4784907"><ele>1095.0</ele><time>2026-04-26T17:19:55.86Z</time></trkpt><trkpt lat="42.2754596" lon="13.478763"><ele>1095.0</ele><time>2026-04-26T17:19:56.859Z</time></trkpt><trkpt lat="42.275404" lon="13.4790364"><ele>1095.0</ele><time>2026-04-26T17:19:57.859Z</time></trkpt><trkpt lat="42.2753514" lon="13.4793006"><ele>1095.0</ele><time>2026-04-26T17:19:58.86Z</time></trkpt><trkpt lat="42.2752919" lon="13.4795575"><ele>1095.0</ele><time>2026-04-26T17:19:59.86Z</time></trkpt><trkpt lat="42.2752336" lon="13.4798082"><ele>1095.0</ele><time>2026-04-26T17:20:00.86Z</time></trkpt><trkpt lat="42.2751788" lon="13.4800479"><ele>1095.0</ele><time>2026-04-26T17:20:01.861Z</time></trkpt><trkpt lat="42.2751324" lon="13.4802729"><ele>1095.0</ele><time>2026-04-26T17:20:02.86Z</time></trkpt><trkpt lat="42.2750851" lon="13.4804881"><ele>1094.6666666666667</ele><time>2026-04-26T17:20:03.86Z</time></trkpt><trkpt lat="42.2750282" lon="13.4806902"><ele>1094.3333333333335</ele><time>2026-04-26T17:20:04.86Z</time></trkpt><trkpt lat="42.2749717" lon="13.4808786"><ele>1094.0</ele><time>2026-04-26T17:20:05.859Z</time></trkpt><trkpt lat="42.2749314" lon="13.4810612"><ele>1094.0</ele><time>2026-04-26T17:20:06.859Z</time></trkpt><trkpt lat="42.2749363" lon="13.4812255"><ele>1094.0</ele><time>2026-04-26T17:20:07.86Z</time></trkpt><trkpt lat="42.2749757" lon="13.4813659"><ele>1094.0</ele><time>2026-04-26T17:20:08.86Z</time></trkpt><trkpt lat="42.2750538" lon="13.481456"><ele>1094.0</ele><time>2026-04-26T17:20:09.861Z</time></trkpt><trkpt lat="42.2751494" lon="13.4814868"><ele>1094.0</ele><time>2026-04-26T17:20:10.861Z</time></trkpt><trkpt lat="42.2752478" lon="13.4814443"><ele>1094.0</ele><time>2026-04-26T17:20:11.86Z</time></trkpt><trkpt lat="42.2753223" lon="13.4813432"><ele>1094.0</ele><time>2026-04-26T17:20:12.861Z</time></trkpt><trkpt lat="42.2753752" lon="13.4811983"><ele>1094.0</ele><time>2026-04-26T17:20:13.861Z</time></trkpt><trkpt lat="42.2754325" lon="13.4810229"><ele>1094.0</ele><time>2026-04-26T17:20:14.861Z</time></trkpt><trkpt lat="42.2754977" lon="13.4808218"><ele>1094.0</ele><time>2026-04-26T17:20:15.86Z</time></trkpt><trkpt lat="42.275565" lon="13.4806053"><ele>1094.0</ele><time>2026-04-26T17:20:16.86Z</time></trkpt><trkpt lat="42.275635" lon="13.4803717"><ele>1094.0</ele><time>2026-04-26T17:20:17.86Z</time></trkpt><trkpt lat="42.2757054" lon="13.4801221"><ele>1088.6666666666667</ele><time>2026-04-26T17:20:18.86Z</time></trkpt><trkpt lat="42.2757868" lon="13.4798675"><ele>1083.3333333333333</ele><time>2026-04-26T17:20:19.86Z</time></trkpt><trkpt lat="42.2758859" lon="13.4796086"><ele>1078.0</ele><time>2026-04-26T17:20:20.861Z</time></trkpt><trkpt lat="42.2759816" lon="13.4793242"><ele>1078.0</ele><time>2026-04-26T17:20:21.86Z</time></trkpt><trkpt lat="42.2760627" lon="13.479023"><ele>1078.0</ele><time>2026-04-26T17:20:22.86Z</time></trkpt><trkpt lat="42.2761386" lon="13.4787127"><ele>1082.5</ele><time>2026-04-26T17:20:23.859Z</time></trkpt><trkpt lat="42.2762054" lon="13.4783924"><ele>1087.0</ele><time>2026-04-26T17:20:24.859Z</time></trkpt><trkpt lat="42.2762764" lon="13.4780903"><ele>1087.5</ele><time>2026-04-26T17:20:25.86Z</time></trkpt><trkpt lat="42.276347" lon="13.4777958"><ele>1088.0</ele><time>2026-04-26T17:20:26.86Z</time></trkpt><trkpt lat="42.2764138" lon="13.4775081"><ele>1075.6666666666667</ele><time>2026-04-26T17:20:27.86Z</time></trkpt><trkpt lat="42.2764819" lon="13.477223"><ele>1063.3333333333333</ele><time>2026-04-26T17:20:28.859Z</time></trkpt><trkpt lat="42.2765524" lon="13.4769379"><ele>1051.0</ele><time>2026-04-26T17:20:29.86Z</time></trkpt><trkpt lat="42.2766151" lon="13.4766603"><ele>1051.0</ele><time>2026-04-26T17:20:30.86Z</time></trkpt><trkpt lat="42.2766744" lon="13.4763802"><ele>1051.0</ele><time>2026-04-26T17:20:31.859Z</time></trkpt><trkpt lat="42.2767259" lon="13.4760996"><ele>1051.0</ele><time>2026-04-26T17:20:32.861Z</time></trkpt><trkpt lat="42.2767698" lon="13.4758253"><ele>1054.3333333333333</ele><time>2026-04-26T17:20:33.861Z</time></trkpt><trkpt lat="42.2768103" lon="13.4755543"><ele>1057.6666666666667</ele><time>2026-04-26T17:20:34.86Z</time></trkpt><trkpt lat="42.2768485" lon="13.4752917"><ele>1061.0</ele><time>2026-04-26T17:20:35.859Z</time></trkpt><trkpt lat="42.276885" lon="13.4750367"><ele>1062.0</ele><time>2026-04-26T17:20:36.861Z</time></trkpt><trkpt lat="42.2769179" lon="13.4747852"><ele>1063.0</ele><time>2026-04-26T17:20:37.86Z</time></trkpt><trkpt lat="42.276947" lon="13.4745419"><ele>1064.0</ele><time>2026-04-26T17:20:38.859Z</time></trkpt><trkpt lat="42.2769712" lon="13.4743022"><ele>1065.6666666666667</ele><time>2026-04-26T17:20:39.86Z</time></trkpt><trkpt lat="42.2769839" lon="13.4740744"><ele>1067.3333333333333</ele><time>2026-04-26T17:20:40.859Z</time></trkpt><trkpt lat="42.2769889" lon="13.4738503"><ele>1069.0</ele><time>2026-04-26T17:20:41.859Z</time></trkpt><trkpt lat="42.2769948" lon="13.4736334"><ele>1069.3333333333333</ele><time>2026-04-26T17:20:42.861Z</time></trkpt><trkpt lat="42.2770035" lon="13.4734262"><ele>1069.6666666666667</ele><time>2026-04-26T17:20:43.861Z</time></trkpt><trkpt lat="42.2770158" lon="13.4732048"><ele>1070.0</ele><time>2026-04-26T17:20:44.86Z</time></trkpt><trkpt lat="42.2770372" lon="13.4729645"><ele>1072.6666666666667</ele><time>2026-04-26T17:20:45.86Z</time></trkpt><trkpt lat="42.2770758" lon="13.4727041"><ele>1075.3333333333333</ele><time>2026-04-26T17:20:46.859Z</time></trkpt><trkpt lat="42.27713" lon="13.4724253"><ele>1078.0</ele><time>2026-04-26T17:20:47.86Z</time></trkpt><trkpt lat="42.2771825" lon="13.472137"><ele>1079.0</ele><time>2026-04-26T17:20:48.86Z</time></trkpt><trkpt lat="42.2772447" lon="13.4718301"><ele>1080.0</ele><time>2026-04-26T17:20:49.86Z</time></trkpt><trkpt lat="42.2773031" lon="13.471532"><ele>1060.6666666666667</ele><time>2026-04-26T17:20:50.86Z</time></trkpt><trkpt lat="42.2773577" lon="13.471247"><ele>1041.3333333333335</ele><time>2026-04-26T17:20:51.859Z</time></trkpt><trkpt lat="42.277417" lon="13.470979"><ele>1022.0</ele><time>2026-04-26T17:20:52.859Z</time></trkpt><trkpt lat="42.2774682" lon="13.4707277"><ele>1022.0</ele><time>2026-04-26T17:20:53.86Z</time></trkpt><trkpt lat="42.2775186" lon="13.4704865"><ele>1022.0</ele><time>2026-04-26T17:20:54.86Z</time></trkpt><trkpt lat="42.2775638" lon="13.4702444"><ele>1022.0</ele><time>2026-04-26T17:20:55.859Z</time></trkpt><trkpt lat="42.277602" lon="13.4699899"><ele>1025.3333333333335</ele><time>2026-04-26T17:20:56.86Z</time></trkpt><trkpt lat="42.2776312" lon="13.4697043"><ele>1028.6666666666667</ele><time>2026-04-26T17:20:57.86Z</time></trkpt><trkpt lat="42.2776661" lon="13.4694127"><ele>1032.0</ele><time>2026-04-26T17:20:58.86Z</time></trkpt><trkpt lat="42.277696" lon="13.4691049"><ele>1033.0</ele><time>2026-04-26T17:20:59.86Z</time></trkpt><trkpt lat="42.2777254" lon="13.4687798"><ele>1034.0</ele><time>2026-04-26T17:21:00.859Z</time></trkpt><trkpt lat="42.2777536" lon="13.4684413"><ele>1032.5</ele><time>2026-04-26T17:21:01.86Z</time></trkpt><trkpt lat="42.2777873" lon="13.4680895"><ele>1031.0</ele><time>2026-04-26T17:21:02.86Z</time></trkpt><trkpt lat="42.2778107" lon="13.4677474"><ele>1031.0</ele><time>2026-04-26T17:21:03.86Z</time></trkpt><trkpt lat="42.2778423" lon="13.4674302"><ele>1031.0</ele><time>2026-04-26T17:21:04.861Z</time></trkpt><trkpt lat="42.2778721" lon="13.4671156"><ele>1030.5</ele><time>2026-04-26T17:21:05.86Z</time></trkpt><trkpt lat="42.277899" lon="13.4668112"><ele>1030.0</ele><time>2026-04-26T17:21:06.861Z</time></trkpt><trkpt lat="42.2779281" lon="13.4665006"><ele>1028.3333333333333</ele><time>2026-04-26T17:21:07.86Z</time></trkpt><trkpt lat="42.2779561" lon="13.4662003"><ele>1026.6666666666667</ele><time>2026-04-26T17:21:08.86Z</time></trkpt><trkpt lat="42.2779843" lon="13.4659154"><ele>1025.0</ele><time>2026-04-26T17:21:09.86Z</time></trkpt><trkpt lat="42.2780154" lon="13.4656394"><ele>1022.6666666666667</ele><time>2026-04-26T17:21:10.86Z</time></trkpt><trkpt lat="42.2780504" lon="13.4653758"><ele>1020.3333333333333</ele><time>2026-04-26T17:21:11.861Z</time></trkpt><trkpt lat="42.2780911" lon="13.4651195"><ele>1018.0</ele><time>2026-04-26T17:21:12.861Z</time></trkpt><trkpt lat="42.2781339" lon="13.4648796"><ele>1005.6666666666666</ele><time>2026-04-26T17:21:13.86Z</time></trkpt><trkpt lat="42.2781719" lon="13.4646419"><ele>993.3333333333333</ele><time>2026-04-26T17:21:14.859Z</time></trkpt><trkpt lat="42.278197" lon="13.4643972"><ele>981.0</ele><time>2026-04-26T17:21:15.859Z</time></trkpt><trkpt lat="42.2782006" lon="13.4641442"><ele>981.6666666666667</ele><time>2026-04-26T17:21:16.859Z</time></trkpt><trkpt lat="42.2781856" lon="13.4638864"><ele>982.3333333333334</ele><time>2026-04-26T17:21:17.859Z</time></trkpt><trkpt lat="42.2781455" lon="13.4636294"><ele>983.0</ele><time>2026-04-26T17:21:18.861Z</time></trkpt><trkpt lat="42.2780978" lon="13.4633786"><ele>983.0</ele><time>2026-04-26T17:21:19.861Z</time></trkpt><trkpt lat="42.2780508" lon="13.4631346"><ele>983.0</ele><time>2026-04-26T17:21:20.861Z</time></trkpt><trkpt lat="42.2780091" lon="13.462901"><ele>983.0</ele><time>2026-04-26T17:21:21.859Z</time></trkpt><trkpt lat="42.2779779" lon="13.462678"><ele>984.0</ele><time>2026-04-26T17:21:22.859Z</time></trkpt><trkpt lat="42.2779627" lon="13.4624669"><ele>985.0</ele><time>2026-04-26T17:21:23.861Z</time></trkpt><trkpt lat="42.2779672" lon="13.4622656"><ele>986.0</ele><time>2026-04-26T17:21:24.859Z</time></trkpt><trkpt lat="42.2780018" lon="13.4620585"><ele>986.0</ele><time>2026-04-26T17:21:25.86Z</time></trkpt><trkpt lat="42.2780599" lon="13.4618486"><ele>986.0</ele><time>2026-04-26T17:21:26.86Z</time></trkpt><trkpt lat="42.2781369" lon="13.4616341"><ele>986.0</ele><time>2026-04-26T17:21:27.859Z</time></trkpt><trkpt lat="42.2782124" lon="13.4614107"><ele>980.0</ele><time>2026-04-26T17:21:28.859Z</time></trkpt><trkpt lat="42.2782861" lon="13.4611802"><ele>974.0</ele><time>2026-04-26T17:21:29.859Z</time></trkpt><trkpt lat="42.2783619" lon="13.4609457"><ele>968.0</ele><time>2026-04-26T17:21:30.86Z</time></trkpt><trkpt lat="42.2784552" lon="13.4607174"><ele>968.0</ele><time>2026-04-26T17:21:31.859Z</time></trkpt><trkpt lat="42.2785762" lon="13.4604967"><ele>968.0</ele><time>2026-04-26T17:21:32.861Z</time></trkpt><trkpt lat="42.2787289" lon="13.4602982"><ele>968.0</ele><time>2026-04-26T17:21:33.86Z</time></trkpt><trkpt lat="42.278901" lon="13.460118"><ele>964.0</ele><time>2026-04-26T17:21:34.86Z</time></trkpt><trkpt lat="42.2790925" lon="13.459944"><ele>960.0</ele><time>2026-04-26T17:21:35.86Z</time></trkpt><trkpt lat="42.2792938" lon="13.4597818"><ele>960.0</ele><time>2026-04-26T17:21:36.859Z</time></trkpt><trkpt lat="42.279491" lon="13.4596457"><ele>960.0</ele><time>2026-04-26T17:21:37.859Z</time></trkpt><trkpt lat="42.2796975" lon="13.4595515"><ele>960.0</ele><time>2026-04-26T17:21:38.859Z</time></trkpt><trkpt lat="42.2798998" lon="13.459501"><ele>962.6666666666667</ele><time>2026-04-26T17:21:39.86Z</time></trkpt><trkpt lat="42.2800959" lon="13.4594959"><ele>965.3333333333334</ele><time>2026-04-26T17:21:40.859Z</time></trkpt><trkpt lat="42.280283" lon="13.4595116"><ele>968.0</ele><time>2026-04-26T17:21:41.861Z</time></trkpt><trkpt lat="42.2804566" lon="13.4595112"><ele>963.6666666666667</ele><time>2026-04-26T17:21:42.859Z</time></trkpt><trkpt lat="42.2806269" lon="13.4594747"><ele>959.3333333333333</ele><time>2026-04-26T17:21:43.859Z</time></trkpt><trkpt lat="42.280784" lon="13.4593753"><ele>955.0</ele><time>2026-04-26T17:21:44.861Z</time></trkpt><trkpt lat="42.2809265" lon="13.4592249"><ele>955.0</ele><time>2026-04-26T17:21:45.859Z</time></trkpt><trkpt lat="42.2810511" lon="13.4590298"><ele>955.0</ele><time>2026-04-26T17:21:46.86Z</time></trkpt><trkpt lat="42.2811597" lon="13.4588425"><ele>955.0</ele><time>2026-04-26T17:21:47.861Z</time></trkpt><trkpt lat="42.2812419" lon="13.4585636"><ele>959.0</ele><time>2026-04-26T17:21:48.859Z</time></trkpt><trkpt lat="42.2813071" lon="13.458323"><ele>963.0</ele><time>2026-04-26T17:21:49.86Z</time></trkpt><trkpt lat="42.2813632" lon="13.4580835"><ele>967.0</ele><time>2026-04-26T17:21:50.861Z</time></trkpt><trkpt lat="42.2814264" lon="13.4578476"><ele>959.6666666666666</ele><time>2026-04-26T17:21:51.859Z</time></trkpt><trkpt lat="42.2815447" lon="13.4576692"><ele>952.3333333333333</ele><time>2026-04-26T17:21:52.861Z</time></trkpt><trkpt lat="42.2816857" lon="13.4575014"><ele>945.0</ele><time>2026-04-26T17:21:53.86Z</time></trkpt><trkpt lat="42.2818422" lon="13.4573463"><ele>945.0</ele><time>2026-04-26T17:21:54.861Z</time></trkpt><trkpt lat="42.2819802" lon="13.4571828"><ele>945.0</ele><time>2026-04-26T17:21:55.861Z</time></trkpt><trkpt lat="42.2820977" lon="13.4569798"><ele>945.0</ele><time>2026-04-26T17:21:56.86Z</time></trkpt><trkpt lat="42.2821917" lon="13.4567617"><ele>945.3333333333333</ele><time>2026-04-26T17:21:57.86Z</time></trkpt><trkpt lat="42.282283" lon="13.4565313"><ele>945.6666666666666</ele><time>2026-04-26T17:21:58.86Z</time></trkpt><trkpt lat="42.2823968" lon="13.4563067"><ele>946.0</ele><time>2026-04-26T17:21:59.861Z</time></trkpt><trkpt lat="42.2825425" lon="13.4560989"><ele>946.0</ele><time>2026-04-26T17:22:00.86Z</time></trkpt><trkpt lat="42.2826995" lon="13.4559025"><ele>946.0</ele><time>2026-04-26T17:22:01.86Z</time></trkpt><trkpt lat="42.282885" lon="13.4557061"><ele>946.0</ele><time>2026-04-26T17:22:02.861Z</time></trkpt><trkpt lat="42.2830854" lon="13.4555294"><ele>946.0</ele><time>2026-04-26T17:22:03.86Z</time></trkpt><trkpt lat="42.2833002" lon="13.4553676"><ele>942.0</ele><time>2026-04-26T17:22:04.86Z</time></trkpt><trkpt lat="42.2835164" lon="13.4552134"><ele>938.0</ele><time>2026-04-26T17:22:05.861Z</time></trkpt><trkpt lat="42.2837212" lon="13.455061"><ele>938.0</ele><time>2026-04-26T17:22:06.86Z</time></trkpt><trkpt lat="42.2839036" lon="13.4549073"><ele>938.0</ele><time>2026-04-26T17:22:07.861Z</time></trkpt><trkpt lat="42.2840779" lon="13.4547531"><ele>938.0</ele><time>2026-04-26T17:22:08.86Z</time></trkpt><trkpt lat="42.2842533" lon="13.4546173"><ele>938.0</ele><time>2026-04-26T17:22:09.86Z</time></trkpt><trkpt lat="42.2844487" lon="13.4545271"><ele>938.0</ele><time>2026-04-26T17:22:10.86Z</time></trkpt><trkpt lat="42.2846486" lon="13.4544536"><ele>938.0</ele><time>2026-04-26T17:22:11.86Z</time></trkpt><trkpt lat="42.284845" lon="13.4543752"><ele>932.6666666666667</ele><time>2026-04-26T17:22:12.859Z</time></trkpt><trkpt lat="42.2850392" lon="13.4542591"><ele>927.3333333333333</ele><time>2026-04-26T17:22:13.859Z</time></trkpt><trkpt lat="42.2852261" lon="13.4541149"><ele>922.0</ele><time>2026-04-26T17:22:14.859Z</time></trkpt><trkpt lat="42.2853941" lon="13.4539562"><ele>920.3333333333333</ele><time>2026-04-26T17:22:15.861Z</time></trkpt><trkpt lat="42.2855439" lon="13.4537799"><ele>918.6666666666667</ele><time>2026-04-26T17:22:16.861Z</time></trkpt><trkpt lat="42.2856601" lon="13.4535951"><ele>917.0</ele><time>2026-04-26T17:22:17.86Z</time></trkpt><trkpt lat="42.2857481" lon="13.4534047"><ele>917.0</ele><time>2026-04-26T17:22:18.859Z</time></trkpt><trkpt lat="42.2858179" lon="13.4532389"><ele>917.0</ele><time>2026-04-26T17:22:19.859Z</time></trkpt><trkpt lat="42.2858883" lon="13.4531128"><ele>917.0</ele><time>2026-04-26T17:22:20.859Z</time></trkpt><trkpt lat="42.2859674" lon="13.4530457"><ele>917.0</ele><time>2026-04-26T17:22:21.859Z</time></trkpt><trkpt lat="42.2860463" lon="13.4530388"><ele>917.0</ele><time>2026-04-26T17:22:22.859Z</time></trkpt><trkpt lat="42.2861249" lon="13.4530502"><ele>917.0</ele><time>2026-04-26T17:22:23.86Z</time></trkpt><trkpt lat="42.2861268" lon="13.4532208"><ele>917.0</ele><time>2026-04-26T17:22:24.86Z</time></trkpt><trkpt lat="42.2861052" lon="13.4533265"><ele>917.0</ele><time>2026-04-26T17:22:25.86Z</time></trkpt><trkpt lat="42.2860509" lon="13.4534526"><ele>917.0</ele><time>2026-04-26T17:22:26.86Z</time></trkpt><trkpt lat="42.285989" lon="13.4536077"><ele>917.0</ele><time>2026-04-26T17:22:27.861Z</time></trkpt><trkpt lat="42.2859252" lon="13.4537822"><ele>913.6666666666667</ele><time>2026-04-26T17:22:28.861Z</time></trkpt><trkpt lat="42.2858584" lon="13.4539825"><ele>910.3333333333333</ele><time>2026-04-26T17:22:29.859Z</time></trkpt><trkpt lat="42.2857934" lon="13.4541997"><ele>907.0</ele><time>2026-04-26T17:22:30.859Z</time></trkpt><trkpt lat="42.2857112" lon="13.4544146"><ele>908.3333333333333</ele><time>2026-04-26T17:22:31.861Z</time></trkpt><trkpt lat="42.2856196" lon="13.4546298"><ele>909.6666666666667</ele><time>2026-04-26T17:22:32.86Z</time></trkpt><trkpt lat="42.285528" lon="13.4548372"><ele>911.0</ele><time>2026-04-26T17:22:33.859Z</time></trkpt><trkpt lat="42.2854359" lon="13.45504"><ele>911.0</ele><time>2026-04-26T17:22:34.86Z</time></trkpt><trkpt lat="42.2853303" lon="13.4552125"><ele>911.0</ele><time>2026-04-26T17:22:35.86Z</time></trkpt><trkpt lat="42.2852113" lon="13.4553557"><ele>911.0</ele><time>2026-04-26T17:22:36.86Z</time></trkpt><trkpt lat="42.2850811" lon="13.4554558"><ele>908.8</ele><time>2026-04-26T17:22:37.86Z</time></trkpt><trkpt lat="42.284961" lon="13.4555312"><ele>906.5999999999999</ele><time>2026-04-26T17:22:38.859Z</time></trkpt><trkpt lat="42.2848667" lon="13.4556167"><ele>904.4</ele><time>2026-04-26T17:22:39.859Z</time></trkpt><trkpt lat="42.2848175" lon="13.4557295"><ele>902.2</ele><time>2026-04-26T17:22:40.859Z</time></trkpt><trkpt lat="42.2848099" lon="13.4558427"><ele>900.0</ele><time>2026-04-26T17:22:41.86Z</time></trkpt><trkpt lat="42.2848513" lon="13.4559327"><ele>900.0</ele><time>2026-04-26T17:22:42.86Z</time></trkpt><trkpt lat="42.2849264" lon="13.4559968"><ele>900.0</ele><time>2026-04-26T17:22:43.861Z</time></trkpt><trkpt lat="42.2850239" lon="13.4560113"><ele>900.0</ele><time>2026-04-26T17:22:44.86Z</time></trkpt><trkpt lat="42.2851371" lon="13.4559828"><ele>900.0</ele><time>2026-04-26T17:22:45.861Z</time></trkpt><trkpt lat="42.2852638" lon="13.4559147"><ele>900.0</ele><time>2026-04-26T17:22:46.86Z</time></trkpt><trkpt lat="42.2853999" lon="13.4558215"><ele>900.0</ele><time>2026-04-26T17:22:47.859Z</time></trkpt><trkpt lat="42.285542" lon="13.4557075"><ele>900.0</ele><time>2026-04-26T17:22:48.859Z</time></trkpt><trkpt lat="42.2856942" lon="13.4555776"><ele>900.0</ele><time>2026-04-26T17:22:49.861Z</time></trkpt><trkpt lat="42.2858561" lon="13.4554448"><ele>898.6666666666667</ele><time>2026-04-26T17:22:50.859Z</time></trkpt><trkpt lat="42.286032" lon="13.4553106"><ele>897.3333333333334</ele><time>2026-04-26T17:22:51.86Z</time></trkpt><trkpt lat="42.2862052" lon="13.4551679"><ele>896.0</ele><time>2026-04-26T17:22:52.86Z</time></trkpt><trkpt lat="42.2863797" lon="13.4550204"><ele>891.6666666666667</ele><time>2026-04-26T17:22:53.86Z</time></trkpt><trkpt lat="42.2865484" lon="13.4548836"><ele>887.3333333333333</ele><time>2026-04-26T17:22:54.86Z</time></trkpt><trkpt lat="42.286718" lon="13.4547521"><ele>883.0</ele><time>2026-04-26T17:22:55.861Z</time></trkpt><trkpt lat="42.2868767" lon="13.4546233"><ele>880.6666666666666</ele><time>2026-04-26T17:22:56.86Z</time></trkpt><trkpt lat="42.2870285" lon="13.4544926"><ele>878.3333333333333</ele><time>2026-04-26T17:22:57.859Z</time></trkpt><trkpt lat="42.2871661" lon="13.454347"><ele>876.0</ele><time>2026-04-26T17:22:58.86Z</time></trkpt><trkpt lat="42.2872814" lon="13.4541843"><ele>876.0</ele><time>2026-04-26T17:22:59.86Z</time></trkpt><trkpt lat="42.2873592" lon="13.4539965"><ele>876.0</ele><time>2026-04-26T17:23:00.86Z</time></trkpt><trkpt lat="42.2874013" lon="13.4537795"><ele>876.0</ele><time>2026-04-26T17:23:01.861Z</time></trkpt><trkpt lat="42.2874124" lon="13.4535407"><ele>876.0</ele><time>2026-04-26T17:23:02.861Z</time></trkpt><trkpt lat="42.2874198" lon="13.4532945"><ele>876.0</ele><time>2026-04-26T17:23:03.86Z</time></trkpt><trkpt lat="42.2874529" lon="13.4530618"><ele>876.0</ele><time>2026-04-26T17:23:04.859Z</time></trkpt><trkpt lat="42.2875176" lon="13.4528423"><ele>877.0</ele><time>2026-04-26T17:23:05.86Z</time></trkpt><trkpt lat="42.2876066" lon="13.4526282"><ele>878.0</ele><time>2026-04-26T17:23:06.86Z</time></trkpt><trkpt lat="42.2877176" lon="13.4524146"><ele>879.0</ele><time>2026-04-26T17:23:07.859Z</time></trkpt><trkpt lat="42.2878373" lon="13.4522116"><ele>875.3333333333333</ele><time>2026-04-26T17:23:08.86Z</time></trkpt><trkpt lat="42.2879638" lon="13.4520098"><ele>871.6666666666666</ele><time>2026-04-26T17:23:09.861Z</time></trkpt><trkpt lat="42.2880835" lon="13.4518101"><ele>868.0</ele><time>2026-04-26T17:23:10.861Z</time></trkpt><trkpt lat="42.288202" lon="13.4516467"><ele>868.0</ele><time>2026-04-26T17:23:11.86Z</time></trkpt><trkpt lat="42.2883256" lon="13.4515215"><ele>868.0</ele><time>2026-04-26T17:23:12.86Z</time></trkpt><trkpt lat="42.2884707" lon="13.4514335"><ele>868.0</ele><time>2026-04-26T17:23:13.861Z</time></trkpt><trkpt lat="42.2886344" lon="13.4513968"><ele>868.0</ele><time>2026-04-26T17:23:14.86Z</time></trkpt><trkpt lat="42.2887938" lon="13.4513429"><ele>868.0</ele><time>2026-04-26T17:23:15.86Z</time></trkpt><trkpt lat="42.2889483" lon="13.4512576"><ele>868.0</ele><time>2026-04-26T17:23:16.861Z</time></trkpt><trkpt lat="42.2891042" lon="13.4511202"><ele>866.6666666666666</ele><time>2026-04-26T17:23:17.86Z</time></trkpt><trkpt lat="42.2892444" lon="13.4509113"><ele>865.3333333333333</ele><time>2026-04-26T17:23:18.86Z</time></trkpt><trkpt lat="42.2893818" lon="13.4507326"><ele>864.0</ele><time>2026-04-26T17:23:19.86Z</time></trkpt><trkpt lat="42.2895339" lon="13.4505914"><ele>864.0</ele><time>2026-04-26T17:23:20.861Z</time></trkpt><trkpt lat="42.2897011" lon="13.4504743"><ele>864.0</ele><time>2026-04-26T17:23:21.86Z</time></trkpt><trkpt lat="42.2898581" lon="13.4503628"><ele>864.0</ele><time>2026-04-26T17:23:22.86Z</time></trkpt><trkpt lat="42.2899993" lon="13.450234"><ele>861.3333333333333</ele><time>2026-04-26T17:23:23.861Z</time></trkpt><trkpt lat="42.2901123" lon="13.4500782"><ele>858.6666666666666</ele><time>2026-04-26T17:23:24.861Z</time></trkpt><trkpt lat="42.2902062" lon="13.4499241"><ele>856.0</ele><time>2026-04-26T17:23:25.859Z</time></trkpt><trkpt lat="42.2902948" lon="13.4497728"><ele>856.0</ele><time>2026-04-26T17:23:26.861Z</time></trkpt><trkpt lat="42.2903925" lon="13.4496354"><ele>856.0</ele><time>2026-04-26T17:23:27.86Z</time></trkpt><trkpt lat="42.2904841" lon="13.4495164"><ele>856.0</ele><time>2026-04-26T17:23:28.86Z</time></trkpt><trkpt lat="42.2905833" lon="13.4494176"><ele>856.0</ele><time>2026-04-26T17:23:29.86Z</time></trkpt><trkpt lat="42.2906712" lon="13.4493287"><ele>856.25</ele><time>2026-04-26T17:23:30.861Z</time></trkpt><trkpt lat="42.2907757" lon="13.4492756"><ele>856.5</ele><time>2026-04-26T17:23:31.86Z</time></trkpt><trkpt lat="42.2908945" lon="13.4492418"><ele>856.75</ele><time>2026-04-26T17:23:32.86Z</time></trkpt><trkpt lat="42.2910099" lon="13.4492445"><ele>857.0</ele><time>2026-04-26T17:23:33.86Z</time></trkpt><trkpt lat="42.2911239" lon="13.4492898"><ele>857.0</ele><time>2026-04-26T17:23:34.86Z</time></trkpt><trkpt lat="42.2912377" lon="13.449363"><ele>857.0</ele><time>2026-04-26T17:23:35.86Z</time></trkpt><trkpt lat="42.2913438" lon="13.4494585"><ele>857.0</ele><time>2026-04-26T17:23:36.859Z</time></trkpt><trkpt lat="42.2914455" lon="13.4495561"><ele>857.0</ele><time>2026-04-26T17:23:37.86Z</time></trkpt><trkpt lat="42.2915492" lon="13.4496557"><ele>854.0</ele><time>2026-04-26T17:23:38.86Z</time></trkpt><trkpt lat="42.2916575" lon="13.4497539"><ele>851.0</ele><time>2026-04-26T17:23:39.859Z</time></trkpt><trkpt lat="42.291771" lon="13.4498269"><ele>848.0</ele><time>2026-04-26T17:23:40.86Z</time></trkpt><trkpt lat="42.2918896" lon="13.449879"><ele>845.0</ele><time>2026-04-26T17:23:41.859Z</time></trkpt><trkpt lat="42.2920113" lon="13.4499159"><ele>845.0</ele><time>2026-04-26T17:23:42.86Z</time></trkpt><trkpt lat="42.292133" lon="13.4499489"><ele>845.0</ele><time>2026-04-26T17:23:43.859Z</time></trkpt><trkpt lat="42.2922488" lon="13.4499878"><ele>845.0</ele><time>2026-04-26T17:23:44.86Z</time></trkpt><trkpt lat="42.2923575" lon="13.4500215"><ele>845.0</ele><time>2026-04-26T17:23:45.861Z</time></trkpt><trkpt lat="42.2924693" lon="13.4500439"><ele>844.0</ele><time>2026-04-26T17:23:46.861Z</time></trkpt><trkpt lat="42.2925832" lon="13.450029"><ele>843.0</ele><time>2026-04-26T17:23:47.86Z</time></trkpt><trkpt lat="42.2926947" lon="13.449972"><ele>842.0</ele><time>2026-04-26T17:23:48.859Z</time></trkpt><trkpt lat="42.292791" lon="13.4498775"><ele>841.0</ele><time>2026-04-26T17:23:49.86Z</time></trkpt><trkpt lat="42.2928868" lon="13.4497732"><ele>841.0</ele><time>2026-04-26T17:23:50.86Z</time></trkpt><trkpt lat="42.2929875" lon="13.4496767"><ele>841.0</ele><time>2026-04-26T17:23:51.859Z</time></trkpt><trkpt lat="42.2931081" lon="13.4495907"><ele>841.0</ele><time>2026-04-26T17:23:52.86Z</time></trkpt><trkpt lat="42.2932395" lon="13.4495275"><ele>841.0</ele><time>2026-04-26T17:23:53.86Z</time></trkpt><trkpt lat="42.2933815" lon="13.4494925"><ele>841.3333333333333</ele><time>2026-04-26T17:23:54.86Z</time></trkpt><trkpt lat="42.2935305" lon="13.4494621"><ele>841.6666666666667</ele><time>2026-04-26T17:23:55.86Z</time></trkpt><trkpt lat="42.2936814" lon="13.449425"><ele>842.0</ele><time>2026-04-26T17:23:56.86Z</time></trkpt><trkpt lat="42.2938438" lon="13.4493758"><ele>839.3333333333334</ele><time>2026-04-26T17:23:57.861Z</time></trkpt><trkpt lat="42.2940268" lon="13.4493201"><ele>836.6666666666667</ele><time>2026-04-26T17:23:58.86Z</time></trkpt><trkpt lat="42.2942234" lon="13.4492806"><ele>834.0</ele><time>2026-04-26T17:23:59.859Z</time></trkpt><trkpt lat="42.2944227" lon="13.4492698"><ele>834.0</ele><time>2026-04-26T17:24:00.86Z</time></trkpt><trkpt lat="42.2946093" lon="13.4492662"><ele>834.0</ele><time>2026-04-26T17:24:01.86Z</time></trkpt><trkpt lat="42.2947879" lon="13.4492441"><ele>834.0</ele><time>2026-04-26T17:24:02.86Z</time></trkpt><trkpt lat="42.2949589" lon="13.4491855"><ele>831.3333333333333</ele><time>2026-04-26T17:24:03.859Z</time></trkpt><trkpt lat="42.2951228" lon="13.4491055"><ele>828.6666666666666</ele><time>2026-04-26T17:24:04.861Z</time></trkpt><trkpt lat="42.2952442" lon="13.4489882"><ele>826.0</ele><time>2026-04-26T17:24:05.86Z</time></trkpt><trkpt lat="42.2953304" lon="13.4488523"><ele>828.0</ele><time>2026-04-26T17:24:06.86Z</time></trkpt><trkpt lat="42.2953613" lon="13.4486795"><ele>830.0</ele><time>2026-04-26T17:24:07.86Z</time></trkpt><trkpt lat="42.295357" lon="13.448503"><ele>832.0</ele><time>2026-04-26T17:24:08.86Z</time></trkpt><trkpt lat="42.2953489" lon="13.4483049"><ele>834.0</ele><time>2026-04-26T17:24:09.86Z</time></trkpt><trkpt lat="42.2953677" lon="13.4481095"><ele>835.3333333333333</ele><time>2026-04-26T17:24:10.86Z</time></trkpt><trkpt lat="42.2954227" lon="13.4479174"><ele>836.6666666666666</ele><time>2026-04-26T17:24:11.86Z</time></trkpt><trkpt lat="42.2955165" lon="13.4477353"><ele>838.0</ele><time>2026-04-26T17:24:12.861Z</time></trkpt><trkpt lat="42.295626" lon="13.4475793"><ele>832.0</ele><time>2026-04-26T17:24:13.86Z</time></trkpt><trkpt lat="42.2957438" lon="13.447458"><ele>826.0</ele><time>2026-04-26T17:24:14.86Z</time></trkpt><trkpt lat="42.2958723" lon="13.447378"><ele>820.0</ele><time>2026-04-26T17:24:15.859Z</time></trkpt><trkpt lat="42.2959934" lon="13.4473091"><ele>814.0</ele><time>2026-04-26T17:24:16.86Z</time></trkpt><trkpt lat="42.2960988" lon="13.4472933"><ele>814.0</ele><time>2026-04-26T17:24:17.86Z</time></trkpt><trkpt lat="42.2961879" lon="13.4473237"><ele>814.0</ele><time>2026-04-26T17:24:18.86Z</time></trkpt><trkpt lat="42.2962537" lon="13.4473822"><ele>814.0</ele><time>2026-04-26T17:24:19.861Z</time></trkpt><trkpt lat="42.2962035" lon="13.4475002"><ele>814.0</ele><time>2026-04-26T17:24:20.86Z</time></trkpt><trkpt lat="42.2961306" lon="13.447593"><ele>814.0</ele><time>2026-04-26T17:24:21.86Z</time></trkpt><trkpt lat="42.2960488" lon="13.4476959"><ele>814.0</ele><time>2026-04-26T17:24:22.86Z</time></trkpt><trkpt lat="42.2959575" lon="13.4478098"><ele>814.0</ele><time>2026-04-26T17:24:23.859Z</time></trkpt><trkpt lat="42.2958626" lon="13.4479363"><ele>814.0</ele><time>2026-04-26T17:24:24.86Z</time></trkpt><trkpt lat="42.2957979" lon="13.4481048"><ele>814.0</ele><time>2026-04-26T17:24:25.86Z</time></trkpt><trkpt lat="42.2957719" lon="13.4483059"><ele>812.0</ele><time>2026-04-26T17:24:26.861Z</time></trkpt><trkpt lat="42.2957732" lon="13.4485378"><ele>810.0</ele><time>2026-04-26T17:24:27.86Z</time></trkpt><trkpt lat="42.2957917" lon="13.4487769"><ele>808.0</ele><time>2026-04-26T17:24:28.859Z</time></trkpt><trkpt lat="42.2958063" lon="13.4490269"><ele>806.3333333333333</ele><time>2026-04-26T17:24:29.86Z</time></trkpt><trkpt lat="42.2958026" lon="13.4492916"><ele>804.6666666666667</ele><time>2026-04-26T17:24:30.861Z</time></trkpt><trkpt lat="42.2957741" lon="13.4495582"><ele>803.0</ele><time>2026-04-26T17:24:31.86Z</time></trkpt><trkpt lat="42.2957433" lon="13.4498073"><ele>801.3333333333334</ele><time>2026-04-26T17:24:32.86Z</time></trkpt><trkpt lat="42.2957128" lon="13.4500639"><ele>799.6666666666667</ele><time>2026-04-26T17:24:33.859Z</time></trkpt><trkpt lat="42.295606" lon="13.4502982"><ele>798.0</ele><time>2026-04-26T17:24:34.86Z</time></trkpt><trkpt lat="42.2954886" lon="13.4505171"><ele>798.0</ele><time>2026-04-26T17:24:35.859Z</time></trkpt><trkpt lat="42.2953635" lon="13.4507187"><ele>798.0</ele><time>2026-04-26T17:24:36.861Z</time></trkpt><trkpt lat="42.295228" lon="13.4509118"><ele>798.0</ele><time>2026-04-26T17:24:37.861Z</time></trkpt><trkpt lat="42.2951107" lon="13.45108"><ele>798.0</ele><time>2026-04-26T17:24:38.861Z</time></trkpt><trkpt lat="42.2950114" lon="13.4512277"><ele>798.0</ele><time>2026-04-26T17:24:39.859Z</time></trkpt><trkpt lat="42.2949408" lon="13.45136"><ele>798.0</ele><time>2026-04-26T17:24:40.86Z</time></trkpt><trkpt lat="42.2949111" lon="13.4514909"><ele>798.0</ele><time>2026-04-26T17:24:41.86Z</time></trkpt><trkpt lat="42.2949278" lon="13.4516134"><ele>795.8</ele><time>2026-04-26T17:24:42.86Z</time></trkpt><trkpt lat="42.294986" lon="13.4517026"><ele>793.5999999999999</ele><time>2026-04-26T17:24:43.859Z</time></trkpt><trkpt lat="42.2950736" lon="13.451742"><ele>791.4000000000001</ele><time>2026-04-26T17:24:44.859Z</time></trkpt><trkpt lat="42.2951816" lon="13.4517244"><ele>789.2</ele><time>2026-04-26T17:24:45.859Z</time></trkpt><trkpt lat="42.2953091" lon="13.4516699"><ele>787.0</ele><time>2026-04-26T17:24:46.859Z</time></trkpt><trkpt lat="42.2954479" lon="13.4515943"><ele>783.6666666666666</ele><time>2026-04-26T17:24:47.86Z</time></trkpt><trkpt lat="42.2955929" lon="13.4515115"><ele>780.3333333333333</ele><time>2026-04-26T17:24:48.86Z</time></trkpt><trkpt lat="42.2957454" lon="13.4514153"><ele>777.0</ele><time>2026-04-26T17:24:49.859Z</time></trkpt><trkpt lat="42.2959043" lon="13.4513175"><ele>779.6666666666667</ele><time>2026-04-26T17:24:50.859Z</time></trkpt><trkpt lat="42.2960609" lon="13.4512172"><ele>782.3333333333334</ele><time>2026-04-26T17:24:51.86Z</time></trkpt><trkpt lat="42.2962063" lon="13.4511148"><ele>785.0</ele><time>2026-04-26T17:24:52.859Z</time></trkpt><trkpt lat="42.2963412" lon="13.4510208"><ele>783.25</ele><time>2026-04-26T17:24:53.861Z</time></trkpt><trkpt lat="42.2964538" lon="13.4509685"><ele>781.5</ele><time>2026-04-26T17:24:54.859Z</time></trkpt><trkpt lat="42.296565" lon="13.4509712"><ele>779.75</ele><time>2026-04-26T17:24:55.86Z</time></trkpt><trkpt lat="42.2966669" lon="13.4510337"><ele>778.0</ele><time>2026-04-26T17:24:56.859Z</time></trkpt><trkpt lat="42.2967394" lon="13.4511492"><ele>775.75</ele><time>2026-04-26T17:24:57.859Z</time></trkpt><trkpt lat="42.2967637" lon="13.4513019"><ele>773.5</ele><time>2026-04-26T17:24:58.861Z</time></trkpt><trkpt lat="42.2967344" lon="13.451455"><ele>771.25</ele><time>2026-04-26T17:24:59.861Z</time></trkpt><trkpt lat="42.2966706" lon="13.4516055"><ele>769.0</ele><time>2026-04-26T17:25:00.86Z</time></trkpt><trkpt lat="42.2965627" lon="13.451746"><ele>769.0</ele><time>2026-04-26T17:25:01.86Z</time></trkpt><trkpt lat="42.2964359" lon="13.4518858"><ele>769.0</ele><time>2026-04-26T17:25:02.86Z</time></trkpt><trkpt lat="42.2963063" lon="13.4520402"><ele>769.0</ele><time>2026-04-26T17:25:03.86Z</time></trkpt><trkpt lat="42.2961864" lon="13.4522246"><ele>769.6666666666666</ele><time>2026-04-26T17:25:04.859Z</time></trkpt><trkpt lat="42.2960861" lon="13.4524132"><ele>770.3333333333333</ele><time>2026-04-26T17:25:05.86Z</time></trkpt><trkpt lat="42.2959916" lon="13.452608"><ele>771.0</ele><time>2026-04-26T17:25:06.86Z</time></trkpt><trkpt lat="42.2959056" lon="13.4528017"><ele>769.5</ele><time>2026-04-26T17:25:07.86Z</time></trkpt><trkpt lat="42.2958326" lon="13.4529811"><ele>768.0</ele><time>2026-04-26T17:25:08.86Z</time></trkpt><trkpt lat="42.2957772" lon="13.4531391"><ele>766.5</ele><time>2026-04-26T17:25:09.86Z</time></trkpt><trkpt lat="42.2957626" lon="13.4532801"><ele>765.0</ele><time>2026-04-26T17:25:10.859Z</time></trkpt><trkpt lat="42.2957918" lon="13.4533994"><ele>765.0</ele><time>2026-04-26T17:25:11.86Z</time></trkpt><trkpt lat="42.2958564" lon="13.4534716"><ele>765.0</ele><time>2026-04-26T17:25:12.859Z</time></trkpt><trkpt lat="42.29595" lon="13.4534843"><ele>765.0</ele><time>2026-04-26T17:25:13.859Z</time></trkpt><trkpt lat="42.2960564" lon="13.4534459"><ele>765.0</ele><time>2026-04-26T17:25:14.86Z</time></trkpt><trkpt lat="42.2961776" lon="13.4533701"><ele>765.0</ele><time>2026-04-26T17:25:15.859Z</time></trkpt><trkpt lat="42.2963111" lon="13.4532762"><ele>762.3333333333334</ele><time>2026-04-26T17:25:16.86Z</time></trkpt><trkpt lat="42.296454" lon="13.4531819"><ele>759.6666666666667</ele><time>2026-04-26T17:25:17.859Z</time></trkpt><trkpt lat="42.2966021" lon="13.4531041"><ele>757.0</ele><time>2026-04-26T17:25:18.859Z</time></trkpt><trkpt lat="42.2967564" lon="13.4530743"><ele>757.0</ele><time>2026-04-26T17:25:19.86Z</time></trkpt><trkpt lat="42.2969181" lon="13.4530871"><ele>757.0</ele><time>2026-04-26T17:25:20.86Z</time></trkpt><trkpt lat="42.2970893" lon="13.4531711"><ele>757.0</ele><time>2026-04-26T17:25:21.859Z</time></trkpt><trkpt lat="42.2972565" lon="13.4532924"><ele>755.3333333333334</ele><time>2026-04-26T17:25:22.859Z</time></trkpt><trkpt lat="42.2974223" lon="13.4534262"><ele>753.6666666666666</ele><time>2026-04-26T17:25:23.859Z</time></trkpt><trkpt lat="42.2975903" lon="13.4535572"><ele>752.0</ele><time>2026-04-26T17:25:24.86Z</time></trkpt><trkpt lat="42.297748" lon="13.4536798"><ele>749.6666666666666</ele><time>2026-04-26T17:25:25.86Z</time></trkpt><trkpt lat="42.2978973" lon="13.4538024"><ele>747.3333333333334</ele><time>2026-04-26T17:25:26.86Z</time></trkpt><trkpt lat="42.298047" lon="13.4538999"><ele>745.0</ele><time>2026-04-26T17:25:27.86Z</time></trkpt><trkpt lat="42.2982014" lon="13.4539435"><ele>744.3333333333334</ele><time>2026-04-26T17:25:28.859Z</time></trkpt><trkpt lat="42.2983582" lon="13.4539227"><ele>743.6666666666666</ele><time>2026-04-26T17:25:29.86Z</time></trkpt><trkpt lat="42.2985037" lon="13.4538323"><ele>743.0</ele><time>2026-04-26T17:25:30.859Z</time></trkpt><trkpt lat="42.2986443" lon="13.4536903"><ele>744.6666666666666</ele><time>2026-04-26T17:25:31.86Z</time></trkpt><trkpt lat="42.2987822" lon="13.4535214"><ele>746.3333333333334</ele><time>2026-04-26T17:25:32.86Z</time></trkpt><trkpt lat="42.2989227" lon="13.4533481"><ele>748.0</ele><time>2026-04-26T17:25:33.861Z</time></trkpt><trkpt lat="42.2990654" lon="13.4531806"><ele>746.3333333333334</ele><time>2026-04-26T17:25:34.861Z</time></trkpt><trkpt lat="42.2991995" lon="13.4530171"><ele>744.6666666666666</ele><time>2026-04-26T17:25:35.861Z</time></trkpt><trkpt lat="42.2993473" lon="13.4528871"><ele>743.0</ele><time>2026-04-26T17:25:36.859Z</time></trkpt><trkpt lat="42.2995103" lon="13.4528052"><ele>743.0</ele><time>2026-04-26T17:25:37.86Z</time></trkpt><trkpt lat="42.299682" lon="13.4527683"><ele>743.0</ele><time>2026-04-26T17:25:38.86Z</time></trkpt><trkpt lat="42.2998408" lon="13.452799"><ele>743.0</ele><time>2026-04-26T17:25:39.859Z</time></trkpt><trkpt lat="42.299996" lon="13.452872"><ele>739.3333333333333</ele><time>2026-04-26T17:25:40.859Z</time></trkpt><trkpt lat="42.3001434" lon="13.4530044"><ele>735.6666666666666</ele><time>2026-04-26T17:25:41.86Z</time></trkpt><trkpt lat="42.3002945" lon="13.4531537"><ele>732.0</ele><time>2026-04-26T17:25:42.859Z</time></trkpt><trkpt lat="42.3004409" lon="13.4532964"><ele>732.0</ele><time>2026-04-26T17:25:43.86Z</time></trkpt><trkpt lat="42.3005797" lon="13.4534422"><ele>732.0</ele><time>2026-04-26T17:25:44.859Z</time></trkpt><trkpt lat="42.3007059" lon="13.4535961"><ele>732.0</ele><time>2026-04-26T17:25:45.859Z</time></trkpt><trkpt lat="42.3008233" lon="13.4537557"><ele>730.0</ele><time>2026-04-26T17:25:46.861Z</time></trkpt><trkpt lat="42.3009388" lon="13.4539022"><ele>728.0</ele><time>2026-04-26T17:25:47.86Z</time></trkpt><trkpt lat="42.3010592" lon="13.4539971"><ele>726.0</ele><time>2026-04-26T17:25:48.86Z</time></trkpt><trkpt lat="42.3011911" lon="13.4540337"><ele>724.0</ele><time>2026-04-26T17:25:49.861Z</time></trkpt><trkpt lat="42.3013219" lon="13.4540382"><ele>721.6666666666667</ele><time>2026-04-26T17:25:50.86Z</time></trkpt><trkpt lat="42.3014468" lon="13.4538806"><ele>719.3333333333334</ele><time>2026-04-26T17:25:51.859Z</time></trkpt><trkpt lat="42.3015719" lon="13.4537606"><ele>717.0</ele><time>2026-04-26T17:25:52.859Z</time></trkpt><trkpt lat="42.3017043" lon="13.453617"><ele>722.0</ele><time>2026-04-26T17:25:53.859Z</time></trkpt><trkpt lat="42.3018364" lon="13.4534698"><ele>727.0</ele><time>2026-04-26T17:25:54.86Z</time></trkpt><trkpt lat="42.3019685" lon="13.453327"><ele>732.0</ele><time>2026-04-26T17:25:55.859Z</time></trkpt><trkpt lat="42.3021057" lon="13.453207"><ele>729.25</ele><time>2026-04-26T17:25:56.86Z</time></trkpt><trkpt lat="42.302251" lon="13.4531228"><ele>726.5</ele><time>2026-04-26T17:25:57.859Z</time></trkpt><trkpt lat="42.3023917" lon="13.4530798"><ele>723.75</ele><time>2026-04-26T17:25:58.86Z</time></trkpt><trkpt lat="42.3025245" lon="13.4530929"><ele>721.0</ele><time>2026-04-26T17:25:59.859Z</time></trkpt><trkpt lat="42.3026457" lon="13.4531602"><ele>721.0</ele><time>2026-04-26T17:26:00.859Z</time></trkpt><trkpt lat="42.3027528" lon="13.4532721"><ele>721.0</ele><time>2026-04-26T17:26:01.859Z</time></trkpt><trkpt lat="42.3028432" lon="13.4534209"><ele>721.0</ele><time>2026-04-26T17:26:02.86Z</time></trkpt><trkpt lat="42.302932" lon="13.4535824"><ele>721.0</ele><time>2026-04-26T17:26:03.86Z</time></trkpt><trkpt lat="42.3030281" lon="13.4537288"><ele>717.75</ele><time>2026-04-26T17:26:04.861Z</time></trkpt><trkpt lat="42.3031381" lon="13.4538438"><ele>714.5</ele><time>2026-04-26T17:26:05.86Z</time></trkpt><trkpt lat="42.3032618" lon="13.4539262"><ele>711.25</ele><time>2026-04-26T17:26:06.861Z</time></trkpt><trkpt lat="42.3034024" lon="13.4539642"><ele>708.0</ele><time>2026-04-26T17:26:07.861Z</time></trkpt><trkpt lat="42.3035598" lon="13.4539484"><ele>708.0</ele><time>2026-04-26T17:26:08.86Z</time></trkpt><trkpt lat="42.3037311" lon="13.4539141"><ele>708.0</ele><time>2026-04-26T17:26:09.86Z</time></trkpt><trkpt lat="42.3039143" lon="13.4538863"><ele>708.0</ele><time>2026-04-26T17:26:10.861Z</time></trkpt><trkpt lat="42.3040881" lon="13.4538631"><ele>707.3333333333334</ele><time>2026-04-26T17:26:11.861Z</time></trkpt><trkpt lat="42.3042598" lon="13.4538367"><ele>706.6666666666667</ele><time>2026-04-26T17:26:12.86Z</time></trkpt><trkpt lat="42.304422" lon="13.4538053"><ele>706.0</ele><time>2026-04-26T17:26:13.86Z</time></trkpt><trkpt lat="42.3045857" lon="13.453776"><ele>709.0</ele><time>2026-04-26T17:26:14.86Z</time></trkpt><trkpt lat="42.3047543" lon="13.453747"><ele>712.0</ele><time>2026-04-26T17:26:15.859Z</time></trkpt><trkpt lat="42.3049453" lon="13.4537419"><ele>715.0</ele><time>2026-04-26T17:26:16.859Z</time></trkpt><trkpt lat="42.3051555" lon="13.4537619"><ele>707.0</ele><time>2026-04-26T17:26:17.859Z</time></trkpt><trkpt lat="42.3053764" lon="13.4537959"><ele>699.0</ele><time>2026-04-26T17:26:18.86Z</time></trkpt><trkpt lat="42.3056138" lon="13.4538279"><ele>697.0</ele><time>2026-04-26T17:26:19.859Z</time></trkpt><trkpt lat="42.305856" lon="13.4538606"><ele>695.0</ele><time>2026-04-26T17:26:20.86Z</time></trkpt><trkpt lat="42.3060975" lon="13.4539054"><ele>695.0</ele><time>2026-04-26T17:26:21.86Z</time></trkpt><trkpt lat="42.3063221" lon="13.4539538"><ele>695.0</ele><time>2026-04-26T17:26:22.859Z</time></trkpt><trkpt lat="42.3065412" lon="13.4539905"><ele>695.0</ele><time>2026-04-26T17:26:23.861Z</time></trkpt><trkpt lat="42.3067509" lon="13.4540258"><ele>694.3333333333333</ele><time>2026-04-26T17:26:24.861Z</time></trkpt><trkpt lat="42.3069522" lon="13.4540574"><ele>693.6666666666666</ele><time>2026-04-26T17:26:25.86Z</time></trkpt><trkpt lat="42.3071369" lon="13.4540723"><ele>693.0</ele><time>2026-04-26T17:26:26.859Z</time></trkpt><trkpt lat="42.3073097" lon="13.4540501"><ele>691.6666666666666</ele><time>2026-04-26T17:26:27.86Z</time></trkpt><trkpt lat="42.3074678" lon="13.4539889"><ele>690.3333333333333</ele><time>2026-04-26T17:26:28.861Z</time></trkpt><trkpt lat="42.3076143" lon="13.4538717"><ele>689.0</ele><time>2026-04-26T17:26:29.861Z</time></trkpt><trkpt lat="42.3077476" lon="13.4537377"><ele>692.6666666666666</ele><time>2026-04-26T17:26:30.86Z</time></trkpt><trkpt lat="42.3078206" lon="13.4535238"><ele>696.3333333333334</ele><time>2026-04-26T17:26:31.86Z</time></trkpt><trkpt lat="42.307904" lon="13.453323"><ele>700.0</ele><time>2026-04-26T17:26:32.859Z</time></trkpt><trkpt lat="42.3079062" lon="13.4530968"><ele>698.75</ele><time>2026-04-26T17:26:33.859Z</time></trkpt><trkpt lat="42.3079443" lon="13.4528836"><ele>697.5</ele><time>2026-04-26T17:26:34.86Z</time></trkpt><trkpt lat="42.3079559" lon="13.4527356"><ele>696.25</ele><time>2026-04-26T17:26:35.859Z</time></trkpt><trkpt lat="42.3079667" lon="13.4526003"><ele>695.0</ele><time>2026-04-26T17:26:36.861Z</time></trkpt><trkpt lat="42.3080155" lon="13.4524987"><ele>691.0</ele><time>2026-04-26T17:26:37.859Z</time></trkpt><trkpt lat="42.308091" lon="13.4524728"><ele>687.0</ele><time>2026-04-26T17:26:38.86Z</time></trkpt><trkpt lat="42.3081604" lon="13.4525242"><ele>683.0</ele><time>2026-04-26T17:26:39.859Z</time></trkpt><trkpt lat="42.3081852" lon="13.4526455"><ele>679.0</ele><time>2026-04-26T17:26:40.86Z</time></trkpt><trkpt lat="42.3081772" lon="13.4527848"><ele>675.0</ele><time>2026-04-26T17:26:41.86Z</time></trkpt><trkpt lat="42.3081576" lon="13.4529516"><ele>675.0</ele><time>2026-04-26T17:26:42.86Z</time></trkpt><trkpt lat="42.3081435" lon="13.4531464"><ele>675.0</ele><time>2026-04-26T17:26:43.861Z</time></trkpt><trkpt lat="42.3081338" lon="13.4533557"><ele>675.0</ele><time>2026-04-26T17:26:44.861Z</time></trkpt><trkpt lat="42.3081207" lon="13.4535756"><ele>674.6666666666666</ele><time>2026-04-26T17:26:45.86Z</time></trkpt><trkpt lat="42.3081008" lon="13.4538063"><ele>674.3333333333333</ele><time>2026-04-26T17:26:46.859Z</time></trkpt><trkpt lat="42.3080689" lon="13.4540319"><ele>674.0</ele><time>2026-04-26T17:26:47.86Z</time></trkpt><trkpt lat="42.3080118" lon="13.4542336"><ele>673.75</ele><time>2026-04-26T17:26:48.86Z</time></trkpt><trkpt lat="42.307929" lon="13.4544117"><ele>673.5</ele><time>2026-04-26T17:26:49.86Z</time></trkpt><trkpt lat="42.3078317" lon="13.4545447"><ele>673.25</ele><time>2026-04-26T17:26:50.86Z</time></trkpt><trkpt lat="42.3077425" lon="13.4546593"><ele>673.0</ele><time>2026-04-26T17:26:51.859Z</time></trkpt><trkpt lat="42.3076942" lon="13.4547816"><ele>673.0</ele><time>2026-04-26T17:26:52.86Z</time></trkpt><trkpt lat="42.3077005" lon="13.4548984"><ele>673.0</ele><time>2026-04-26T17:26:53.86Z</time></trkpt><trkpt lat="42.3077546" lon="13.45499"><ele>673.0</ele><time>2026-04-26T17:26:54.861Z</time></trkpt><trkpt lat="42.3078368" lon="13.4550317"><ele>673.0</ele><time>2026-04-26T17:26:55.86Z</time></trkpt><trkpt lat="42.3079261" lon="13.4549949"><ele>673.0</ele><time>2026-04-26T17:26:56.86Z</time></trkpt><trkpt lat="42.3080147" lon="13.4548939"><ele>673.25</ele><time>2026-04-26T17:26:57.86Z</time></trkpt><trkpt lat="42.3081142" lon="13.4547737"><ele>673.5</ele><time>2026-04-26T17:26:58.86Z</time></trkpt><trkpt lat="42.3082273" lon="13.4546484"><ele>673.75</ele><time>2026-04-26T17:26:59.86Z</time></trkpt><trkpt lat="42.3083425" lon="13.4545036"><ele>674.0</ele><time>2026-04-26T17:27:00.86Z</time></trkpt><trkpt lat="42.3084311" lon="13.4543231"><ele>674.0</ele><time>2026-04-26T17:27:01.859Z</time></trkpt><trkpt lat="42.3085255" lon="13.4541519"><ele>674.0</ele><time>2026-04-26T17:27:02.859Z</time></trkpt><trkpt lat="42.3085648" lon="13.4539286"><ele>674.0</ele><time>2026-04-26T17:27:03.86Z</time></trkpt><trkpt lat="42.308555" lon="13.4536396"><ele>674.3333333333333</ele><time>2026-04-26T17:27:04.861Z</time></trkpt><trkpt lat="42.3086118" lon="13.453384"><ele>674.6666666666666</ele><time>2026-04-26T17:27:05.861Z</time></trkpt><trkpt lat="42.3086865" lon="13.4531476"><ele>675.0</ele><time>2026-04-26T17:27:06.86Z</time></trkpt><trkpt lat="42.3087679" lon="13.4529277"><ele>675.0</ele><time>2026-04-26T17:27:07.861Z</time></trkpt><trkpt lat="42.3088505" lon="13.4527151"><ele>675.0</ele><time>2026-04-26T17:27:08.859Z</time></trkpt><trkpt lat="42.3089126" lon="13.4525085"><ele>675.0</ele><time>2026-04-26T17:27:09.86Z</time></trkpt><trkpt lat="42.3089432" lon="13.452293"><ele>671.3333333333334</ele><time>2026-04-26T17:27:10.86Z</time></trkpt><trkpt lat="42.3089336" lon="13.4520621"><ele>667.6666666666667</ele><time>2026-04-26T17:27:11.859Z</time></trkpt><trkpt lat="42.3088994" lon="13.451822"><ele>664.0</ele><time>2026-04-26T17:27:12.859Z</time></trkpt><trkpt lat="42.3088557" lon="13.4515808"><ele>664.0</ele><time>2026-04-26T17:27:13.86Z</time></trkpt><trkpt lat="42.3088081" lon="13.4513285"><ele>664.0</ele><time>2026-04-26T17:27:14.86Z</time></trkpt><trkpt lat="42.3087706" lon="13.4510825"><ele>664.0</ele><time>2026-04-26T17:27:15.861Z</time></trkpt><trkpt lat="42.3087297" lon="13.4508463"><ele>662.6666666666667</ele><time>2026-04-26T17:27:16.86Z</time></trkpt><trkpt lat="42.3086915" lon="13.4506149"><ele>661.3333333333334</ele><time>2026-04-26T17:27:17.86Z</time></trkpt><trkpt lat="42.3086558" lon="13.4503912"><ele>660.0</ele><time>2026-04-26T17:27:18.86Z</time></trkpt><trkpt lat="42.3086161" lon="13.4501847"><ele>657.3333333333334</ele><time>2026-04-26T17:27:19.86Z</time></trkpt><trkpt lat="42.3085582" lon="13.449997"><ele>654.6666666666667</ele><time>2026-04-26T17:27:20.859Z</time></trkpt><trkpt lat="42.3084702" lon="13.449839"><ele>652.0</ele><time>2026-04-26T17:27:21.861Z</time></trkpt><trkpt lat="42.3083479" lon="13.4497145"><ele>652.0</ele><time>2026-04-26T17:27:22.861Z</time></trkpt><trkpt lat="42.308211" lon="13.4496343"><ele>652.0</ele><time>2026-04-26T17:27:23.861Z</time></trkpt><trkpt lat="42.3080688" lon="13.4495869"><ele>652.0</ele><time>2026-04-26T17:27:24.86Z</time></trkpt><trkpt lat="42.307931" lon="13.4495363"><ele>652.0</ele><time>2026-04-26T17:27:25.86Z</time></trkpt><trkpt lat="42.307798" lon="13.4494716"><ele>650.75</ele><time>2026-04-26T17:27:26.859Z</time></trkpt><trkpt lat="42.3076774" lon="13.4493917"><ele>649.5</ele><time>2026-04-26T17:27:27.86Z</time></trkpt><trkpt lat="42.3075671" lon="13.4493034"><ele>648.25</ele><time>2026-04-26T17:27:28.859Z</time></trkpt><trkpt lat="42.3074644" lon="13.4492063"><ele>647.0</ele><time>2026-04-26T17:27:29.859Z</time></trkpt><trkpt lat="42.3073753" lon="13.4490985"><ele>647.0</ele><time>2026-04-26T17:27:30.859Z</time></trkpt><trkpt lat="42.3072961" lon="13.4489859"><ele>647.0</ele><time>2026-04-26T17:27:31.859Z</time></trkpt><trkpt lat="42.3072237" lon="13.4488787"><ele>647.0</ele><time>2026-04-26T17:27:32.86Z</time></trkpt><trkpt lat="42.3071621" lon="13.4487652"><ele>647.0</ele><time>2026-04-26T17:27:33.859Z</time></trkpt><trkpt lat="42.3071138" lon="13.4486505"><ele>647.0</ele><time>2026-04-26T17:27:34.86Z</time></trkpt><trkpt lat="42.3070843" lon="13.4485252"><ele>648.0</ele><time>2026-04-26T17:27:35.859Z</time></trkpt><trkpt lat="42.30708" lon="13.4483904"><ele>649.0</ele><time>2026-04-26T17:27:36.86Z</time></trkpt><trkpt lat="42.3071041" lon="13.4482664"><ele>650.0</ele><time>2026-04-26T17:27:37.86Z</time></trkpt><trkpt lat="42.3071552" lon="13.4481554"><ele>651.0</ele><time>2026-04-26T17:27:38.86Z</time></trkpt><trkpt lat="42.3072305" lon="13.4480613"><ele>652.0</ele><time>2026-04-26T17:27:39.861Z</time></trkpt><trkpt lat="42.3073061" lon="13.4479673"><ele>650.2</ele><time>2026-04-26T17:27:40.86Z</time></trkpt><trkpt lat="42.3073871" lon="13.4478698"><ele>648.4000000000001</ele><time>2026-04-26T17:27:41.86Z</time></trkpt><trkpt lat="42.3074715" lon="13.4477698"><ele>646.5999999999999</ele><time>2026-04-26T17:27:42.86Z</time></trkpt><trkpt lat="42.3075532" lon="13.4476693"><ele>644.8</ele><time>2026-04-26T17:27:43.86Z</time></trkpt><trkpt lat="42.3076256" lon="13.4475694"><ele>643.0</ele><time>2026-04-26T17:27:44.86Z</time></trkpt><trkpt lat="42.3076905" lon="13.4474574"><ele>643.0</ele><time>2026-04-26T17:27:45.86Z</time></trkpt><trkpt lat="42.3077525" lon="13.4473325"><ele>643.0</ele><time>2026-04-26T17:27:46.86Z</time></trkpt><trkpt lat="42.3078039" lon="13.4472033"><ele>643.0</ele><time>2026-04-26T17:27:47.86Z</time></trkpt><trkpt lat="42.3078553" lon="13.4470702"><ele>643.0</ele><time>2026-04-26T17:27:48.861Z</time></trkpt><trkpt lat="42.3079037" lon="13.4469337"><ele>643.0</ele><time>2026-04-26T17:27:49.859Z</time></trkpt><trkpt lat="42.3079522" lon="13.4467982"><ele>643.2</ele><time>2026-04-26T17:27:50.861Z</time></trkpt><trkpt lat="42.3079998" lon="13.4466667"><ele>643.4</ele><time>2026-04-26T17:27:51.861Z</time></trkpt><trkpt lat="42.3080489" lon="13.4465372"><ele>643.6</ele><time>2026-04-26T17:27:52.861Z</time></trkpt><trkpt lat="42.3081002" lon="13.446409"><ele>643.8000000000001</ele><time>2026-04-26T17:27:53.861Z</time></trkpt><trkpt lat="42.3081534" lon="13.446288"><ele>644.0</ele><time>2026-04-26T17:27:54.859Z</time></trkpt><trkpt lat="42.3082094" lon="13.4461727"><ele>642.5</ele><time>2026-04-26T17:27:55.859Z</time></trkpt><trkpt lat="42.3082781" lon="13.4460584"><ele>641.0</ele><time>2026-04-26T17:27:56.86Z</time></trkpt><trkpt lat="42.3083583" lon="13.4459409"><ele>639.5</ele><time>2026-04-26T17:27:57.86Z</time></trkpt><trkpt lat="42.3084422" lon="13.4458267"><ele>638.0</ele><time>2026-04-26T17:27:58.859Z</time></trkpt><trkpt lat="42.3085229" lon="13.4457067"><ele>638.0</ele><time>2026-04-26T17:27:59.86Z</time></trkpt><trkpt lat="42.3086059" lon="13.4455913"><ele>638.0</ele><time>2026-04-26T17:28:00.859Z</time></trkpt><trkpt lat="42.3086907" lon="13.4454716"><ele>638.0</ele><time>2026-04-26T17:28:01.86Z</time></trkpt><trkpt lat="42.3087745" lon="13.4453577"><ele>638.0</ele><time>2026-04-26T17:28:02.859Z</time></trkpt><trkpt lat="42.3088485" lon="13.4452462"><ele>636.8333333333333</ele><time>2026-04-26T17:28:03.859Z</time></trkpt><trkpt lat="42.3089177" lon="13.4451356"><ele>635.6666666666666</ele><time>2026-04-26T17:28:04.859Z</time></trkpt><trkpt lat="42.3089706" lon="13.4450236"><ele>634.5</ele><time>2026-04-26T17:28:05.86Z</time></trkpt><trkpt lat="42.3090093" lon="13.4449261"><ele>633.3333333333334</ele><time>2026-04-26T17:28:06.859Z</time></trkpt><trkpt lat="42.3090401" lon="13.4448349"><ele>632.1666666666667</ele><time>2026-04-26T17:28:07.859Z</time></trkpt><trkpt lat="42.3090685" lon="13.4447336"><ele>631.0</ele><time>2026-04-26T17:28:08.861Z</time></trkpt><trkpt lat="42.309095" lon="13.4446224"><ele>631.0</ele><time>2026-04-26T17:28:09.86Z</time></trkpt><trkpt lat="42.3091136" lon="13.4445095"><ele>631.0</ele><time>2026-04-26T17:28:10.86Z</time></trkpt><trkpt lat="42.3091252" lon="13.4444032"><ele>631.0</ele><time>2026-04-26T17:28:11.861Z</time></trkpt><trkpt lat="42.3091388" lon="13.4443029"><ele>631.0</ele><time>2026-04-26T17:28:12.859Z</time></trkpt><trkpt lat="42.3091515" lon="13.4441966"><ele>631.0</ele><time>2026-04-26T17:28:13.86Z</time></trkpt><trkpt lat="42.309162" lon="13.4440772"><ele>631.0</ele><time>2026-04-26T17:28:14.86Z</time></trkpt><trkpt lat="42.3091769" lon="13.4439566"><ele>631.0</ele><time>2026-04-26T17:28:15.86Z</time></trkpt><trkpt lat="42.3091888" lon="13.4438263"><ele>631.0</ele><time>2026-04-26T17:28:16.859Z</time></trkpt><trkpt lat="42.3092064" lon="13.4436903"><ele>631.0</ele><time>2026-04-26T17:28:17.859Z</time></trkpt><trkpt lat="42.3092258" lon="13.4435661"><ele>631.0</ele><time>2026-04-26T17:28:18.859Z</time></trkpt><trkpt lat="42.3092443" lon="13.4434446"><ele>631.0</ele><time>2026-04-26T17:28:19.86Z</time></trkpt><trkpt lat="42.3092645" lon="13.443321"><ele>630.8</ele><time>2026-04-26T17:28:20.859Z</time></trkpt><trkpt lat="42.3092919" lon="13.443205"><ele>630.6</ele><time>2026-04-26T17:28:21.86Z</time></trkpt><trkpt lat="42.3093177" lon="13.4430994"><ele>630.4</ele><time>2026-04-26T17:28:22.861Z</time></trkpt><trkpt lat="42.3093471" lon="13.4429867"><ele>630.2</ele><time>2026-04-26T17:28:23.86Z</time></trkpt><trkpt lat="42.3093792" lon="13.4428652"><ele>630.0</ele><time>2026-04-26T17:28:24.86Z</time></trkpt><trkpt lat="42.3094207" lon="13.4427394"><ele>630.0</ele><time>2026-04-26T17:28:25.859Z</time></trkpt><trkpt lat="42.3094705" lon="13.4426108"><ele>630.0</ele><time>2026-04-26T17:28:26.86Z</time></trkpt><trkpt lat="42.3095312" lon="13.4424651"><ele>630.0</ele><time>2026-04-26T17:28:27.861Z</time></trkpt><trkpt lat="42.3096034" lon="13.4423004"><ele>630.0</ele><time>2026-04-26T17:28:28.859Z</time></trkpt><trkpt lat="42.309688" lon="13.4421288"><ele>627.0</ele><time>2026-04-26T17:28:29.859Z</time></trkpt><trkpt lat="42.3097734" lon="13.4419713"><ele>624.0</ele><time>2026-04-26T17:28:30.859Z</time></trkpt><trkpt lat="42.3098855" lon="13.4417651"><ele>621.0</ele><time>2026-04-26T17:28:31.861Z</time></trkpt><trkpt lat="42.3099975" lon="13.4415504"><ele>621.0</ele><time>2026-04-26T17:28:32.86Z</time></trkpt><trkpt lat="42.3101185" lon="13.4413308"><ele>621.0</ele><time>2026-04-26T17:28:33.86Z</time></trkpt><trkpt lat="42.3102444" lon="13.4411085"><ele>621.0</ele><time>2026-04-26T17:28:34.859Z</time></trkpt><trkpt lat="42.3103729" lon="13.440897"><ele>620.6666666666666</ele><time>2026-04-26T17:28:35.861Z</time></trkpt><trkpt lat="42.3105003" lon="13.4406844"><ele>620.3333333333333</ele><time>2026-04-26T17:28:36.86Z</time></trkpt><trkpt lat="42.3106216" lon="13.4404777"><ele>620.0</ele><time>2026-04-26T17:28:37.86Z</time></trkpt><trkpt lat="42.3107326" lon="13.4402794"><ele>620.0</ele><time>2026-04-26T17:28:38.859Z</time></trkpt><trkpt lat="42.3108403" lon="13.4400806"><ele>620.0</ele><time>2026-04-26T17:28:39.86Z</time></trkpt><trkpt lat="42.3109483" lon="13.4398909"><ele>620.0</ele><time>2026-04-26T17:28:40.86Z</time></trkpt><trkpt lat="42.3110567" lon="13.4396985"><ele>620.6666666666666</ele><time>2026-04-26T17:28:41.859Z</time></trkpt><trkpt lat="42.3111608" lon="13.4395105"><ele>621.3333333333334</ele><time>2026-04-26T17:28:42.861Z</time></trkpt><trkpt lat="42.3112598" lon="13.4393276"><ele>622.0</ele><time>2026-04-26T17:28:43.86Z</time></trkpt><trkpt lat="42.3113576" lon="13.4391477"><ele>620.6666666666667</ele><time>2026-04-26T17:28:44.86Z</time></trkpt><trkpt lat="42.3114559" lon="13.4389674"><ele>619.3333333333334</ele><time>2026-04-26T17:28:45.861Z</time></trkpt><trkpt lat="42.3115569" lon="13.4387878"><ele>618.0</ele><time>2026-04-26T17:28:46.859Z</time></trkpt><trkpt lat="42.3116599" lon="13.4386089"><ele>618.0</ele><time>2026-04-26T17:28:47.86Z</time></trkpt><trkpt lat="42.3117607" lon="13.4384275"><ele>618.0</ele><time>2026-04-26T17:28:48.86Z</time></trkpt><trkpt lat="42.3118615" lon="13.4382442"><ele>618.0</ele><time>2026-04-26T17:28:49.86Z</time></trkpt><trkpt lat="42.3119586" lon="13.4380637"><ele>618.6666666666666</ele><time>2026-04-26T17:28:50.859Z</time></trkpt><trkpt lat="42.312059" lon="13.4378846"><ele>619.3333333333333</ele><time>2026-04-26T17:28:51.859Z</time></trkpt><trkpt lat="42.312152" lon="13.4377097"><ele>620.0</ele><time>2026-04-26T17:28:52.861Z</time></trkpt><trkpt lat="42.3122417" lon="13.4375337"><ele>619.0</ele><time>2026-04-26T17:28:53.859Z</time></trkpt><trkpt lat="42.3123294" lon="13.437372"><ele>618.0</ele><time>2026-04-26T17:28:54.86Z</time></trkpt><trkpt lat="42.3124092" lon="13.4372188"><ele>617.0</ele><time>2026-04-26T17:28:55.861Z</time></trkpt><trkpt lat="42.3124893" lon="13.4370714"><ele>616.0</ele><time>2026-04-26T17:28:56.86Z</time></trkpt><trkpt lat="42.3125725" lon="13.4369132"><ele>616.0</ele><time>2026-04-26T17:28:57.86Z</time></trkpt><trkpt lat="42.3126647" lon="13.4367487"><ele>616.0</ele><time>2026-04-26T17:28:58.86Z</time></trkpt><trkpt lat="42.3127628" lon="13.4365818"><ele>616.0</ele><time>2026-04-26T17:28:59.86Z</time></trkpt><trkpt lat="42.312868" lon="13.4364079"><ele>617.3333333333334</ele><time>2026-04-26T17:29:00.86Z</time></trkpt><trkpt lat="42.3129747" lon="13.4362144"><ele>618.6666666666666</ele><time>2026-04-26T17:29:01.859Z</time></trkpt><trkpt lat="42.3130825" lon="13.4360064"><ele>620.0</ele><time>2026-04-26T17:29:02.861Z</time></trkpt><trkpt lat="42.3131973" lon="13.4357877"><ele>617.0</ele><time>2026-04-26T17:29:03.86Z</time></trkpt><trkpt lat="42.3133158" lon="13.4355739"><ele>614.0</ele><time>2026-04-26T17:29:04.861Z</time></trkpt><trkpt lat="42.3134355" lon="13.4353576"><ele>611.0</ele><time>2026-04-26T17:29:05.86Z</time></trkpt><trkpt lat="42.3135522" lon="13.4351375"><ele>611.0</ele><time>2026-04-26T17:29:06.86Z</time></trkpt><trkpt lat="42.3136714" lon="13.4349144"><ele>611.0</ele><time>2026-04-26T17:29:07.859Z</time></trkpt><trkpt lat="42.3137917" lon="13.4346996"><ele>611.0</ele><time>2026-04-26T17:29:08.858Z</time></trkpt><trkpt lat="42.3139058" lon="13.4344924"><ele>609.3333333333333</ele><time>2026-04-26T17:29:09.858Z</time></trkpt><trkpt lat="42.3140143" lon="13.4342902"><ele>607.6666666666666</ele><time>2026-04-26T17:29:10.859Z</time></trkpt><trkpt lat="42.3141221" lon="13.4340944"><ele>606.0</ele><time>2026-04-26T17:29:11.859Z</time></trkpt><trkpt lat="42.3142274" lon="13.4339005"><ele>607.6666666666666</ele><time>2026-04-26T17:29:12.86Z</time></trkpt><trkpt lat="42.3143275" lon="13.4337099"><ele>609.3333333333333</ele><time>2026-04-26T17:29:13.86Z</time></trkpt><trkpt lat="42.3144268" lon="13.4335266"><ele>611.0</ele><time>2026-04-26T17:29:14.859Z</time></trkpt><trkpt lat="42.3145274" lon="13.4333483"><ele>611.0</ele><time>2026-04-26T17:29:15.859Z</time></trkpt><trkpt lat="42.3146314" lon="13.4331679"><ele>611.0</ele><time>2026-04-26T17:29:16.859Z</time></trkpt><trkpt lat="42.3147326" lon="13.4329866"><ele>611.0</ele><time>2026-04-26T17:29:17.859Z</time></trkpt><trkpt lat="42.3148287" lon="13.4328026"><ele>609.6666666666666</ele><time>2026-04-26T17:29:18.859Z</time></trkpt><trkpt lat="42.3149258" lon="13.4326223"><ele>608.3333333333334</ele><time>2026-04-26T17:29:19.858Z</time></trkpt><trkpt lat="42.3150241" lon="13.4324523"><ele>607.0</ele><time>2026-04-26T17:29:20.858Z</time></trkpt><trkpt lat="42.3151156" lon="13.4322836"><ele>607.3333333333334</ele><time>2026-04-26T17:29:21.859Z</time></trkpt><trkpt lat="42.3152071" lon="13.4321123"><ele>607.6666666666666</ele><time>2026-04-26T17:29:22.859Z</time></trkpt><trkpt lat="42.315297" lon="13.43194"><ele>608.0</ele><time>2026-04-26T17:29:23.859Z</time></trkpt><trkpt lat="42.3153914" lon="13.4317772"><ele>608.0</ele><time>2026-04-26T17:29:24.859Z</time></trkpt><trkpt lat="42.3154894" lon="13.4316196"><ele>608.0</ele><time>2026-04-26T17:29:25.859Z</time></trkpt><trkpt lat="42.3156014" lon="13.4314685"><ele>608.0</ele><time>2026-04-26T17:29:26.858Z</time></trkpt><trkpt lat="42.315732" lon="13.4313407"><ele>605.3333333333333</ele><time>2026-04-26T17:29:27.86Z</time></trkpt><trkpt lat="42.3158721" lon="13.4312211"><ele>602.6666666666666</ele><time>2026-04-26T17:29:28.858Z</time></trkpt><trkpt lat="42.3160207" lon="13.4310981"><ele>600.0</ele><time>2026-04-26T17:29:29.859Z</time></trkpt><trkpt lat="42.3161689" lon="13.4309642"><ele>600.0</ele><time>2026-04-26T17:29:30.859Z</time></trkpt><trkpt lat="42.3163213" lon="13.4308286"><ele>600.0</ele><time>2026-04-26T17:29:31.858Z</time></trkpt><trkpt lat="42.3164789" lon="13.4306927"><ele>600.0</ele><time>2026-04-26T17:29:32.859Z</time></trkpt><trkpt lat="42.3166346" lon="13.4305545"><ele>598.6666666666666</ele><time>2026-04-26T17:29:33.859Z</time></trkpt><trkpt lat="42.3167902" lon="13.4304161"><ele>597.3333333333333</ele><time>2026-04-26T17:29:34.858Z</time></trkpt><trkpt lat="42.3169401" lon="13.430284"><ele>596.0</ele><time>2026-04-26T17:29:35.859Z</time></trkpt><trkpt lat="42.3170847" lon="13.4301526"><ele>596.0</ele><time>2026-04-26T17:29:36.859Z</time></trkpt><trkpt lat="42.3172286" lon="13.4300325"><ele>596.0</ele><time>2026-04-26T17:29:37.858Z</time></trkpt><trkpt lat="42.3173703" lon="13.4299087"><ele>596.0</ele><time>2026-04-26T17:29:38.86Z</time></trkpt><trkpt lat="42.3175146" lon="13.4297874"><ele>595.3333333333333</ele><time>2026-04-26T17:29:39.858Z</time></trkpt><trkpt lat="42.3176594" lon="13.4296623"><ele>594.6666666666666</ele><time>2026-04-26T17:29:40.86Z</time></trkpt><trkpt lat="42.317794" lon="13.4295426"><ele>594.0</ele><time>2026-04-26T17:29:41.86Z</time></trkpt><trkpt lat="42.3179292" lon="13.4294235"><ele>593.3333333333334</ele><time>2026-04-26T17:29:42.858Z</time></trkpt><trkpt lat="42.3181763" lon="13.4292047"><ele>592.6666666666667</ele><time>2026-04-26T17:29:44.859Z</time></trkpt><trkpt lat="42.3182909" lon="13.4291105"><ele>592.0</ele><time>2026-04-26T17:29:45.858Z</time></trkpt><trkpt lat="42.3183937" lon="13.429021"><ele>592.0</ele><time>2026-04-26T17:29:46.858Z</time></trkpt><trkpt lat="42.3184954" lon="13.428955"><ele>592.0</ele><time>2026-04-26T17:29:47.859Z</time></trkpt><trkpt lat="42.3185954" lon="13.428928"><ele>592.0</ele><time>2026-04-26T17:29:48.859Z</time></trkpt><trkpt lat="42.3186955" lon="13.4289272"><ele>592.0</ele><time>2026-04-26T17:29:49.859Z</time></trkpt><trkpt lat="42.3187853" lon="13.4289009"><ele>592.0</ele><time>2026-04-26T17:29:50.859Z</time></trkpt><trkpt lat="42.318859" lon="13.428831"><ele>592.0</ele><time>2026-04-26T17:29:51.859Z</time></trkpt><trkpt lat="42.3189037" lon="13.4287289"><ele>592.0</ele><time>2026-04-26T17:29:52.858Z</time></trkpt><trkpt lat="42.3189193" lon="13.4285994"><ele>592.0</ele><time>2026-04-26T17:29:53.859Z</time></trkpt><trkpt lat="42.318903" lon="13.4284571"><ele>592.0</ele><time>2026-04-26T17:29:54.86Z</time></trkpt><trkpt lat="42.3188732" lon="13.4282974"><ele>592.0</ele><time>2026-04-26T17:29:55.858Z</time></trkpt><trkpt lat="42.318872" lon="13.4281172"><ele>590.6666666666667</ele><time>2026-04-26T17:29:56.858Z</time></trkpt><trkpt lat="42.3189011" lon="13.4279226"><ele>589.3333333333334</ele><time>2026-04-26T17:29:57.859Z</time></trkpt><trkpt lat="42.3189397" lon="13.4277177"><ele>588.0</ele><time>2026-04-26T17:29:58.859Z</time></trkpt><trkpt lat="42.3189761" lon="13.4275007"><ele>588.0</ele><time>2026-04-26T17:29:59.858Z</time></trkpt><trkpt lat="42.3190158" lon="13.4272731"><ele>588.0</ele><time>2026-04-26T17:30:00.859Z</time></trkpt><trkpt lat="42.3190627" lon="13.4270438"><ele>588.0</ele><time>2026-04-26T17:30:01.859Z</time></trkpt><trkpt lat="42.3191072" lon="13.4268024"><ele>588.0</ele><time>2026-04-26T17:30:02.858Z</time></trkpt><trkpt lat="42.3191478" lon="13.4265569"><ele>588.0</ele><time>2026-04-26T17:30:03.859Z</time></trkpt><trkpt lat="42.3191938" lon="13.4263069"><ele>588.0</ele><time>2026-04-26T17:30:04.859Z</time></trkpt><trkpt lat="42.3192307" lon="13.4260582"><ele>588.6666666666666</ele><time>2026-04-26T17:30:05.859Z</time></trkpt><trkpt lat="42.3192826" lon="13.4257915"><ele>589.3333333333333</ele><time>2026-04-26T17:30:06.86Z</time></trkpt><trkpt lat="42.3193352" lon="13.4255371"><ele>590.0</ele><time>2026-04-26T17:30:07.858Z</time></trkpt><trkpt lat="42.3193808" lon="13.4252772"><ele>590.0</ele><time>2026-04-26T17:30:08.86Z</time></trkpt><trkpt lat="42.3194263" lon="13.4250075"><ele>590.0</ele><time>2026-04-26T17:30:09.859Z</time></trkpt><trkpt lat="42.319476" lon="13.4247332"><ele>590.0</ele><time>2026-04-26T17:30:10.86Z</time></trkpt><trkpt lat="42.3195312" lon="13.4244574"><ele>590.0</ele><time>2026-04-26T17:30:11.858Z</time></trkpt><trkpt lat="42.3195839" lon="13.4241732"><ele>590.0</ele><time>2026-04-26T17:30:12.858Z</time></trkpt><trkpt lat="42.3196383" lon="13.4238846"><ele>590.0</ele><time>2026-04-26T17:30:13.859Z</time></trkpt><trkpt lat="42.3196857" lon="13.4236044"><ele>589.6666666666666</ele><time>2026-04-26T17:30:14.858Z</time></trkpt><trkpt lat="42.3197393" lon="13.4233434"><ele>589.3333333333334</ele><time>2026-04-26T17:30:15.86Z</time></trkpt><trkpt lat="42.3198026" lon="13.423099"><ele>589.0</ele><time>2026-04-26T17:30:16.86Z</time></trkpt><trkpt lat="42.3198766" lon="13.4228729"><ele>590.0</ele><time>2026-04-26T17:30:17.858Z</time></trkpt><trkpt lat="42.3199583" lon="13.4226537"><ele>591.0</ele><time>2026-04-26T17:30:18.858Z</time></trkpt><trkpt lat="42.3201495" lon="13.4222516"><ele>591.3333333333334</ele><time>2026-04-26T17:30:20.859Z</time></trkpt><trkpt lat="42.3202557" lon="13.4220518"><ele>591.6666666666667</ele><time>2026-04-26T17:30:21.859Z</time></trkpt><trkpt lat="42.3203674" lon="13.4218564"><ele>592.0</ele><time>2026-04-26T17:30:22.859Z</time></trkpt><trkpt lat="42.3204844" lon="13.421659"><ele>592.0</ele><time>2026-04-26T17:30:23.858Z</time></trkpt><trkpt lat="42.3206077" lon="13.4214637"><ele>592.0</ele><time>2026-04-26T17:30:24.859Z</time></trkpt><trkpt lat="42.3207365" lon="13.4212655"><ele>592.0</ele><time>2026-04-26T17:30:25.86Z</time></trkpt><trkpt lat="42.3208585" lon="13.4210645"><ele>593.0</ele><time>2026-04-26T17:30:26.859Z</time></trkpt><trkpt lat="42.3209847" lon="13.4208594"><ele>594.0</ele><time>2026-04-26T17:30:27.859Z</time></trkpt><trkpt lat="42.3211182" lon="13.4206464"><ele>595.0</ele><time>2026-04-26T17:30:28.858Z</time></trkpt><trkpt lat="42.3212475" lon="13.4204372"><ele>595.6666666666667</ele><time>2026-04-26T17:30:29.858Z</time></trkpt><trkpt lat="42.3213783" lon="13.4202298"><ele>596.3333333333334</ele><time>2026-04-26T17:30:30.859Z</time></trkpt><trkpt lat="42.3215126" lon="13.4200206"><ele>597.0</ele><time>2026-04-26T17:30:31.859Z</time></trkpt><trkpt lat="42.3216419" lon="13.4198178"><ele>598.3333333333334</ele><time>2026-04-26T17:30:32.859Z</time></trkpt><trkpt lat="42.3217827" lon="13.4196138"><ele>599.6666666666667</ele><time>2026-04-26T17:30:33.858Z</time></trkpt><trkpt lat="42.3219113" lon="13.4194117"><ele>601.0</ele><time>2026-04-26T17:30:34.859Z</time></trkpt><trkpt lat="42.3220432" lon="13.4192142"><ele>601.0</ele><time>2026-04-26T17:30:35.858Z</time></trkpt><trkpt lat="42.322178" lon="13.4190127"><ele>601.0</ele><time>2026-04-26T17:30:36.859Z</time></trkpt><trkpt lat="42.3223123" lon="13.4188111"><ele>601.0</ele><time>2026-04-26T17:30:37.86Z</time></trkpt><trkpt lat="42.3224447" lon="13.4186154"><ele>605.0</ele><time>2026-04-26T17:30:38.859Z</time></trkpt><trkpt lat="42.3225681" lon="13.4184182"><ele>609.0</ele><time>2026-04-26T17:30:39.859Z</time></trkpt><trkpt lat="42.3226946" lon="13.418225"><ele>613.0</ele><time>2026-04-26T17:30:40.858Z</time></trkpt><trkpt lat="42.3228203" lon="13.4180319"><ele>615.0</ele><time>2026-04-26T17:30:41.859Z</time></trkpt><trkpt lat="42.3229394" lon="13.4178389"><ele>617.0</ele><time>2026-04-26T17:30:42.859Z</time></trkpt><trkpt lat="42.3230621" lon="13.4176449"><ele>619.0</ele><time>2026-04-26T17:30:43.858Z</time></trkpt><trkpt lat="42.3231865" lon="13.4174528"><ele>620.3333333333334</ele><time>2026-04-26T17:30:44.859Z</time></trkpt><trkpt lat="42.323309" lon="13.4172648"><ele>621.6666666666666</ele><time>2026-04-26T17:30:45.859Z</time></trkpt><trkpt lat="42.3234343" lon="13.4170767"><ele>623.0</ele><time>2026-04-26T17:30:46.859Z</time></trkpt><trkpt lat="42.3235576" lon="13.4168886"><ele>626.3333333333333</ele><time>2026-04-26T17:30:47.859Z</time></trkpt><trkpt lat="42.323682" lon="13.4166993"><ele>629.6666666666666</ele><time>2026-04-26T17:30:48.859Z</time></trkpt><trkpt lat="42.3238044" lon="13.4165054"><ele>633.0</ele><time>2026-04-26T17:30:49.859Z</time></trkpt><trkpt lat="42.3239243" lon="13.4163115"><ele>633.3333333333334</ele><time>2026-04-26T17:30:50.859Z</time></trkpt><trkpt lat="42.3240361" lon="13.4161098"><ele>633.6666666666667</ele><time>2026-04-26T17:30:51.859Z</time></trkpt><trkpt lat="42.3241341" lon="13.4158942"><ele>634.0</ele><time>2026-04-26T17:30:52.859Z</time></trkpt><trkpt lat="42.3242134" lon="13.4156668"><ele>636.3333333333334</ele><time>2026-04-26T17:30:53.858Z</time></trkpt><trkpt lat="42.324289" lon="13.4154357"><ele>638.6666666666666</ele><time>2026-04-26T17:30:54.858Z</time></trkpt><trkpt lat="42.3243653" lon="13.4152037"><ele>641.0</ele><time>2026-04-26T17:30:55.859Z</time></trkpt><trkpt lat="42.3244387" lon="13.4149702"><ele>641.0</ele><time>2026-04-26T17:30:56.86Z</time></trkpt><trkpt lat="42.3245095" lon="13.414736"><ele>641.0</ele><time>2026-04-26T17:30:57.86Z</time></trkpt><trkpt lat="42.3245833" lon="13.4145027"><ele>641.0</ele><time>2026-04-26T17:30:58.86Z</time></trkpt><trkpt lat="42.3246601" lon="13.4142703"><ele>641.3333333333333</ele><time>2026-04-26T17:30:59.859Z</time></trkpt><trkpt lat="42.3247277" lon="13.4140323"><ele>641.6666666666666</ele><time>2026-04-26T17:31:00.859Z</time></trkpt><trkpt lat="42.324798" lon="13.4137975"><ele>642.0</ele><time>2026-04-26T17:31:01.858Z</time></trkpt><trkpt lat="42.3248675" lon="13.4135602"><ele>642.0</ele><time>2026-04-26T17:31:02.859Z</time></trkpt><trkpt lat="42.3249374" lon="13.4133238"><ele>642.0</ele><time>2026-04-26T17:31:03.859Z</time></trkpt><trkpt lat="42.3250078" lon="13.4130833"><ele>642.0</ele><time>2026-04-26T17:31:04.859Z</time></trkpt><trkpt lat="42.32508" lon="13.4128457"><ele>644.3333333333334</ele><time>2026-04-26T17:31:05.86Z</time></trkpt><trkpt lat="42.3251484" lon="13.4126067"><ele>646.6666666666667</ele><time>2026-04-26T17:31:06.858Z</time></trkpt><trkpt lat="42.3252182" lon="13.4123674"><ele>649.0</ele><time>2026-04-26T17:31:07.858Z</time></trkpt><trkpt lat="42.3252863" lon="13.4121282"><ele>650.3333333333334</ele><time>2026-04-26T17:31:08.858Z</time></trkpt><trkpt lat="42.3253591" lon="13.4118894"><ele>651.6666666666666</ele><time>2026-04-26T17:31:09.858Z</time></trkpt><trkpt lat="42.3254422" lon="13.4116626"><ele>653.0</ele><time>2026-04-26T17:31:10.859Z</time></trkpt><trkpt lat="42.3255456" lon="13.4114489"><ele>653.3333333333333</ele><time>2026-04-26T17:31:11.858Z</time></trkpt><trkpt lat="42.3256733" lon="13.4112637"><ele>653.6666666666666</ele><time>2026-04-26T17:31:12.859Z</time></trkpt><trkpt lat="42.3258212" lon="13.4111127"><ele>654.0</ele><time>2026-04-26T17:31:13.859Z</time></trkpt><trkpt lat="42.3259832" lon="13.4109966"><ele>654.0</ele><time>2026-04-26T17:31:14.859Z</time></trkpt><trkpt lat="42.3261546" lon="13.4108948"><ele>654.0</ele><time>2026-04-26T17:31:15.858Z</time></trkpt><trkpt lat="42.3263289" lon="13.4107883"><ele>654.0</ele><time>2026-04-26T17:31:16.858Z</time></trkpt><trkpt lat="42.3265028" lon="13.4106759"><ele>654.3333333333334</ele><time>2026-04-26T17:31:17.858Z</time></trkpt><trkpt lat="42.326679" lon="13.4105666"><ele>654.6666666666667</ele><time>2026-04-26T17:31:18.858Z</time></trkpt><trkpt lat="42.3268524" lon="13.4104579"><ele>655.0</ele><time>2026-04-26T17:31:19.86Z</time></trkpt><trkpt lat="42.3270258" lon="13.4103516"><ele>657.0</ele><time>2026-04-26T17:31:20.859Z</time></trkpt><trkpt lat="42.3271978" lon="13.4102517"><ele>659.0</ele><time>2026-04-26T17:31:21.858Z</time></trkpt><trkpt lat="42.3273697" lon="13.4101512"><ele>661.0</ele><time>2026-04-26T17:31:22.86Z</time></trkpt><trkpt lat="42.3275417" lon="13.410046"><ele>661.0</ele><time>2026-04-26T17:31:23.859Z</time></trkpt><trkpt lat="42.3277121" lon="13.4099317"><ele>661.0</ele><time>2026-04-26T17:31:24.858Z</time></trkpt><trkpt lat="42.3278856" lon="13.4098155"><ele>661.0</ele><time>2026-04-26T17:31:25.859Z</time></trkpt><trkpt lat="42.3280569" lon="13.4096976"><ele>660.0</ele><time>2026-04-26T17:31:26.859Z</time></trkpt><trkpt lat="42.3282304" lon="13.4095794"><ele>659.0</ele><time>2026-04-26T17:31:27.858Z</time></trkpt><trkpt lat="42.3284054" lon="13.4094584"><ele>658.0</ele><time>2026-04-26T17:31:28.859Z</time></trkpt><trkpt lat="42.3285798" lon="13.4093367"><ele>658.0</ele><time>2026-04-26T17:31:29.859Z</time></trkpt><trkpt lat="42.3287612" lon="13.4092171"><ele>658.0</ele><time>2026-04-26T17:31:30.86Z</time></trkpt><trkpt lat="42.3289314" lon="13.4090977"><ele>658.0</ele><time>2026-04-26T17:31:31.859Z</time></trkpt><trkpt lat="42.3290996" lon="13.4089817"><ele>658.6666666666667</ele><time>2026-04-26T17:31:32.858Z</time></trkpt><trkpt lat="42.329265" lon="13.4088632"><ele>659.3333333333334</ele><time>2026-04-26T17:31:33.858Z</time></trkpt><trkpt lat="42.3294305" lon="13.4087476"><ele>660.0</ele><time>2026-04-26T17:31:34.858Z</time></trkpt><trkpt lat="42.3295973" lon="13.4086284"><ele>659.6666666666666</ele><time>2026-04-26T17:31:35.86Z</time></trkpt><trkpt lat="42.3297623" lon="13.4085087"><ele>659.3333333333333</ele><time>2026-04-26T17:31:36.858Z</time></trkpt><trkpt lat="42.3299264" lon="13.4083906"><ele>659.0</ele><time>2026-04-26T17:31:37.859Z</time></trkpt><trkpt lat="42.3300921" lon="13.4082603"><ele>659.0</ele><time>2026-04-26T17:31:38.859Z</time></trkpt><trkpt lat="42.3302559" lon="13.408121"><ele>659.0</ele><time>2026-04-26T17:31:39.86Z</time></trkpt><trkpt lat="42.3304144" lon="13.4079778"><ele>659.0</ele><time>2026-04-26T17:31:40.859Z</time></trkpt><trkpt lat="42.3305693" lon="13.4078253"><ele>657.6666666666666</ele><time>2026-04-26T17:31:41.859Z</time></trkpt><trkpt lat="42.3307135" lon="13.4076586"><ele>656.3333333333334</ele><time>2026-04-26T17:31:42.86Z</time></trkpt><trkpt lat="42.3308469" lon="13.4074771"><ele>655.0</ele><time>2026-04-26T17:31:43.858Z</time></trkpt><trkpt lat="42.3309694" lon="13.4072901"><ele>656.6666666666667</ele><time>2026-04-26T17:31:44.859Z</time></trkpt><trkpt lat="42.3310703" lon="13.4070718"><ele>658.3333333333334</ele><time>2026-04-26T17:31:45.86Z</time></trkpt><trkpt lat="42.3311601" lon="13.4068481"><ele>660.0</ele><time>2026-04-26T17:31:46.858Z</time></trkpt><trkpt lat="42.3312415" lon="13.4066171"><ele>660.0</ele><time>2026-04-26T17:31:47.859Z</time></trkpt><trkpt lat="42.3313014" lon="13.406382"><ele>660.0</ele><time>2026-04-26T17:31:48.858Z</time></trkpt><trkpt lat="42.3313497" lon="13.4061536"><ele>660.0</ele><time>2026-04-26T17:31:49.859Z</time></trkpt><trkpt lat="42.3313901" lon="13.40593"><ele>659.0</ele><time>2026-04-26T17:31:50.86Z</time></trkpt><trkpt lat="42.3314263" lon="13.4057121"><ele>658.0</ele><time>2026-04-26T17:31:51.859Z</time></trkpt><trkpt lat="42.3314556" lon="13.405502"><ele>657.0</ele><time>2026-04-26T17:31:52.859Z</time></trkpt><trkpt lat="42.3314823" lon="13.4053043"><ele>656.75</ele><time>2026-04-26T17:31:53.858Z</time></trkpt><trkpt lat="42.33151" lon="13.405109"><ele>656.5</ele><time>2026-04-26T17:31:54.859Z</time></trkpt><trkpt lat="42.3315355" lon="13.4049164"><ele>656.25</ele><time>2026-04-26T17:31:55.859Z</time></trkpt><trkpt lat="42.3315631" lon="13.4047285"><ele>656.0</ele><time>2026-04-26T17:31:56.858Z</time></trkpt><trkpt lat="42.3315901" lon="13.404546"><ele>656.5</ele><time>2026-04-26T17:31:57.858Z</time></trkpt><trkpt lat="42.3316176" lon="13.404366"><ele>657.0</ele><time>2026-04-26T17:31:58.86Z</time></trkpt><trkpt lat="42.3316492" lon="13.4041899"><ele>657.5</ele><time>2026-04-26T17:31:59.859Z</time></trkpt><trkpt lat="42.3316783" lon="13.4040201"><ele>658.0</ele><time>2026-04-26T17:32:00.859Z</time></trkpt><trkpt lat="42.3317045" lon="13.4038633"><ele>657.75</ele><time>2026-04-26T17:32:01.859Z</time></trkpt><trkpt lat="42.3317315" lon="13.403709"><ele>657.5</ele><time>2026-04-26T17:32:02.859Z</time></trkpt><trkpt lat="42.331759" lon="13.4035602"><ele>657.25</ele><time>2026-04-26T17:32:03.86Z</time></trkpt><trkpt lat="42.3317833" lon="13.403408"><ele>657.0</ele><time>2026-04-26T17:32:04.859Z</time></trkpt><trkpt lat="42.331806" lon="13.4032708"><ele>657.0</ele><time>2026-04-26T17:32:05.859Z</time></trkpt><trkpt lat="42.3318299" lon="13.4031428"><ele>657.0</ele><time>2026-04-26T17:32:06.859Z</time></trkpt><trkpt lat="42.3318592" lon="13.4030233"><ele>657.0</ele><time>2026-04-26T17:32:07.859Z</time></trkpt><trkpt lat="42.3318987" lon="13.4029059"><ele>657.0</ele><time>2026-04-26T17:32:08.858Z</time></trkpt><trkpt lat="42.331954" lon="13.4027955"><ele>657.0</ele><time>2026-04-26T17:32:09.859Z</time></trkpt><trkpt lat="42.3320308" lon="13.4026907"><ele>657.25</ele><time>2026-04-26T17:32:10.859Z</time></trkpt><trkpt lat="42.3321108" lon="13.4025774"><ele>657.5</ele><time>2026-04-26T17:32:11.858Z</time></trkpt><trkpt lat="42.3321836" lon="13.4024444"><ele>657.75</ele><time>2026-04-26T17:32:12.858Z</time></trkpt><trkpt lat="42.3322549" lon="13.4022968"><ele>658.0</ele><time>2026-04-26T17:32:13.859Z</time></trkpt><trkpt lat="42.3323334" lon="13.4021551"><ele>660.0</ele><time>2026-04-26T17:32:14.859Z</time></trkpt><trkpt lat="42.3324114" lon="13.4020108"><ele>662.0</ele><time>2026-04-26T17:32:15.858Z</time></trkpt><trkpt lat="42.3324941" lon="13.4018679"><ele>664.0</ele><time>2026-04-26T17:32:16.858Z</time></trkpt><trkpt lat="42.3325767" lon="13.4017212"><ele>666.0</ele><time>2026-04-26T17:32:17.859Z</time></trkpt><trkpt lat="42.3326594" lon="13.4015607"><ele>666.0</ele><time>2026-04-26T17:32:18.859Z</time></trkpt><trkpt lat="42.3327449" lon="13.401391"><ele>666.0</ele><time>2026-04-26T17:32:19.858Z</time></trkpt><trkpt lat="42.3328396" lon="13.4012234"><ele>666.0</ele><time>2026-04-26T17:32:20.858Z</time></trkpt><trkpt lat="42.3329412" lon="13.4010525"><ele>667.6666666666666</ele><time>2026-04-26T17:32:21.859Z</time></trkpt><trkpt lat="42.3330515" lon="13.4008789"><ele>669.3333333333333</ele><time>2026-04-26T17:32:22.859Z</time></trkpt><trkpt lat="42.3331668" lon="13.4007028"><ele>671.0</ele><time>2026-04-26T17:32:23.859Z</time></trkpt><trkpt lat="42.3332992" lon="13.4005339"><ele>677.0</ele><time>2026-04-26T17:32:24.858Z</time></trkpt><trkpt lat="42.3334396" lon="13.4003622"><ele>683.0</ele><time>2026-04-26T17:32:25.858Z</time></trkpt><trkpt lat="42.3335838" lon="13.4001926"><ele>689.0</ele><time>2026-04-26T17:32:26.859Z</time></trkpt><trkpt lat="42.3337292" lon="13.400026"><ele>689.0</ele><time>2026-04-26T17:32:27.86Z</time></trkpt><trkpt lat="42.3338816" lon="13.3998531"><ele>689.0</ele><time>2026-04-26T17:32:28.858Z</time></trkpt><trkpt lat="42.334034" lon="13.399681"><ele>689.0</ele><time>2026-04-26T17:32:29.859Z</time></trkpt><trkpt lat="42.3341862" lon="13.399505"><ele>686.6666666666666</ele><time>2026-04-26T17:32:30.859Z</time></trkpt><trkpt lat="42.3343428" lon="13.399323"><ele>684.3333333333334</ele><time>2026-04-26T17:32:31.859Z</time></trkpt><trkpt lat="42.3344989" lon="13.3991436"><ele>682.0</ele><time>2026-04-26T17:32:32.859Z</time></trkpt><trkpt lat="42.3346573" lon="13.3989689"><ele>680.3333333333334</ele><time>2026-04-26T17:32:33.86Z</time></trkpt><trkpt lat="42.334812" lon="13.3987929"><ele>678.6666666666666</ele><time>2026-04-26T17:32:34.859Z</time></trkpt><trkpt lat="42.3349629" lon="13.3986245"><ele>677.0</ele><time>2026-04-26T17:32:35.859Z</time></trkpt><trkpt lat="42.3351016" lon="13.398462"><ele>677.0</ele><time>2026-04-26T17:32:36.858Z</time></trkpt><trkpt lat="42.3352333" lon="13.3982859"><ele>677.0</ele><time>2026-04-26T17:32:37.859Z</time></trkpt><trkpt lat="42.3353596" lon="13.3980981"><ele>677.0</ele><time>2026-04-26T17:32:38.858Z</time></trkpt><trkpt lat="42.3354822" lon="13.3978908"><ele>675.3333333333333</ele><time>2026-04-26T17:32:39.859Z</time></trkpt><trkpt lat="42.3356006" lon="13.3976658"><ele>673.6666666666666</ele><time>2026-04-26T17:32:40.859Z</time></trkpt><trkpt lat="42.3357102" lon="13.3974318"><ele>672.0</ele><time>2026-04-26T17:32:41.858Z</time></trkpt><trkpt lat="42.3358049" lon="13.3971804"><ele>671.6666666666666</ele><time>2026-04-26T17:32:42.858Z</time></trkpt><trkpt lat="42.335882" lon="13.3969182"><ele>671.3333333333333</ele><time>2026-04-26T17:32:43.858Z</time></trkpt><trkpt lat="42.3359424" lon="13.3966464"><ele>671.0</ele><time>2026-04-26T17:32:44.858Z</time></trkpt><trkpt lat="42.3359847" lon="13.3963681"><ele>669.6666666666666</ele><time>2026-04-26T17:32:45.86Z</time></trkpt><trkpt lat="42.3360096" lon="13.3960822"><ele>668.3333333333334</ele><time>2026-04-26T17:32:46.859Z</time></trkpt><trkpt lat="42.3360184" lon="13.3957999"><ele>667.0</ele><time>2026-04-26T17:32:47.858Z</time></trkpt><trkpt lat="42.3360218" lon="13.3955287"><ele>665.0</ele><time>2026-04-26T17:32:48.859Z</time></trkpt><trkpt lat="42.336025" lon="13.3952568"><ele>663.0</ele><time>2026-04-26T17:32:49.859Z</time></trkpt><trkpt lat="42.3360417" lon="13.3949827"><ele>661.0</ele><time>2026-04-26T17:32:50.858Z</time></trkpt><trkpt lat="42.3360703" lon="13.3947101"><ele>661.3333333333334</ele><time>2026-04-26T17:32:51.859Z</time></trkpt><trkpt lat="42.336117" lon="13.3944393"><ele>661.6666666666666</ele><time>2026-04-26T17:32:52.859Z</time></trkpt><trkpt lat="42.3361743" lon="13.3941691"><ele>662.0</ele><time>2026-04-26T17:32:53.858Z</time></trkpt><trkpt lat="42.3362503" lon="13.3939124"><ele>663.3333333333333</ele><time>2026-04-26T17:32:54.858Z</time></trkpt><trkpt lat="42.3363382" lon="13.3936716"><ele>664.6666666666666</ele><time>2026-04-26T17:32:55.859Z</time></trkpt><trkpt lat="42.3364362" lon="13.3934451"><ele>666.0</ele><time>2026-04-26T17:32:56.859Z</time></trkpt><trkpt lat="42.3365355" lon="13.3932307"><ele>660.3333333333334</ele><time>2026-04-26T17:32:57.859Z</time></trkpt><trkpt lat="42.3366307" lon="13.3930296"><ele>654.6666666666667</ele><time>2026-04-26T17:32:58.86Z</time></trkpt><trkpt lat="42.3367263" lon="13.3928365"><ele>649.0</ele><time>2026-04-26T17:32:59.859Z</time></trkpt><trkpt lat="42.3368149" lon="13.3926516"><ele>649.0</ele><time>2026-04-26T17:33:00.859Z</time></trkpt><trkpt lat="42.3368892" lon="13.3924746"><ele>649.0</ele><time>2026-04-26T17:33:01.859Z</time></trkpt><trkpt lat="42.3369493" lon="13.3923114"><ele>649.0</ele><time>2026-04-26T17:33:02.858Z</time></trkpt><trkpt lat="42.3370132" lon="13.3921655"><ele>649.0</ele><time>2026-04-26T17:33:03.859Z</time></trkpt><trkpt lat="42.3371006" lon="13.3920327"><ele>651.6666666666667</ele><time>2026-04-26T17:33:04.859Z</time></trkpt><trkpt lat="42.3372058" lon="13.3919112"><ele>654.3333333333334</ele><time>2026-04-26T17:33:05.859Z</time></trkpt><trkpt lat="42.3373242" lon="13.3917777"><ele>657.0</ele><time>2026-04-26T17:33:06.859Z</time></trkpt><trkpt lat="42.3374559" lon="13.3916494"><ele>653.3333333333334</ele><time>2026-04-26T17:33:07.858Z</time></trkpt><trkpt lat="42.3375965" lon="13.3915172"><ele>649.6666666666667</ele><time>2026-04-26T17:33:08.859Z</time></trkpt><trkpt lat="42.3377452" lon="13.3913732"><ele>646.0</ele><time>2026-04-26T17:33:09.859Z</time></trkpt><trkpt lat="42.3379053" lon="13.391228"><ele>642.3333333333334</ele><time>2026-04-26T17:33:10.859Z</time></trkpt><trkpt lat="42.3380742" lon="13.3910836"><ele>638.6666666666666</ele><time>2026-04-26T17:33:11.859Z</time></trkpt><trkpt lat="42.3382506" lon="13.3909436"><ele>635.0</ele><time>2026-04-26T17:33:12.86Z</time></trkpt><trkpt lat="42.3384348" lon="13.3908139"><ele>635.0</ele><time>2026-04-26T17:33:13.86Z</time></trkpt><trkpt lat="42.3386263" lon="13.3906976"><ele>635.0</ele><time>2026-04-26T17:33:14.859Z</time></trkpt><trkpt lat="42.3388286" lon="13.3906002"><ele>635.0</ele><time>2026-04-26T17:33:15.858Z</time></trkpt><trkpt lat="42.3390386" lon="13.3905203"><ele>640.5</ele><time>2026-04-26T17:33:16.859Z</time></trkpt><trkpt lat="42.3392556" lon="13.3904547"><ele>646.0</ele><time>2026-04-26T17:33:17.859Z</time></trkpt><trkpt lat="42.3394796" lon="13.3903951"><ele>646.0</ele><time>2026-04-26T17:33:18.859Z</time></trkpt><trkpt lat="42.339711" lon="13.39034"><ele>646.0</ele><time>2026-04-26T17:33:19.859Z</time></trkpt><trkpt lat="42.3399466" lon="13.3902913"><ele>642.5</ele><time>2026-04-26T17:33:20.858Z</time></trkpt><trkpt lat="42.3401878" lon="13.3902382"><ele>639.0</ele><time>2026-04-26T17:33:21.858Z</time></trkpt><trkpt lat="42.3404266" lon="13.3901816"><ele>636.0</ele><time>2026-04-26T17:33:22.858Z</time></trkpt><trkpt lat="42.3406553" lon="13.3901248"><ele>633.0</ele><time>2026-04-26T17:33:23.858Z</time></trkpt><trkpt lat="42.3408808" lon="13.3900703"><ele>633.0</ele><time>2026-04-26T17:33:24.859Z</time></trkpt><trkpt lat="42.3411038" lon="13.3900183"><ele>633.0</ele><time>2026-04-26T17:33:25.858Z</time></trkpt><trkpt lat="42.3413222" lon="13.3899701"><ele>633.0</ele><time>2026-04-26T17:33:26.86Z</time></trkpt><trkpt lat="42.3415415" lon="13.3899227"><ele>630.6666666666666</ele><time>2026-04-26T17:33:27.858Z</time></trkpt><trkpt lat="42.3417568" lon="13.3898724"><ele>628.3333333333333</ele><time>2026-04-26T17:33:28.859Z</time></trkpt><trkpt lat="42.3419702" lon="13.3898204"><ele>626.0</ele><time>2026-04-26T17:33:29.859Z</time></trkpt><trkpt lat="42.3421771" lon="13.3897691"><ele>625.0</ele><time>2026-04-26T17:33:30.859Z</time></trkpt><trkpt lat="42.3423742" lon="13.3897219"><ele>624.0</ele><time>2026-04-26T17:33:31.859Z</time></trkpt><trkpt lat="42.34256" lon="13.38968"><ele>623.0</ele><time>2026-04-26T17:33:32.86Z</time></trkpt><trkpt lat="42.3427409" lon="13.3896491"><ele>627.3333333333333</ele><time>2026-04-26T17:33:33.86Z</time></trkpt><trkpt lat="42.3429198" lon="13.3896311"><ele>631.6666666666666</ele><time>2026-04-26T17:33:34.858Z</time></trkpt><trkpt lat="42.3430928" lon="13.3896159"><ele>636.0</ele><time>2026-04-26T17:33:35.859Z</time></trkpt><trkpt lat="42.3432636" lon="13.3896028"><ele>636.0</ele><time>2026-04-26T17:33:36.859Z</time></trkpt><trkpt lat="42.3434306" lon="13.3895849"><ele>636.0</ele><time>2026-04-26T17:33:37.86Z</time></trkpt><trkpt lat="42.3435954" lon="13.3895657"><ele>636.0</ele><time>2026-04-26T17:33:38.858Z</time></trkpt><trkpt lat="42.343765" lon="13.3895348"><ele>634.6666666666666</ele><time>2026-04-26T17:33:39.859Z</time></trkpt><trkpt lat="42.3439479" lon="13.3894855"><ele>633.3333333333333</ele><time>2026-04-26T17:33:40.858Z</time></trkpt><trkpt lat="42.3441333" lon="13.3894288"><ele>632.0</ele><time>2026-04-26T17:33:41.858Z</time></trkpt><trkpt lat="42.3443249" lon="13.3893603"><ele>632.0</ele><time>2026-04-26T17:33:42.859Z</time></trkpt><trkpt lat="42.3445202" lon="13.3892934"><ele>632.0</ele><time>2026-04-26T17:33:43.859Z</time></trkpt><trkpt lat="42.344712" lon="13.3892268"><ele>632.0</ele><time>2026-04-26T17:33:44.859Z</time></trkpt><trkpt lat="42.3449088" lon="13.3891538"><ele>631.0</ele><time>2026-04-26T17:33:45.859Z</time></trkpt><trkpt lat="42.3451043" lon="13.3890835"><ele>630.0</ele><time>2026-04-26T17:33:46.859Z</time></trkpt><trkpt lat="42.3452963" lon="13.3890263"><ele>629.0</ele><time>2026-04-26T17:33:47.86Z</time></trkpt><trkpt lat="42.3454855" lon="13.3889756"><ele>627.0</ele><time>2026-04-26T17:33:48.859Z</time></trkpt><trkpt lat="42.3456671" lon="13.3889394"><ele>625.0</ele><time>2026-04-26T17:33:49.86Z</time></trkpt><trkpt lat="42.3458451" lon="13.3889077"><ele>623.0</ele><time>2026-04-26T17:33:50.859Z</time></trkpt><trkpt lat="42.3460171" lon="13.3888851"><ele>623.0</ele><time>2026-04-26T17:33:51.858Z</time></trkpt><trkpt lat="42.3461802" lon="13.3888718"><ele>623.0</ele><time>2026-04-26T17:33:52.859Z</time></trkpt><trkpt lat="42.3463356" lon="13.3888754"><ele>623.0</ele><time>2026-04-26T17:33:53.859Z</time></trkpt><trkpt lat="42.346472" lon="13.3888935"><ele>623.0</ele><time>2026-04-26T17:33:54.859Z</time></trkpt><trkpt lat="42.3465899" lon="13.3889289"><ele>623.0</ele><time>2026-04-26T17:33:55.859Z</time></trkpt><trkpt lat="42.3466857" lon="13.3889749"><ele>623.0</ele><time>2026-04-26T17:33:56.858Z</time></trkpt><trkpt lat="42.3467693" lon="13.3890521"><ele>623.0</ele><time>2026-04-26T17:33:57.858Z</time></trkpt><trkpt lat="42.3468331" lon="13.3891675"><ele>623.0</ele><time>2026-04-26T17:33:58.858Z</time></trkpt><trkpt lat="42.3468732" lon="13.3893105"><ele>623.0</ele><time>2026-04-26T17:33:59.859Z</time></trkpt><trkpt lat="42.3469076" lon="13.3894792"><ele>623.0</ele><time>2026-04-26T17:34:00.859Z</time></trkpt><trkpt lat="42.3469367" lon="13.3896705"><ele>623.0</ele><time>2026-04-26T17:34:01.858Z</time></trkpt><trkpt lat="42.3469571" lon="13.3898483"><ele>623.0</ele><time>2026-04-26T17:34:02.858Z</time></trkpt><trkpt lat="42.3469743" lon="13.3900067"><ele>622.6</ele><time>2026-04-26T17:34:03.858Z</time></trkpt><trkpt lat="42.3469921" lon="13.3901471"><ele>622.1999999999999</ele><time>2026-04-26T17:34:04.859Z</time></trkpt><trkpt lat="42.3470107" lon="13.3902636"><ele>621.8</ele><time>2026-04-26T17:34:05.859Z</time></trkpt><trkpt lat="42.3470303" lon="13.3903459"><ele>621.4</ele><time>2026-04-26T17:34:06.86Z</time></trkpt><trkpt lat="42.3470712" lon="13.3904721"><ele>621.0</ele><time>2026-04-26T17:34:08.859Z</time></trkpt><trkpt lat="42.3471432" lon="13.3905738"><ele>621.6</ele><time>2026-04-26T17:34:10.859Z</time></trkpt><trkpt lat="42.3472063" lon="13.3905817"><ele>622.2</ele><time>2026-04-26T17:34:11.858Z</time></trkpt><trkpt lat="42.3472806" lon="13.3905768"><ele>622.8</ele><time>2026-04-26T17:34:12.858Z</time></trkpt><trkpt lat="42.3473669" lon="13.3905554"><ele>623.4</ele><time>2026-04-26T17:34:13.858Z</time></trkpt><trkpt lat="42.3474773" lon="13.39052"><ele>624.0</ele><time>2026-04-26T17:34:14.859Z</time></trkpt><trkpt lat="42.3476059" lon="13.3904766"><ele>624.0</ele><time>2026-04-26T17:34:15.859Z</time></trkpt><trkpt lat="42.3477458" lon="13.3904285"><ele>624.0</ele><time>2026-04-26T17:34:16.859Z</time></trkpt><trkpt lat="42.3478931" lon="13.3903686"><ele>624.0</ele><time>2026-04-26T17:34:17.859Z</time></trkpt><trkpt lat="42.3480434" lon="13.3902941"><ele>625.3333333333334</ele><time>2026-04-26T17:34:18.858Z</time></trkpt><trkpt lat="42.3481951" lon="13.3902066"><ele>626.6666666666667</ele><time>2026-04-26T17:34:19.859Z</time></trkpt><trkpt lat="42.3483363" lon="13.3901209"><ele>628.0</ele><time>2026-04-26T17:34:20.859Z</time></trkpt><trkpt lat="42.3484705" lon="13.3900473"><ele>628.0</ele><time>2026-04-26T17:34:21.858Z</time></trkpt><trkpt lat="42.348603" lon="13.3899714"><ele>628.0</ele><time>2026-04-26T17:34:22.859Z</time></trkpt><trkpt lat="42.3487201" lon="13.3898763"><ele>628.0</ele><time>2026-04-26T17:34:23.859Z</time></trkpt><trkpt lat="42.3488231" lon="13.389782"><ele>628.0</ele><time>2026-04-26T17:34:24.858Z</time></trkpt><trkpt lat="42.3489225" lon="13.3897004"><ele>627.4</ele><time>2026-04-26T17:34:25.859Z</time></trkpt><trkpt lat="42.3490206" lon="13.3896213"><ele>626.8</ele><time>2026-04-26T17:34:26.859Z</time></trkpt><trkpt lat="42.3491141" lon="13.3895593"><ele>626.2</ele><time>2026-04-26T17:34:27.858Z</time></trkpt><trkpt lat="42.349188" lon="13.3895165"><ele>625.6</ele><time>2026-04-26T17:34:28.858Z</time></trkpt><trkpt lat="42.3493094" lon="13.3894675"><ele>625.0</ele><time>2026-04-26T17:34:30.859Z</time></trkpt><trkpt lat="42.3493776" lon="13.3894885"><ele>625.0</ele><time>2026-04-26T17:34:31.859Z</time></trkpt><trkpt lat="42.3494418" lon="13.3894795"><ele>625.0</ele><time>2026-04-26T17:34:32.859Z</time></trkpt><trkpt lat="42.349558" lon="13.3894029"><ele>625.0</ele><time>2026-04-26T17:34:34.858Z</time></trkpt><trkpt lat="42.3496161" lon="13.3893439"><ele>625.0</ele><time>2026-04-26T17:34:35.859Z</time></trkpt><trkpt lat="42.3496695" lon="13.3892834"><ele>625.0</ele><time>2026-04-26T17:34:36.859Z</time></trkpt><trkpt lat="42.3497218" lon="13.3892146"><ele>625.0</ele><time>2026-04-26T17:34:37.858Z</time></trkpt><trkpt lat="42.3497795" lon="13.3891444"><ele>624.6</ele><time>2026-04-26T17:34:38.859Z</time></trkpt><trkpt lat="42.3498429" lon="13.3890643"><ele>624.2</ele><time>2026-04-26T17:34:39.86Z</time></trkpt><trkpt lat="42.349911" lon="13.3889787"><ele>623.8</ele><time>2026-04-26T17:34:40.859Z</time></trkpt><trkpt lat="42.3499815" lon="13.3888969"><ele>623.4</ele><time>2026-04-26T17:34:41.859Z</time></trkpt><trkpt lat="42.3500504" lon="13.3888115"><ele>623.0</ele><time>2026-04-26T17:34:42.859Z</time></trkpt><trkpt lat="42.3501244" lon="13.3887177"><ele>623.0</ele><time>2026-04-26T17:34:43.858Z</time></trkpt><trkpt lat="42.3502056" lon="13.3886196"><ele>623.0</ele><time>2026-04-26T17:34:44.859Z</time></trkpt><trkpt lat="42.3502895" lon="13.3885184"><ele>623.0</ele><time>2026-04-26T17:34:45.859Z</time></trkpt><trkpt lat="42.3503694" lon="13.3884175"><ele>623.0</ele><time>2026-04-26T17:34:46.859Z</time></trkpt><trkpt lat="42.3504486" lon="13.3883197"><ele>623.0</ele><time>2026-04-26T17:34:47.859Z</time></trkpt><trkpt lat="42.3505198" lon="13.3882161"><ele>623.75</ele><time>2026-04-26T17:34:48.859Z</time></trkpt><trkpt lat="42.3505841" lon="13.3880921"><ele>624.5</ele><time>2026-04-26T17:34:49.859Z</time></trkpt><trkpt lat="42.3506412" lon="13.3879513"><ele>625.25</ele><time>2026-04-26T17:34:50.859Z</time></trkpt><trkpt lat="42.3506956" lon="13.3877772"><ele>626.0</ele><time>2026-04-26T17:34:51.859Z</time></trkpt><trkpt lat="42.3507628" lon="13.3875898"><ele>626.0</ele><time>2026-04-26T17:34:52.859Z</time></trkpt><trkpt lat="42.3508351" lon="13.3874025"><ele>626.0</ele><time>2026-04-26T17:34:53.859Z</time></trkpt><trkpt lat="42.3509103" lon="13.3872141"><ele>626.0</ele><time>2026-04-26T17:34:54.858Z</time></trkpt><trkpt lat="42.3509913" lon="13.3870185"><ele>624.6666666666666</ele><time>2026-04-26T17:34:55.86Z</time></trkpt><trkpt lat="42.3510721" lon="13.386819"><ele>623.3333333333334</ele><time>2026-04-26T17:34:56.859Z</time></trkpt><trkpt lat="42.3511499" lon="13.386622"><ele>622.0</ele><time>2026-04-26T17:34:57.858Z</time></trkpt><trkpt lat="42.351225" lon="13.3864449"><ele>621.75</ele><time>2026-04-26T17:34:58.859Z</time></trkpt><trkpt lat="42.3512975" lon="13.3862787"><ele>621.5</ele><time>2026-04-26T17:34:59.859Z</time></trkpt><trkpt lat="42.3513592" lon="13.3861078"><ele>621.25</ele><time>2026-04-26T17:35:00.859Z</time></trkpt><trkpt lat="42.3514107" lon="13.3859474"><ele>621.0</ele><time>2026-04-26T17:35:01.859Z</time></trkpt><trkpt lat="42.3514642" lon="13.3857989"><ele>621.6</ele><time>2026-04-26T17:35:02.86Z</time></trkpt><trkpt lat="42.3515191" lon="13.385665"><ele>622.2</ele><time>2026-04-26T17:35:03.859Z</time></trkpt><trkpt lat="42.3515615" lon="13.3855343"><ele>622.8</ele><time>2026-04-26T17:35:04.859Z</time></trkpt><trkpt lat="42.3515984" lon="13.3854182"><ele>623.4</ele><time>2026-04-26T17:35:05.858Z</time></trkpt><trkpt lat="42.3516304" lon="13.3853065"><ele>624.0</ele><time>2026-04-26T17:35:06.859Z</time></trkpt><trkpt lat="42.3516747" lon="13.3851953"><ele>624.0</ele><time>2026-04-26T17:35:07.859Z</time></trkpt><trkpt lat="42.3517381" lon="13.385101"><ele>624.0</ele><time>2026-04-26T17:35:08.859Z</time></trkpt><trkpt lat="42.3518221" lon="13.3850394"><ele>624.0</ele><time>2026-04-26T17:35:09.858Z</time></trkpt><trkpt lat="42.3519173" lon="13.3849994"><ele>624.0</ele><time>2026-04-26T17:35:10.86Z</time></trkpt><trkpt lat="42.3520264" lon="13.3849587"><ele>624.0</ele><time>2026-04-26T17:35:11.858Z</time></trkpt><trkpt lat="42.3521478" lon="13.3849244"><ele>626.0</ele><time>2026-04-26T17:35:12.858Z</time></trkpt><trkpt lat="42.3522864" lon="13.3848947"><ele>628.0</ele><time>2026-04-26T17:35:13.859Z</time></trkpt><trkpt lat="42.352441" lon="13.3848665"><ele>630.0</ele><time>2026-04-26T17:35:14.858Z</time></trkpt><trkpt lat="42.3526055" lon="13.3848495"><ele>630.0</ele><time>2026-04-26T17:35:15.859Z</time></trkpt><trkpt lat="42.3527763" lon="13.384851"><ele>630.0</ele><time>2026-04-26T17:35:16.859Z</time></trkpt><trkpt lat="42.3529506" lon="13.3848802"><ele>630.0</ele><time>2026-04-26T17:35:17.859Z</time></trkpt><trkpt lat="42.3531164" lon="13.3849422"><ele>631.0</ele><time>2026-04-26T17:35:18.858Z</time></trkpt><trkpt lat="42.3532697" lon="13.3850367"><ele>632.0</ele><time>2026-04-26T17:35:19.859Z</time></trkpt><trkpt lat="42.3534075" lon="13.3851636"><ele>633.0</ele><time>2026-04-26T17:35:20.86Z</time></trkpt><trkpt lat="42.3535348" lon="13.3853283"><ele>633.0</ele><time>2026-04-26T17:35:21.859Z</time></trkpt><trkpt lat="42.3536596" lon="13.3855087"><ele>633.0</ele><time>2026-04-26T17:35:22.859Z</time></trkpt><trkpt lat="42.3537852" lon="13.3857013"><ele>633.0</ele><time>2026-04-26T17:35:23.86Z</time></trkpt><trkpt lat="42.3539093" lon="13.3858921"><ele>634.3333333333334</ele><time>2026-04-26T17:35:24.859Z</time></trkpt><trkpt lat="42.3540367" lon="13.3860821"><ele>635.6666666666667</ele><time>2026-04-26T17:35:25.858Z</time></trkpt><trkpt lat="42.3541618" lon="13.3862724"><ele>637.0</ele><time>2026-04-26T17:35:26.858Z</time></trkpt><trkpt lat="42.3542848" lon="13.3864654"><ele>639.0</ele><time>2026-04-26T17:35:27.859Z</time></trkpt><trkpt lat="42.3544113" lon="13.3866589"><ele>641.0</ele><time>2026-04-26T17:35:28.858Z</time></trkpt><trkpt lat="42.3545338" lon="13.3868477"><ele>643.0</ele><time>2026-04-26T17:35:29.858Z</time></trkpt><trkpt lat="42.3546506" lon="13.3870234"><ele>643.6666666666667</ele><time>2026-04-26T17:35:30.859Z</time></trkpt><trkpt lat="42.3547634" lon="13.387196"><ele>644.3333333333334</ele><time>2026-04-26T17:35:31.858Z</time></trkpt><trkpt lat="42.3548729" lon="13.3873665"><ele>645.0</ele><time>2026-04-26T17:35:32.858Z</time></trkpt><trkpt lat="42.3549818" lon="13.3875338"><ele>645.0</ele><time>2026-04-26T17:35:33.859Z</time></trkpt><trkpt lat="42.35509" lon="13.3876977"><ele>645.0</ele><time>2026-04-26T17:35:34.86Z</time></trkpt><trkpt lat="42.3551868" lon="13.3878422"><ele>645.0</ele><time>2026-04-26T17:35:35.859Z</time></trkpt><trkpt lat="42.3552766" lon="13.3879885"><ele>645.0</ele><time>2026-04-26T17:35:36.858Z</time></trkpt><trkpt lat="42.3553433" lon="13.3880897"><ele>646.2</ele><time>2026-04-26T17:35:37.859Z</time></trkpt><trkpt lat="42.3553952" lon="13.3881814"><ele>647.4</ele><time>2026-04-26T17:35:38.859Z</time></trkpt><trkpt lat="42.3554346" lon="13.38826"><ele>648.5999999999999</ele><time>2026-04-26T17:35:40.859Z</time></trkpt><trkpt lat="42.3554742" lon="13.3883691"><ele>649.8</ele><time>2026-04-26T17:35:46.859Z</time></trkpt><trkpt lat="42.3555042" lon="13.3885062"><ele>651.0</ele><time>2026-04-26T17:35:48.858Z</time></trkpt><trkpt lat="42.3555726" lon="13.3886178"><ele>651.1666666666666</ele><time>2026-04-26T17:35:50.859Z</time></trkpt><trkpt lat="42.3556955" lon="13.3886357"><ele>651.3333333333334</ele><time>2026-04-26T17:35:52.859Z</time></trkpt><trkpt lat="42.3557533" lon="13.3885829"><ele>651.5</ele><time>2026-04-26T17:35:53.858Z</time></trkpt><trkpt lat="42.3558017" lon="13.3884985"><ele>651.6666666666667</ele><time>2026-04-26T17:35:54.86Z</time></trkpt><trkpt lat="42.3558413" lon="13.388397"><ele>651.8333333333334</ele><time>2026-04-26T17:35:55.858Z</time></trkpt><trkpt lat="42.3558853" lon="13.3882947"><ele>652.0</ele><time>2026-04-26T17:35:56.859Z</time></trkpt><trkpt lat="42.3559358" lon="13.3881945"><ele>652.0</ele><time>2026-04-26T17:35:57.859Z</time></trkpt><trkpt lat="42.355995" lon="13.3880843"><ele>652.0</ele><time>2026-04-26T17:35:58.858Z</time></trkpt><trkpt lat="42.3560592" lon="13.3879675"><ele>652.0</ele><time>2026-04-26T17:35:59.859Z</time></trkpt><trkpt lat="42.3561265" lon="13.3878448"><ele>652.0</ele><time>2026-04-26T17:36:00.859Z</time></trkpt><trkpt lat="42.3562001" lon="13.3877063"><ele>652.0</ele><time>2026-04-26T17:36:01.859Z</time></trkpt><trkpt lat="42.3562869" lon="13.3875455"><ele>651.6666666666667</ele><time>2026-04-26T17:36:02.86Z</time></trkpt><trkpt lat="42.3563776" lon="13.3873801"><ele>651.3333333333334</ele><time>2026-04-26T17:36:03.859Z</time></trkpt><trkpt lat="42.3564723" lon="13.3872151"><ele>651.0</ele><time>2026-04-26T17:36:04.86Z</time></trkpt><trkpt lat="42.356565" lon="13.3870551"><ele>650.25</ele><time>2026-04-26T17:36:05.858Z</time></trkpt><trkpt lat="42.3566537" lon="13.3869051"><ele>649.5</ele><time>2026-04-26T17:36:06.858Z</time></trkpt><trkpt lat="42.3567436" lon="13.3867597"><ele>648.75</ele><time>2026-04-26T17:36:07.858Z</time></trkpt><trkpt lat="42.3568287" lon="13.3866263"><ele>648.0</ele><time>2026-04-26T17:36:08.859Z</time></trkpt><trkpt lat="42.3569069" lon="13.3865053"><ele>648.0</ele><time>2026-04-26T17:36:09.86Z</time></trkpt><trkpt lat="42.3569887" lon="13.3863863"><ele>648.0</ele><time>2026-04-26T17:36:10.858Z</time></trkpt><trkpt lat="42.3570742" lon="13.3862686"><ele>648.0</ele><time>2026-04-26T17:36:11.859Z</time></trkpt><trkpt lat="42.3571638" lon="13.3861593"><ele>648.0</ele><time>2026-04-26T17:36:12.86Z</time></trkpt><trkpt lat="42.3572558" lon="13.3860594"><ele>648.2</ele><time>2026-04-26T17:36:13.859Z</time></trkpt><trkpt lat="42.3573444" lon="13.3859767"><ele>648.4</ele><time>2026-04-26T17:36:14.859Z</time></trkpt><trkpt lat="42.357427" lon="13.3859229"><ele>648.6</ele><time>2026-04-26T17:36:15.859Z</time></trkpt><trkpt lat="42.35749" lon="13.3858886"><ele>648.8000000000001</ele><time>2026-04-26T17:36:16.858Z</time></trkpt><trkpt lat="42.3576093" lon="13.3858393"><ele>649.0</ele><time>2026-04-26T17:36:18.858Z</time></trkpt><trkpt lat="42.3577304" lon="13.3858384"><ele>649.0</ele><time>2026-04-26T17:36:20.859Z</time></trkpt><trkpt lat="42.3578649" lon="13.3858786"><ele>649.0</ele><time>2026-04-26T17:36:22.859Z</time></trkpt><trkpt lat="42.3579338" lon="13.3859345"><ele>649.0</ele><time>2026-04-26T17:36:23.86Z</time></trkpt><trkpt lat="42.3579957" lon="13.386002"><ele>649.0</ele><time>2026-04-26T17:36:24.859Z</time></trkpt><trkpt lat="42.3580584" lon="13.3860796"><ele>649.0</ele><time>2026-04-26T17:36:25.858Z</time></trkpt><trkpt lat="42.3581264" lon="13.3861612"><ele>649.2</ele><time>2026-04-26T17:36:26.86Z</time></trkpt><trkpt lat="42.3582043" lon="13.386252"><ele>649.4000000000001</ele><time>2026-04-26T17:36:27.858Z</time></trkpt><trkpt lat="42.3582908" lon="13.3863276"><ele>649.6</ele><time>2026-04-26T17:36:28.858Z</time></trkpt><trkpt lat="42.3583894" lon="13.3863828"><ele>649.8</ele><time>2026-04-26T17:36:29.858Z</time></trkpt><trkpt lat="42.3584973" lon="13.386416"><ele>650.0</ele><time>2026-04-26T17:36:30.859Z</time></trkpt><trkpt lat="42.3586157" lon="13.3864333"><ele>650.5</ele><time>2026-04-26T17:36:31.859Z</time></trkpt><trkpt lat="42.3587455" lon="13.3864391"><ele>651.0</ele><time>2026-04-26T17:36:32.859Z</time></trkpt><trkpt lat="42.3588884" lon="13.3864497"><ele>651.5</ele><time>2026-04-26T17:36:33.86Z</time></trkpt><trkpt lat="42.3590439" lon="13.3864734"><ele>652.0</ele><time>2026-04-26T17:36:34.859Z</time></trkpt><trkpt lat="42.3591962" lon="13.38651"><ele>652.3333333333334</ele><time>2026-04-26T17:36:35.859Z</time></trkpt><trkpt lat="42.3593489" lon="13.3865526"><ele>652.6666666666666</ele><time>2026-04-26T17:36:36.858Z</time></trkpt><trkpt lat="42.3595063" lon="13.3865899"><ele>653.0</ele><time>2026-04-26T17:36:37.86Z</time></trkpt><trkpt lat="42.3596671" lon="13.3866211"><ele>654.6666666666666</ele><time>2026-04-26T17:36:38.86Z</time></trkpt><trkpt lat="42.3598266" lon="13.38665"><ele>656.3333333333334</ele><time>2026-04-26T17:36:39.859Z</time></trkpt><trkpt lat="42.3599867" lon="13.3866831"><ele>658.0</ele><time>2026-04-26T17:36:40.858Z</time></trkpt><trkpt lat="42.3601485" lon="13.3867135"><ele>658.0</ele><time>2026-04-26T17:36:41.859Z</time></trkpt><trkpt lat="42.3603089" lon="13.3867389"><ele>658.0</ele><time>2026-04-26T17:36:42.859Z</time></trkpt><trkpt lat="42.3604689" lon="13.3867686"><ele>658.0</ele><time>2026-04-26T17:36:43.859Z</time></trkpt><trkpt lat="42.360628" lon="13.3867998"><ele>659.0</ele><time>2026-04-26T17:36:44.859Z</time></trkpt><trkpt lat="42.3607873" lon="13.3868276"><ele>660.0</ele><time>2026-04-26T17:36:45.858Z</time></trkpt><trkpt lat="42.3609494" lon="13.3868482"><ele>661.0</ele><time>2026-04-26T17:36:46.859Z</time></trkpt><trkpt lat="42.3611108" lon="13.3868764"><ele>661.0</ele><time>2026-04-26T17:36:47.86Z</time></trkpt><trkpt lat="42.3612722" lon="13.3869088"><ele>661.0</ele><time>2026-04-26T17:36:48.859Z</time></trkpt><trkpt lat="42.3614302" lon="13.3869324"><ele>661.0</ele><time>2026-04-26T17:36:49.859Z</time></trkpt><trkpt lat="42.3615898" lon="13.386947"><ele>663.3333333333334</ele><time>2026-04-26T17:36:50.86Z</time></trkpt><trkpt lat="42.3617518" lon="13.386951"><ele>665.6666666666666</ele><time>2026-04-26T17:36:51.858Z</time></trkpt><trkpt lat="42.3619139" lon="13.3869347"><ele>668.0</ele><time>2026-04-26T17:36:52.858Z</time></trkpt><trkpt lat="42.3620791" lon="13.3869147"><ele>668.6666666666666</ele><time>2026-04-26T17:36:53.859Z</time></trkpt><trkpt lat="42.3622429" lon="13.3868987"><ele>669.3333333333334</ele><time>2026-04-26T17:36:54.858Z</time></trkpt><trkpt lat="42.362402" lon="13.3868872"><ele>670.0</ele><time>2026-04-26T17:36:55.859Z</time></trkpt><trkpt lat="42.3625541" lon="13.3868819"><ele>670.0</ele><time>2026-04-26T17:36:56.859Z</time></trkpt><trkpt lat="42.3627013" lon="13.3868884"><ele>670.0</ele><time>2026-04-26T17:36:57.859Z</time></trkpt><trkpt lat="42.3628409" lon="13.3868973"><ele>670.0</ele><time>2026-04-26T17:36:58.858Z</time></trkpt><trkpt lat="42.3629575" lon="13.386903"><ele>670.0</ele><time>2026-04-26T17:36:59.86Z</time></trkpt><trkpt lat="42.3630512" lon="13.3869124"><ele>670.8333333333334</ele><time>2026-04-26T17:37:00.859Z</time></trkpt><trkpt lat="42.3631264" lon="13.3869268"><ele>671.6666666666667</ele><time>2026-04-26T17:37:01.858Z</time></trkpt><trkpt lat="42.3632037" lon="13.3869338"><ele>672.5</ele><time>2026-04-26T17:37:02.86Z</time></trkpt><trkpt lat="42.363294" lon="13.3869324"><ele>673.3333333333334</ele><time>2026-04-26T17:37:03.859Z</time></trkpt><trkpt lat="42.3633866" lon="13.3869361"><ele>674.1666666666666</ele><time>2026-04-26T17:37:04.858Z</time></trkpt><trkpt lat="42.3634849" lon="13.386936"><ele>675.0</ele><time>2026-04-26T17:37:05.86Z</time></trkpt><trkpt lat="42.3635873" lon="13.3869351"><ele>675.0</ele><time>2026-04-26T17:37:06.859Z</time></trkpt><trkpt lat="42.3636927" lon="13.3869445"><ele>675.0</ele><time>2026-04-26T17:37:07.859Z</time></trkpt><trkpt lat="42.3637892" lon="13.3869568"><ele>675.0</ele><time>2026-04-26T17:37:08.859Z</time></trkpt><trkpt lat="42.363876" lon="13.3869691"><ele>675.0</ele><time>2026-04-26T17:37:09.858Z</time></trkpt><trkpt lat="42.3639622" lon="13.3869731"><ele>675.0</ele><time>2026-04-26T17:37:10.859Z</time></trkpt><trkpt lat="42.3640536" lon="13.3869737"><ele>675.3333333333334</ele><time>2026-04-26T17:37:11.858Z</time></trkpt><trkpt lat="42.3641276" lon="13.3869828"><ele>675.6666666666666</ele><time>2026-04-26T17:37:12.858Z</time></trkpt><trkpt lat="42.3641923" lon="13.3869899"><ele>676.0</ele><time>2026-04-26T17:37:13.858Z</time></trkpt><trkpt lat="42.3642831" lon="13.3869989"><ele>676.3333333333333</ele><time>2026-04-26T17:37:15.858Z</time></trkpt><trkpt lat="42.3643578" lon="13.3870201"><ele>676.6666666666666</ele><time>2026-04-26T17:37:57.857Z</time></trkpt><trkpt lat="42.3644521" lon="13.387013"><ele>677.0</ele><time>2026-04-26T17:37:59.857Z</time></trkpt><trkpt lat="42.3645251" lon="13.3870078"><ele>677.0</ele><time>2026-04-26T17:38:00.858Z</time></trkpt><trkpt lat="42.364607" lon="13.3870031"><ele>677.0</ele><time>2026-04-26T17:38:01.858Z</time></trkpt><trkpt lat="42.3646995" lon="13.3870066"><ele>677.0</ele><time>2026-04-26T17:38:02.857Z</time></trkpt><trkpt lat="42.3647856" lon="13.3870152"><ele>677.0</ele><time>2026-04-26T17:38:03.859Z</time></trkpt><trkpt lat="42.364866" lon="13.3870233"><ele>677.0</ele><time>2026-04-26T17:38:04.858Z</time></trkpt><trkpt lat="42.3649458" lon="13.387018"><ele>677.0</ele><time>2026-04-26T17:38:05.858Z</time></trkpt><trkpt lat="42.3650152" lon="13.3870169"><ele>677.8333333333333</ele><time>2026-04-26T17:38:06.857Z</time></trkpt><trkpt lat="42.3651093" lon="13.387023"><ele>678.6666666666666</ele><time>2026-04-26T17:38:08.858Z</time></trkpt><trkpt lat="42.365175" lon="13.3870124"><ele>679.5</ele><time>2026-04-26T17:38:10.858Z</time></trkpt><trkpt lat="42.3652965" lon="13.3870132"><ele>680.3333333333334</ele><time>2026-04-26T17:38:12.858Z</time></trkpt><trkpt lat="42.3653666" lon="13.3870419"><ele>681.1666666666667</ele><time>2026-04-26T17:38:13.858Z</time></trkpt><trkpt lat="42.3654396" lon="13.3870887"><ele>682.0</ele><time>2026-04-26T17:38:14.859Z</time></trkpt><trkpt lat="42.3655174" lon="13.3871351"><ele>682.6666666666667</ele><time>2026-04-26T17:38:15.857Z</time></trkpt><trkpt lat="42.3655981" lon="13.3871812"><ele>683.3333333333334</ele><time>2026-04-26T17:38:16.857Z</time></trkpt><trkpt lat="42.3656775" lon="13.3872241"><ele>684.0</ele><time>2026-04-26T17:38:17.857Z</time></trkpt><trkpt lat="42.3657584" lon="13.3872616"><ele>684.6666666666666</ele><time>2026-04-26T17:38:18.859Z</time></trkpt><trkpt lat="42.3658439" lon="13.3872994"><ele>685.3333333333333</ele><time>2026-04-26T17:38:19.858Z</time></trkpt><trkpt lat="42.3659311" lon="13.387347"><ele>686.0</ele><time>2026-04-26T17:38:20.858Z</time></trkpt><trkpt lat="42.3660231" lon="13.3873894"><ele>686.0</ele><time>2026-04-26T17:38:21.857Z</time></trkpt><trkpt lat="42.3661198" lon="13.3874296"><ele>686.0</ele><time>2026-04-26T17:38:22.859Z</time></trkpt><trkpt lat="42.3662193" lon="13.3874724"><ele>686.0</ele><time>2026-04-26T17:38:23.857Z</time></trkpt><trkpt lat="42.3663164" lon="13.3875264"><ele>686.0</ele><time>2026-04-26T17:38:24.858Z</time></trkpt><trkpt lat="42.3664144" lon="13.3875894"><ele>686.0</ele><time>2026-04-26T17:38:25.857Z</time></trkpt><trkpt lat="42.3665085" lon="13.3876426"><ele>687.5999999999999</ele><time>2026-04-26T17:38:26.858Z</time></trkpt><trkpt lat="42.3665938" lon="13.3876945"><ele>689.2</ele><time>2026-04-26T17:38:27.858Z</time></trkpt><trkpt lat="42.3666752" lon="13.3877424"><ele>690.8</ele><time>2026-04-26T17:38:28.859Z</time></trkpt><trkpt lat="42.366755" lon="13.3877971"><ele>692.4000000000001</ele><time>2026-04-26T17:38:29.858Z</time></trkpt><trkpt lat="42.3668339" lon="13.3878544"><ele>694.0</ele><time>2026-04-26T17:38:30.858Z</time></trkpt><trkpt lat="42.3669175" lon="13.387919"><ele>694.0</ele><time>2026-04-26T17:38:31.858Z</time></trkpt><trkpt lat="42.3669986" lon="13.3879949"><ele>694.0</ele><time>2026-04-26T17:38:32.858Z</time></trkpt><trkpt lat="42.3670813" lon="13.3880724"><ele>694.0</ele><time>2026-04-26T17:38:33.857Z</time></trkpt><trkpt lat="42.3671653" lon="13.3881549"><ele>694.0</ele><time>2026-04-26T17:38:34.858Z</time></trkpt><trkpt lat="42.3672506" lon="13.3882393"><ele>694.0</ele><time>2026-04-26T17:38:35.858Z</time></trkpt><trkpt lat="42.3673374" lon="13.3883233"><ele>696.4000000000001</ele><time>2026-04-26T17:38:36.857Z</time></trkpt><trkpt lat="42.3674285" lon="13.3884054"><ele>698.8</ele><time>2026-04-26T17:38:37.857Z</time></trkpt><trkpt lat="42.3675144" lon="13.3884803"><ele>701.2</ele><time>2026-04-26T17:38:38.857Z</time></trkpt><trkpt lat="42.3676" lon="13.3885542"><ele>703.5999999999999</ele><time>2026-04-26T17:38:39.859Z</time></trkpt><trkpt lat="42.3676788" lon="13.3886229"><ele>706.0</ele><time>2026-04-26T17:38:40.857Z</time></trkpt><trkpt lat="42.3677589" lon="13.3887007"><ele>706.0</ele><time>2026-04-26T17:38:41.857Z</time></trkpt><trkpt lat="42.3678327" lon="13.3887727"><ele>706.0</ele><time>2026-04-26T17:38:42.858Z</time></trkpt><trkpt lat="42.3678972" lon="13.3888369"><ele>706.0</ele><time>2026-04-26T17:38:43.857Z</time></trkpt><trkpt lat="42.3679588" lon="13.3888846"><ele>706.0</ele><time>2026-04-26T17:38:44.858Z</time></trkpt><trkpt lat="42.3680488" lon="13.3889229"><ele>706.0</ele><time>2026-04-26T17:38:46.857Z</time></trkpt><trkpt lat="42.3681087" lon="13.3888484"><ele>706.0</ele><time>2026-04-26T17:38:47.858Z</time></trkpt><trkpt lat="42.3681795" lon="13.3887802"><ele>707.1666666666667</ele><time>2026-04-26T17:38:48.858Z</time></trkpt><trkpt lat="42.3682445" lon="13.38872"><ele>708.3333333333334</ele><time>2026-04-26T17:38:49.857Z</time></trkpt><trkpt lat="42.3683131" lon="13.3886565"><ele>709.5</ele><time>2026-04-26T17:38:50.858Z</time></trkpt><trkpt lat="42.3683814" lon="13.3885881"><ele>710.6666666666666</ele><time>2026-04-26T17:38:51.858Z</time></trkpt><trkpt lat="42.3684437" lon="13.3885147"><ele>711.8333333333333</ele><time>2026-04-26T17:38:52.858Z</time></trkpt><trkpt lat="42.3685101" lon="13.388442"><ele>713.0</ele><time>2026-04-26T17:38:53.858Z</time></trkpt><trkpt lat="42.3685787" lon="13.3883701"><ele>713.0</ele><time>2026-04-26T17:38:54.858Z</time></trkpt><trkpt lat="42.3686436" lon="13.3883048"><ele>713.0</ele><time>2026-04-26T17:38:55.857Z</time></trkpt><trkpt lat="42.3687068" lon="13.3882335"><ele>713.0</ele><time>2026-04-26T17:38:56.857Z</time></trkpt><trkpt lat="42.368773" lon="13.3881685"><ele>713.0</ele><time>2026-04-26T17:38:57.858Z</time></trkpt><trkpt lat="42.3688384" lon="13.3881092"><ele>713.0</ele><time>2026-04-26T17:38:58.858Z</time></trkpt><trkpt lat="42.3689079" lon="13.3880585"><ele>713.0</ele><time>2026-04-26T17:38:59.859Z</time></trkpt><trkpt lat="42.3689738" lon="13.3880055"><ele>715.8333333333333</ele><time>2026-04-26T17:39:00.857Z</time></trkpt><trkpt lat="42.3690429" lon="13.3879549"><ele>718.6666666666666</ele><time>2026-04-26T17:39:01.858Z</time></trkpt><trkpt lat="42.3691138" lon="13.3879115"><ele>721.5</ele><time>2026-04-26T17:39:02.858Z</time></trkpt><trkpt lat="42.3691789" lon="13.3878709"><ele>724.3333333333334</ele><time>2026-04-26T17:39:03.857Z</time></trkpt><trkpt lat="42.3692695" lon="13.3877982"><ele>727.1666666666667</ele><time>2026-04-26T17:39:05.857Z</time></trkpt><trkpt lat="42.3693353" lon="13.3877527"><ele>730.0</ele><time>2026-04-26T17:39:08.858Z</time></trkpt><trkpt lat="42.3693898" lon="13.387807"><ele>730.0</ele><time>2026-04-26T17:39:15.858Z</time></trkpt><trkpt lat="42.3694484" lon="13.3877746"><ele>730.0</ele><time>2026-04-26T17:39:36.857Z</time></trkpt><trkpt lat="42.3695347" lon="13.3877821"><ele>730.0</ele><time>2026-04-26T17:57:22.858Z</time></trkpt><trkpt lat="42.3694712" lon="13.3877745"><ele>730.0</ele><time>2026-04-26T17:58:05.768Z</time></trkpt></trkseg></trk></gpx>